<?xml version="1.0" encoding="UTF-8" standalone="no" ?>
<gpx xmlns="http://www.topografix.com/GPX/1/1" xmlns:xsi="http://www.w3.org/2001/XMLSchema-instance" xsi:schemaLocation="http://www.topografix.com/GPX/1/1 http://www.topografix.com/GPX/1/1/gpx.xsd" version="1.1" creator="VisuGPX - https://www.visugpx.com">
  <metadata>
    <name>Autour de Couraduque</name>
    <desc><![CDATA[Rando VTT autour du col de Couraduque. Passage par le col des Spandeles, le lcol d'Ansan et le col d'Andorre pour finir par le col de Couret.]]></desc>
  </metadata>
  <trk>
    <name><![CDATA[2017-07-31 09:13]]></name>
    <desc><![CDATA[<p>Heure de départ: 07/31/2017 09:13<br/>Heure d'arrivée: 07/31/2017 12:29<br/>Distance: 28 km (03:15)<br/>Temps déplacement: 02:34<br/>Vitesse moyenne: 8,61 km/h<br/>Vitesse moyenne mouv.: 10,91 km/h<br/>Vitesse Max.: 35,61 km/h<br/>Altitude minimale: 827 m<br/>Altitude maximale: 1428 m<br/>Vitesse de montée: 627,8 m/h<br/>Vitesse de descente: -801,1 m/h<br/>Gain d'altitude: 1118 m<br/>Perte d'altitude: -1111 m<br/>Temps de montée: 01:46<br/>Temps de descente: 01:23<br/></p><hr align="center" width="480" style="height: 2px; width: 517px"/>]]></desc>
    <trkseg>
      <trkpt lat="42.99129" lon="-0.20348">
        <ele>1244.63</ele>
        <time>2017-07-31T07:13:35Z</time>
      </trkpt>
      <trkpt lat="42.99123" lon="-0.20355">
        <ele>1275.32</ele>
        <time>2017-07-31T07:13:36Z</time>
      </trkpt>
      <trkpt lat="42.99125" lon="-0.20361">
        <ele>1370.45</ele>
        <time>2017-07-31T07:13:39Z</time>
      </trkpt>
      <trkpt lat="42.99135" lon="-0.20353">
        <ele>1367.07</ele>
        <time>2017-07-31T07:13:41Z</time>
      </trkpt>
      <trkpt lat="42.99131" lon="-0.20343">
        <ele>1369.97</ele>
        <time>2017-07-31T07:13:44Z</time>
      </trkpt>
      <trkpt lat="42.99135" lon="-0.20345">
        <ele>1374.03</ele>
        <time>2017-07-31T07:13:50Z</time>
      </trkpt>
      <trkpt lat="42.99132" lon="-0.2035">
        <ele>1380.08</ele>
        <time>2017-07-31T07:14:24Z</time>
      </trkpt>
      <trkpt lat="42.99128" lon="-0.20355">
        <ele>1379.23</ele>
        <time>2017-07-31T07:15:03Z</time>
      </trkpt>
      <trkpt lat="42.99124" lon="-0.20353">
        <ele>1378.15</ele>
        <time>2017-07-31T07:15:43Z</time>
      </trkpt>
      <trkpt lat="42.99128" lon="-0.20353">
        <ele>1378.3</ele>
        <time>2017-07-31T07:15:58Z</time>
      </trkpt>
      <trkpt lat="42.9913" lon="-0.20347">
        <ele>1378.25</ele>
        <time>2017-07-31T07:16:20Z</time>
      </trkpt>
      <trkpt lat="42.99134" lon="-0.20345">
        <ele>1377.41</ele>
        <time>2017-07-31T07:16:30Z</time>
      </trkpt>
      <trkpt lat="42.99139" lon="-0.20345">
        <ele>1376.81</ele>
        <time>2017-07-31T07:16:32Z</time>
      </trkpt>
      <trkpt lat="42.99144" lon="-0.20344">
        <ele>1376.44</ele>
        <time>2017-07-31T07:16:34Z</time>
      </trkpt>
      <trkpt lat="42.99147" lon="-0.20348">
        <ele>1376.02</ele>
        <time>2017-07-31T07:16:37Z</time>
      </trkpt>
      <trkpt lat="42.99152" lon="-0.20349">
        <ele>1375.75</ele>
        <time>2017-07-31T07:16:39Z</time>
      </trkpt>
      <trkpt lat="42.99158" lon="-0.20352">
        <ele>1375.47</ele>
        <time>2017-07-31T07:16:41Z</time>
      </trkpt>
      <trkpt lat="42.99163" lon="-0.20356">
        <ele>1375.23</ele>
        <time>2017-07-31T07:16:43Z</time>
      </trkpt>
      <trkpt lat="42.99167" lon="-0.2036">
        <ele>1375</ele>
        <time>2017-07-31T07:16:47Z</time>
      </trkpt>
      <trkpt lat="42.99171" lon="-0.20364">
        <ele>1374.97</ele>
        <time>2017-07-31T07:16:49Z</time>
      </trkpt>
      <trkpt lat="42.99176" lon="-0.2037">
        <ele>1375.07</ele>
        <time>2017-07-31T07:16:52Z</time>
      </trkpt>
      <trkpt lat="42.9918" lon="-0.20375">
        <ele>1375.14</ele>
        <time>2017-07-31T07:16:54Z</time>
      </trkpt>
      <trkpt lat="42.99185" lon="-0.2038">
        <ele>1375.18</ele>
        <time>2017-07-31T07:16:56Z</time>
      </trkpt>
      <trkpt lat="42.9919" lon="-0.20385">
        <ele>1375.27</ele>
        <time>2017-07-31T07:16:59Z</time>
      </trkpt>
      <trkpt lat="42.99194" lon="-0.20387">
        <ele>1375.4</ele>
        <time>2017-07-31T07:17:01Z</time>
      </trkpt>
      <trkpt lat="42.99199" lon="-0.20389">
        <ele>1375.6</ele>
        <time>2017-07-31T07:17:03Z</time>
      </trkpt>
      <trkpt lat="42.99204" lon="-0.20393">
        <ele>1375.85</ele>
        <time>2017-07-31T07:17:05Z</time>
      </trkpt>
      <trkpt lat="42.9921" lon="-0.20396">
        <ele>1376.23</ele>
        <time>2017-07-31T07:17:08Z</time>
      </trkpt>
      <trkpt lat="42.99214" lon="-0.20398">
        <ele>1376.53</ele>
        <time>2017-07-31T07:17:10Z</time>
      </trkpt>
      <trkpt lat="42.99218" lon="-0.20401">
        <ele>1376.83</ele>
        <time>2017-07-31T07:17:12Z</time>
      </trkpt>
      <trkpt lat="42.99224" lon="-0.20403">
        <ele>1377.34</ele>
        <time>2017-07-31T07:17:15Z</time>
      </trkpt>
      <trkpt lat="42.9923" lon="-0.20406">
        <ele>1377.93</ele>
        <time>2017-07-31T07:17:18Z</time>
      </trkpt>
      <trkpt lat="42.99235" lon="-0.20411">
        <ele>1378.61</ele>
        <time>2017-07-31T07:17:21Z</time>
      </trkpt>
      <trkpt lat="42.9924" lon="-0.20416">
        <ele>1379.05</ele>
        <time>2017-07-31T07:17:23Z</time>
      </trkpt>
      <trkpt lat="42.99243" lon="-0.20422">
        <ele>1379.4</ele>
        <time>2017-07-31T07:17:25Z</time>
      </trkpt>
      <trkpt lat="42.99246" lon="-0.20428">
        <ele>1379.65</ele>
        <time>2017-07-31T07:17:27Z</time>
      </trkpt>
      <trkpt lat="42.99249" lon="-0.20433">
        <ele>1379.82</ele>
        <time>2017-07-31T07:17:29Z</time>
      </trkpt>
      <trkpt lat="42.99253" lon="-0.20438">
        <ele>1380.05</ele>
        <time>2017-07-31T07:17:32Z</time>
      </trkpt>
      <trkpt lat="42.99256" lon="-0.20443">
        <ele>1380.23</ele>
        <time>2017-07-31T07:17:34Z</time>
      </trkpt>
      <trkpt lat="42.9926" lon="-0.20449">
        <ele>1380.38</ele>
        <time>2017-07-31T07:17:36Z</time>
      </trkpt>
      <trkpt lat="42.99263" lon="-0.20454">
        <ele>1380.49</ele>
        <time>2017-07-31T07:17:38Z</time>
      </trkpt>
      <trkpt lat="42.99267" lon="-0.2046">
        <ele>1380.51</ele>
        <time>2017-07-31T07:17:40Z</time>
      </trkpt>
      <trkpt lat="42.99271" lon="-0.20464">
        <ele>1380.48</ele>
        <time>2017-07-31T07:17:42Z</time>
      </trkpt>
      <trkpt lat="42.99276" lon="-0.20468">
        <ele>1380.41</ele>
        <time>2017-07-31T07:17:44Z</time>
      </trkpt>
      <trkpt lat="42.9928" lon="-0.20471">
        <ele>1380.32</ele>
        <time>2017-07-31T07:17:46Z</time>
      </trkpt>
      <trkpt lat="42.99284" lon="-0.20474">
        <ele>1380.21</ele>
        <time>2017-07-31T07:17:48Z</time>
      </trkpt>
      <trkpt lat="42.99291" lon="-0.20475">
        <ele>1380.14</ele>
        <time>2017-07-31T07:17:51Z</time>
      </trkpt>
      <trkpt lat="42.99295" lon="-0.20474">
        <ele>1380.19</ele>
        <time>2017-07-31T07:17:53Z</time>
      </trkpt>
      <trkpt lat="42.99301" lon="-0.20473">
        <ele>1380.43</ele>
        <time>2017-07-31T07:17:56Z</time>
      </trkpt>
      <trkpt lat="42.99306" lon="-0.20472">
        <ele>1380.69</ele>
        <time>2017-07-31T07:17:58Z</time>
      </trkpt>
      <trkpt lat="42.99312" lon="-0.20471">
        <ele>1381.28</ele>
        <time>2017-07-31T07:18:01Z</time>
      </trkpt>
      <trkpt lat="42.99316" lon="-0.20469">
        <ele>1382.07</ele>
        <time>2017-07-31T07:18:04Z</time>
      </trkpt>
      <trkpt lat="42.99321" lon="-0.20468">
        <ele>1382.67</ele>
        <time>2017-07-31T07:18:06Z</time>
      </trkpt>
      <trkpt lat="42.99328" lon="-0.20469">
        <ele>1383.57</ele>
        <time>2017-07-31T07:18:09Z</time>
      </trkpt>
      <trkpt lat="42.99334" lon="-0.20468">
        <ele>1384.19</ele>
        <time>2017-07-31T07:18:11Z</time>
      </trkpt>
      <trkpt lat="42.99339" lon="-0.20467">
        <ele>1384.83</ele>
        <time>2017-07-31T07:18:13Z</time>
      </trkpt>
      <trkpt lat="42.99347" lon="-0.20467">
        <ele>1385.48</ele>
        <time>2017-07-31T07:18:15Z</time>
      </trkpt>
      <trkpt lat="42.99354" lon="-0.20474">
        <ele>1386.06</ele>
        <time>2017-07-31T07:18:17Z</time>
      </trkpt>
      <trkpt lat="42.99357" lon="-0.20478">
        <ele>1386.27</ele>
        <time>2017-07-31T07:18:18Z</time>
      </trkpt>
      <trkpt lat="42.99363" lon="-0.20486">
        <ele>1388.19</ele>
        <time>2017-07-31T07:18:20Z</time>
      </trkpt>
      <trkpt lat="42.99369" lon="-0.20495">
        <ele>1389.08</ele>
        <time>2017-07-31T07:18:22Z</time>
      </trkpt>
      <trkpt lat="42.99373" lon="-0.20504">
        <ele>1388.95</ele>
        <time>2017-07-31T07:18:24Z</time>
      </trkpt>
      <trkpt lat="42.99377" lon="-0.20515">
        <ele>1387.93</ele>
        <time>2017-07-31T07:18:26Z</time>
      </trkpt>
      <trkpt lat="42.99381" lon="-0.20526">
        <ele>1386.49</ele>
        <time>2017-07-31T07:18:28Z</time>
      </trkpt>
      <trkpt lat="42.99385" lon="-0.20537">
        <ele>1384.88</ele>
        <time>2017-07-31T07:18:30Z</time>
      </trkpt>
      <trkpt lat="42.9939" lon="-0.20547">
        <ele>1383.57</ele>
        <time>2017-07-31T07:18:32Z</time>
      </trkpt>
      <trkpt lat="42.99393" lon="-0.20552">
        <ele>1383.08</ele>
        <time>2017-07-31T07:18:33Z</time>
      </trkpt>
      <trkpt lat="42.99397" lon="-0.20557">
        <ele>1382.87</ele>
        <time>2017-07-31T07:18:35Z</time>
      </trkpt>
      <trkpt lat="42.99401" lon="-0.20562">
        <ele>1382.86</ele>
        <time>2017-07-31T07:18:36Z</time>
      </trkpt>
      <trkpt lat="42.99407" lon="-0.20569">
        <ele>1383.04</ele>
        <time>2017-07-31T07:18:38Z</time>
      </trkpt>
      <trkpt lat="42.99413" lon="-0.20575">
        <ele>1383.52</ele>
        <time>2017-07-31T07:18:40Z</time>
      </trkpt>
      <trkpt lat="42.99418" lon="-0.20578">
        <ele>1384.06</ele>
        <time>2017-07-31T07:18:41Z</time>
      </trkpt>
      <trkpt lat="42.99422" lon="-0.20581">
        <ele>1384.26</ele>
        <time>2017-07-31T07:18:42Z</time>
      </trkpt>
      <trkpt lat="42.99429" lon="-0.20585">
        <ele>1384.97</ele>
        <time>2017-07-31T07:18:44Z</time>
      </trkpt>
      <trkpt lat="42.99437" lon="-0.20591">
        <ele>1386.04</ele>
        <time>2017-07-31T07:18:46Z</time>
      </trkpt>
      <trkpt lat="42.99444" lon="-0.20596">
        <ele>1386.73</ele>
        <time>2017-07-31T07:18:48Z</time>
      </trkpt>
      <trkpt lat="42.99452" lon="-0.206">
        <ele>1387.57</ele>
        <time>2017-07-31T07:18:50Z</time>
      </trkpt>
      <trkpt lat="42.99458" lon="-0.20602">
        <ele>1387.92</ele>
        <time>2017-07-31T07:18:52Z</time>
      </trkpt>
      <trkpt lat="42.99466" lon="-0.20603">
        <ele>1389.79</ele>
        <time>2017-07-31T07:18:54Z</time>
      </trkpt>
      <trkpt lat="42.99473" lon="-0.20602">
        <ele>1390.26</ele>
        <time>2017-07-31T07:18:56Z</time>
      </trkpt>
      <trkpt lat="42.99478" lon="-0.20602">
        <ele>1390.66</ele>
        <time>2017-07-31T07:18:58Z</time>
      </trkpt>
      <trkpt lat="42.99483" lon="-0.20602">
        <ele>1391.09</ele>
        <time>2017-07-31T07:19:00Z</time>
      </trkpt>
      <trkpt lat="42.99492" lon="-0.206">
        <ele>1391.59</ele>
        <time>2017-07-31T07:19:02Z</time>
      </trkpt>
      <trkpt lat="42.99497" lon="-0.20598">
        <ele>1391.88</ele>
        <time>2017-07-31T07:19:03Z</time>
      </trkpt>
      <trkpt lat="42.99504" lon="-0.20596">
        <ele>1392.45</ele>
        <time>2017-07-31T07:19:05Z</time>
      </trkpt>
      <trkpt lat="42.99511" lon="-0.20594">
        <ele>1393.03</ele>
        <time>2017-07-31T07:19:07Z</time>
      </trkpt>
      <trkpt lat="42.99519" lon="-0.20591">
        <ele>1393.5</ele>
        <time>2017-07-31T07:19:09Z</time>
      </trkpt>
      <trkpt lat="42.99524" lon="-0.20587">
        <ele>1393.96</ele>
        <time>2017-07-31T07:19:11Z</time>
      </trkpt>
      <trkpt lat="42.9953" lon="-0.20581">
        <ele>1394.79</ele>
        <time>2017-07-31T07:19:14Z</time>
      </trkpt>
      <trkpt lat="42.99535" lon="-0.20576">
        <ele>1395.4</ele>
        <time>2017-07-31T07:19:16Z</time>
      </trkpt>
      <trkpt lat="42.99539" lon="-0.20571">
        <ele>1396.06</ele>
        <time>2017-07-31T07:19:18Z</time>
      </trkpt>
      <trkpt lat="42.99545" lon="-0.20564">
        <ele>1396.64</ele>
        <time>2017-07-31T07:19:20Z</time>
      </trkpt>
      <trkpt lat="42.99549" lon="-0.20556">
        <ele>1399.5</ele>
        <time>2017-07-31T07:19:22Z</time>
      </trkpt>
      <trkpt lat="42.99553" lon="-0.20547">
        <ele>1401.44</ele>
        <time>2017-07-31T07:19:24Z</time>
      </trkpt>
      <trkpt lat="42.99556" lon="-0.20537">
        <ele>1403.6</ele>
        <time>2017-07-31T07:19:26Z</time>
      </trkpt>
      <trkpt lat="42.99562" lon="-0.20529">
        <ele>1405.56</ele>
        <time>2017-07-31T07:19:28Z</time>
      </trkpt>
      <trkpt lat="42.99566" lon="-0.20525">
        <ele>1406.82</ele>
        <time>2017-07-31T07:19:29Z</time>
      </trkpt>
      <trkpt lat="42.9957" lon="-0.2052">
        <ele>1407.66</ele>
        <time>2017-07-31T07:19:30Z</time>
      </trkpt>
      <trkpt lat="42.99575" lon="-0.20517">
        <ele>1408.41</ele>
        <time>2017-07-31T07:19:31Z</time>
      </trkpt>
      <trkpt lat="42.99583" lon="-0.2051">
        <ele>1408.94</ele>
        <time>2017-07-31T07:19:32Z</time>
      </trkpt>
      <trkpt lat="42.9959" lon="-0.20503">
        <ele>1409.07</ele>
        <time>2017-07-31T07:19:33Z</time>
      </trkpt>
      <trkpt lat="42.99597" lon="-0.20497">
        <ele>1409.26</ele>
        <time>2017-07-31T07:19:34Z</time>
      </trkpt>
      <trkpt lat="42.99602" lon="-0.20492">
        <ele>1409.31</ele>
        <time>2017-07-31T07:19:35Z</time>
      </trkpt>
      <trkpt lat="42.99608" lon="-0.20487">
        <ele>1409.06</ele>
        <time>2017-07-31T07:19:36Z</time>
      </trkpt>
      <trkpt lat="42.99614" lon="-0.20482">
        <ele>1408.79</ele>
        <time>2017-07-31T07:19:37Z</time>
      </trkpt>
      <trkpt lat="42.99621" lon="-0.20476">
        <ele>1408.42</ele>
        <time>2017-07-31T07:19:38Z</time>
      </trkpt>
      <trkpt lat="42.99627" lon="-0.20469">
        <ele>1408.08</ele>
        <time>2017-07-31T07:19:39Z</time>
      </trkpt>
      <trkpt lat="42.99631" lon="-0.20464">
        <ele>1407.83</ele>
        <time>2017-07-31T07:19:40Z</time>
      </trkpt>
      <trkpt lat="42.99635" lon="-0.20458">
        <ele>1407.45</ele>
        <time>2017-07-31T07:19:41Z</time>
      </trkpt>
      <trkpt lat="42.99638" lon="-0.20451">
        <ele>1407.12</ele>
        <time>2017-07-31T07:19:42Z</time>
      </trkpt>
      <trkpt lat="42.99642" lon="-0.20446">
        <ele>1406.89</ele>
        <time>2017-07-31T07:19:43Z</time>
      </trkpt>
      <trkpt lat="42.99645" lon="-0.20443">
        <ele>1406.8</ele>
        <time>2017-07-31T07:19:44Z</time>
      </trkpt>
      <trkpt lat="42.9965" lon="-0.2044">
        <ele>1406.72</ele>
        <time>2017-07-31T07:19:46Z</time>
      </trkpt>
      <trkpt lat="42.99654" lon="-0.20438">
        <ele>1406.6</ele>
        <time>2017-07-31T07:19:48Z</time>
      </trkpt>
      <trkpt lat="42.9966" lon="-0.20437">
        <ele>1405.37</ele>
        <time>2017-07-31T07:20:04Z</time>
      </trkpt>
      <trkpt lat="42.99666" lon="-0.2044">
        <ele>1405.02</ele>
        <time>2017-07-31T07:20:07Z</time>
      </trkpt>
      <trkpt lat="42.99671" lon="-0.20443">
        <ele>1404.83</ele>
        <time>2017-07-31T07:20:10Z</time>
      </trkpt>
      <trkpt lat="42.99679" lon="-0.20447">
        <ele>1404.45</ele>
        <time>2017-07-31T07:20:12Z</time>
      </trkpt>
      <trkpt lat="42.99683" lon="-0.20449">
        <ele>1404.24</ele>
        <time>2017-07-31T07:20:13Z</time>
      </trkpt>
      <trkpt lat="42.9969" lon="-0.20452">
        <ele>1403.96</ele>
        <time>2017-07-31T07:20:14Z</time>
      </trkpt>
      <trkpt lat="42.99697" lon="-0.20456">
        <ele>1403.69</ele>
        <time>2017-07-31T07:20:15Z</time>
      </trkpt>
      <trkpt lat="42.99703" lon="-0.20461">
        <ele>1403.88</ele>
        <time>2017-07-31T07:20:16Z</time>
      </trkpt>
      <trkpt lat="42.9971" lon="-0.20466">
        <ele>1404.05</ele>
        <time>2017-07-31T07:20:17Z</time>
      </trkpt>
      <trkpt lat="42.99716" lon="-0.20469">
        <ele>1404.33</ele>
        <time>2017-07-31T07:20:18Z</time>
      </trkpt>
      <trkpt lat="42.99721" lon="-0.20471">
        <ele>1404.8</ele>
        <time>2017-07-31T07:20:19Z</time>
      </trkpt>
      <trkpt lat="42.99725" lon="-0.20473">
        <ele>1405.09</ele>
        <time>2017-07-31T07:20:20Z</time>
      </trkpt>
      <trkpt lat="42.9973" lon="-0.20475">
        <ele>1405.34</ele>
        <time>2017-07-31T07:20:21Z</time>
      </trkpt>
      <trkpt lat="42.99735" lon="-0.20478">
        <ele>1405.57</ele>
        <time>2017-07-31T07:20:22Z</time>
      </trkpt>
      <trkpt lat="42.99739" lon="-0.2048">
        <ele>1405.77</ele>
        <time>2017-07-31T07:20:23Z</time>
      </trkpt>
      <trkpt lat="42.99743" lon="-0.20482">
        <ele>1405.98</ele>
        <time>2017-07-31T07:20:24Z</time>
      </trkpt>
      <trkpt lat="42.99749" lon="-0.20483">
        <ele>1406.19</ele>
        <time>2017-07-31T07:20:25Z</time>
      </trkpt>
      <trkpt lat="42.99754" lon="-0.20484">
        <ele>1406.3</ele>
        <time>2017-07-31T07:20:26Z</time>
      </trkpt>
      <trkpt lat="42.99759" lon="-0.20486">
        <ele>1406.24</ele>
        <time>2017-07-31T07:20:27Z</time>
      </trkpt>
      <trkpt lat="42.99764" lon="-0.20487">
        <ele>1406.15</ele>
        <time>2017-07-31T07:20:28Z</time>
      </trkpt>
      <trkpt lat="42.99769" lon="-0.2049">
        <ele>1405.79</ele>
        <time>2017-07-31T07:20:29Z</time>
      </trkpt>
      <trkpt lat="42.99773" lon="-0.20491">
        <ele>1405.31</ele>
        <time>2017-07-31T07:20:30Z</time>
      </trkpt>
      <trkpt lat="42.99778" lon="-0.20492">
        <ele>1404.93</ele>
        <time>2017-07-31T07:20:31Z</time>
      </trkpt>
      <trkpt lat="42.99782" lon="-0.20494">
        <ele>1404.31</ele>
        <time>2017-07-31T07:20:32Z</time>
      </trkpt>
      <trkpt lat="42.99792" lon="-0.20497">
        <ele>1403.18</ele>
        <time>2017-07-31T07:20:34Z</time>
      </trkpt>
      <trkpt lat="42.99796" lon="-0.20499">
        <ele>1402.75</ele>
        <time>2017-07-31T07:20:35Z</time>
      </trkpt>
      <trkpt lat="42.99801" lon="-0.20502">
        <ele>1402.4</ele>
        <time>2017-07-31T07:20:36Z</time>
      </trkpt>
      <trkpt lat="42.99806" lon="-0.20505">
        <ele>1401.88</ele>
        <time>2017-07-31T07:20:37Z</time>
      </trkpt>
      <trkpt lat="42.99811" lon="-0.20508">
        <ele>1401.23</ele>
        <time>2017-07-31T07:20:38Z</time>
      </trkpt>
      <trkpt lat="42.99816" lon="-0.20511">
        <ele>1400.6</ele>
        <time>2017-07-31T07:20:39Z</time>
      </trkpt>
      <trkpt lat="42.99821" lon="-0.20514">
        <ele>1399.95</ele>
        <time>2017-07-31T07:20:40Z</time>
      </trkpt>
      <trkpt lat="42.99826" lon="-0.20514">
        <ele>1399.47</ele>
        <time>2017-07-31T07:20:41Z</time>
      </trkpt>
      <trkpt lat="42.99834" lon="-0.20514">
        <ele>1399.12</ele>
        <time>2017-07-31T07:20:43Z</time>
      </trkpt>
      <trkpt lat="42.99839" lon="-0.20514">
        <ele>1398.97</ele>
        <time>2017-07-31T07:20:44Z</time>
      </trkpt>
      <trkpt lat="42.99844" lon="-0.20514">
        <ele>1398.9</ele>
        <time>2017-07-31T07:20:45Z</time>
      </trkpt>
      <trkpt lat="42.99852" lon="-0.20513">
        <ele>1399.16</ele>
        <time>2017-07-31T07:20:47Z</time>
      </trkpt>
      <trkpt lat="42.99857" lon="-0.20512">
        <ele>1399.22</ele>
        <time>2017-07-31T07:20:48Z</time>
      </trkpt>
      <trkpt lat="42.99865" lon="-0.20509">
        <ele>1399.24</ele>
        <time>2017-07-31T07:20:50Z</time>
      </trkpt>
      <trkpt lat="42.99872" lon="-0.20505">
        <ele>1399.16</ele>
        <time>2017-07-31T07:20:52Z</time>
      </trkpt>
      <trkpt lat="42.99878" lon="-0.20501">
        <ele>1399.07</ele>
        <time>2017-07-31T07:20:54Z</time>
      </trkpt>
      <trkpt lat="42.99885" lon="-0.20498">
        <ele>1398.99</ele>
        <time>2017-07-31T07:20:56Z</time>
      </trkpt>
      <trkpt lat="42.99893" lon="-0.205">
        <ele>1398.92</ele>
        <time>2017-07-31T07:20:58Z</time>
      </trkpt>
      <trkpt lat="42.99897" lon="-0.20509">
        <ele>1398.83</ele>
        <time>2017-07-31T07:21:00Z</time>
      </trkpt>
      <trkpt lat="42.99896" lon="-0.2052">
        <ele>1398.13</ele>
        <time>2017-07-31T07:21:02Z</time>
      </trkpt>
      <trkpt lat="42.99894" lon="-0.20525">
        <ele>1397.82</ele>
        <time>2017-07-31T07:21:03Z</time>
      </trkpt>
      <trkpt lat="42.9989" lon="-0.20536">
        <ele>1397.35</ele>
        <time>2017-07-31T07:21:05Z</time>
      </trkpt>
      <trkpt lat="42.99888" lon="-0.20547">
        <ele>1397.13</ele>
        <time>2017-07-31T07:21:07Z</time>
      </trkpt>
      <trkpt lat="42.99886" lon="-0.20558">
        <ele>1397</ele>
        <time>2017-07-31T07:21:09Z</time>
      </trkpt>
      <trkpt lat="42.99884" lon="-0.2057">
        <ele>1396.93</ele>
        <time>2017-07-31T07:21:11Z</time>
      </trkpt>
      <trkpt lat="42.99883" lon="-0.20577">
        <ele>1396.94</ele>
        <time>2017-07-31T07:21:12Z</time>
      </trkpt>
      <trkpt lat="42.99883" lon="-0.20583">
        <ele>1396.88</ele>
        <time>2017-07-31T07:21:13Z</time>
      </trkpt>
      <trkpt lat="42.99882" lon="-0.20589">
        <ele>1396.78</ele>
        <time>2017-07-31T07:21:14Z</time>
      </trkpt>
      <trkpt lat="42.9988" lon="-0.206">
        <ele>1396.51</ele>
        <time>2017-07-31T07:21:16Z</time>
      </trkpt>
      <trkpt lat="42.99878" lon="-0.20612">
        <ele>1396.11</ele>
        <time>2017-07-31T07:21:18Z</time>
      </trkpt>
      <trkpt lat="42.99877" lon="-0.20618">
        <ele>1395.84</ele>
        <time>2017-07-31T07:21:19Z</time>
      </trkpt>
      <trkpt lat="42.99876" lon="-0.20625">
        <ele>1395.55</ele>
        <time>2017-07-31T07:21:20Z</time>
      </trkpt>
      <trkpt lat="42.99875" lon="-0.20632">
        <ele>1395.26</ele>
        <time>2017-07-31T07:21:21Z</time>
      </trkpt>
      <trkpt lat="42.99874" lon="-0.20639">
        <ele>1394.9</ele>
        <time>2017-07-31T07:21:22Z</time>
      </trkpt>
      <trkpt lat="42.99872" lon="-0.20646">
        <ele>1394.58</ele>
        <time>2017-07-31T07:21:23Z</time>
      </trkpt>
      <trkpt lat="42.9987" lon="-0.20655">
        <ele>1394.17</ele>
        <time>2017-07-31T07:21:24Z</time>
      </trkpt>
      <trkpt lat="42.99869" lon="-0.20664">
        <ele>1393.86</ele>
        <time>2017-07-31T07:21:25Z</time>
      </trkpt>
      <trkpt lat="42.99867" lon="-0.20673">
        <ele>1393.47</ele>
        <time>2017-07-31T07:21:26Z</time>
      </trkpt>
      <trkpt lat="42.99866" lon="-0.20683">
        <ele>1393.06</ele>
        <time>2017-07-31T07:21:27Z</time>
      </trkpt>
      <trkpt lat="42.99865" lon="-0.20694">
        <ele>1392.62</ele>
        <time>2017-07-31T07:21:28Z</time>
      </trkpt>
      <trkpt lat="42.99866" lon="-0.20704">
        <ele>1392.24</ele>
        <time>2017-07-31T07:21:29Z</time>
      </trkpt>
      <trkpt lat="42.99867" lon="-0.20714">
        <ele>1391.84</ele>
        <time>2017-07-31T07:21:30Z</time>
      </trkpt>
      <trkpt lat="42.99868" lon="-0.20724">
        <ele>1391.47</ele>
        <time>2017-07-31T07:21:31Z</time>
      </trkpt>
      <trkpt lat="42.99869" lon="-0.20734">
        <ele>1391.06</ele>
        <time>2017-07-31T07:21:32Z</time>
      </trkpt>
      <trkpt lat="42.99868" lon="-0.20744">
        <ele>1390.82</ele>
        <time>2017-07-31T07:21:33Z</time>
      </trkpt>
      <trkpt lat="42.99867" lon="-0.20754">
        <ele>1390.55</ele>
        <time>2017-07-31T07:21:34Z</time>
      </trkpt>
      <trkpt lat="42.99867" lon="-0.20762">
        <ele>1390.33</ele>
        <time>2017-07-31T07:21:35Z</time>
      </trkpt>
      <trkpt lat="42.99866" lon="-0.2077">
        <ele>1390.22</ele>
        <time>2017-07-31T07:21:36Z</time>
      </trkpt>
      <trkpt lat="42.99866" lon="-0.20779">
        <ele>1390.07</ele>
        <time>2017-07-31T07:21:37Z</time>
      </trkpt>
      <trkpt lat="42.99867" lon="-0.20786">
        <ele>1389.94</ele>
        <time>2017-07-31T07:21:38Z</time>
      </trkpt>
      <trkpt lat="42.99867" lon="-0.20792">
        <ele>1389.99</ele>
        <time>2017-07-31T07:21:39Z</time>
      </trkpt>
      <trkpt lat="42.99868" lon="-0.20799">
        <ele>1390.15</ele>
        <time>2017-07-31T07:21:40Z</time>
      </trkpt>
      <trkpt lat="42.99869" lon="-0.20805">
        <ele>1390.17</ele>
        <time>2017-07-31T07:21:41Z</time>
      </trkpt>
      <trkpt lat="42.9987" lon="-0.20818">
        <ele>1390.2</ele>
        <time>2017-07-31T07:21:43Z</time>
      </trkpt>
      <trkpt lat="42.99871" lon="-0.20825">
        <ele>1389.98</ele>
        <time>2017-07-31T07:21:44Z</time>
      </trkpt>
      <trkpt lat="42.99871" lon="-0.20831">
        <ele>1389.89</ele>
        <time>2017-07-31T07:21:45Z</time>
      </trkpt>
      <trkpt lat="42.99872" lon="-0.20841">
        <ele>1389.83</ele>
        <time>2017-07-31T07:21:47Z</time>
      </trkpt>
      <trkpt lat="42.99873" lon="-0.20851">
        <ele>1389.78</ele>
        <time>2017-07-31T07:21:49Z</time>
      </trkpt>
      <trkpt lat="42.99874" lon="-0.20861">
        <ele>1389.7</ele>
        <time>2017-07-31T07:21:51Z</time>
      </trkpt>
      <trkpt lat="42.99875" lon="-0.20871">
        <ele>1389.6</ele>
        <time>2017-07-31T07:21:53Z</time>
      </trkpt>
      <trkpt lat="42.99876" lon="-0.2088">
        <ele>1389.49</ele>
        <time>2017-07-31T07:21:55Z</time>
      </trkpt>
      <trkpt lat="42.99877" lon="-0.2089">
        <ele>1389.37</ele>
        <time>2017-07-31T07:21:57Z</time>
      </trkpt>
      <trkpt lat="42.99878" lon="-0.20899">
        <ele>1389.25</ele>
        <time>2017-07-31T07:21:59Z</time>
      </trkpt>
      <trkpt lat="42.9988" lon="-0.20907">
        <ele>1389.14</ele>
        <time>2017-07-31T07:22:01Z</time>
      </trkpt>
      <trkpt lat="42.99883" lon="-0.20915">
        <ele>1389.04</ele>
        <time>2017-07-31T07:22:03Z</time>
      </trkpt>
      <trkpt lat="42.99887" lon="-0.20922">
        <ele>1388.96</ele>
        <time>2017-07-31T07:22:05Z</time>
      </trkpt>
      <trkpt lat="42.9989" lon="-0.20929">
        <ele>1388.91</ele>
        <time>2017-07-31T07:22:07Z</time>
      </trkpt>
      <trkpt lat="42.99893" lon="-0.20937">
        <ele>1388.89</ele>
        <time>2017-07-31T07:22:09Z</time>
      </trkpt>
      <trkpt lat="42.99894" lon="-0.20945">
        <ele>1388.89</ele>
        <time>2017-07-31T07:22:11Z</time>
      </trkpt>
      <trkpt lat="42.99893" lon="-0.20953">
        <ele>1388.93</ele>
        <time>2017-07-31T07:22:13Z</time>
      </trkpt>
      <trkpt lat="42.99891" lon="-0.20961">
        <ele>1389.01</ele>
        <time>2017-07-31T07:22:15Z</time>
      </trkpt>
      <trkpt lat="42.99887" lon="-0.20967">
        <ele>1389.15</ele>
        <time>2017-07-31T07:22:17Z</time>
      </trkpt>
      <trkpt lat="42.99882" lon="-0.20975">
        <ele>1389.35</ele>
        <time>2017-07-31T07:22:19Z</time>
      </trkpt>
      <trkpt lat="42.99877" lon="-0.20982">
        <ele>1389.57</ele>
        <time>2017-07-31T07:22:21Z</time>
      </trkpt>
      <trkpt lat="42.99872" lon="-0.20989">
        <ele>1389.81</ele>
        <time>2017-07-31T07:22:23Z</time>
      </trkpt>
      <trkpt lat="42.99867" lon="-0.20997">
        <ele>1391.09</ele>
        <time>2017-07-31T07:22:25Z</time>
      </trkpt>
      <trkpt lat="42.99861" lon="-0.21004">
        <ele>1391.99</ele>
        <time>2017-07-31T07:22:27Z</time>
      </trkpt>
      <trkpt lat="42.99858" lon="-0.21009">
        <ele>1392.72</ele>
        <time>2017-07-31T07:22:28Z</time>
      </trkpt>
      <trkpt lat="42.99851" lon="-0.21016">
        <ele>1393.74</ele>
        <time>2017-07-31T07:22:30Z</time>
      </trkpt>
      <trkpt lat="42.99847" lon="-0.2102">
        <ele>1394.1</ele>
        <time>2017-07-31T07:22:31Z</time>
      </trkpt>
      <trkpt lat="42.9984" lon="-0.21026">
        <ele>1394.64</ele>
        <time>2017-07-31T07:22:33Z</time>
      </trkpt>
      <trkpt lat="42.99832" lon="-0.21032">
        <ele>1395.07</ele>
        <time>2017-07-31T07:22:35Z</time>
      </trkpt>
      <trkpt lat="42.99828" lon="-0.21034">
        <ele>1395.26</ele>
        <time>2017-07-31T07:22:36Z</time>
      </trkpt>
      <trkpt lat="42.99824" lon="-0.21037">
        <ele>1395.41</ele>
        <time>2017-07-31T07:22:37Z</time>
      </trkpt>
      <trkpt lat="42.99819" lon="-0.21039">
        <ele>1395.56</ele>
        <time>2017-07-31T07:22:38Z</time>
      </trkpt>
      <trkpt lat="42.99813" lon="-0.21042">
        <ele>1395.87</ele>
        <time>2017-07-31T07:22:39Z</time>
      </trkpt>
      <trkpt lat="42.99808" lon="-0.21044">
        <ele>1396.22</ele>
        <time>2017-07-31T07:22:40Z</time>
      </trkpt>
      <trkpt lat="42.99804" lon="-0.21047">
        <ele>1396.51</ele>
        <time>2017-07-31T07:22:41Z</time>
      </trkpt>
      <trkpt lat="42.99796" lon="-0.2105">
        <ele>1396.98</ele>
        <time>2017-07-31T07:22:43Z</time>
      </trkpt>
      <trkpt lat="42.9979" lon="-0.21053">
        <ele>1397.1</ele>
        <time>2017-07-31T07:22:45Z</time>
      </trkpt>
      <trkpt lat="42.99783" lon="-0.21056">
        <ele>1397.24</ele>
        <time>2017-07-31T07:22:47Z</time>
      </trkpt>
      <trkpt lat="42.99776" lon="-0.21058">
        <ele>1397.38</ele>
        <time>2017-07-31T07:22:49Z</time>
      </trkpt>
      <trkpt lat="42.99769" lon="-0.21061">
        <ele>1397.56</ele>
        <time>2017-07-31T07:22:51Z</time>
      </trkpt>
      <trkpt lat="42.99763" lon="-0.21064">
        <ele>1397.77</ele>
        <time>2017-07-31T07:22:53Z</time>
      </trkpt>
      <trkpt lat="42.99756" lon="-0.21067">
        <ele>1398</ele>
        <time>2017-07-31T07:22:55Z</time>
      </trkpt>
      <trkpt lat="42.9975" lon="-0.21069">
        <ele>1398.25</ele>
        <time>2017-07-31T07:22:57Z</time>
      </trkpt>
      <trkpt lat="42.99744" lon="-0.21072">
        <ele>1398.52</ele>
        <time>2017-07-31T07:22:59Z</time>
      </trkpt>
      <trkpt lat="42.99739" lon="-0.21075">
        <ele>1398.82</ele>
        <time>2017-07-31T07:23:01Z</time>
      </trkpt>
      <trkpt lat="42.99734" lon="-0.21079">
        <ele>1399.13</ele>
        <time>2017-07-31T07:23:03Z</time>
      </trkpt>
      <trkpt lat="42.99728" lon="-0.21084">
        <ele>1399.48</ele>
        <time>2017-07-31T07:23:05Z</time>
      </trkpt>
      <trkpt lat="42.99722" lon="-0.21089">
        <ele>1399.82</ele>
        <time>2017-07-31T07:23:07Z</time>
      </trkpt>
      <trkpt lat="42.99716" lon="-0.21094">
        <ele>1400.17</ele>
        <time>2017-07-31T07:23:09Z</time>
      </trkpt>
      <trkpt lat="42.9971" lon="-0.211">
        <ele>1400.51</ele>
        <time>2017-07-31T07:23:11Z</time>
      </trkpt>
      <trkpt lat="42.99705" lon="-0.21106">
        <ele>1400.86</ele>
        <time>2017-07-31T07:23:13Z</time>
      </trkpt>
      <trkpt lat="42.997" lon="-0.21111">
        <ele>1401.2</ele>
        <time>2017-07-31T07:23:15Z</time>
      </trkpt>
      <trkpt lat="42.99695" lon="-0.21117">
        <ele>1401.55</ele>
        <time>2017-07-31T07:23:17Z</time>
      </trkpt>
      <trkpt lat="42.99689" lon="-0.21125">
        <ele>1404.24</ele>
        <time>2017-07-31T07:23:19Z</time>
      </trkpt>
      <trkpt lat="42.99684" lon="-0.21134">
        <ele>1406.38</ele>
        <time>2017-07-31T07:23:21Z</time>
      </trkpt>
      <trkpt lat="42.99679" lon="-0.21144">
        <ele>1407.78</ele>
        <time>2017-07-31T07:23:23Z</time>
      </trkpt>
      <trkpt lat="42.99676" lon="-0.21152">
        <ele>1408.11</ele>
        <time>2017-07-31T07:23:25Z</time>
      </trkpt>
      <trkpt lat="42.99671" lon="-0.21159">
        <ele>1408.24</ele>
        <time>2017-07-31T07:23:27Z</time>
      </trkpt>
      <trkpt lat="42.99666" lon="-0.21165">
        <ele>1408.36</ele>
        <time>2017-07-31T07:23:29Z</time>
      </trkpt>
      <trkpt lat="42.9966" lon="-0.21169">
        <ele>1408.51</ele>
        <time>2017-07-31T07:23:31Z</time>
      </trkpt>
      <trkpt lat="42.99654" lon="-0.21172">
        <ele>1408.67</ele>
        <time>2017-07-31T07:23:33Z</time>
      </trkpt>
      <trkpt lat="42.99646" lon="-0.21174">
        <ele>1408.84</ele>
        <time>2017-07-31T07:23:35Z</time>
      </trkpt>
      <trkpt lat="42.99639" lon="-0.21176">
        <ele>1409.03</ele>
        <time>2017-07-31T07:23:37Z</time>
      </trkpt>
      <trkpt lat="42.99632" lon="-0.21178">
        <ele>1409.23</ele>
        <time>2017-07-31T07:23:39Z</time>
      </trkpt>
      <trkpt lat="42.99625" lon="-0.21179">
        <ele>1409.41</ele>
        <time>2017-07-31T07:23:41Z</time>
      </trkpt>
      <trkpt lat="42.99618" lon="-0.21179">
        <ele>1409.59</ele>
        <time>2017-07-31T07:23:43Z</time>
      </trkpt>
      <trkpt lat="42.99611" lon="-0.21178">
        <ele>1409.77</ele>
        <time>2017-07-31T07:23:45Z</time>
      </trkpt>
      <trkpt lat="42.99605" lon="-0.21177">
        <ele>1409.95</ele>
        <time>2017-07-31T07:23:47Z</time>
      </trkpt>
      <trkpt lat="42.99597" lon="-0.21177">
        <ele>1410.11</ele>
        <time>2017-07-31T07:23:49Z</time>
      </trkpt>
      <trkpt lat="42.9959" lon="-0.21176">
        <ele>1410.27</ele>
        <time>2017-07-31T07:23:51Z</time>
      </trkpt>
      <trkpt lat="42.99583" lon="-0.21175">
        <ele>1410.43</ele>
        <time>2017-07-31T07:23:53Z</time>
      </trkpt>
      <trkpt lat="42.99577" lon="-0.21173">
        <ele>1410.58</ele>
        <time>2017-07-31T07:23:55Z</time>
      </trkpt>
      <trkpt lat="42.9957" lon="-0.21172">
        <ele>1410.72</ele>
        <time>2017-07-31T07:23:57Z</time>
      </trkpt>
      <trkpt lat="42.99564" lon="-0.2117">
        <ele>1410.85</ele>
        <time>2017-07-31T07:23:59Z</time>
      </trkpt>
      <trkpt lat="42.99558" lon="-0.21169">
        <ele>1410.98</ele>
        <time>2017-07-31T07:24:01Z</time>
      </trkpt>
      <trkpt lat="42.99551" lon="-0.21167">
        <ele>1411.11</ele>
        <time>2017-07-31T07:24:03Z</time>
      </trkpt>
      <trkpt lat="42.99545" lon="-0.21166">
        <ele>1411.25</ele>
        <time>2017-07-31T07:24:05Z</time>
      </trkpt>
      <trkpt lat="42.99538" lon="-0.21165">
        <ele>1411.38</ele>
        <time>2017-07-31T07:24:07Z</time>
      </trkpt>
      <trkpt lat="42.99532" lon="-0.21163">
        <ele>1411.53</ele>
        <time>2017-07-31T07:24:09Z</time>
      </trkpt>
      <trkpt lat="42.99525" lon="-0.21162">
        <ele>1411.68</ele>
        <time>2017-07-31T07:24:11Z</time>
      </trkpt>
      <trkpt lat="42.99519" lon="-0.2116">
        <ele>1411.84</ele>
        <time>2017-07-31T07:24:13Z</time>
      </trkpt>
      <trkpt lat="42.99512" lon="-0.21159">
        <ele>1412.02</ele>
        <time>2017-07-31T07:24:15Z</time>
      </trkpt>
      <trkpt lat="42.99505" lon="-0.21157">
        <ele>1412.24</ele>
        <time>2017-07-31T07:24:17Z</time>
      </trkpt>
      <trkpt lat="42.995" lon="-0.21155">
        <ele>1412.48</ele>
        <time>2017-07-31T07:24:19Z</time>
      </trkpt>
      <trkpt lat="42.99494" lon="-0.21152">
        <ele>1412.75</ele>
        <time>2017-07-31T07:24:21Z</time>
      </trkpt>
      <trkpt lat="42.99489" lon="-0.21148">
        <ele>1413.02</ele>
        <time>2017-07-31T07:24:23Z</time>
      </trkpt>
      <trkpt lat="42.99483" lon="-0.21145">
        <ele>1413.34</ele>
        <time>2017-07-31T07:24:25Z</time>
      </trkpt>
      <trkpt lat="42.99479" lon="-0.21142">
        <ele>1413.69</ele>
        <time>2017-07-31T07:24:27Z</time>
      </trkpt>
      <trkpt lat="42.99474" lon="-0.21139">
        <ele>1414.06</ele>
        <time>2017-07-31T07:24:29Z</time>
      </trkpt>
      <trkpt lat="42.99469" lon="-0.21135">
        <ele>1414.68</ele>
        <time>2017-07-31T07:24:32Z</time>
      </trkpt>
      <trkpt lat="42.99464" lon="-0.21134">
        <ele>1415.13</ele>
        <time>2017-07-31T07:24:34Z</time>
      </trkpt>
      <trkpt lat="42.9946" lon="-0.21134">
        <ele>1415.6</ele>
        <time>2017-07-31T07:24:36Z</time>
      </trkpt>
      <trkpt lat="42.99454" lon="-0.21134">
        <ele>1416.39</ele>
        <time>2017-07-31T07:24:39Z</time>
      </trkpt>
      <trkpt lat="42.99449" lon="-0.21134">
        <ele>1416.94</ele>
        <time>2017-07-31T07:24:41Z</time>
      </trkpt>
      <trkpt lat="42.99444" lon="-0.21133">
        <ele>1417.77</ele>
        <time>2017-07-31T07:24:44Z</time>
      </trkpt>
      <trkpt lat="42.99439" lon="-0.21134">
        <ele>1418.82</ele>
        <time>2017-07-31T07:24:48Z</time>
      </trkpt>
      <trkpt lat="42.99433" lon="-0.21133">
        <ele>1420.7</ele>
        <time>2017-07-31T07:25:05Z</time>
      </trkpt>
      <trkpt lat="42.99428" lon="-0.21135">
        <ele>1425.7</ele>
        <time>2017-07-31T07:26:22Z</time>
      </trkpt>
      <trkpt lat="42.99422" lon="-0.21134">
        <ele>1426.27</ele>
        <time>2017-07-31T07:26:25Z</time>
      </trkpt>
      <trkpt lat="42.99417" lon="-0.21134">
        <ele>1426.59</ele>
        <time>2017-07-31T07:26:27Z</time>
      </trkpt>
      <trkpt lat="42.99411" lon="-0.21134">
        <ele>1426.85</ele>
        <time>2017-07-31T07:26:29Z</time>
      </trkpt>
      <trkpt lat="42.99402" lon="-0.21133">
        <ele>1428.25</ele>
        <time>2017-07-31T07:26:31Z</time>
      </trkpt>
      <trkpt lat="42.99394" lon="-0.21134">
        <ele>1428.98</ele>
        <time>2017-07-31T07:26:33Z</time>
      </trkpt>
      <trkpt lat="42.99387" lon="-0.21133">
        <ele>1428.9</ele>
        <time>2017-07-31T07:26:35Z</time>
      </trkpt>
      <trkpt lat="42.99382" lon="-0.21133">
        <ele>1428.54</ele>
        <time>2017-07-31T07:26:36Z</time>
      </trkpt>
      <trkpt lat="42.99377" lon="-0.21133">
        <ele>1427.98</ele>
        <time>2017-07-31T07:26:37Z</time>
      </trkpt>
      <trkpt lat="42.99372" lon="-0.21132">
        <ele>1427.37</ele>
        <time>2017-07-31T07:26:38Z</time>
      </trkpt>
      <trkpt lat="42.99365" lon="-0.21131">
        <ele>1427</ele>
        <time>2017-07-31T07:26:40Z</time>
      </trkpt>
      <trkpt lat="42.99358" lon="-0.21132">
        <ele>1426.75</ele>
        <time>2017-07-31T07:26:42Z</time>
      </trkpt>
      <trkpt lat="42.99352" lon="-0.21133">
        <ele>1426.45</ele>
        <time>2017-07-31T07:26:44Z</time>
      </trkpt>
      <trkpt lat="42.99344" lon="-0.21131">
        <ele>1423.85</ele>
        <time>2017-07-31T07:26:46Z</time>
      </trkpt>
      <trkpt lat="42.99339" lon="-0.21131">
        <ele>1422.6</ele>
        <time>2017-07-31T07:26:47Z</time>
      </trkpt>
      <trkpt lat="42.99332" lon="-0.21129">
        <ele>1421.16</ele>
        <time>2017-07-31T07:26:49Z</time>
      </trkpt>
      <trkpt lat="42.99324" lon="-0.21127">
        <ele>1420.89</ele>
        <time>2017-07-31T07:26:51Z</time>
      </trkpt>
      <trkpt lat="42.99317" lon="-0.21127">
        <ele>1420.71</ele>
        <time>2017-07-31T07:26:53Z</time>
      </trkpt>
      <trkpt lat="42.99309" lon="-0.21126">
        <ele>1420.03</ele>
        <time>2017-07-31T07:26:55Z</time>
      </trkpt>
      <trkpt lat="42.993" lon="-0.21126">
        <ele>1418.89</ele>
        <time>2017-07-31T07:26:57Z</time>
      </trkpt>
      <trkpt lat="42.99296" lon="-0.21127">
        <ele>1418.38</ele>
        <time>2017-07-31T07:26:58Z</time>
      </trkpt>
      <trkpt lat="42.9929" lon="-0.21128">
        <ele>1417.95</ele>
        <time>2017-07-31T07:26:59Z</time>
      </trkpt>
      <trkpt lat="42.99285" lon="-0.21128">
        <ele>1417.56</ele>
        <time>2017-07-31T07:27:00Z</time>
      </trkpt>
      <trkpt lat="42.99279" lon="-0.21129">
        <ele>1417.26</ele>
        <time>2017-07-31T07:27:01Z</time>
      </trkpt>
      <trkpt lat="42.99274" lon="-0.2113">
        <ele>1417.06</ele>
        <time>2017-07-31T07:27:02Z</time>
      </trkpt>
      <trkpt lat="42.99269" lon="-0.21131">
        <ele>1416.87</ele>
        <time>2017-07-31T07:27:03Z</time>
      </trkpt>
      <trkpt lat="42.99264" lon="-0.21131">
        <ele>1416.74</ele>
        <time>2017-07-31T07:27:04Z</time>
      </trkpt>
      <trkpt lat="42.99256" lon="-0.21131">
        <ele>1416.68</ele>
        <time>2017-07-31T07:27:06Z</time>
      </trkpt>
      <trkpt lat="42.99248" lon="-0.21132">
        <ele>1416.72</ele>
        <time>2017-07-31T07:27:08Z</time>
      </trkpt>
      <trkpt lat="42.99242" lon="-0.21135">
        <ele>1416.8</ele>
        <time>2017-07-31T07:27:10Z</time>
      </trkpt>
      <trkpt lat="42.99237" lon="-0.2114">
        <ele>1416.91</ele>
        <time>2017-07-31T07:27:12Z</time>
      </trkpt>
      <trkpt lat="42.99232" lon="-0.21145">
        <ele>1417.02</ele>
        <time>2017-07-31T07:27:14Z</time>
      </trkpt>
      <trkpt lat="42.99226" lon="-0.21152">
        <ele>1417.18</ele>
        <time>2017-07-31T07:27:16Z</time>
      </trkpt>
      <trkpt lat="42.99222" lon="-0.2116">
        <ele>1417.36</ele>
        <time>2017-07-31T07:27:18Z</time>
      </trkpt>
      <trkpt lat="42.99219" lon="-0.21168">
        <ele>1417.57</ele>
        <time>2017-07-31T07:27:20Z</time>
      </trkpt>
      <trkpt lat="42.99213" lon="-0.21176">
        <ele>1418.03</ele>
        <time>2017-07-31T07:27:23Z</time>
      </trkpt>
      <trkpt lat="42.99209" lon="-0.21184">
        <ele>1418.33</ele>
        <time>2017-07-31T07:27:25Z</time>
      </trkpt>
      <trkpt lat="42.99202" lon="-0.21192">
        <ele>1418.59</ele>
        <time>2017-07-31T07:27:27Z</time>
      </trkpt>
      <trkpt lat="42.99196" lon="-0.21196">
        <ele>1418.84</ele>
        <time>2017-07-31T07:27:29Z</time>
      </trkpt>
      <trkpt lat="42.9919" lon="-0.21201">
        <ele>1419.11</ele>
        <time>2017-07-31T07:27:31Z</time>
      </trkpt>
      <trkpt lat="42.99184" lon="-0.21207">
        <ele>1419.4</ele>
        <time>2017-07-31T07:27:33Z</time>
      </trkpt>
      <trkpt lat="42.99178" lon="-0.21214">
        <ele>1419.71</ele>
        <time>2017-07-31T07:27:35Z</time>
      </trkpt>
      <trkpt lat="42.99173" lon="-0.21221">
        <ele>1420.04</ele>
        <time>2017-07-31T07:27:37Z</time>
      </trkpt>
      <trkpt lat="42.99169" lon="-0.21228">
        <ele>1420.37</ele>
        <time>2017-07-31T07:27:39Z</time>
      </trkpt>
      <trkpt lat="42.99165" lon="-0.21236">
        <ele>1420.84</ele>
        <time>2017-07-31T07:27:42Z</time>
      </trkpt>
      <trkpt lat="42.99159" lon="-0.21244">
        <ele>1421.15</ele>
        <time>2017-07-31T07:27:44Z</time>
      </trkpt>
      <trkpt lat="42.99154" lon="-0.21252">
        <ele>1421.44</ele>
        <time>2017-07-31T07:27:46Z</time>
      </trkpt>
      <trkpt lat="42.99149" lon="-0.21258">
        <ele>1421.72</ele>
        <time>2017-07-31T07:27:48Z</time>
      </trkpt>
      <trkpt lat="42.99145" lon="-0.21264">
        <ele>1422</ele>
        <time>2017-07-31T07:27:50Z</time>
      </trkpt>
      <trkpt lat="42.99143" lon="-0.21269">
        <ele>1422.25</ele>
        <time>2017-07-31T07:27:52Z</time>
      </trkpt>
      <trkpt lat="42.99138" lon="-0.21278">
        <ele>1422.48</ele>
        <time>2017-07-31T07:27:54Z</time>
      </trkpt>
      <trkpt lat="42.99135" lon="-0.21285">
        <ele>1422.72</ele>
        <time>2017-07-31T07:27:56Z</time>
      </trkpt>
      <trkpt lat="42.99132" lon="-0.21293">
        <ele>1422.99</ele>
        <time>2017-07-31T07:27:58Z</time>
      </trkpt>
      <trkpt lat="42.9913" lon="-0.21304">
        <ele>1425.25</ele>
        <time>2017-07-31T07:28:00Z</time>
      </trkpt>
      <trkpt lat="42.99128" lon="-0.21314">
        <ele>1427.09</ele>
        <time>2017-07-31T07:28:02Z</time>
      </trkpt>
      <trkpt lat="42.99127" lon="-0.2132">
        <ele>1427.74</ele>
        <time>2017-07-31T07:28:03Z</time>
      </trkpt>
      <trkpt lat="42.99126" lon="-0.21331">
        <ele>1428.64</ele>
        <time>2017-07-31T07:28:05Z</time>
      </trkpt>
      <trkpt lat="42.99124" lon="-0.21337">
        <ele>1428.9</ele>
        <time>2017-07-31T07:28:06Z</time>
      </trkpt>
      <trkpt lat="42.99124" lon="-0.21345">
        <ele>1428.83</ele>
        <time>2017-07-31T07:28:07Z</time>
      </trkpt>
      <trkpt lat="42.99124" lon="-0.21353">
        <ele>1428.41</ele>
        <time>2017-07-31T07:28:08Z</time>
      </trkpt>
      <trkpt lat="42.99123" lon="-0.2136">
        <ele>1427.7</ele>
        <time>2017-07-31T07:28:09Z</time>
      </trkpt>
      <trkpt lat="42.99121" lon="-0.21373">
        <ele>1426.17</ele>
        <time>2017-07-31T07:28:11Z</time>
      </trkpt>
      <trkpt lat="42.9912" lon="-0.2138">
        <ele>1425.51</ele>
        <time>2017-07-31T07:28:12Z</time>
      </trkpt>
      <trkpt lat="42.99119" lon="-0.21386">
        <ele>1424.91</ele>
        <time>2017-07-31T07:28:13Z</time>
      </trkpt>
      <trkpt lat="42.99117" lon="-0.21393">
        <ele>1424.41</ele>
        <time>2017-07-31T07:28:14Z</time>
      </trkpt>
      <trkpt lat="42.99116" lon="-0.214">
        <ele>1423.85</ele>
        <time>2017-07-31T07:28:15Z</time>
      </trkpt>
      <trkpt lat="42.99114" lon="-0.21407">
        <ele>1423.23</ele>
        <time>2017-07-31T07:28:16Z</time>
      </trkpt>
      <trkpt lat="42.99112" lon="-0.21414">
        <ele>1422.58</ele>
        <time>2017-07-31T07:28:17Z</time>
      </trkpt>
      <trkpt lat="42.9911" lon="-0.21423">
        <ele>1421.95</ele>
        <time>2017-07-31T07:28:18Z</time>
      </trkpt>
      <trkpt lat="42.99108" lon="-0.21431">
        <ele>1421.35</ele>
        <time>2017-07-31T07:28:19Z</time>
      </trkpt>
      <trkpt lat="42.99106" lon="-0.2144">
        <ele>1420.72</ele>
        <time>2017-07-31T07:28:20Z</time>
      </trkpt>
      <trkpt lat="42.99104" lon="-0.21448">
        <ele>1420.12</ele>
        <time>2017-07-31T07:28:21Z</time>
      </trkpt>
      <trkpt lat="42.99101" lon="-0.21456">
        <ele>1419.42</ele>
        <time>2017-07-31T07:28:22Z</time>
      </trkpt>
      <trkpt lat="42.99099" lon="-0.21463">
        <ele>1418.78</ele>
        <time>2017-07-31T07:28:23Z</time>
      </trkpt>
      <trkpt lat="42.99097" lon="-0.2147">
        <ele>1418.23</ele>
        <time>2017-07-31T07:28:24Z</time>
      </trkpt>
      <trkpt lat="42.99095" lon="-0.21476">
        <ele>1417.72</ele>
        <time>2017-07-31T07:28:25Z</time>
      </trkpt>
      <trkpt lat="42.99094" lon="-0.21482">
        <ele>1417.18</ele>
        <time>2017-07-31T07:28:26Z</time>
      </trkpt>
      <trkpt lat="42.99091" lon="-0.21489">
        <ele>1416.61</ele>
        <time>2017-07-31T07:28:27Z</time>
      </trkpt>
      <trkpt lat="42.9909" lon="-0.21497">
        <ele>1416.03</ele>
        <time>2017-07-31T07:28:28Z</time>
      </trkpt>
      <trkpt lat="42.99088" lon="-0.21504">
        <ele>1415.35</ele>
        <time>2017-07-31T07:28:29Z</time>
      </trkpt>
      <trkpt lat="42.99087" lon="-0.21513">
        <ele>1414.64</ele>
        <time>2017-07-31T07:28:30Z</time>
      </trkpt>
      <trkpt lat="42.99086" lon="-0.21521">
        <ele>1413.92</ele>
        <time>2017-07-31T07:28:31Z</time>
      </trkpt>
      <trkpt lat="42.99085" lon="-0.2153">
        <ele>1413.18</ele>
        <time>2017-07-31T07:28:32Z</time>
      </trkpt>
      <trkpt lat="42.99085" lon="-0.21538">
        <ele>1412.43</ele>
        <time>2017-07-31T07:28:33Z</time>
      </trkpt>
      <trkpt lat="42.99084" lon="-0.21547">
        <ele>1411.67</ele>
        <time>2017-07-31T07:28:34Z</time>
      </trkpt>
      <trkpt lat="42.99083" lon="-0.21555">
        <ele>1411</ele>
        <time>2017-07-31T07:28:35Z</time>
      </trkpt>
      <trkpt lat="42.99084" lon="-0.21563">
        <ele>1410.42</ele>
        <time>2017-07-31T07:28:36Z</time>
      </trkpt>
      <trkpt lat="42.99084" lon="-0.21572">
        <ele>1409.95</ele>
        <time>2017-07-31T07:28:37Z</time>
      </trkpt>
      <trkpt lat="42.99084" lon="-0.21582">
        <ele>1409.51</ele>
        <time>2017-07-31T07:28:38Z</time>
      </trkpt>
      <trkpt lat="42.99084" lon="-0.21591">
        <ele>1409.04</ele>
        <time>2017-07-31T07:28:39Z</time>
      </trkpt>
      <trkpt lat="42.99084" lon="-0.216">
        <ele>1408.56</ele>
        <time>2017-07-31T07:28:40Z</time>
      </trkpt>
      <trkpt lat="42.99085" lon="-0.21609">
        <ele>1408.09</ele>
        <time>2017-07-31T07:28:41Z</time>
      </trkpt>
      <trkpt lat="42.99085" lon="-0.21619">
        <ele>1407.57</ele>
        <time>2017-07-31T07:28:42Z</time>
      </trkpt>
      <trkpt lat="42.99084" lon="-0.21627">
        <ele>1407.13</ele>
        <time>2017-07-31T07:28:43Z</time>
      </trkpt>
      <trkpt lat="42.99084" lon="-0.21636">
        <ele>1406.76</ele>
        <time>2017-07-31T07:28:44Z</time>
      </trkpt>
      <trkpt lat="42.99085" lon="-0.21644">
        <ele>1406.38</ele>
        <time>2017-07-31T07:28:45Z</time>
      </trkpt>
      <trkpt lat="42.99085" lon="-0.21652">
        <ele>1406.01</ele>
        <time>2017-07-31T07:28:46Z</time>
      </trkpt>
      <trkpt lat="42.99085" lon="-0.2166">
        <ele>1405.63</ele>
        <time>2017-07-31T07:28:47Z</time>
      </trkpt>
      <trkpt lat="42.99084" lon="-0.21668">
        <ele>1405.27</ele>
        <time>2017-07-31T07:28:48Z</time>
      </trkpt>
      <trkpt lat="42.99084" lon="-0.21675">
        <ele>1404.89</ele>
        <time>2017-07-31T07:28:49Z</time>
      </trkpt>
      <trkpt lat="42.99084" lon="-0.21681">
        <ele>1404.54</ele>
        <time>2017-07-31T07:28:50Z</time>
      </trkpt>
      <trkpt lat="42.99084" lon="-0.2169">
        <ele>1404.34</ele>
        <time>2017-07-31T07:28:52Z</time>
      </trkpt>
      <trkpt lat="42.99089" lon="-0.2169">
        <ele>1404.21</ele>
        <time>2017-07-31T07:28:55Z</time>
      </trkpt>
      <trkpt lat="42.99093" lon="-0.21685">
        <ele>1404.13</ele>
        <time>2017-07-31T07:28:57Z</time>
      </trkpt>
      <trkpt lat="42.99095" lon="-0.21675">
        <ele>1403.66</ele>
        <time>2017-07-31T07:28:59Z</time>
      </trkpt>
      <trkpt lat="42.99097" lon="-0.21665">
        <ele>1402.73</ele>
        <time>2017-07-31T07:29:01Z</time>
      </trkpt>
      <trkpt lat="42.99099" lon="-0.21652">
        <ele>1402.01</ele>
        <time>2017-07-31T07:29:03Z</time>
      </trkpt>
      <trkpt lat="42.991" lon="-0.21646">
        <ele>1401.7</ele>
        <time>2017-07-31T07:29:04Z</time>
      </trkpt>
      <trkpt lat="42.99101" lon="-0.21639">
        <ele>1401.46</ele>
        <time>2017-07-31T07:29:05Z</time>
      </trkpt>
      <trkpt lat="42.99102" lon="-0.21633">
        <ele>1401.21</ele>
        <time>2017-07-31T07:29:06Z</time>
      </trkpt>
      <trkpt lat="42.99103" lon="-0.21627">
        <ele>1400.98</ele>
        <time>2017-07-31T07:29:07Z</time>
      </trkpt>
      <trkpt lat="42.99102" lon="-0.21615">
        <ele>1400.55</ele>
        <time>2017-07-31T07:29:09Z</time>
      </trkpt>
      <trkpt lat="42.99102" lon="-0.21604">
        <ele>1400.42</ele>
        <time>2017-07-31T07:29:11Z</time>
      </trkpt>
      <trkpt lat="42.99107" lon="-0.21599">
        <ele>1400.35</ele>
        <time>2017-07-31T07:29:13Z</time>
      </trkpt>
      <trkpt lat="42.99112" lon="-0.21602">
        <ele>1400.28</ele>
        <time>2017-07-31T07:29:15Z</time>
      </trkpt>
      <trkpt lat="42.99112" lon="-0.21611">
        <ele>1399.89</ele>
        <time>2017-07-31T07:29:17Z</time>
      </trkpt>
      <trkpt lat="42.99111" lon="-0.21618">
        <ele>1399.45</ele>
        <time>2017-07-31T07:29:18Z</time>
      </trkpt>
      <trkpt lat="42.9911" lon="-0.21625">
        <ele>1398.91</ele>
        <time>2017-07-31T07:29:19Z</time>
      </trkpt>
      <trkpt lat="42.9911" lon="-0.21633">
        <ele>1398.25</ele>
        <time>2017-07-31T07:29:20Z</time>
      </trkpt>
      <trkpt lat="42.99109" lon="-0.21642">
        <ele>1397.52</ele>
        <time>2017-07-31T07:29:21Z</time>
      </trkpt>
      <trkpt lat="42.99109" lon="-0.21652">
        <ele>1396.78</ele>
        <time>2017-07-31T07:29:22Z</time>
      </trkpt>
      <trkpt lat="42.99109" lon="-0.21662">
        <ele>1396.1</ele>
        <time>2017-07-31T07:29:23Z</time>
      </trkpt>
      <trkpt lat="42.99109" lon="-0.21671">
        <ele>1395.44</ele>
        <time>2017-07-31T07:29:24Z</time>
      </trkpt>
      <trkpt lat="42.99108" lon="-0.2168">
        <ele>1394.82</ele>
        <time>2017-07-31T07:29:25Z</time>
      </trkpt>
      <trkpt lat="42.99108" lon="-0.21689">
        <ele>1394.28</ele>
        <time>2017-07-31T07:29:26Z</time>
      </trkpt>
      <trkpt lat="42.99108" lon="-0.21698">
        <ele>1393.77</ele>
        <time>2017-07-31T07:29:27Z</time>
      </trkpt>
      <trkpt lat="42.99107" lon="-0.21706">
        <ele>1393.33</ele>
        <time>2017-07-31T07:29:28Z</time>
      </trkpt>
      <trkpt lat="42.99106" lon="-0.21714">
        <ele>1392.92</ele>
        <time>2017-07-31T07:29:29Z</time>
      </trkpt>
      <trkpt lat="42.99106" lon="-0.21721">
        <ele>1392.48</ele>
        <time>2017-07-31T07:29:30Z</time>
      </trkpt>
      <trkpt lat="42.99105" lon="-0.21729">
        <ele>1392.07</ele>
        <time>2017-07-31T07:29:31Z</time>
      </trkpt>
      <trkpt lat="42.99104" lon="-0.21736">
        <ele>1391.62</ele>
        <time>2017-07-31T07:29:32Z</time>
      </trkpt>
      <trkpt lat="42.99103" lon="-0.21743">
        <ele>1391.12</ele>
        <time>2017-07-31T07:29:33Z</time>
      </trkpt>
      <trkpt lat="42.99103" lon="-0.21749">
        <ele>1390.73</ele>
        <time>2017-07-31T07:29:34Z</time>
      </trkpt>
      <trkpt lat="42.99103" lon="-0.21758">
        <ele>1390.52</ele>
        <time>2017-07-31T07:29:36Z</time>
      </trkpt>
      <trkpt lat="42.9911" lon="-0.21763">
        <ele>1390.47</ele>
        <time>2017-07-31T07:29:38Z</time>
      </trkpt>
      <trkpt lat="42.99117" lon="-0.2176">
        <ele>1390.41</ele>
        <time>2017-07-31T07:29:40Z</time>
      </trkpt>
      <trkpt lat="42.99123" lon="-0.21756">
        <ele>1390.37</ele>
        <time>2017-07-31T07:29:42Z</time>
      </trkpt>
      <trkpt lat="42.99127" lon="-0.21752">
        <ele>1390.31</ele>
        <time>2017-07-31T07:29:44Z</time>
      </trkpt>
      <trkpt lat="42.9913" lon="-0.21748">
        <ele>1390.27</ele>
        <time>2017-07-31T07:29:46Z</time>
      </trkpt>
      <trkpt lat="42.99134" lon="-0.21744">
        <ele>1390.26</ele>
        <time>2017-07-31T07:29:48Z</time>
      </trkpt>
      <trkpt lat="42.9914" lon="-0.21739">
        <ele>1390.26</ele>
        <time>2017-07-31T07:29:51Z</time>
      </trkpt>
      <trkpt lat="42.99145" lon="-0.21737">
        <ele>1390.31</ele>
        <time>2017-07-31T07:29:54Z</time>
      </trkpt>
      <trkpt lat="42.9915" lon="-0.21734">
        <ele>1390.36</ele>
        <time>2017-07-31T07:29:56Z</time>
      </trkpt>
      <trkpt lat="42.99155" lon="-0.2173">
        <ele>1390.44</ele>
        <time>2017-07-31T07:29:58Z</time>
      </trkpt>
      <trkpt lat="42.99161" lon="-0.21727">
        <ele>1390.58</ele>
        <time>2017-07-31T07:30:00Z</time>
      </trkpt>
      <trkpt lat="42.99167" lon="-0.21725">
        <ele>1390.78</ele>
        <time>2017-07-31T07:30:02Z</time>
      </trkpt>
      <trkpt lat="42.99173" lon="-0.21725">
        <ele>1391.04</ele>
        <time>2017-07-31T07:30:04Z</time>
      </trkpt>
      <trkpt lat="42.99179" lon="-0.21725">
        <ele>1391.3</ele>
        <time>2017-07-31T07:30:06Z</time>
      </trkpt>
      <trkpt lat="42.99183" lon="-0.21726">
        <ele>1391.55</ele>
        <time>2017-07-31T07:30:08Z</time>
      </trkpt>
      <trkpt lat="42.99188" lon="-0.21726">
        <ele>1391.83</ele>
        <time>2017-07-31T07:30:10Z</time>
      </trkpt>
      <trkpt lat="42.99194" lon="-0.21727">
        <ele>1392.19</ele>
        <time>2017-07-31T07:30:12Z</time>
      </trkpt>
      <trkpt lat="42.99199" lon="-0.21728">
        <ele>1392.65</ele>
        <time>2017-07-31T07:30:14Z</time>
      </trkpt>
      <trkpt lat="42.99204" lon="-0.21734">
        <ele>1393.13</ele>
        <time>2017-07-31T07:30:16Z</time>
      </trkpt>
      <trkpt lat="42.99209" lon="-0.21741">
        <ele>1393.61</ele>
        <time>2017-07-31T07:30:18Z</time>
      </trkpt>
      <trkpt lat="42.99214" lon="-0.21748">
        <ele>1395.5</ele>
        <time>2017-07-31T07:30:20Z</time>
      </trkpt>
      <trkpt lat="42.9922" lon="-0.21755">
        <ele>1398.89</ele>
        <time>2017-07-31T07:30:22Z</time>
      </trkpt>
      <trkpt lat="42.99228" lon="-0.21759">
        <ele>1400.86</ele>
        <time>2017-07-31T07:30:24Z</time>
      </trkpt>
      <trkpt lat="42.99235" lon="-0.2176">
        <ele>1401.23</ele>
        <time>2017-07-31T07:30:26Z</time>
      </trkpt>
      <trkpt lat="42.99242" lon="-0.21761">
        <ele>1401.43</ele>
        <time>2017-07-31T07:30:28Z</time>
      </trkpt>
      <trkpt lat="42.99249" lon="-0.21761">
        <ele>1401.58</ele>
        <time>2017-07-31T07:30:30Z</time>
      </trkpt>
      <trkpt lat="42.99256" lon="-0.21762">
        <ele>1401.73</ele>
        <time>2017-07-31T07:30:32Z</time>
      </trkpt>
      <trkpt lat="42.99262" lon="-0.21763">
        <ele>1401.88</ele>
        <time>2017-07-31T07:30:34Z</time>
      </trkpt>
      <trkpt lat="42.99268" lon="-0.21763">
        <ele>1402.04</ele>
        <time>2017-07-31T07:30:36Z</time>
      </trkpt>
      <trkpt lat="42.99275" lon="-0.21763">
        <ele>1402.21</ele>
        <time>2017-07-31T07:30:38Z</time>
      </trkpt>
      <trkpt lat="42.99281" lon="-0.21763">
        <ele>1402.42</ele>
        <time>2017-07-31T07:30:40Z</time>
      </trkpt>
      <trkpt lat="42.99287" lon="-0.21762">
        <ele>1402.66</ele>
        <time>2017-07-31T07:30:42Z</time>
      </trkpt>
      <trkpt lat="42.99292" lon="-0.21764">
        <ele>1402.94</ele>
        <time>2017-07-31T07:30:44Z</time>
      </trkpt>
      <trkpt lat="42.99297" lon="-0.21766">
        <ele>1403.22</ele>
        <time>2017-07-31T07:30:46Z</time>
      </trkpt>
      <trkpt lat="42.99303" lon="-0.21769">
        <ele>1403.79</ele>
        <time>2017-07-31T07:30:49Z</time>
      </trkpt>
      <trkpt lat="42.99308" lon="-0.21773">
        <ele>1404.24</ele>
        <time>2017-07-31T07:30:51Z</time>
      </trkpt>
      <trkpt lat="42.99313" lon="-0.21776">
        <ele>1404.7</ele>
        <time>2017-07-31T07:30:53Z</time>
      </trkpt>
      <trkpt lat="42.99317" lon="-0.2178">
        <ele>1405.18</ele>
        <time>2017-07-31T07:30:55Z</time>
      </trkpt>
      <trkpt lat="42.99321" lon="-0.21784">
        <ele>1405.68</ele>
        <time>2017-07-31T07:30:57Z</time>
      </trkpt>
      <trkpt lat="42.99327" lon="-0.21788">
        <ele>1406.47</ele>
        <time>2017-07-31T07:31:00Z</time>
      </trkpt>
      <trkpt lat="42.99331" lon="-0.21792">
        <ele>1406.97</ele>
        <time>2017-07-31T07:31:02Z</time>
      </trkpt>
      <trkpt lat="42.99336" lon="-0.21794">
        <ele>1407.46</ele>
        <time>2017-07-31T07:31:04Z</time>
      </trkpt>
      <trkpt lat="42.99341" lon="-0.21799">
        <ele>1407.93</ele>
        <time>2017-07-31T07:31:06Z</time>
      </trkpt>
      <trkpt lat="42.99344" lon="-0.21807">
        <ele>1408.34</ele>
        <time>2017-07-31T07:31:08Z</time>
      </trkpt>
      <trkpt lat="42.99345" lon="-0.21815">
        <ele>1408.69</ele>
        <time>2017-07-31T07:31:10Z</time>
      </trkpt>
      <trkpt lat="42.99344" lon="-0.21824">
        <ele>1408.99</ele>
        <time>2017-07-31T07:31:12Z</time>
      </trkpt>
      <trkpt lat="42.99343" lon="-0.21833">
        <ele>1409.2</ele>
        <time>2017-07-31T07:31:14Z</time>
      </trkpt>
      <trkpt lat="42.99342" lon="-0.2184">
        <ele>1409.32</ele>
        <time>2017-07-31T07:31:16Z</time>
      </trkpt>
      <trkpt lat="42.99341" lon="-0.21847">
        <ele>1409.37</ele>
        <time>2017-07-31T07:31:19Z</time>
      </trkpt>
      <trkpt lat="42.99339" lon="-0.21853">
        <ele>1409.39</ele>
        <time>2017-07-31T07:31:22Z</time>
      </trkpt>
      <trkpt lat="42.99342" lon="-0.21847">
        <ele>1410.4</ele>
        <time>2017-07-31T07:32:00Z</time>
      </trkpt>
      <trkpt lat="42.99345" lon="-0.21839">
        <ele>1410.48</ele>
        <time>2017-07-31T07:32:02Z</time>
      </trkpt>
      <trkpt lat="42.99348" lon="-0.21829">
        <ele>1410.55</ele>
        <time>2017-07-31T07:32:04Z</time>
      </trkpt>
      <trkpt lat="42.99347" lon="-0.2182">
        <ele>1410.61</ele>
        <time>2017-07-31T07:32:06Z</time>
      </trkpt>
      <trkpt lat="42.99344" lon="-0.21814">
        <ele>1410.65</ele>
        <time>2017-07-31T07:32:08Z</time>
      </trkpt>
      <trkpt lat="42.99341" lon="-0.21809">
        <ele>1411.07</ele>
        <time>2017-07-31T07:32:22Z</time>
      </trkpt>
      <trkpt lat="42.99336" lon="-0.21806">
        <ele>1411.27</ele>
        <time>2017-07-31T07:32:24Z</time>
      </trkpt>
      <trkpt lat="42.99331" lon="-0.21801">
        <ele>1411.45</ele>
        <time>2017-07-31T07:32:26Z</time>
      </trkpt>
      <trkpt lat="42.99324" lon="-0.21796">
        <ele>1411.6</ele>
        <time>2017-07-31T07:32:28Z</time>
      </trkpt>
      <trkpt lat="42.99317" lon="-0.21791">
        <ele>1412.17</ele>
        <time>2017-07-31T07:32:30Z</time>
      </trkpt>
      <trkpt lat="42.99312" lon="-0.21786">
        <ele>1412.25</ele>
        <time>2017-07-31T07:32:32Z</time>
      </trkpt>
      <trkpt lat="42.99308" lon="-0.21781">
        <ele>1412.24</ele>
        <time>2017-07-31T07:32:34Z</time>
      </trkpt>
      <trkpt lat="42.99303" lon="-0.21778">
        <ele>1412.18</ele>
        <time>2017-07-31T07:32:36Z</time>
      </trkpt>
      <trkpt lat="42.99295" lon="-0.21776">
        <ele>1412.13</ele>
        <time>2017-07-31T07:32:38Z</time>
      </trkpt>
      <trkpt lat="42.99286" lon="-0.21774">
        <ele>1411.74</ele>
        <time>2017-07-31T07:32:40Z</time>
      </trkpt>
      <trkpt lat="42.99281" lon="-0.21773">
        <ele>1411.43</ele>
        <time>2017-07-31T07:32:41Z</time>
      </trkpt>
      <trkpt lat="42.99276" lon="-0.21773">
        <ele>1410.96</ele>
        <time>2017-07-31T07:32:42Z</time>
      </trkpt>
      <trkpt lat="42.99271" lon="-0.21771">
        <ele>1410.41</ele>
        <time>2017-07-31T07:32:43Z</time>
      </trkpt>
      <trkpt lat="42.99266" lon="-0.2177">
        <ele>1409.79</ele>
        <time>2017-07-31T07:32:44Z</time>
      </trkpt>
      <trkpt lat="42.99261" lon="-0.2177">
        <ele>1409.55</ele>
        <time>2017-07-31T07:32:45Z</time>
      </trkpt>
      <trkpt lat="42.99254" lon="-0.21769">
        <ele>1409.31</ele>
        <time>2017-07-31T07:32:47Z</time>
      </trkpt>
      <trkpt lat="42.99249" lon="-0.21769">
        <ele>1409.09</ele>
        <time>2017-07-31T07:32:49Z</time>
      </trkpt>
      <trkpt lat="42.99247" lon="-0.21763">
        <ele>1408.63</ele>
        <time>2017-07-31T07:32:53Z</time>
      </trkpt>
      <trkpt lat="42.99251" lon="-0.2176">
        <ele>1408.23</ele>
        <time>2017-07-31T07:32:56Z</time>
      </trkpt>
      <trkpt lat="42.99257" lon="-0.21757">
        <ele>1407.82</ele>
        <time>2017-07-31T07:32:59Z</time>
      </trkpt>
      <trkpt lat="42.99261" lon="-0.21755">
        <ele>1407.36</ele>
        <time>2017-07-31T07:33:02Z</time>
      </trkpt>
      <trkpt lat="42.99267" lon="-0.21752">
        <ele>1406.67</ele>
        <time>2017-07-31T07:33:06Z</time>
      </trkpt>
      <trkpt lat="42.99271" lon="-0.21747">
        <ele>1406.32</ele>
        <time>2017-07-31T07:33:08Z</time>
      </trkpt>
      <trkpt lat="42.99275" lon="-0.21741">
        <ele>1405.93</ele>
        <time>2017-07-31T07:33:10Z</time>
      </trkpt>
      <trkpt lat="42.99279" lon="-0.21736">
        <ele>1405.5</ele>
        <time>2017-07-31T07:33:12Z</time>
      </trkpt>
      <trkpt lat="42.99285" lon="-0.21732">
        <ele>1404.82</ele>
        <time>2017-07-31T07:33:15Z</time>
      </trkpt>
      <trkpt lat="42.99291" lon="-0.21731">
        <ele>1404.35</ele>
        <time>2017-07-31T07:33:17Z</time>
      </trkpt>
      <trkpt lat="42.99298" lon="-0.2173">
        <ele>1403.88</ele>
        <time>2017-07-31T07:33:19Z</time>
      </trkpt>
      <trkpt lat="42.99302" lon="-0.2173">
        <ele>1403.41</ele>
        <time>2017-07-31T07:33:21Z</time>
      </trkpt>
      <trkpt lat="42.99309" lon="-0.21728">
        <ele>1402.7</ele>
        <time>2017-07-31T07:33:24Z</time>
      </trkpt>
      <trkpt lat="42.99315" lon="-0.21726">
        <ele>1402.22</ele>
        <time>2017-07-31T07:33:26Z</time>
      </trkpt>
      <trkpt lat="42.99321" lon="-0.21726">
        <ele>1400.48</ele>
        <time>2017-07-31T07:33:28Z</time>
      </trkpt>
      <trkpt lat="42.9933" lon="-0.21727">
        <ele>1398.16</ele>
        <time>2017-07-31T07:33:30Z</time>
      </trkpt>
      <trkpt lat="42.99336" lon="-0.21728">
        <ele>1397.67</ele>
        <time>2017-07-31T07:33:32Z</time>
      </trkpt>
      <trkpt lat="42.9934" lon="-0.21729">
        <ele>1397.34</ele>
        <time>2017-07-31T07:33:34Z</time>
      </trkpt>
      <trkpt lat="42.99345" lon="-0.21732">
        <ele>1397.02</ele>
        <time>2017-07-31T07:33:36Z</time>
      </trkpt>
      <trkpt lat="42.9935" lon="-0.21733">
        <ele>1396.69</ele>
        <time>2017-07-31T07:33:38Z</time>
      </trkpt>
      <trkpt lat="42.99356" lon="-0.21732">
        <ele>1396.33</ele>
        <time>2017-07-31T07:33:40Z</time>
      </trkpt>
      <trkpt lat="42.99361" lon="-0.21732">
        <ele>1395.97</ele>
        <time>2017-07-31T07:33:42Z</time>
      </trkpt>
      <trkpt lat="42.99367" lon="-0.21732">
        <ele>1395.58</ele>
        <time>2017-07-31T07:33:44Z</time>
      </trkpt>
      <trkpt lat="42.99372" lon="-0.21731">
        <ele>1395.19</ele>
        <time>2017-07-31T07:33:46Z</time>
      </trkpt>
      <trkpt lat="42.99378" lon="-0.21731">
        <ele>1394.8</ele>
        <time>2017-07-31T07:33:48Z</time>
      </trkpt>
      <trkpt lat="42.99382" lon="-0.2173">
        <ele>1394.42</ele>
        <time>2017-07-31T07:33:50Z</time>
      </trkpt>
      <trkpt lat="42.99388" lon="-0.21727">
        <ele>1393.88</ele>
        <time>2017-07-31T07:33:53Z</time>
      </trkpt>
      <trkpt lat="42.99397" lon="-0.21724">
        <ele>1392.44</ele>
        <time>2017-07-31T07:34:02Z</time>
      </trkpt>
      <trkpt lat="42.99403" lon="-0.21723">
        <ele>1392.02</ele>
        <time>2017-07-31T07:34:05Z</time>
      </trkpt>
      <trkpt lat="42.99411" lon="-0.21721">
        <ele>1391.74</ele>
        <time>2017-07-31T07:34:07Z</time>
      </trkpt>
      <trkpt lat="42.99416" lon="-0.21721">
        <ele>1391.58</ele>
        <time>2017-07-31T07:34:08Z</time>
      </trkpt>
      <trkpt lat="42.99425" lon="-0.21723">
        <ele>1388.8</ele>
        <time>2017-07-31T07:34:10Z</time>
      </trkpt>
      <trkpt lat="42.99429" lon="-0.21725">
        <ele>1387.46</ele>
        <time>2017-07-31T07:34:11Z</time>
      </trkpt>
      <trkpt lat="42.99433" lon="-0.21727">
        <ele>1386.97</ele>
        <time>2017-07-31T07:34:12Z</time>
      </trkpt>
      <trkpt lat="42.9944" lon="-0.21731">
        <ele>1386.55</ele>
        <time>2017-07-31T07:34:14Z</time>
      </trkpt>
      <trkpt lat="42.99445" lon="-0.21734">
        <ele>1386.21</ele>
        <time>2017-07-31T07:34:16Z</time>
      </trkpt>
      <trkpt lat="42.99449" lon="-0.21737">
        <ele>1385.03</ele>
        <time>2017-07-31T07:34:25Z</time>
      </trkpt>
      <trkpt lat="42.99453" lon="-0.2174">
        <ele>1384.03</ele>
        <time>2017-07-31T07:34:31Z</time>
      </trkpt>
      <trkpt lat="42.99459" lon="-0.21743">
        <ele>1383.2</ele>
        <time>2017-07-31T07:34:34Z</time>
      </trkpt>
      <trkpt lat="42.99463" lon="-0.21742">
        <ele>1382.29</ele>
        <time>2017-07-31T07:34:37Z</time>
      </trkpt>
      <trkpt lat="42.99466" lon="-0.21748">
        <ele>1380.85</ele>
        <time>2017-07-31T07:34:42Z</time>
      </trkpt>
      <trkpt lat="42.99471" lon="-0.21748">
        <ele>1379.51</ele>
        <time>2017-07-31T07:34:47Z</time>
      </trkpt>
      <trkpt lat="42.99476" lon="-0.21749">
        <ele>1377.88</ele>
        <time>2017-07-31T07:35:13Z</time>
      </trkpt>
      <trkpt lat="42.9948" lon="-0.21746">
        <ele>1376.75</ele>
        <time>2017-07-31T07:35:20Z</time>
      </trkpt>
      <trkpt lat="42.99485" lon="-0.21745">
        <ele>1375.37</ele>
        <time>2017-07-31T07:35:27Z</time>
      </trkpt>
      <trkpt lat="42.99489" lon="-0.21741">
        <ele>1373.54</ele>
        <time>2017-07-31T07:35:41Z</time>
      </trkpt>
      <trkpt lat="42.99494" lon="-0.21739">
        <ele>1372.18</ele>
        <time>2017-07-31T07:35:49Z</time>
      </trkpt>
      <trkpt lat="42.99497" lon="-0.21746">
        <ele>1371.19</ele>
        <time>2017-07-31T07:35:53Z</time>
      </trkpt>
      <trkpt lat="42.99501" lon="-0.21746">
        <ele>1369.7</ele>
        <time>2017-07-31T07:36:02Z</time>
      </trkpt>
      <trkpt lat="42.99506" lon="-0.21747">
        <ele>1367.21</ele>
        <time>2017-07-31T07:36:13Z</time>
      </trkpt>
      <trkpt lat="42.99508" lon="-0.21741">
        <ele>1366.64</ele>
        <time>2017-07-31T07:36:15Z</time>
      </trkpt>
      <trkpt lat="42.99509" lon="-0.21733">
        <ele>1366.02</ele>
        <time>2017-07-31T07:36:17Z</time>
      </trkpt>
      <trkpt lat="42.99507" lon="-0.21724">
        <ele>1364.69</ele>
        <time>2017-07-31T07:36:21Z</time>
      </trkpt>
      <trkpt lat="42.99505" lon="-0.21718">
        <ele>1363.27</ele>
        <time>2017-07-31T07:36:25Z</time>
      </trkpt>
      <trkpt lat="42.99504" lon="-0.21711">
        <ele>1362.09</ele>
        <time>2017-07-31T07:36:28Z</time>
      </trkpt>
      <trkpt lat="42.99503" lon="-0.21704">
        <ele>1361.26</ele>
        <time>2017-07-31T07:36:30Z</time>
      </trkpt>
      <trkpt lat="42.99501" lon="-0.21698">
        <ele>1360.46</ele>
        <time>2017-07-31T07:36:32Z</time>
      </trkpt>
      <trkpt lat="42.99501" lon="-0.21691">
        <ele>1359.67</ele>
        <time>2017-07-31T07:36:34Z</time>
      </trkpt>
      <trkpt lat="42.99503" lon="-0.21684">
        <ele>1358.88</ele>
        <time>2017-07-31T07:36:36Z</time>
      </trkpt>
      <trkpt lat="42.99504" lon="-0.21676">
        <ele>1358.13</ele>
        <time>2017-07-31T07:36:38Z</time>
      </trkpt>
      <trkpt lat="42.99503" lon="-0.21669">
        <ele>1357.06</ele>
        <time>2017-07-31T07:36:41Z</time>
      </trkpt>
      <trkpt lat="42.995" lon="-0.21663">
        <ele>1355.57</ele>
        <time>2017-07-31T07:36:45Z</time>
      </trkpt>
      <trkpt lat="42.995" lon="-0.21655">
        <ele>1354.07</ele>
        <time>2017-07-31T07:36:49Z</time>
      </trkpt>
      <trkpt lat="42.99504" lon="-0.21651">
        <ele>1353.04</ele>
        <time>2017-07-31T07:36:52Z</time>
      </trkpt>
      <trkpt lat="42.99512" lon="-0.21647">
        <ele>1352.37</ele>
        <time>2017-07-31T07:36:54Z</time>
      </trkpt>
      <trkpt lat="42.99517" lon="-0.21644">
        <ele>1351.63</ele>
        <time>2017-07-31T07:36:56Z</time>
      </trkpt>
      <trkpt lat="42.99522" lon="-0.21642">
        <ele>1350.42</ele>
        <time>2017-07-31T07:36:59Z</time>
      </trkpt>
      <trkpt lat="42.99528" lon="-0.21641">
        <ele>1349.14</ele>
        <time>2017-07-31T07:37:02Z</time>
      </trkpt>
      <trkpt lat="42.99533" lon="-0.21644">
        <ele>1347.8</ele>
        <time>2017-07-31T07:37:05Z</time>
      </trkpt>
      <trkpt lat="42.99539" lon="-0.2165">
        <ele>1346.85</ele>
        <time>2017-07-31T07:37:07Z</time>
      </trkpt>
      <trkpt lat="42.99543" lon="-0.21654">
        <ele>1345.91</ele>
        <time>2017-07-31T07:37:09Z</time>
      </trkpt>
      <trkpt lat="42.99547" lon="-0.21657">
        <ele>1345.02</ele>
        <time>2017-07-31T07:37:11Z</time>
      </trkpt>
      <trkpt lat="42.99554" lon="-0.2166">
        <ele>1344.16</ele>
        <time>2017-07-31T07:37:13Z</time>
      </trkpt>
      <trkpt lat="42.99557" lon="-0.21664">
        <ele>1342.18</ele>
        <time>2017-07-31T07:37:38Z</time>
      </trkpt>
      <trkpt lat="42.99563" lon="-0.21666">
        <ele>1340.11</ele>
        <time>2017-07-31T07:38:01Z</time>
      </trkpt>
      <trkpt lat="42.99567" lon="-0.21665">
        <ele>1339.36</ele>
        <time>2017-07-31T07:38:03Z</time>
      </trkpt>
      <trkpt lat="42.99573" lon="-0.21666">
        <ele>1338.67</ele>
        <time>2017-07-31T07:38:05Z</time>
      </trkpt>
      <trkpt lat="42.99577" lon="-0.21669">
        <ele>1338.02</ele>
        <time>2017-07-31T07:38:07Z</time>
      </trkpt>
      <trkpt lat="42.99581" lon="-0.21676">
        <ele>1337.09</ele>
        <time>2017-07-31T07:38:10Z</time>
      </trkpt>
      <trkpt lat="42.99583" lon="-0.21682">
        <ele>1336.49</ele>
        <time>2017-07-31T07:38:12Z</time>
      </trkpt>
      <trkpt lat="42.99585" lon="-0.21688">
        <ele>1335.92</ele>
        <time>2017-07-31T07:38:14Z</time>
      </trkpt>
      <trkpt lat="42.99588" lon="-0.21694">
        <ele>1335.32</ele>
        <time>2017-07-31T07:38:16Z</time>
      </trkpt>
      <trkpt lat="42.9959" lon="-0.21702">
        <ele>1334.69</ele>
        <time>2017-07-31T07:38:18Z</time>
      </trkpt>
      <trkpt lat="42.99592" lon="-0.21708">
        <ele>1334.07</ele>
        <time>2017-07-31T07:38:20Z</time>
      </trkpt>
      <trkpt lat="42.99592" lon="-0.21717">
        <ele>1333.43</ele>
        <time>2017-07-31T07:38:22Z</time>
      </trkpt>
      <trkpt lat="42.99592" lon="-0.21724">
        <ele>1332.7</ele>
        <time>2017-07-31T07:38:24Z</time>
      </trkpt>
      <trkpt lat="42.99593" lon="-0.21733">
        <ele>1331.48</ele>
        <time>2017-07-31T07:38:27Z</time>
      </trkpt>
      <trkpt lat="42.99597" lon="-0.21738">
        <ele>1330.2</ele>
        <time>2017-07-31T07:38:30Z</time>
      </trkpt>
      <trkpt lat="42.99602" lon="-0.21733">
        <ele>1329.07</ele>
        <time>2017-07-31T07:38:33Z</time>
      </trkpt>
      <trkpt lat="42.99606" lon="-0.21726">
        <ele>1328.37</ele>
        <time>2017-07-31T07:38:35Z</time>
      </trkpt>
      <trkpt lat="42.99611" lon="-0.21721">
        <ele>1327.76</ele>
        <time>2017-07-31T07:38:37Z</time>
      </trkpt>
      <trkpt lat="42.99616" lon="-0.21713">
        <ele>1327.15</ele>
        <time>2017-07-31T07:38:39Z</time>
      </trkpt>
      <trkpt lat="42.99619" lon="-0.21707">
        <ele>1326.48</ele>
        <time>2017-07-31T07:38:41Z</time>
      </trkpt>
      <trkpt lat="42.99622" lon="-0.21702">
        <ele>1325.84</ele>
        <time>2017-07-31T07:38:43Z</time>
      </trkpt>
      <trkpt lat="42.99626" lon="-0.21698">
        <ele>1325.25</ele>
        <time>2017-07-31T07:38:45Z</time>
      </trkpt>
      <trkpt lat="42.99632" lon="-0.21692">
        <ele>1324.69</ele>
        <time>2017-07-31T07:38:47Z</time>
      </trkpt>
      <trkpt lat="42.99634" lon="-0.21684">
        <ele>1324.07</ele>
        <time>2017-07-31T07:38:49Z</time>
      </trkpt>
      <trkpt lat="42.99638" lon="-0.21676">
        <ele>1322.99</ele>
        <time>2017-07-31T07:38:52Z</time>
      </trkpt>
      <trkpt lat="42.99641" lon="-0.21671">
        <ele>1322.23</ele>
        <time>2017-07-31T07:38:54Z</time>
      </trkpt>
      <trkpt lat="42.99644" lon="-0.21665">
        <ele>1321.01</ele>
        <time>2017-07-31T07:38:57Z</time>
      </trkpt>
      <trkpt lat="42.99647" lon="-0.21659">
        <ele>1320.11</ele>
        <time>2017-07-31T07:38:59Z</time>
      </trkpt>
      <trkpt lat="42.99651" lon="-0.21651">
        <ele>1319.15</ele>
        <time>2017-07-31T07:39:01Z</time>
      </trkpt>
      <trkpt lat="42.99654" lon="-0.21644">
        <ele>1318.17</ele>
        <time>2017-07-31T07:39:03Z</time>
      </trkpt>
      <trkpt lat="42.99657" lon="-0.21637">
        <ele>1317.15</ele>
        <time>2017-07-31T07:39:05Z</time>
      </trkpt>
      <trkpt lat="42.99656" lon="-0.21631">
        <ele>1316.13</ele>
        <time>2017-07-31T07:39:07Z</time>
      </trkpt>
      <trkpt lat="42.99653" lon="-0.21624">
        <ele>1314.64</ele>
        <time>2017-07-31T07:39:10Z</time>
      </trkpt>
      <trkpt lat="42.99649" lon="-0.21619">
        <ele>1313.24</ele>
        <time>2017-07-31T07:39:13Z</time>
      </trkpt>
      <trkpt lat="42.99644" lon="-0.21612">
        <ele>1312.36</ele>
        <time>2017-07-31T07:39:15Z</time>
      </trkpt>
      <trkpt lat="42.9964" lon="-0.21607">
        <ele>1311.54</ele>
        <time>2017-07-31T07:39:17Z</time>
      </trkpt>
      <trkpt lat="42.99637" lon="-0.216">
        <ele>1310.47</ele>
        <time>2017-07-31T07:39:20Z</time>
      </trkpt>
      <trkpt lat="42.99635" lon="-0.21594">
        <ele>1309.44</ele>
        <time>2017-07-31T07:39:24Z</time>
      </trkpt>
      <trkpt lat="42.99636" lon="-0.21586">
        <ele>1308.79</ele>
        <time>2017-07-31T07:39:27Z</time>
      </trkpt>
      <trkpt lat="42.99642" lon="-0.21587">
        <ele>1305.84</ele>
        <time>2017-07-31T07:39:41Z</time>
      </trkpt>
      <trkpt lat="42.99647" lon="-0.21591">
        <ele>1305.06</ele>
        <time>2017-07-31T07:39:43Z</time>
      </trkpt>
      <trkpt lat="42.99653" lon="-0.21597">
        <ele>1304.31</ele>
        <time>2017-07-31T07:39:45Z</time>
      </trkpt>
      <trkpt lat="42.99659" lon="-0.21603">
        <ele>1298.97</ele>
        <time>2017-07-31T07:39:47Z</time>
      </trkpt>
      <trkpt lat="42.99667" lon="-0.21611">
        <ele>1294.64</ele>
        <time>2017-07-31T07:39:49Z</time>
      </trkpt>
      <trkpt lat="42.99671" lon="-0.21615">
        <ele>1293.01</ele>
        <time>2017-07-31T07:39:50Z</time>
      </trkpt>
      <trkpt lat="42.99676" lon="-0.21623">
        <ele>1290.5</ele>
        <time>2017-07-31T07:39:52Z</time>
      </trkpt>
      <trkpt lat="42.99679" lon="-0.21632">
        <ele>1288.45</ele>
        <time>2017-07-31T07:39:54Z</time>
      </trkpt>
      <trkpt lat="42.9968" lon="-0.21642">
        <ele>1286.76</ele>
        <time>2017-07-31T07:39:56Z</time>
      </trkpt>
      <trkpt lat="42.99678" lon="-0.21653">
        <ele>1285.43</ele>
        <time>2017-07-31T07:39:58Z</time>
      </trkpt>
      <trkpt lat="42.99676" lon="-0.21659">
        <ele>1284.96</ele>
        <time>2017-07-31T07:39:59Z</time>
      </trkpt>
      <trkpt lat="42.99675" lon="-0.21665">
        <ele>1284.56</ele>
        <time>2017-07-31T07:40:00Z</time>
      </trkpt>
      <trkpt lat="42.99671" lon="-0.21676">
        <ele>1283.75</ele>
        <time>2017-07-31T07:40:02Z</time>
      </trkpt>
      <trkpt lat="42.9967" lon="-0.21687">
        <ele>1283.38</ele>
        <time>2017-07-31T07:40:04Z</time>
      </trkpt>
      <trkpt lat="42.99672" lon="-0.21695">
        <ele>1283.39</ele>
        <time>2017-07-31T07:40:06Z</time>
      </trkpt>
      <trkpt lat="42.9968" lon="-0.21705">
        <ele>1283.59</ele>
        <time>2017-07-31T07:40:08Z</time>
      </trkpt>
      <trkpt lat="42.99684" lon="-0.21709">
        <ele>1283.47</ele>
        <time>2017-07-31T07:40:09Z</time>
      </trkpt>
      <trkpt lat="42.99689" lon="-0.21712">
        <ele>1282.99</ele>
        <time>2017-07-31T07:40:10Z</time>
      </trkpt>
      <trkpt lat="42.99695" lon="-0.21713">
        <ele>1282.56</ele>
        <time>2017-07-31T07:40:11Z</time>
      </trkpt>
      <trkpt lat="42.99699" lon="-0.21714">
        <ele>1282.13</ele>
        <time>2017-07-31T07:40:12Z</time>
      </trkpt>
      <trkpt lat="42.99705" lon="-0.21715">
        <ele>1281.66</ele>
        <time>2017-07-31T07:40:13Z</time>
      </trkpt>
      <trkpt lat="42.9971" lon="-0.21715">
        <ele>1281.17</ele>
        <time>2017-07-31T07:40:14Z</time>
      </trkpt>
      <trkpt lat="42.99716" lon="-0.21714">
        <ele>1280.69</ele>
        <time>2017-07-31T07:40:15Z</time>
      </trkpt>
      <trkpt lat="42.99721" lon="-0.21713">
        <ele>1280.13</ele>
        <time>2017-07-31T07:40:16Z</time>
      </trkpt>
      <trkpt lat="42.99726" lon="-0.21711">
        <ele>1279.57</ele>
        <time>2017-07-31T07:40:17Z</time>
      </trkpt>
      <trkpt lat="42.99733" lon="-0.2171">
        <ele>1278.91</ele>
        <time>2017-07-31T07:40:18Z</time>
      </trkpt>
      <trkpt lat="42.99739" lon="-0.21708">
        <ele>1278.18</ele>
        <time>2017-07-31T07:40:19Z</time>
      </trkpt>
      <trkpt lat="42.99744" lon="-0.21707">
        <ele>1277.5</ele>
        <time>2017-07-31T07:40:20Z</time>
      </trkpt>
      <trkpt lat="42.99749" lon="-0.21706">
        <ele>1276.82</ele>
        <time>2017-07-31T07:40:21Z</time>
      </trkpt>
      <trkpt lat="42.99754" lon="-0.21704">
        <ele>1276.17</ele>
        <time>2017-07-31T07:40:22Z</time>
      </trkpt>
      <trkpt lat="42.99759" lon="-0.21703">
        <ele>1275.49</ele>
        <time>2017-07-31T07:40:23Z</time>
      </trkpt>
      <trkpt lat="42.99764" lon="-0.21702">
        <ele>1274.88</ele>
        <time>2017-07-31T07:40:24Z</time>
      </trkpt>
      <trkpt lat="42.99772" lon="-0.21699">
        <ele>1273.62</ele>
        <time>2017-07-31T07:40:26Z</time>
      </trkpt>
      <trkpt lat="42.9978" lon="-0.21694">
        <ele>1272.32</ele>
        <time>2017-07-31T07:40:28Z</time>
      </trkpt>
      <trkpt lat="42.99786" lon="-0.21688">
        <ele>1271.84</ele>
        <time>2017-07-31T07:40:29Z</time>
      </trkpt>
      <trkpt lat="42.99791" lon="-0.21684">
        <ele>1271.53</ele>
        <time>2017-07-31T07:40:30Z</time>
      </trkpt>
      <trkpt lat="42.99797" lon="-0.21682">
        <ele>1271.21</ele>
        <time>2017-07-31T07:40:31Z</time>
      </trkpt>
      <trkpt lat="42.99802" lon="-0.2168">
        <ele>1270.83</ele>
        <time>2017-07-31T07:40:32Z</time>
      </trkpt>
      <trkpt lat="42.99807" lon="-0.21679">
        <ele>1270.34</ele>
        <time>2017-07-31T07:40:33Z</time>
      </trkpt>
      <trkpt lat="42.99812" lon="-0.21677">
        <ele>1269.75</ele>
        <time>2017-07-31T07:40:34Z</time>
      </trkpt>
      <trkpt lat="42.99816" lon="-0.21675">
        <ele>1269.11</ele>
        <time>2017-07-31T07:40:35Z</time>
      </trkpt>
      <trkpt lat="42.99821" lon="-0.21673">
        <ele>1268.39</ele>
        <time>2017-07-31T07:40:36Z</time>
      </trkpt>
      <trkpt lat="42.99827" lon="-0.21671">
        <ele>1267.68</ele>
        <time>2017-07-31T07:40:37Z</time>
      </trkpt>
      <trkpt lat="42.99832" lon="-0.21668">
        <ele>1266.98</ele>
        <time>2017-07-31T07:40:38Z</time>
      </trkpt>
      <trkpt lat="42.99838" lon="-0.21665">
        <ele>1266.33</ele>
        <time>2017-07-31T07:40:39Z</time>
      </trkpt>
      <trkpt lat="42.99843" lon="-0.21662">
        <ele>1265.73</ele>
        <time>2017-07-31T07:40:40Z</time>
      </trkpt>
      <trkpt lat="42.9985" lon="-0.2166">
        <ele>1264.75</ele>
        <time>2017-07-31T07:40:42Z</time>
      </trkpt>
      <trkpt lat="42.99854" lon="-0.21658">
        <ele>1264.42</ele>
        <time>2017-07-31T07:40:43Z</time>
      </trkpt>
      <trkpt lat="42.9986" lon="-0.21658">
        <ele>1264.24</ele>
        <time>2017-07-31T07:40:44Z</time>
      </trkpt>
      <trkpt lat="42.99865" lon="-0.2166">
        <ele>1264.13</ele>
        <time>2017-07-31T07:40:45Z</time>
      </trkpt>
      <trkpt lat="42.9987" lon="-0.21663">
        <ele>1264.15</ele>
        <time>2017-07-31T07:40:46Z</time>
      </trkpt>
      <trkpt lat="42.99874" lon="-0.21666">
        <ele>1264.26</ele>
        <time>2017-07-31T07:40:47Z</time>
      </trkpt>
      <trkpt lat="42.99878" lon="-0.21672">
        <ele>1264.4</ele>
        <time>2017-07-31T07:40:48Z</time>
      </trkpt>
      <trkpt lat="42.99882" lon="-0.21679">
        <ele>1264.47</ele>
        <time>2017-07-31T07:40:49Z</time>
      </trkpt>
      <trkpt lat="42.99884" lon="-0.21686">
        <ele>1264.25</ele>
        <time>2017-07-31T07:40:50Z</time>
      </trkpt>
      <trkpt lat="42.99888" lon="-0.21696">
        <ele>1263.72</ele>
        <time>2017-07-31T07:40:51Z</time>
      </trkpt>
      <trkpt lat="42.9989" lon="-0.21705">
        <ele>1263.03</ele>
        <time>2017-07-31T07:40:52Z</time>
      </trkpt>
      <trkpt lat="42.99892" lon="-0.21713">
        <ele>1262.28</ele>
        <time>2017-07-31T07:40:53Z</time>
      </trkpt>
      <trkpt lat="42.99895" lon="-0.2172">
        <ele>1261.46</ele>
        <time>2017-07-31T07:40:54Z</time>
      </trkpt>
      <trkpt lat="42.99897" lon="-0.21728">
        <ele>1260.55</ele>
        <time>2017-07-31T07:40:55Z</time>
      </trkpt>
      <trkpt lat="42.999" lon="-0.21737">
        <ele>1259.59</ele>
        <time>2017-07-31T07:40:56Z</time>
      </trkpt>
      <trkpt lat="42.99902" lon="-0.21745">
        <ele>1258.61</ele>
        <time>2017-07-31T07:40:57Z</time>
      </trkpt>
      <trkpt lat="42.99905" lon="-0.21752">
        <ele>1257.64</ele>
        <time>2017-07-31T07:40:58Z</time>
      </trkpt>
      <trkpt lat="42.99908" lon="-0.2176">
        <ele>1256.83</ele>
        <time>2017-07-31T07:40:59Z</time>
      </trkpt>
      <trkpt lat="42.99913" lon="-0.21765">
        <ele>1256.16</ele>
        <time>2017-07-31T07:41:00Z</time>
      </trkpt>
      <trkpt lat="42.99917" lon="-0.2177">
        <ele>1255.63</ele>
        <time>2017-07-31T07:41:01Z</time>
      </trkpt>
      <trkpt lat="42.99922" lon="-0.21775">
        <ele>1255.04</ele>
        <time>2017-07-31T07:41:02Z</time>
      </trkpt>
      <trkpt lat="42.99927" lon="-0.21779">
        <ele>1254.53</ele>
        <time>2017-07-31T07:41:03Z</time>
      </trkpt>
      <trkpt lat="42.99933" lon="-0.21782">
        <ele>1253.97</ele>
        <time>2017-07-31T07:41:04Z</time>
      </trkpt>
      <trkpt lat="42.99939" lon="-0.21785">
        <ele>1253.3</ele>
        <time>2017-07-31T07:41:05Z</time>
      </trkpt>
      <trkpt lat="42.99945" lon="-0.21789">
        <ele>1252.61</ele>
        <time>2017-07-31T07:41:06Z</time>
      </trkpt>
      <trkpt lat="42.99951" lon="-0.21793">
        <ele>1252.02</ele>
        <time>2017-07-31T07:41:07Z</time>
      </trkpt>
      <trkpt lat="42.99956" lon="-0.21797">
        <ele>1251.51</ele>
        <time>2017-07-31T07:41:08Z</time>
      </trkpt>
      <trkpt lat="42.99962" lon="-0.21799">
        <ele>1250.99</ele>
        <time>2017-07-31T07:41:09Z</time>
      </trkpt>
      <trkpt lat="42.99967" lon="-0.218">
        <ele>1250.43</ele>
        <time>2017-07-31T07:41:10Z</time>
      </trkpt>
      <trkpt lat="42.99973" lon="-0.21799">
        <ele>1249.79</ele>
        <time>2017-07-31T07:41:11Z</time>
      </trkpt>
      <trkpt lat="42.99977" lon="-0.21797">
        <ele>1249.11</ele>
        <time>2017-07-31T07:41:12Z</time>
      </trkpt>
      <trkpt lat="42.99982" lon="-0.21793">
        <ele>1248.36</ele>
        <time>2017-07-31T07:41:13Z</time>
      </trkpt>
      <trkpt lat="42.99986" lon="-0.21789">
        <ele>1247.51</ele>
        <time>2017-07-31T07:41:14Z</time>
      </trkpt>
      <trkpt lat="42.99989" lon="-0.21783">
        <ele>1246.59</ele>
        <time>2017-07-31T07:41:15Z</time>
      </trkpt>
      <trkpt lat="42.99991" lon="-0.21777">
        <ele>1245.59</ele>
        <time>2017-07-31T07:41:16Z</time>
      </trkpt>
      <trkpt lat="42.99993" lon="-0.21771">
        <ele>1244.61</ele>
        <time>2017-07-31T07:41:17Z</time>
      </trkpt>
      <trkpt lat="42.99994" lon="-0.21764">
        <ele>1243.66</ele>
        <time>2017-07-31T07:41:18Z</time>
      </trkpt>
      <trkpt lat="42.99995" lon="-0.21757">
        <ele>1242.75</ele>
        <time>2017-07-31T07:41:19Z</time>
      </trkpt>
      <trkpt lat="42.99996" lon="-0.21749">
        <ele>1241.86</ele>
        <time>2017-07-31T07:41:20Z</time>
      </trkpt>
      <trkpt lat="42.99997" lon="-0.21742">
        <ele>1240.96</ele>
        <time>2017-07-31T07:41:21Z</time>
      </trkpt>
      <trkpt lat="42.99999" lon="-0.21736">
        <ele>1240.08</ele>
        <time>2017-07-31T07:41:22Z</time>
      </trkpt>
      <trkpt lat="43.00003" lon="-0.21726">
        <ele>1238.41</ele>
        <time>2017-07-31T07:41:24Z</time>
      </trkpt>
      <trkpt lat="43.00007" lon="-0.21715">
        <ele>1236.82</ele>
        <time>2017-07-31T07:41:26Z</time>
      </trkpt>
      <trkpt lat="43.00009" lon="-0.2171">
        <ele>1236.07</ele>
        <time>2017-07-31T07:41:27Z</time>
      </trkpt>
      <trkpt lat="43.00013" lon="-0.21705">
        <ele>1235.4</ele>
        <time>2017-07-31T07:41:28Z</time>
      </trkpt>
      <trkpt lat="43.00017" lon="-0.21699">
        <ele>1234.72</ele>
        <time>2017-07-31T07:41:29Z</time>
      </trkpt>
      <trkpt lat="43.00021" lon="-0.21694">
        <ele>1234</ele>
        <time>2017-07-31T07:41:30Z</time>
      </trkpt>
      <trkpt lat="43.00024" lon="-0.21688">
        <ele>1233.2</ele>
        <time>2017-07-31T07:41:31Z</time>
      </trkpt>
      <trkpt lat="43.00028" lon="-0.21682">
        <ele>1232.47</ele>
        <time>2017-07-31T07:41:32Z</time>
      </trkpt>
      <trkpt lat="43.00032" lon="-0.21676">
        <ele>1231.72</ele>
        <time>2017-07-31T07:41:33Z</time>
      </trkpt>
      <trkpt lat="43.00036" lon="-0.2167">
        <ele>1230.96</ele>
        <time>2017-07-31T07:41:34Z</time>
      </trkpt>
      <trkpt lat="43.00041" lon="-0.21666">
        <ele>1230.19</ele>
        <time>2017-07-31T07:41:35Z</time>
      </trkpt>
      <trkpt lat="43.00045" lon="-0.21661">
        <ele>1229.45</ele>
        <time>2017-07-31T07:41:36Z</time>
      </trkpt>
      <trkpt lat="43.00051" lon="-0.21656">
        <ele>1228.73</ele>
        <time>2017-07-31T07:41:37Z</time>
      </trkpt>
      <trkpt lat="43.00056" lon="-0.21651">
        <ele>1228.02</ele>
        <time>2017-07-31T07:41:38Z</time>
      </trkpt>
      <trkpt lat="43.00062" lon="-0.21647">
        <ele>1227.32</ele>
        <time>2017-07-31T07:41:39Z</time>
      </trkpt>
      <trkpt lat="43.00068" lon="-0.21643">
        <ele>1226.35</ele>
        <time>2017-07-31T07:41:40Z</time>
      </trkpt>
      <trkpt lat="43.00075" lon="-0.2164">
        <ele>1225.2</ele>
        <time>2017-07-31T07:41:41Z</time>
      </trkpt>
      <trkpt lat="43.00081" lon="-0.21638">
        <ele>1224.03</ele>
        <time>2017-07-31T07:41:42Z</time>
      </trkpt>
      <trkpt lat="43.00088" lon="-0.21636">
        <ele>1222.9</ele>
        <time>2017-07-31T07:41:43Z</time>
      </trkpt>
      <trkpt lat="43.00093" lon="-0.21633">
        <ele>1221.83</ele>
        <time>2017-07-31T07:41:44Z</time>
      </trkpt>
      <trkpt lat="43.00099" lon="-0.21631">
        <ele>1220.79</ele>
        <time>2017-07-31T07:41:45Z</time>
      </trkpt>
      <trkpt lat="43.00105" lon="-0.21628">
        <ele>1219.76</ele>
        <time>2017-07-31T07:41:46Z</time>
      </trkpt>
      <trkpt lat="43.00109" lon="-0.21626">
        <ele>1218.68</ele>
        <time>2017-07-31T07:41:47Z</time>
      </trkpt>
      <trkpt lat="43.00114" lon="-0.21624">
        <ele>1217.61</ele>
        <time>2017-07-31T07:41:48Z</time>
      </trkpt>
      <trkpt lat="43.00118" lon="-0.21621">
        <ele>1216.59</ele>
        <time>2017-07-31T07:41:49Z</time>
      </trkpt>
      <trkpt lat="43.00122" lon="-0.21618">
        <ele>1215.63</ele>
        <time>2017-07-31T07:41:50Z</time>
      </trkpt>
      <trkpt lat="43.00127" lon="-0.21614">
        <ele>1214.73</ele>
        <time>2017-07-31T07:41:51Z</time>
      </trkpt>
      <trkpt lat="43.00132" lon="-0.21609">
        <ele>1213.87</ele>
        <time>2017-07-31T07:41:52Z</time>
      </trkpt>
      <trkpt lat="43.00138" lon="-0.21603">
        <ele>1213.02</ele>
        <time>2017-07-31T07:41:53Z</time>
      </trkpt>
      <trkpt lat="43.00144" lon="-0.21597">
        <ele>1212.21</ele>
        <time>2017-07-31T07:41:54Z</time>
      </trkpt>
      <trkpt lat="43.00149" lon="-0.2159">
        <ele>1211.39</ele>
        <time>2017-07-31T07:41:55Z</time>
      </trkpt>
      <trkpt lat="43.00154" lon="-0.21582">
        <ele>1210.59</ele>
        <time>2017-07-31T07:41:56Z</time>
      </trkpt>
      <trkpt lat="43.00158" lon="-0.21574">
        <ele>1209.68</ele>
        <time>2017-07-31T07:41:57Z</time>
      </trkpt>
      <trkpt lat="43.00161" lon="-0.21567">
        <ele>1208.87</ele>
        <time>2017-07-31T07:41:58Z</time>
      </trkpt>
      <trkpt lat="43.00165" lon="-0.2156">
        <ele>1208.11</ele>
        <time>2017-07-31T07:41:59Z</time>
      </trkpt>
      <trkpt lat="43.00169" lon="-0.21552">
        <ele>1207.36</ele>
        <time>2017-07-31T07:42:00Z</time>
      </trkpt>
      <trkpt lat="43.00172" lon="-0.21543">
        <ele>1206.54</ele>
        <time>2017-07-31T07:42:01Z</time>
      </trkpt>
      <trkpt lat="43.00175" lon="-0.21536">
        <ele>1205.73</ele>
        <time>2017-07-31T07:42:02Z</time>
      </trkpt>
      <trkpt lat="43.00179" lon="-0.21528">
        <ele>1204.99</ele>
        <time>2017-07-31T07:42:03Z</time>
      </trkpt>
      <trkpt lat="43.00183" lon="-0.21519">
        <ele>1204.44</ele>
        <time>2017-07-31T07:42:04Z</time>
      </trkpt>
      <trkpt lat="43.00188" lon="-0.21511">
        <ele>1203.94</ele>
        <time>2017-07-31T07:42:05Z</time>
      </trkpt>
      <trkpt lat="43.00192" lon="-0.21504">
        <ele>1203.22</ele>
        <time>2017-07-31T07:42:06Z</time>
      </trkpt>
      <trkpt lat="43.00196" lon="-0.21497">
        <ele>1202.69</ele>
        <time>2017-07-31T07:42:07Z</time>
      </trkpt>
      <trkpt lat="43.002" lon="-0.21491">
        <ele>1202.23</ele>
        <time>2017-07-31T07:42:08Z</time>
      </trkpt>
      <trkpt lat="43.00204" lon="-0.21486">
        <ele>1201.79</ele>
        <time>2017-07-31T07:42:09Z</time>
      </trkpt>
      <trkpt lat="43.00207" lon="-0.2148">
        <ele>1201.51</ele>
        <time>2017-07-31T07:42:10Z</time>
      </trkpt>
      <trkpt lat="43.0021" lon="-0.21471">
        <ele>1201.12</ele>
        <time>2017-07-31T07:42:11Z</time>
      </trkpt>
      <trkpt lat="43.00215" lon="-0.21465">
        <ele>1200.97</ele>
        <time>2017-07-31T07:42:12Z</time>
      </trkpt>
      <trkpt lat="43.00218" lon="-0.2146">
        <ele>1200.59</ele>
        <time>2017-07-31T07:42:13Z</time>
      </trkpt>
      <trkpt lat="43.00222" lon="-0.21455">
        <ele>1200.08</ele>
        <time>2017-07-31T07:42:14Z</time>
      </trkpt>
      <trkpt lat="43.00226" lon="-0.2145">
        <ele>1199.39</ele>
        <time>2017-07-31T07:42:15Z</time>
      </trkpt>
      <trkpt lat="43.0023" lon="-0.21446">
        <ele>1199.12</ele>
        <time>2017-07-31T07:42:16Z</time>
      </trkpt>
      <trkpt lat="43.00233" lon="-0.21441">
        <ele>1198.42</ele>
        <time>2017-07-31T07:42:17Z</time>
      </trkpt>
      <trkpt lat="43.00236" lon="-0.21436">
        <ele>1197.69</ele>
        <time>2017-07-31T07:42:18Z</time>
      </trkpt>
      <trkpt lat="43.0024" lon="-0.2143">
        <ele>1197.42</ele>
        <time>2017-07-31T07:42:19Z</time>
      </trkpt>
      <trkpt lat="43.00244" lon="-0.21422">
        <ele>1197.22</ele>
        <time>2017-07-31T07:42:21Z</time>
      </trkpt>
      <trkpt lat="43.00246" lon="-0.21415">
        <ele>1197.32</ele>
        <time>2017-07-31T07:42:48Z</time>
      </trkpt>
      <trkpt lat="43.0025" lon="-0.21408">
        <ele>1197.51</ele>
        <time>2017-07-31T07:42:51Z</time>
      </trkpt>
      <trkpt lat="43.00254" lon="-0.21404">
        <ele>1197.61</ele>
        <time>2017-07-31T07:42:53Z</time>
      </trkpt>
      <trkpt lat="43.00258" lon="-0.21399">
        <ele>1197.72</ele>
        <time>2017-07-31T07:42:55Z</time>
      </trkpt>
      <trkpt lat="43.00261" lon="-0.21394">
        <ele>1197.84</ele>
        <time>2017-07-31T07:42:57Z</time>
      </trkpt>
      <trkpt lat="43.00265" lon="-0.21389">
        <ele>1198.08</ele>
        <time>2017-07-31T07:43:00Z</time>
      </trkpt>
      <trkpt lat="43.00271" lon="-0.21383">
        <ele>1198.47</ele>
        <time>2017-07-31T07:43:03Z</time>
      </trkpt>
      <trkpt lat="43.00277" lon="-0.21378">
        <ele>1198.78</ele>
        <time>2017-07-31T07:43:05Z</time>
      </trkpt>
      <trkpt lat="43.00284" lon="-0.21373">
        <ele>1199.1</ele>
        <time>2017-07-31T07:43:07Z</time>
      </trkpt>
      <trkpt lat="43.00289" lon="-0.21368">
        <ele>1199.41</ele>
        <time>2017-07-31T07:43:09Z</time>
      </trkpt>
      <trkpt lat="43.00294" lon="-0.21364">
        <ele>1199.75</ele>
        <time>2017-07-31T07:43:11Z</time>
      </trkpt>
      <trkpt lat="43.00299" lon="-0.2136">
        <ele>1200.14</ele>
        <time>2017-07-31T07:43:13Z</time>
      </trkpt>
      <trkpt lat="43.00305" lon="-0.21357">
        <ele>1200.56</ele>
        <time>2017-07-31T07:43:15Z</time>
      </trkpt>
      <trkpt lat="43.00313" lon="-0.21354">
        <ele>1201</ele>
        <time>2017-07-31T07:43:17Z</time>
      </trkpt>
      <trkpt lat="43.0032" lon="-0.21351">
        <ele>1201.46</ele>
        <time>2017-07-31T07:43:19Z</time>
      </trkpt>
      <trkpt lat="43.00325" lon="-0.21349">
        <ele>1201.95</ele>
        <time>2017-07-31T07:43:21Z</time>
      </trkpt>
      <trkpt lat="43.00331" lon="-0.21345">
        <ele>1202.46</ele>
        <time>2017-07-31T07:43:23Z</time>
      </trkpt>
      <trkpt lat="43.00337" lon="-0.2134">
        <ele>1203.01</ele>
        <time>2017-07-31T07:43:25Z</time>
      </trkpt>
      <trkpt lat="43.00343" lon="-0.21334">
        <ele>1203.56</ele>
        <time>2017-07-31T07:43:27Z</time>
      </trkpt>
      <trkpt lat="43.00349" lon="-0.21329">
        <ele>1204.11</ele>
        <time>2017-07-31T07:43:29Z</time>
      </trkpt>
      <trkpt lat="43.00355" lon="-0.21326">
        <ele>1204.97</ele>
        <time>2017-07-31T07:43:32Z</time>
      </trkpt>
      <trkpt lat="43.0036" lon="-0.21324">
        <ele>1205.55</ele>
        <time>2017-07-31T07:43:34Z</time>
      </trkpt>
      <trkpt lat="43.00366" lon="-0.2132">
        <ele>1206.12</ele>
        <time>2017-07-31T07:43:36Z</time>
      </trkpt>
      <trkpt lat="43.00373" lon="-0.21315">
        <ele>1206.64</ele>
        <time>2017-07-31T07:43:38Z</time>
      </trkpt>
      <trkpt lat="43.0038" lon="-0.2131">
        <ele>1207.12</ele>
        <time>2017-07-31T07:43:40Z</time>
      </trkpt>
      <trkpt lat="43.00387" lon="-0.21306">
        <ele>1207.54</ele>
        <time>2017-07-31T07:43:42Z</time>
      </trkpt>
      <trkpt lat="43.00394" lon="-0.21301">
        <ele>1207.93</ele>
        <time>2017-07-31T07:43:44Z</time>
      </trkpt>
      <trkpt lat="43.00401" lon="-0.21296">
        <ele>1208.31</ele>
        <time>2017-07-31T07:43:46Z</time>
      </trkpt>
      <trkpt lat="43.00405" lon="-0.21293">
        <ele>1208.71</ele>
        <time>2017-07-31T07:43:48Z</time>
      </trkpt>
      <trkpt lat="43.0041" lon="-0.21289">
        <ele>1209.16</ele>
        <time>2017-07-31T07:43:50Z</time>
      </trkpt>
      <trkpt lat="43.00416" lon="-0.21283">
        <ele>1209.63</ele>
        <time>2017-07-31T07:43:52Z</time>
      </trkpt>
      <trkpt lat="43.00422" lon="-0.21279">
        <ele>1210.11</ele>
        <time>2017-07-31T07:43:54Z</time>
      </trkpt>
      <trkpt lat="43.00428" lon="-0.21275">
        <ele>1210.62</ele>
        <time>2017-07-31T07:43:56Z</time>
      </trkpt>
      <trkpt lat="43.00436" lon="-0.2127">
        <ele>1211.11</ele>
        <time>2017-07-31T07:43:58Z</time>
      </trkpt>
      <trkpt lat="43.00443" lon="-0.21265">
        <ele>1211.56</ele>
        <time>2017-07-31T07:44:00Z</time>
      </trkpt>
      <trkpt lat="43.00449" lon="-0.21261">
        <ele>1211.97</ele>
        <time>2017-07-31T07:44:02Z</time>
      </trkpt>
      <trkpt lat="43.00455" lon="-0.21255">
        <ele>1212.32</ele>
        <time>2017-07-31T07:44:04Z</time>
      </trkpt>
      <trkpt lat="43.00462" lon="-0.21252">
        <ele>1212.62</ele>
        <time>2017-07-31T07:44:06Z</time>
      </trkpt>
      <trkpt lat="43.00467" lon="-0.21246">
        <ele>1212.92</ele>
        <time>2017-07-31T07:44:08Z</time>
      </trkpt>
      <trkpt lat="43.00472" lon="-0.21243">
        <ele>1213.22</ele>
        <time>2017-07-31T07:44:10Z</time>
      </trkpt>
      <trkpt lat="43.00479" lon="-0.21237">
        <ele>1213.57</ele>
        <time>2017-07-31T07:44:12Z</time>
      </trkpt>
      <trkpt lat="43.00484" lon="-0.21232">
        <ele>1213.94</ele>
        <time>2017-07-31T07:44:14Z</time>
      </trkpt>
      <trkpt lat="43.00489" lon="-0.21226">
        <ele>1214.33</ele>
        <time>2017-07-31T07:44:16Z</time>
      </trkpt>
      <trkpt lat="43.00496" lon="-0.21221">
        <ele>1214.71</ele>
        <time>2017-07-31T07:44:18Z</time>
      </trkpt>
      <trkpt lat="43.00501" lon="-0.21216">
        <ele>1215.14</ele>
        <time>2017-07-31T07:44:20Z</time>
      </trkpt>
      <trkpt lat="43.00507" lon="-0.21212">
        <ele>1215.58</ele>
        <time>2017-07-31T07:44:22Z</time>
      </trkpt>
      <trkpt lat="43.00511" lon="-0.2121">
        <ele>1216.03</ele>
        <time>2017-07-31T07:44:24Z</time>
      </trkpt>
      <trkpt lat="43.00519" lon="-0.21205">
        <ele>1216.5</ele>
        <time>2017-07-31T07:44:26Z</time>
      </trkpt>
      <trkpt lat="43.00523" lon="-0.21202">
        <ele>1216.72</ele>
        <time>2017-07-31T07:44:27Z</time>
      </trkpt>
      <trkpt lat="43.0053" lon="-0.21196">
        <ele>1217.15</ele>
        <time>2017-07-31T07:44:29Z</time>
      </trkpt>
      <trkpt lat="43.00536" lon="-0.21191">
        <ele>1217.58</ele>
        <time>2017-07-31T07:44:31Z</time>
      </trkpt>
      <trkpt lat="43.00541" lon="-0.21185">
        <ele>1218.02</ele>
        <time>2017-07-31T07:44:33Z</time>
      </trkpt>
      <trkpt lat="43.00545" lon="-0.2118">
        <ele>1218.51</ele>
        <time>2017-07-31T07:44:35Z</time>
      </trkpt>
      <trkpt lat="43.0055" lon="-0.21177">
        <ele>1219.04</ele>
        <time>2017-07-31T07:44:37Z</time>
      </trkpt>
      <trkpt lat="43.00555" lon="-0.21172">
        <ele>1219.61</ele>
        <time>2017-07-31T07:44:39Z</time>
      </trkpt>
      <trkpt lat="43.00558" lon="-0.21168">
        <ele>1220.23</ele>
        <time>2017-07-31T07:44:41Z</time>
      </trkpt>
      <trkpt lat="43.00562" lon="-0.21163">
        <ele>1220.9</ele>
        <time>2017-07-31T07:44:43Z</time>
      </trkpt>
      <trkpt lat="43.00565" lon="-0.21157">
        <ele>1221.6</ele>
        <time>2017-07-31T07:44:45Z</time>
      </trkpt>
      <trkpt lat="43.00569" lon="-0.21151">
        <ele>1222.36</ele>
        <time>2017-07-31T07:44:47Z</time>
      </trkpt>
      <trkpt lat="43.00575" lon="-0.21145">
        <ele>1223.13</ele>
        <time>2017-07-31T07:44:49Z</time>
      </trkpt>
      <trkpt lat="43.00583" lon="-0.21139">
        <ele>1223.87</ele>
        <time>2017-07-31T07:44:51Z</time>
      </trkpt>
      <trkpt lat="43.00587" lon="-0.21136">
        <ele>1224.22</ele>
        <time>2017-07-31T07:44:52Z</time>
      </trkpt>
      <trkpt lat="43.00593" lon="-0.21129">
        <ele>1224.89</ele>
        <time>2017-07-31T07:44:54Z</time>
      </trkpt>
      <trkpt lat="43.00599" lon="-0.21124">
        <ele>1225.57</ele>
        <time>2017-07-31T07:44:56Z</time>
      </trkpt>
      <trkpt lat="43.00605" lon="-0.21119">
        <ele>1226.23</ele>
        <time>2017-07-31T07:44:58Z</time>
      </trkpt>
      <trkpt lat="43.00609" lon="-0.21113">
        <ele>1226.92</ele>
        <time>2017-07-31T07:45:00Z</time>
      </trkpt>
      <trkpt lat="43.00615" lon="-0.21108">
        <ele>1227.59</ele>
        <time>2017-07-31T07:45:02Z</time>
      </trkpt>
      <trkpt lat="43.0062" lon="-0.21103">
        <ele>1228.27</ele>
        <time>2017-07-31T07:45:04Z</time>
      </trkpt>
      <trkpt lat="43.00625" lon="-0.21096">
        <ele>1228.99</ele>
        <time>2017-07-31T07:45:06Z</time>
      </trkpt>
      <trkpt lat="43.0063" lon="-0.21091">
        <ele>1229.75</ele>
        <time>2017-07-31T07:45:08Z</time>
      </trkpt>
      <trkpt lat="43.00633" lon="-0.21086">
        <ele>1230.58</ele>
        <time>2017-07-31T07:45:10Z</time>
      </trkpt>
      <trkpt lat="43.00638" lon="-0.21081">
        <ele>1231.42</ele>
        <time>2017-07-31T07:45:12Z</time>
      </trkpt>
      <trkpt lat="43.00643" lon="-0.21077">
        <ele>1232.28</ele>
        <time>2017-07-31T07:45:14Z</time>
      </trkpt>
      <trkpt lat="43.00649" lon="-0.21073">
        <ele>1233.13</ele>
        <time>2017-07-31T07:45:16Z</time>
      </trkpt>
      <trkpt lat="43.00655" lon="-0.21068">
        <ele>1233.98</ele>
        <time>2017-07-31T07:45:18Z</time>
      </trkpt>
      <trkpt lat="43.00661" lon="-0.21063">
        <ele>1234.82</ele>
        <time>2017-07-31T07:45:20Z</time>
      </trkpt>
      <trkpt lat="43.00667" lon="-0.21059">
        <ele>1235.63</ele>
        <time>2017-07-31T07:45:22Z</time>
      </trkpt>
      <trkpt lat="43.00675" lon="-0.21056">
        <ele>1236.38</ele>
        <time>2017-07-31T07:45:24Z</time>
      </trkpt>
      <trkpt lat="43.00683" lon="-0.21053">
        <ele>1237.11</ele>
        <time>2017-07-31T07:45:26Z</time>
      </trkpt>
      <trkpt lat="43.00688" lon="-0.21052">
        <ele>1237.81</ele>
        <time>2017-07-31T07:45:28Z</time>
      </trkpt>
      <trkpt lat="43.00695" lon="-0.2105">
        <ele>1238.48</ele>
        <time>2017-07-31T07:45:30Z</time>
      </trkpt>
      <trkpt lat="43.00702" lon="-0.21047">
        <ele>1239.13</ele>
        <time>2017-07-31T07:45:32Z</time>
      </trkpt>
      <trkpt lat="43.00708" lon="-0.21044">
        <ele>1239.76</ele>
        <time>2017-07-31T07:45:34Z</time>
      </trkpt>
      <trkpt lat="43.00712" lon="-0.21038">
        <ele>1240.71</ele>
        <time>2017-07-31T07:45:37Z</time>
      </trkpt>
      <trkpt lat="43.00716" lon="-0.21032">
        <ele>1241.77</ele>
        <time>2017-07-31T07:45:40Z</time>
      </trkpt>
      <trkpt lat="43.00721" lon="-0.21026">
        <ele>1242.51</ele>
        <time>2017-07-31T07:45:42Z</time>
      </trkpt>
      <trkpt lat="43.00725" lon="-0.2102">
        <ele>1243.24</ele>
        <time>2017-07-31T07:45:44Z</time>
      </trkpt>
      <trkpt lat="43.00729" lon="-0.21015">
        <ele>1243.98</ele>
        <time>2017-07-31T07:45:46Z</time>
      </trkpt>
      <trkpt lat="43.00735" lon="-0.2101">
        <ele>1244.71</ele>
        <time>2017-07-31T07:45:48Z</time>
      </trkpt>
      <trkpt lat="43.00744" lon="-0.21002">
        <ele>1245.67</ele>
        <time>2017-07-31T07:45:51Z</time>
      </trkpt>
      <trkpt lat="43.00751" lon="-0.20998">
        <ele>1246.41</ele>
        <time>2017-07-31T07:45:53Z</time>
      </trkpt>
      <trkpt lat="43.00756" lon="-0.20996">
        <ele>1246.71</ele>
        <time>2017-07-31T07:45:54Z</time>
      </trkpt>
      <trkpt lat="43.00762" lon="-0.20995">
        <ele>1246.97</ele>
        <time>2017-07-31T07:45:55Z</time>
      </trkpt>
      <trkpt lat="43.00766" lon="-0.20994">
        <ele>1247.2</ele>
        <time>2017-07-31T07:45:56Z</time>
      </trkpt>
      <trkpt lat="43.00773" lon="-0.20995">
        <ele>1247.58</ele>
        <time>2017-07-31T07:45:58Z</time>
      </trkpt>
      <trkpt lat="43.0078" lon="-0.20996">
        <ele>1247.87</ele>
        <time>2017-07-31T07:46:00Z</time>
      </trkpt>
      <trkpt lat="43.00787" lon="-0.20998">
        <ele>1248.11</ele>
        <time>2017-07-31T07:46:02Z</time>
      </trkpt>
      <trkpt lat="43.00793" lon="-0.20998">
        <ele>1248.33</ele>
        <time>2017-07-31T07:46:04Z</time>
      </trkpt>
      <trkpt lat="43.00799" lon="-0.20999">
        <ele>1248.55</ele>
        <time>2017-07-31T07:46:06Z</time>
      </trkpt>
      <trkpt lat="43.00805" lon="-0.20999">
        <ele>1248.76</ele>
        <time>2017-07-31T07:46:08Z</time>
      </trkpt>
      <trkpt lat="43.00811" lon="-0.21">
        <ele>1248.98</ele>
        <time>2017-07-31T07:46:10Z</time>
      </trkpt>
      <trkpt lat="43.00816" lon="-0.21001">
        <ele>1249.21</ele>
        <time>2017-07-31T07:46:12Z</time>
      </trkpt>
      <trkpt lat="43.00821" lon="-0.21001">
        <ele>1249.45</ele>
        <time>2017-07-31T07:46:14Z</time>
      </trkpt>
      <trkpt lat="43.00826" lon="-0.21002">
        <ele>1249.73</ele>
        <time>2017-07-31T07:46:16Z</time>
      </trkpt>
      <trkpt lat="43.00831" lon="-0.21002">
        <ele>1250.05</ele>
        <time>2017-07-31T07:46:18Z</time>
      </trkpt>
      <trkpt lat="43.00837" lon="-0.21004">
        <ele>1250.4</ele>
        <time>2017-07-31T07:46:20Z</time>
      </trkpt>
      <trkpt lat="43.00842" lon="-0.21008">
        <ele>1250.8</ele>
        <time>2017-07-31T07:46:22Z</time>
      </trkpt>
      <trkpt lat="43.00846" lon="-0.21014">
        <ele>1251.17</ele>
        <time>2017-07-31T07:46:24Z</time>
      </trkpt>
      <trkpt lat="43.0085" lon="-0.21021">
        <ele>1251.91</ele>
        <time>2017-07-31T07:46:27Z</time>
      </trkpt>
      <trkpt lat="43.00852" lon="-0.21027">
        <ele>1252.41</ele>
        <time>2017-07-31T07:46:29Z</time>
      </trkpt>
      <trkpt lat="43.00854" lon="-0.21035">
        <ele>1252.96</ele>
        <time>2017-07-31T07:46:31Z</time>
      </trkpt>
      <trkpt lat="43.00856" lon="-0.21043">
        <ele>1253.86</ele>
        <time>2017-07-31T07:46:34Z</time>
      </trkpt>
      <trkpt lat="43.00859" lon="-0.21051">
        <ele>1254.84</ele>
        <time>2017-07-31T07:46:37Z</time>
      </trkpt>
      <trkpt lat="43.0086" lon="-0.21059">
        <ele>1255.5</ele>
        <time>2017-07-31T07:46:39Z</time>
      </trkpt>
      <trkpt lat="43.00861" lon="-0.21065">
        <ele>1256.23</ele>
        <time>2017-07-31T07:46:41Z</time>
      </trkpt>
      <trkpt lat="43.00862" lon="-0.21075">
        <ele>1257.44</ele>
        <time>2017-07-31T07:46:44Z</time>
      </trkpt>
      <trkpt lat="43.00864" lon="-0.21085">
        <ele>1258.28</ele>
        <time>2017-07-31T07:46:46Z</time>
      </trkpt>
      <trkpt lat="43.00865" lon="-0.21095">
        <ele>1259.11</ele>
        <time>2017-07-31T07:46:48Z</time>
      </trkpt>
      <trkpt lat="43.00865" lon="-0.21106">
        <ele>1259.93</ele>
        <time>2017-07-31T07:46:50Z</time>
      </trkpt>
      <trkpt lat="43.00866" lon="-0.21115">
        <ele>1260.7</ele>
        <time>2017-07-31T07:46:52Z</time>
      </trkpt>
      <trkpt lat="43.00867" lon="-0.21124">
        <ele>1261.46</ele>
        <time>2017-07-31T07:46:54Z</time>
      </trkpt>
      <trkpt lat="43.00868" lon="-0.21132">
        <ele>1262.26</ele>
        <time>2017-07-31T07:46:56Z</time>
      </trkpt>
      <trkpt lat="43.00869" lon="-0.21138">
        <ele>1263.14</ele>
        <time>2017-07-31T07:46:58Z</time>
      </trkpt>
      <trkpt lat="43.00871" lon="-0.21144">
        <ele>1264.08</ele>
        <time>2017-07-31T07:47:00Z</time>
      </trkpt>
      <trkpt lat="43.00873" lon="-0.2115">
        <ele>1265.07</ele>
        <time>2017-07-31T07:47:02Z</time>
      </trkpt>
      <trkpt lat="43.00875" lon="-0.21156">
        <ele>1266.14</ele>
        <time>2017-07-31T07:47:04Z</time>
      </trkpt>
      <trkpt lat="43.00876" lon="-0.21164">
        <ele>1267.24</ele>
        <time>2017-07-31T07:47:06Z</time>
      </trkpt>
      <trkpt lat="43.0088" lon="-0.21173">
        <ele>1273.25</ele>
        <time>2017-07-31T07:47:08Z</time>
      </trkpt>
      <trkpt lat="43.00882" lon="-0.21182">
        <ele>1274.79</ele>
        <time>2017-07-31T07:47:10Z</time>
      </trkpt>
      <trkpt lat="43.00885" lon="-0.21193">
        <ele>1275.97</ele>
        <time>2017-07-31T07:47:12Z</time>
      </trkpt>
      <trkpt lat="43.00887" lon="-0.21202">
        <ele>1277.04</ele>
        <time>2017-07-31T07:47:14Z</time>
      </trkpt>
      <trkpt lat="43.00888" lon="-0.2121">
        <ele>1278.04</ele>
        <time>2017-07-31T07:47:16Z</time>
      </trkpt>
      <trkpt lat="43.0089" lon="-0.21219">
        <ele>1278.49</ele>
        <time>2017-07-31T07:47:17Z</time>
      </trkpt>
      <trkpt lat="43.00892" lon="-0.2123">
        <ele>1279.22</ele>
        <time>2017-07-31T07:47:19Z</time>
      </trkpt>
      <trkpt lat="43.00894" lon="-0.21239">
        <ele>1279.92</ele>
        <time>2017-07-31T07:47:21Z</time>
      </trkpt>
      <trkpt lat="43.00895" lon="-0.21249">
        <ele>1280.56</ele>
        <time>2017-07-31T07:47:23Z</time>
      </trkpt>
      <trkpt lat="43.00896" lon="-0.21259">
        <ele>1281.14</ele>
        <time>2017-07-31T07:47:25Z</time>
      </trkpt>
      <trkpt lat="43.00898" lon="-0.21266">
        <ele>1281.38</ele>
        <time>2017-07-31T07:47:26Z</time>
      </trkpt>
      <trkpt lat="43.00899" lon="-0.21274">
        <ele>1281.58</ele>
        <time>2017-07-31T07:47:27Z</time>
      </trkpt>
      <trkpt lat="43.00899" lon="-0.21281">
        <ele>1281.77</ele>
        <time>2017-07-31T07:47:28Z</time>
      </trkpt>
      <trkpt lat="43.00898" lon="-0.21288">
        <ele>1282.42</ele>
        <time>2017-07-31T07:47:31Z</time>
      </trkpt>
      <trkpt lat="43.00898" lon="-0.21297">
        <ele>1282.99</ele>
        <time>2017-07-31T07:47:33Z</time>
      </trkpt>
      <trkpt lat="43.00899" lon="-0.21309">
        <ele>1283.55</ele>
        <time>2017-07-31T07:47:35Z</time>
      </trkpt>
      <trkpt lat="43.00899" lon="-0.21318">
        <ele>1284.04</ele>
        <time>2017-07-31T07:47:37Z</time>
      </trkpt>
      <trkpt lat="43.00899" lon="-0.21326">
        <ele>1284.52</ele>
        <time>2017-07-31T07:47:39Z</time>
      </trkpt>
      <trkpt lat="43.00899" lon="-0.21333">
        <ele>1285.08</ele>
        <time>2017-07-31T07:47:41Z</time>
      </trkpt>
      <trkpt lat="43.00899" lon="-0.2134">
        <ele>1285.72</ele>
        <time>2017-07-31T07:47:43Z</time>
      </trkpt>
      <trkpt lat="43.00901" lon="-0.21351">
        <ele>1286.36</ele>
        <time>2017-07-31T07:47:45Z</time>
      </trkpt>
      <trkpt lat="43.00902" lon="-0.21359">
        <ele>1286.99</ele>
        <time>2017-07-31T07:47:47Z</time>
      </trkpt>
      <trkpt lat="43.00903" lon="-0.21367">
        <ele>1287.58</ele>
        <time>2017-07-31T07:47:49Z</time>
      </trkpt>
      <trkpt lat="43.00905" lon="-0.21375">
        <ele>1288.18</ele>
        <time>2017-07-31T07:47:51Z</time>
      </trkpt>
      <trkpt lat="43.00907" lon="-0.21383">
        <ele>1288.79</ele>
        <time>2017-07-31T07:47:53Z</time>
      </trkpt>
      <trkpt lat="43.0091" lon="-0.21395">
        <ele>1289.38</ele>
        <time>2017-07-31T07:47:55Z</time>
      </trkpt>
      <trkpt lat="43.00911" lon="-0.21402">
        <ele>1289.97</ele>
        <time>2017-07-31T07:47:57Z</time>
      </trkpt>
      <trkpt lat="43.00914" lon="-0.21411">
        <ele>1290.54</ele>
        <time>2017-07-31T07:47:59Z</time>
      </trkpt>
      <trkpt lat="43.00915" lon="-0.21419">
        <ele>1291.38</ele>
        <time>2017-07-31T07:48:02Z</time>
      </trkpt>
      <trkpt lat="43.00917" lon="-0.21429">
        <ele>1291.89</ele>
        <time>2017-07-31T07:48:04Z</time>
      </trkpt>
      <trkpt lat="43.00918" lon="-0.21436">
        <ele>1292.1</ele>
        <time>2017-07-31T07:48:05Z</time>
      </trkpt>
      <trkpt lat="43.00922" lon="-0.21447">
        <ele>1292.49</ele>
        <time>2017-07-31T07:48:07Z</time>
      </trkpt>
      <trkpt lat="43.00923" lon="-0.21453">
        <ele>1293.21</ele>
        <time>2017-07-31T07:48:10Z</time>
      </trkpt>
      <trkpt lat="43.00928" lon="-0.21455">
        <ele>1294.21</ele>
        <time>2017-07-31T07:48:13Z</time>
      </trkpt>
      <trkpt lat="43.00934" lon="-0.21456">
        <ele>1295.02</ele>
        <time>2017-07-31T07:48:15Z</time>
      </trkpt>
      <trkpt lat="43.0094" lon="-0.21459">
        <ele>1296.39</ele>
        <time>2017-07-31T07:48:18Z</time>
      </trkpt>
      <trkpt lat="43.00945" lon="-0.21461">
        <ele>1296.81</ele>
        <time>2017-07-31T07:48:19Z</time>
      </trkpt>
      <trkpt lat="43.00949" lon="-0.21463">
        <ele>1297.21</ele>
        <time>2017-07-31T07:48:20Z</time>
      </trkpt>
      <trkpt lat="43.00956" lon="-0.21466">
        <ele>1298.4</ele>
        <time>2017-07-31T07:48:23Z</time>
      </trkpt>
      <trkpt lat="43.00961" lon="-0.21473">
        <ele>1299.16</ele>
        <time>2017-07-31T07:48:25Z</time>
      </trkpt>
      <trkpt lat="43.00965" lon="-0.21481">
        <ele>1299.87</ele>
        <time>2017-07-31T07:48:27Z</time>
      </trkpt>
      <trkpt lat="43.0097" lon="-0.21489">
        <ele>1300.5</ele>
        <time>2017-07-31T07:48:29Z</time>
      </trkpt>
      <trkpt lat="43.00974" lon="-0.21494">
        <ele>1301.11</ele>
        <time>2017-07-31T07:48:31Z</time>
      </trkpt>
      <trkpt lat="43.0098" lon="-0.21501">
        <ele>1301.73</ele>
        <time>2017-07-31T07:48:33Z</time>
      </trkpt>
      <trkpt lat="43.00984" lon="-0.21507">
        <ele>1302.34</ele>
        <time>2017-07-31T07:48:35Z</time>
      </trkpt>
      <trkpt lat="43.00989" lon="-0.2151">
        <ele>1302.95</ele>
        <time>2017-07-31T07:48:37Z</time>
      </trkpt>
      <trkpt lat="43.00995" lon="-0.21515">
        <ele>1303.59</ele>
        <time>2017-07-31T07:48:39Z</time>
      </trkpt>
      <trkpt lat="43.00998" lon="-0.21519">
        <ele>1303.89</ele>
        <time>2017-07-31T07:48:40Z</time>
      </trkpt>
      <trkpt lat="43.01002" lon="-0.21525">
        <ele>1304.15</ele>
        <time>2017-07-31T07:48:41Z</time>
      </trkpt>
      <trkpt lat="43.01006" lon="-0.21533">
        <ele>1304.6</ele>
        <time>2017-07-31T07:48:43Z</time>
      </trkpt>
      <trkpt lat="43.0101" lon="-0.21536">
        <ele>1305.09</ele>
        <time>2017-07-31T07:48:45Z</time>
      </trkpt>
      <trkpt lat="43.01015" lon="-0.21541">
        <ele>1305.96</ele>
        <time>2017-07-31T07:48:48Z</time>
      </trkpt>
      <trkpt lat="43.01021" lon="-0.21547">
        <ele>1307.09</ele>
        <time>2017-07-31T07:48:51Z</time>
      </trkpt>
      <trkpt lat="43.01025" lon="-0.21553">
        <ele>1307.94</ele>
        <time>2017-07-31T07:48:53Z</time>
      </trkpt>
      <trkpt lat="43.01029" lon="-0.21559">
        <ele>1308.79</ele>
        <time>2017-07-31T07:48:55Z</time>
      </trkpt>
      <trkpt lat="43.01032" lon="-0.21564">
        <ele>1309.21</ele>
        <time>2017-07-31T07:48:56Z</time>
      </trkpt>
      <trkpt lat="43.01036" lon="-0.2157">
        <ele>1309.58</ele>
        <time>2017-07-31T07:48:57Z</time>
      </trkpt>
      <trkpt lat="43.0104" lon="-0.21575">
        <ele>1309.92</ele>
        <time>2017-07-31T07:48:58Z</time>
      </trkpt>
      <trkpt lat="43.01044" lon="-0.21579">
        <ele>1310.23</ele>
        <time>2017-07-31T07:48:59Z</time>
      </trkpt>
      <trkpt lat="43.01049" lon="-0.21585">
        <ele>1310.78</ele>
        <time>2017-07-31T07:49:01Z</time>
      </trkpt>
      <trkpt lat="43.01054" lon="-0.21588">
        <ele>1311.36</ele>
        <time>2017-07-31T07:49:03Z</time>
      </trkpt>
      <trkpt lat="43.01059" lon="-0.21591">
        <ele>1311.99</ele>
        <time>2017-07-31T07:49:05Z</time>
      </trkpt>
      <trkpt lat="43.01063" lon="-0.21594">
        <ele>1312.72</ele>
        <time>2017-07-31T07:49:07Z</time>
      </trkpt>
      <trkpt lat="43.01068" lon="-0.21601">
        <ele>1313.48</ele>
        <time>2017-07-31T07:49:09Z</time>
      </trkpt>
      <trkpt lat="43.01073" lon="-0.21605">
        <ele>1314.3</ele>
        <time>2017-07-31T07:49:11Z</time>
      </trkpt>
      <trkpt lat="43.01078" lon="-0.21612">
        <ele>1315.12</ele>
        <time>2017-07-31T07:49:13Z</time>
      </trkpt>
      <trkpt lat="43.01084" lon="-0.21616">
        <ele>1315.93</ele>
        <time>2017-07-31T07:49:15Z</time>
      </trkpt>
      <trkpt lat="43.0109" lon="-0.21618">
        <ele>1316.75</ele>
        <time>2017-07-31T07:49:17Z</time>
      </trkpt>
      <trkpt lat="43.01095" lon="-0.21619">
        <ele>1317.59</ele>
        <time>2017-07-31T07:49:19Z</time>
      </trkpt>
      <trkpt lat="43.01102" lon="-0.21619">
        <ele>1318.39</ele>
        <time>2017-07-31T07:49:21Z</time>
      </trkpt>
      <trkpt lat="43.01109" lon="-0.21617">
        <ele>1319.15</ele>
        <time>2017-07-31T07:49:23Z</time>
      </trkpt>
      <trkpt lat="43.01114" lon="-0.21616">
        <ele>1319.97</ele>
        <time>2017-07-31T07:49:25Z</time>
      </trkpt>
      <trkpt lat="43.01118" lon="-0.21616">
        <ele>1320.86</ele>
        <time>2017-07-31T07:49:27Z</time>
      </trkpt>
      <trkpt lat="43.01127" lon="-0.21619">
        <ele>1321.68</ele>
        <time>2017-07-31T07:49:29Z</time>
      </trkpt>
      <trkpt lat="43.01133" lon="-0.21623">
        <ele>1322.37</ele>
        <time>2017-07-31T07:49:31Z</time>
      </trkpt>
      <trkpt lat="43.01139" lon="-0.21621">
        <ele>1323</ele>
        <time>2017-07-31T07:49:33Z</time>
      </trkpt>
      <trkpt lat="43.01144" lon="-0.21619">
        <ele>1323.27</ele>
        <time>2017-07-31T07:49:34Z</time>
      </trkpt>
      <trkpt lat="43.01151" lon="-0.21618">
        <ele>1323.75</ele>
        <time>2017-07-31T07:49:36Z</time>
      </trkpt>
      <trkpt lat="43.01158" lon="-0.21615">
        <ele>1324.38</ele>
        <time>2017-07-31T07:49:39Z</time>
      </trkpt>
      <trkpt lat="43.01165" lon="-0.21615">
        <ele>1324.75</ele>
        <time>2017-07-31T07:49:41Z</time>
      </trkpt>
      <trkpt lat="43.0117" lon="-0.21617">
        <ele>1325.27</ele>
        <time>2017-07-31T07:49:44Z</time>
      </trkpt>
      <trkpt lat="43.01167" lon="-0.21623">
        <ele>1325.99</ele>
        <time>2017-07-31T07:49:47Z</time>
      </trkpt>
      <trkpt lat="43.01161" lon="-0.21627">
        <ele>1327.06</ele>
        <time>2017-07-31T07:49:50Z</time>
      </trkpt>
      <trkpt lat="43.01156" lon="-0.21629">
        <ele>1328</ele>
        <time>2017-07-31T07:49:52Z</time>
      </trkpt>
      <trkpt lat="43.0115" lon="-0.21631">
        <ele>1329.04</ele>
        <time>2017-07-31T07:49:54Z</time>
      </trkpt>
      <trkpt lat="43.01145" lon="-0.21635">
        <ele>1330.14</ele>
        <time>2017-07-31T07:49:56Z</time>
      </trkpt>
      <trkpt lat="43.0114" lon="-0.2164">
        <ele>1331.31</ele>
        <time>2017-07-31T07:49:58Z</time>
      </trkpt>
      <trkpt lat="43.01137" lon="-0.21646">
        <ele>1332.54</ele>
        <time>2017-07-31T07:50:00Z</time>
      </trkpt>
      <trkpt lat="43.01132" lon="-0.21653">
        <ele>1333.73</ele>
        <time>2017-07-31T07:50:02Z</time>
      </trkpt>
      <trkpt lat="43.01127" lon="-0.21659">
        <ele>1334.91</ele>
        <time>2017-07-31T07:50:04Z</time>
      </trkpt>
      <trkpt lat="43.01124" lon="-0.21667">
        <ele>1336.07</ele>
        <time>2017-07-31T07:50:06Z</time>
      </trkpt>
      <trkpt lat="43.0112" lon="-0.21675">
        <ele>1337.15</ele>
        <time>2017-07-31T07:50:08Z</time>
      </trkpt>
      <trkpt lat="43.01117" lon="-0.21686">
        <ele>1338.14</ele>
        <time>2017-07-31T07:50:10Z</time>
      </trkpt>
      <trkpt lat="43.01113" lon="-0.21691">
        <ele>1338.97</ele>
        <time>2017-07-31T07:50:12Z</time>
      </trkpt>
      <trkpt lat="43.01109" lon="-0.21695">
        <ele>1339.32</ele>
        <time>2017-07-31T07:50:13Z</time>
      </trkpt>
      <trkpt lat="43.01106" lon="-0.217">
        <ele>1339.62</ele>
        <time>2017-07-31T07:50:14Z</time>
      </trkpt>
      <trkpt lat="43.01103" lon="-0.21706">
        <ele>1339.86</ele>
        <time>2017-07-31T07:50:15Z</time>
      </trkpt>
      <trkpt lat="43.011" lon="-0.21711">
        <ele>1340.3</ele>
        <time>2017-07-31T07:50:17Z</time>
      </trkpt>
      <trkpt lat="43.01098" lon="-0.21719">
        <ele>1340.46</ele>
        <time>2017-07-31T07:50:18Z</time>
      </trkpt>
      <trkpt lat="43.01093" lon="-0.21728">
        <ele>1340.64</ele>
        <time>2017-07-31T07:50:20Z</time>
      </trkpt>
      <trkpt lat="43.01088" lon="-0.21732">
        <ele>1340.76</ele>
        <time>2017-07-31T07:50:22Z</time>
      </trkpt>
      <trkpt lat="43.01082" lon="-0.21732">
        <ele>1340.88</ele>
        <time>2017-07-31T07:50:24Z</time>
      </trkpt>
      <trkpt lat="43.01076" lon="-0.21733">
        <ele>1341.04</ele>
        <time>2017-07-31T07:50:26Z</time>
      </trkpt>
      <trkpt lat="43.0107" lon="-0.21732">
        <ele>1341.2</ele>
        <time>2017-07-31T07:50:28Z</time>
      </trkpt>
      <trkpt lat="43.01064" lon="-0.21731">
        <ele>1341.38</ele>
        <time>2017-07-31T07:50:30Z</time>
      </trkpt>
      <trkpt lat="43.01059" lon="-0.2173">
        <ele>1341.7</ele>
        <time>2017-07-31T07:50:33Z</time>
      </trkpt>
      <trkpt lat="43.01053" lon="-0.21729">
        <ele>1341.99</ele>
        <time>2017-07-31T07:50:35Z</time>
      </trkpt>
      <trkpt lat="43.01048" lon="-0.21727">
        <ele>1342.3</ele>
        <time>2017-07-31T07:50:37Z</time>
      </trkpt>
      <trkpt lat="43.01041" lon="-0.21725">
        <ele>1342.69</ele>
        <time>2017-07-31T07:50:39Z</time>
      </trkpt>
      <trkpt lat="43.01035" lon="-0.21723">
        <ele>1343.17</ele>
        <time>2017-07-31T07:50:41Z</time>
      </trkpt>
      <trkpt lat="43.01028" lon="-0.2172">
        <ele>1344.01</ele>
        <time>2017-07-31T07:50:44Z</time>
      </trkpt>
      <trkpt lat="43.01023" lon="-0.21718">
        <ele>1344.65</ele>
        <time>2017-07-31T07:50:46Z</time>
      </trkpt>
      <trkpt lat="43.01018" lon="-0.21715">
        <ele>1345.31</ele>
        <time>2017-07-31T07:50:48Z</time>
      </trkpt>
      <trkpt lat="43.01013" lon="-0.21713">
        <ele>1346.03</ele>
        <time>2017-07-31T07:50:50Z</time>
      </trkpt>
      <trkpt lat="43.01008" lon="-0.21711">
        <ele>1346.74</ele>
        <time>2017-07-31T07:50:52Z</time>
      </trkpt>
      <trkpt lat="43.01001" lon="-0.21707">
        <ele>1347.47</ele>
        <time>2017-07-31T07:50:54Z</time>
      </trkpt>
      <trkpt lat="43.00996" lon="-0.21705">
        <ele>1348.19</ele>
        <time>2017-07-31T07:50:56Z</time>
      </trkpt>
      <trkpt lat="43.00989" lon="-0.21702">
        <ele>1348.87</ele>
        <time>2017-07-31T07:50:58Z</time>
      </trkpt>
      <trkpt lat="43.00982" lon="-0.21698">
        <ele>1349.58</ele>
        <time>2017-07-31T07:51:00Z</time>
      </trkpt>
      <trkpt lat="43.00977" lon="-0.21694">
        <ele>1350.15</ele>
        <time>2017-07-31T07:51:02Z</time>
      </trkpt>
      <trkpt lat="43.00972" lon="-0.21689">
        <ele>1350.73</ele>
        <time>2017-07-31T07:51:05Z</time>
      </trkpt>
      <trkpt lat="43.00967" lon="-0.21691">
        <ele>1351.05</ele>
        <time>2017-07-31T07:51:07Z</time>
      </trkpt>
      <trkpt lat="43.00961" lon="-0.21695">
        <ele>1351.33</ele>
        <time>2017-07-31T07:51:09Z</time>
      </trkpt>
      <trkpt lat="43.00958" lon="-0.217">
        <ele>1351.42</ele>
        <time>2017-07-31T07:51:10Z</time>
      </trkpt>
      <trkpt lat="43.00956" lon="-0.21708">
        <ele>1351.58</ele>
        <time>2017-07-31T07:51:12Z</time>
      </trkpt>
      <trkpt lat="43.00959" lon="-0.21716">
        <ele>1352.19</ele>
        <time>2017-07-31T07:51:16Z</time>
      </trkpt>
      <trkpt lat="43.00965" lon="-0.2172">
        <ele>1352.61</ele>
        <time>2017-07-31T07:51:18Z</time>
      </trkpt>
      <trkpt lat="43.0097" lon="-0.21723">
        <ele>1353.08</ele>
        <time>2017-07-31T07:51:20Z</time>
      </trkpt>
      <trkpt lat="43.00975" lon="-0.21728">
        <ele>1353.56</ele>
        <time>2017-07-31T07:51:22Z</time>
      </trkpt>
      <trkpt lat="43.0098" lon="-0.21735">
        <ele>1354.03</ele>
        <time>2017-07-31T07:51:24Z</time>
      </trkpt>
      <trkpt lat="43.00985" lon="-0.21741">
        <ele>1354.5</ele>
        <time>2017-07-31T07:51:26Z</time>
      </trkpt>
      <trkpt lat="43.00989" lon="-0.21746">
        <ele>1354.97</ele>
        <time>2017-07-31T07:51:28Z</time>
      </trkpt>
      <trkpt lat="43.00993" lon="-0.2175">
        <ele>1355.51</ele>
        <time>2017-07-31T07:51:30Z</time>
      </trkpt>
      <trkpt lat="43.00999" lon="-0.21756">
        <ele>1356.07</ele>
        <time>2017-07-31T07:51:32Z</time>
      </trkpt>
      <trkpt lat="43.01004" lon="-0.21762">
        <ele>1356.64</ele>
        <time>2017-07-31T07:51:34Z</time>
      </trkpt>
      <trkpt lat="43.01009" lon="-0.21767">
        <ele>1357.21</ele>
        <time>2017-07-31T07:51:36Z</time>
      </trkpt>
      <trkpt lat="43.01014" lon="-0.21772">
        <ele>1357.79</ele>
        <time>2017-07-31T07:51:38Z</time>
      </trkpt>
      <trkpt lat="43.0102" lon="-0.21776">
        <ele>1358.4</ele>
        <time>2017-07-31T07:51:40Z</time>
      </trkpt>
      <trkpt lat="43.01025" lon="-0.21782">
        <ele>1359.02</ele>
        <time>2017-07-31T07:51:42Z</time>
      </trkpt>
      <trkpt lat="43.01029" lon="-0.21788">
        <ele>1359.64</ele>
        <time>2017-07-31T07:51:44Z</time>
      </trkpt>
      <trkpt lat="43.01035" lon="-0.21791">
        <ele>1359.93</ele>
        <time>2017-07-31T07:51:45Z</time>
      </trkpt>
      <trkpt lat="43.01041" lon="-0.21797">
        <ele>1360.47</ele>
        <time>2017-07-31T07:51:47Z</time>
      </trkpt>
      <trkpt lat="43.01047" lon="-0.21802">
        <ele>1361</ele>
        <time>2017-07-31T07:51:49Z</time>
      </trkpt>
      <trkpt lat="43.01052" lon="-0.21807">
        <ele>1361.51</ele>
        <time>2017-07-31T07:51:51Z</time>
      </trkpt>
      <trkpt lat="43.01058" lon="-0.21811">
        <ele>1361.99</ele>
        <time>2017-07-31T07:51:53Z</time>
      </trkpt>
      <trkpt lat="43.01063" lon="-0.21815">
        <ele>1362.49</ele>
        <time>2017-07-31T07:51:55Z</time>
      </trkpt>
      <trkpt lat="43.01069" lon="-0.21819">
        <ele>1362.96</ele>
        <time>2017-07-31T07:51:57Z</time>
      </trkpt>
      <trkpt lat="43.01074" lon="-0.21821">
        <ele>1363.45</ele>
        <time>2017-07-31T07:51:59Z</time>
      </trkpt>
      <trkpt lat="43.01081" lon="-0.21825">
        <ele>1363.88</ele>
        <time>2017-07-31T07:52:01Z</time>
      </trkpt>
      <trkpt lat="43.01089" lon="-0.2183">
        <ele>1364.19</ele>
        <time>2017-07-31T07:52:03Z</time>
      </trkpt>
      <trkpt lat="43.01095" lon="-0.21833">
        <ele>1364.42</ele>
        <time>2017-07-31T07:52:05Z</time>
      </trkpt>
      <trkpt lat="43.01102" lon="-0.21835">
        <ele>1364.62</ele>
        <time>2017-07-31T07:52:07Z</time>
      </trkpt>
      <trkpt lat="43.01108" lon="-0.21837">
        <ele>1364.83</ele>
        <time>2017-07-31T07:52:09Z</time>
      </trkpt>
      <trkpt lat="43.01113" lon="-0.21839">
        <ele>1365.06</ele>
        <time>2017-07-31T07:52:11Z</time>
      </trkpt>
      <trkpt lat="43.01118" lon="-0.21842">
        <ele>1365.32</ele>
        <time>2017-07-31T07:52:13Z</time>
      </trkpt>
      <trkpt lat="43.01122" lon="-0.21845">
        <ele>1365.6</ele>
        <time>2017-07-31T07:52:15Z</time>
      </trkpt>
      <trkpt lat="43.01126" lon="-0.21849">
        <ele>1365.9</ele>
        <time>2017-07-31T07:52:17Z</time>
      </trkpt>
      <trkpt lat="43.0113" lon="-0.21855">
        <ele>1366.38</ele>
        <time>2017-07-31T07:52:20Z</time>
      </trkpt>
      <trkpt lat="43.01135" lon="-0.21859">
        <ele>1367</ele>
        <time>2017-07-31T07:52:24Z</time>
      </trkpt>
      <trkpt lat="43.01139" lon="-0.21859">
        <ele>1367.49</ele>
        <time>2017-07-31T07:52:46Z</time>
      </trkpt>
      <trkpt lat="43.01141" lon="-0.21853">
        <ele>1368.06</ele>
        <time>2017-07-31T07:52:58Z</time>
      </trkpt>
      <trkpt lat="43.01136" lon="-0.21847">
        <ele>1368.44</ele>
        <time>2017-07-31T07:53:01Z</time>
      </trkpt>
      <trkpt lat="43.01131" lon="-0.21845">
        <ele>1368.72</ele>
        <time>2017-07-31T07:53:03Z</time>
      </trkpt>
      <trkpt lat="43.01125" lon="-0.21848">
        <ele>1368.99</ele>
        <time>2017-07-31T07:53:05Z</time>
      </trkpt>
      <trkpt lat="43.01131" lon="-0.21848">
        <ele>1369.66</ele>
        <time>2017-07-31T07:53:12Z</time>
      </trkpt>
      <trkpt lat="43.01136" lon="-0.21848">
        <ele>1369.82</ele>
        <time>2017-07-31T07:53:14Z</time>
      </trkpt>
      <trkpt lat="43.01142" lon="-0.2185">
        <ele>1370.13</ele>
        <time>2017-07-31T07:53:17Z</time>
      </trkpt>
      <trkpt lat="43.01146" lon="-0.21852">
        <ele>1370.53</ele>
        <time>2017-07-31T07:53:20Z</time>
      </trkpt>
      <trkpt lat="43.01151" lon="-0.21853">
        <ele>1370.99</ele>
        <time>2017-07-31T07:53:23Z</time>
      </trkpt>
      <trkpt lat="43.01157" lon="-0.21854">
        <ele>1371.52</ele>
        <time>2017-07-31T07:53:26Z</time>
      </trkpt>
      <trkpt lat="43.01163" lon="-0.21855">
        <ele>1372.11</ele>
        <time>2017-07-31T07:53:29Z</time>
      </trkpt>
      <trkpt lat="43.0117" lon="-0.21853">
        <ele>1372.72</ele>
        <time>2017-07-31T07:53:32Z</time>
      </trkpt>
      <trkpt lat="43.01175" lon="-0.2185">
        <ele>1373.33</ele>
        <time>2017-07-31T07:53:35Z</time>
      </trkpt>
      <trkpt lat="43.01181" lon="-0.21846">
        <ele>1374.21</ele>
        <time>2017-07-31T07:53:39Z</time>
      </trkpt>
      <trkpt lat="43.01186" lon="-0.21843">
        <ele>1374.91</ele>
        <time>2017-07-31T07:53:42Z</time>
      </trkpt>
      <trkpt lat="43.0119" lon="-0.21841">
        <ele>1375.61</ele>
        <time>2017-07-31T07:53:45Z</time>
      </trkpt>
      <trkpt lat="43.01196" lon="-0.21838">
        <ele>1376.26</ele>
        <time>2017-07-31T07:53:48Z</time>
      </trkpt>
      <trkpt lat="43.01201" lon="-0.21834">
        <ele>1376.86</ele>
        <time>2017-07-31T07:53:51Z</time>
      </trkpt>
      <trkpt lat="43.01206" lon="-0.21831">
        <ele>1379.75</ele>
        <time>2017-07-31T07:54:12Z</time>
      </trkpt>
      <trkpt lat="43.01211" lon="-0.21827">
        <ele>1380.58</ele>
        <time>2017-07-31T07:54:18Z</time>
      </trkpt>
      <trkpt lat="43.01215" lon="-0.21822">
        <ele>1381.17</ele>
        <time>2017-07-31T07:54:22Z</time>
      </trkpt>
      <trkpt lat="43.01219" lon="-0.21818">
        <ele>1381.63</ele>
        <time>2017-07-31T07:54:25Z</time>
      </trkpt>
      <trkpt lat="43.01223" lon="-0.21814">
        <ele>1382.35</ele>
        <time>2017-07-31T07:54:29Z</time>
      </trkpt>
      <trkpt lat="43.01226" lon="-0.21809">
        <ele>1382.92</ele>
        <time>2017-07-31T07:54:32Z</time>
      </trkpt>
      <trkpt lat="43.0123" lon="-0.21802">
        <ele>1384.81</ele>
        <time>2017-07-31T07:54:39Z</time>
      </trkpt>
      <trkpt lat="43.01235" lon="-0.21801">
        <ele>1388.26</ele>
        <time>2017-07-31T07:54:58Z</time>
      </trkpt>
      <trkpt lat="43.0124" lon="-0.21799">
        <ele>1389.26</ele>
        <time>2017-07-31T07:55:01Z</time>
      </trkpt>
      <trkpt lat="43.01245" lon="-0.21796">
        <ele>1391.17</ele>
        <time>2017-07-31T07:55:11Z</time>
      </trkpt>
      <trkpt lat="43.01249" lon="-0.21791">
        <ele>1393.88</ele>
        <time>2017-07-31T07:55:36Z</time>
      </trkpt>
      <trkpt lat="43.01253" lon="-0.2179">
        <ele>1395.06</ele>
        <time>2017-07-31T07:55:40Z</time>
      </trkpt>
      <trkpt lat="43.01252" lon="-0.21784">
        <ele>1395.58</ele>
        <time>2017-07-31T07:55:53Z</time>
      </trkpt>
      <trkpt lat="43.01249" lon="-0.2178">
        <ele>1395.81</ele>
        <time>2017-07-31T07:56:01Z</time>
      </trkpt>
      <trkpt lat="43.01253" lon="-0.21782">
        <ele>1398.94</ele>
        <time>2017-07-31T07:56:17Z</time>
      </trkpt>
      <trkpt lat="43.01256" lon="-0.21776">
        <ele>1401.33</ele>
        <time>2017-07-31T07:56:32Z</time>
      </trkpt>
      <trkpt lat="43.01259" lon="-0.21769">
        <ele>1401.82</ele>
        <time>2017-07-31T07:56:41Z</time>
      </trkpt>
      <trkpt lat="43.01261" lon="-0.21762">
        <ele>1402.14</ele>
        <time>2017-07-31T07:57:09Z</time>
      </trkpt>
      <trkpt lat="43.01265" lon="-0.21758">
        <ele>1402.42</ele>
        <time>2017-07-31T07:57:16Z</time>
      </trkpt>
      <trkpt lat="43.01268" lon="-0.21753">
        <ele>1402.56</ele>
        <time>2017-07-31T07:57:20Z</time>
      </trkpt>
      <trkpt lat="43.01272" lon="-0.2175">
        <ele>1403.14</ele>
        <time>2017-07-31T07:57:30Z</time>
      </trkpt>
      <trkpt lat="43.01276" lon="-0.21746">
        <ele>1404.72</ele>
        <time>2017-07-31T07:57:44Z</time>
      </trkpt>
      <trkpt lat="43.01282" lon="-0.21746">
        <ele>1406.66</ele>
        <time>2017-07-31T07:57:51Z</time>
      </trkpt>
      <trkpt lat="43.01288" lon="-0.2175">
        <ele>1407.12</ele>
        <time>2017-07-31T07:57:53Z</time>
      </trkpt>
      <trkpt lat="43.01292" lon="-0.21755">
        <ele>1407.47</ele>
        <time>2017-07-31T07:57:56Z</time>
      </trkpt>
      <trkpt lat="43.01299" lon="-0.21756">
        <ele>1407.58</ele>
        <time>2017-07-31T07:57:58Z</time>
      </trkpt>
      <trkpt lat="43.01306" lon="-0.21761">
        <ele>1407.67</ele>
        <time>2017-07-31T07:58:00Z</time>
      </trkpt>
      <trkpt lat="43.01313" lon="-0.21764">
        <ele>1407.73</ele>
        <time>2017-07-31T07:58:03Z</time>
      </trkpt>
      <trkpt lat="43.0132" lon="-0.21766">
        <ele>1407.71</ele>
        <time>2017-07-31T07:58:05Z</time>
      </trkpt>
      <trkpt lat="43.01327" lon="-0.21767">
        <ele>1407.6</ele>
        <time>2017-07-31T07:58:07Z</time>
      </trkpt>
      <trkpt lat="43.01336" lon="-0.21767">
        <ele>1407.49</ele>
        <time>2017-07-31T07:58:09Z</time>
      </trkpt>
      <trkpt lat="43.01342" lon="-0.2177">
        <ele>1407.4</ele>
        <time>2017-07-31T07:58:11Z</time>
      </trkpt>
      <trkpt lat="43.01347" lon="-0.21775">
        <ele>1407.3</ele>
        <time>2017-07-31T07:58:13Z</time>
      </trkpt>
      <trkpt lat="43.01352" lon="-0.21779">
        <ele>1407.09</ele>
        <time>2017-07-31T07:58:15Z</time>
      </trkpt>
      <trkpt lat="43.01358" lon="-0.21781">
        <ele>1406.81</ele>
        <time>2017-07-31T07:58:17Z</time>
      </trkpt>
      <trkpt lat="43.01368" lon="-0.21785">
        <ele>1406.52</ele>
        <time>2017-07-31T07:58:19Z</time>
      </trkpt>
      <trkpt lat="43.01373" lon="-0.21787">
        <ele>1406.36</ele>
        <time>2017-07-31T07:58:20Z</time>
      </trkpt>
      <trkpt lat="43.01377" lon="-0.21788">
        <ele>1406.19</ele>
        <time>2017-07-31T07:58:21Z</time>
      </trkpt>
      <trkpt lat="43.01384" lon="-0.21787">
        <ele>1405.83</ele>
        <time>2017-07-31T07:58:23Z</time>
      </trkpt>
      <trkpt lat="43.0139" lon="-0.21787">
        <ele>1405.31</ele>
        <time>2017-07-31T07:58:26Z</time>
      </trkpt>
      <trkpt lat="43.01395" lon="-0.21785">
        <ele>1404.98</ele>
        <time>2017-07-31T07:58:28Z</time>
      </trkpt>
      <trkpt lat="43.01399" lon="-0.21783">
        <ele>1404.63</ele>
        <time>2017-07-31T07:58:30Z</time>
      </trkpt>
      <trkpt lat="43.01404" lon="-0.2178">
        <ele>1404.29</ele>
        <time>2017-07-31T07:58:32Z</time>
      </trkpt>
      <trkpt lat="43.01408" lon="-0.21777">
        <ele>1403.84</ele>
        <time>2017-07-31T07:58:35Z</time>
      </trkpt>
      <trkpt lat="43.01412" lon="-0.21772">
        <ele>1403.56</ele>
        <time>2017-07-31T07:58:37Z</time>
      </trkpt>
      <trkpt lat="43.01417" lon="-0.21767">
        <ele>1403.27</ele>
        <time>2017-07-31T07:58:39Z</time>
      </trkpt>
      <trkpt lat="43.01423" lon="-0.21762">
        <ele>1402.99</ele>
        <time>2017-07-31T07:58:41Z</time>
      </trkpt>
      <trkpt lat="43.01427" lon="-0.21759">
        <ele>1402.67</ele>
        <time>2017-07-31T07:58:43Z</time>
      </trkpt>
      <trkpt lat="43.01434" lon="-0.21756">
        <ele>1402.32</ele>
        <time>2017-07-31T07:58:45Z</time>
      </trkpt>
      <trkpt lat="43.01439" lon="-0.21754">
        <ele>1401.94</ele>
        <time>2017-07-31T07:58:47Z</time>
      </trkpt>
      <trkpt lat="43.01444" lon="-0.21751">
        <ele>1401.56</ele>
        <time>2017-07-31T07:58:49Z</time>
      </trkpt>
      <trkpt lat="43.01449" lon="-0.21748">
        <ele>1400.74</ele>
        <time>2017-07-31T07:58:55Z</time>
      </trkpt>
      <trkpt lat="43.01453" lon="-0.21743">
        <ele>1399.42</ele>
        <time>2017-07-31T07:59:03Z</time>
      </trkpt>
      <trkpt lat="43.01458" lon="-0.21739">
        <ele>1399.09</ele>
        <time>2017-07-31T07:59:05Z</time>
      </trkpt>
      <trkpt lat="43.01462" lon="-0.21735">
        <ele>1398.77</ele>
        <time>2017-07-31T07:59:07Z</time>
      </trkpt>
      <trkpt lat="43.01465" lon="-0.2173">
        <ele>1398.46</ele>
        <time>2017-07-31T07:59:09Z</time>
      </trkpt>
      <trkpt lat="43.01468" lon="-0.21722">
        <ele>1398.03</ele>
        <time>2017-07-31T07:59:12Z</time>
      </trkpt>
      <trkpt lat="43.01472" lon="-0.21716">
        <ele>1397.65</ele>
        <time>2017-07-31T07:59:15Z</time>
      </trkpt>
      <trkpt lat="43.01475" lon="-0.2171">
        <ele>1397.42</ele>
        <time>2017-07-31T07:59:17Z</time>
      </trkpt>
      <trkpt lat="43.01478" lon="-0.21704">
        <ele>1397.18</ele>
        <time>2017-07-31T07:59:19Z</time>
      </trkpt>
      <trkpt lat="43.01481" lon="-0.21699">
        <ele>1396.93</ele>
        <time>2017-07-31T07:59:21Z</time>
      </trkpt>
      <trkpt lat="43.01483" lon="-0.21693">
        <ele>1396.67</ele>
        <time>2017-07-31T07:59:23Z</time>
      </trkpt>
      <trkpt lat="43.01486" lon="-0.21688">
        <ele>1396.1</ele>
        <time>2017-07-31T07:59:28Z</time>
      </trkpt>
      <trkpt lat="43.01489" lon="-0.21679">
        <ele>1395.74</ele>
        <time>2017-07-31T07:59:32Z</time>
      </trkpt>
      <trkpt lat="43.01491" lon="-0.2167">
        <ele>1395.53</ele>
        <time>2017-07-31T07:59:34Z</time>
      </trkpt>
      <trkpt lat="43.01494" lon="-0.21663">
        <ele>1395.31</ele>
        <time>2017-07-31T07:59:36Z</time>
      </trkpt>
      <trkpt lat="43.01496" lon="-0.21657">
        <ele>1395.06</ele>
        <time>2017-07-31T07:59:38Z</time>
      </trkpt>
      <trkpt lat="43.015" lon="-0.21653">
        <ele>1394.82</ele>
        <time>2017-07-31T07:59:40Z</time>
      </trkpt>
      <trkpt lat="43.01504" lon="-0.2165">
        <ele>1394.57</ele>
        <time>2017-07-31T07:59:42Z</time>
      </trkpt>
      <trkpt lat="43.01509" lon="-0.21645">
        <ele>1394.31</ele>
        <time>2017-07-31T07:59:44Z</time>
      </trkpt>
      <trkpt lat="43.01513" lon="-0.21641">
        <ele>1394.06</ele>
        <time>2017-07-31T07:59:46Z</time>
      </trkpt>
      <trkpt lat="43.01518" lon="-0.21637">
        <ele>1393.8</ele>
        <time>2017-07-31T07:59:48Z</time>
      </trkpt>
      <trkpt lat="43.01523" lon="-0.21633">
        <ele>1393.53</ele>
        <time>2017-07-31T07:59:50Z</time>
      </trkpt>
      <trkpt lat="43.01527" lon="-0.2163">
        <ele>1393.27</ele>
        <time>2017-07-31T07:59:52Z</time>
      </trkpt>
      <trkpt lat="43.01531" lon="-0.21627">
        <ele>1392.69</ele>
        <time>2017-07-31T08:00:02Z</time>
      </trkpt>
      <trkpt lat="43.01536" lon="-0.21623">
        <ele>1392.33</ele>
        <time>2017-07-31T08:00:05Z</time>
      </trkpt>
      <trkpt lat="43.0154" lon="-0.21619">
        <ele>1392.08</ele>
        <time>2017-07-31T08:00:07Z</time>
      </trkpt>
      <trkpt lat="43.01543" lon="-0.21615">
        <ele>1391.47</ele>
        <time>2017-07-31T08:00:13Z</time>
      </trkpt>
      <trkpt lat="43.01548" lon="-0.2161">
        <ele>1391.15</ele>
        <time>2017-07-31T08:00:16Z</time>
      </trkpt>
      <trkpt lat="43.01554" lon="-0.21607">
        <ele>1390.99</ele>
        <time>2017-07-31T08:00:18Z</time>
      </trkpt>
      <trkpt lat="43.01558" lon="-0.21605">
        <ele>1390.83</ele>
        <time>2017-07-31T08:00:20Z</time>
      </trkpt>
      <trkpt lat="43.01564" lon="-0.21601">
        <ele>1390.6</ele>
        <time>2017-07-31T08:00:23Z</time>
      </trkpt>
      <trkpt lat="43.01568" lon="-0.21596">
        <ele>1390.41</ele>
        <time>2017-07-31T08:00:26Z</time>
      </trkpt>
      <trkpt lat="43.01572" lon="-0.21592">
        <ele>1390.31</ele>
        <time>2017-07-31T08:00:28Z</time>
      </trkpt>
      <trkpt lat="43.01577" lon="-0.21586">
        <ele>1390.14</ele>
        <time>2017-07-31T08:00:31Z</time>
      </trkpt>
      <trkpt lat="43.01581" lon="-0.21582">
        <ele>1390.05</ele>
        <time>2017-07-31T08:00:33Z</time>
      </trkpt>
      <trkpt lat="43.01585" lon="-0.21578">
        <ele>1389.96</ele>
        <time>2017-07-31T08:00:35Z</time>
      </trkpt>
      <trkpt lat="43.01589" lon="-0.21574">
        <ele>1389.88</ele>
        <time>2017-07-31T08:00:37Z</time>
      </trkpt>
      <trkpt lat="43.01594" lon="-0.21571">
        <ele>1389.78</ele>
        <time>2017-07-31T08:00:40Z</time>
      </trkpt>
      <trkpt lat="43.01599" lon="-0.21568">
        <ele>1389.67</ele>
        <time>2017-07-31T08:00:44Z</time>
      </trkpt>
      <trkpt lat="43.01604" lon="-0.21562">
        <ele>1389.58</ele>
        <time>2017-07-31T08:00:47Z</time>
      </trkpt>
      <trkpt lat="43.01608" lon="-0.21557">
        <ele>1389.51</ele>
        <time>2017-07-31T08:00:50Z</time>
      </trkpt>
      <trkpt lat="43.01612" lon="-0.21552">
        <ele>1389.46</ele>
        <time>2017-07-31T08:00:53Z</time>
      </trkpt>
      <trkpt lat="43.01617" lon="-0.21547">
        <ele>1389.44</ele>
        <time>2017-07-31T08:00:56Z</time>
      </trkpt>
      <trkpt lat="43.01621" lon="-0.2154">
        <ele>1389.36</ele>
        <time>2017-07-31T08:00:59Z</time>
      </trkpt>
      <trkpt lat="43.01624" lon="-0.21534">
        <ele>1389.22</ele>
        <time>2017-07-31T08:01:02Z</time>
      </trkpt>
      <trkpt lat="43.01627" lon="-0.21528">
        <ele>1389.1</ele>
        <time>2017-07-31T08:01:04Z</time>
      </trkpt>
      <trkpt lat="43.0163" lon="-0.21521">
        <ele>1388.97</ele>
        <time>2017-07-31T08:01:06Z</time>
      </trkpt>
      <trkpt lat="43.01631" lon="-0.21515">
        <ele>1388.81</ele>
        <time>2017-07-31T08:01:08Z</time>
      </trkpt>
      <trkpt lat="43.01633" lon="-0.21509">
        <ele>1388.65</ele>
        <time>2017-07-31T08:01:10Z</time>
      </trkpt>
      <trkpt lat="43.01635" lon="-0.21503">
        <ele>1388.47</ele>
        <time>2017-07-31T08:01:12Z</time>
      </trkpt>
      <trkpt lat="43.01636" lon="-0.21495">
        <ele>1388.17</ele>
        <time>2017-07-31T08:01:15Z</time>
      </trkpt>
      <trkpt lat="43.01636" lon="-0.21487">
        <ele>1387.94</ele>
        <time>2017-07-31T08:01:17Z</time>
      </trkpt>
      <trkpt lat="43.01636" lon="-0.21479">
        <ele>1387.7</ele>
        <time>2017-07-31T08:01:19Z</time>
      </trkpt>
      <trkpt lat="43.01636" lon="-0.21472">
        <ele>1387.46</ele>
        <time>2017-07-31T08:01:21Z</time>
      </trkpt>
      <trkpt lat="43.01634" lon="-0.21465">
        <ele>1387.16</ele>
        <time>2017-07-31T08:01:24Z</time>
      </trkpt>
      <trkpt lat="43.01634" lon="-0.21459">
        <ele>1387.57</ele>
        <time>2017-07-31T08:01:35Z</time>
      </trkpt>
      <trkpt lat="43.01633" lon="-0.21451">
        <ele>1387.87</ele>
        <time>2017-07-31T08:01:38Z</time>
      </trkpt>
      <trkpt lat="43.01632" lon="-0.21443">
        <ele>1388.13</ele>
        <time>2017-07-31T08:01:41Z</time>
      </trkpt>
      <trkpt lat="43.01632" lon="-0.21435">
        <ele>1388.33</ele>
        <time>2017-07-31T08:01:44Z</time>
      </trkpt>
      <trkpt lat="43.01633" lon="-0.21428">
        <ele>1388.34</ele>
        <time>2017-07-31T08:01:47Z</time>
      </trkpt>
      <trkpt lat="43.01633" lon="-0.2142">
        <ele>1388.15</ele>
        <time>2017-07-31T08:01:52Z</time>
      </trkpt>
      <trkpt lat="43.01632" lon="-0.21414">
        <ele>1387.92</ele>
        <time>2017-07-31T08:01:57Z</time>
      </trkpt>
      <trkpt lat="43.01631" lon="-0.21406">
        <ele>1387.86</ele>
        <time>2017-07-31T08:02:02Z</time>
      </trkpt>
      <trkpt lat="43.01631" lon="-0.21397">
        <ele>1387.72</ele>
        <time>2017-07-31T08:02:06Z</time>
      </trkpt>
      <trkpt lat="43.01631" lon="-0.21391">
        <ele>1387.11</ele>
        <time>2017-07-31T08:02:18Z</time>
      </trkpt>
      <trkpt lat="43.01632" lon="-0.21383">
        <ele>1386.79</ele>
        <time>2017-07-31T08:02:24Z</time>
      </trkpt>
      <trkpt lat="43.01632" lon="-0.21376">
        <ele>1386.58</ele>
        <time>2017-07-31T08:02:32Z</time>
      </trkpt>
      <trkpt lat="43.01634" lon="-0.2137">
        <ele>1386.37</ele>
        <time>2017-07-31T08:02:45Z</time>
      </trkpt>
      <trkpt lat="43.01635" lon="-0.21363">
        <ele>1386.16</ele>
        <time>2017-07-31T08:02:50Z</time>
      </trkpt>
      <trkpt lat="43.01635" lon="-0.21355">
        <ele>1385.65</ele>
        <time>2017-07-31T08:03:02Z</time>
      </trkpt>
      <trkpt lat="43.01635" lon="-0.21346">
        <ele>1385.56</ele>
        <time>2017-07-31T08:03:05Z</time>
      </trkpt>
      <trkpt lat="43.01635" lon="-0.2134">
        <ele>1385.53</ele>
        <time>2017-07-31T08:03:07Z</time>
      </trkpt>
      <trkpt lat="43.01634" lon="-0.21333">
        <ele>1385.5</ele>
        <time>2017-07-31T08:03:09Z</time>
      </trkpt>
      <trkpt lat="43.01635" lon="-0.21325">
        <ele>1385.43</ele>
        <time>2017-07-31T08:03:12Z</time>
      </trkpt>
      <trkpt lat="43.01636" lon="-0.21319">
        <ele>1385.18</ele>
        <time>2017-07-31T08:03:18Z</time>
      </trkpt>
      <trkpt lat="43.01635" lon="-0.21313">
        <ele>1384.44</ele>
        <time>2017-07-31T08:03:36Z</time>
      </trkpt>
      <trkpt lat="43.01633" lon="-0.21305">
        <ele>1384.45</ele>
        <time>2017-07-31T08:03:45Z</time>
      </trkpt>
      <trkpt lat="43.01632" lon="-0.21298">
        <ele>1384.66</ele>
        <time>2017-07-31T08:03:48Z</time>
      </trkpt>
      <trkpt lat="43.01633" lon="-0.21291">
        <ele>1384.82</ele>
        <time>2017-07-31T08:03:50Z</time>
      </trkpt>
      <trkpt lat="43.01634" lon="-0.21282">
        <ele>1384.97</ele>
        <time>2017-07-31T08:03:53Z</time>
      </trkpt>
      <trkpt lat="43.01635" lon="-0.21276">
        <ele>1385.03</ele>
        <time>2017-07-31T08:03:55Z</time>
      </trkpt>
      <trkpt lat="43.01636" lon="-0.2127">
        <ele>1385.06</ele>
        <time>2017-07-31T08:03:57Z</time>
      </trkpt>
      <trkpt lat="43.01637" lon="-0.21264">
        <ele>1385.1</ele>
        <time>2017-07-31T08:03:59Z</time>
      </trkpt>
      <trkpt lat="43.01638" lon="-0.21257">
        <ele>1385.14</ele>
        <time>2017-07-31T08:04:01Z</time>
      </trkpt>
      <trkpt lat="43.0164" lon="-0.21248">
        <ele>1385.21</ele>
        <time>2017-07-31T08:04:04Z</time>
      </trkpt>
      <trkpt lat="43.01642" lon="-0.21243">
        <ele>1385.27</ele>
        <time>2017-07-31T08:04:06Z</time>
      </trkpt>
      <trkpt lat="43.01646" lon="-0.21238">
        <ele>1385.34</ele>
        <time>2017-07-31T08:04:08Z</time>
      </trkpt>
      <trkpt lat="43.0165" lon="-0.21232">
        <ele>1385.4</ele>
        <time>2017-07-31T08:04:11Z</time>
      </trkpt>
      <trkpt lat="43.01656" lon="-0.2123">
        <ele>1385.43</ele>
        <time>2017-07-31T08:04:14Z</time>
      </trkpt>
      <trkpt lat="43.01663" lon="-0.21233">
        <ele>1385.43</ele>
        <time>2017-07-31T08:04:17Z</time>
      </trkpt>
      <trkpt lat="43.01668" lon="-0.21234">
        <ele>1385.4</ele>
        <time>2017-07-31T08:04:19Z</time>
      </trkpt>
      <trkpt lat="43.01673" lon="-0.21235">
        <ele>1385.35</ele>
        <time>2017-07-31T08:04:21Z</time>
      </trkpt>
      <trkpt lat="43.0168" lon="-0.21232">
        <ele>1385.24</ele>
        <time>2017-07-31T08:04:24Z</time>
      </trkpt>
      <trkpt lat="43.01684" lon="-0.21232">
        <ele>1385.15</ele>
        <time>2017-07-31T08:04:27Z</time>
      </trkpt>
      <trkpt lat="43.01689" lon="-0.21228">
        <ele>1385.13</ele>
        <time>2017-07-31T08:04:31Z</time>
      </trkpt>
      <trkpt lat="43.01693" lon="-0.21224">
        <ele>1385.15</ele>
        <time>2017-07-31T08:04:34Z</time>
      </trkpt>
      <trkpt lat="43.01698" lon="-0.21223">
        <ele>1385.2</ele>
        <time>2017-07-31T08:04:37Z</time>
      </trkpt>
      <trkpt lat="43.01704" lon="-0.21223">
        <ele>1385.39</ele>
        <time>2017-07-31T08:04:42Z</time>
      </trkpt>
      <trkpt lat="43.01708" lon="-0.2122">
        <ele>1385.53</ele>
        <time>2017-07-31T08:04:45Z</time>
      </trkpt>
      <trkpt lat="43.01713" lon="-0.21219">
        <ele>1385.67</ele>
        <time>2017-07-31T08:04:48Z</time>
      </trkpt>
      <trkpt lat="43.01718" lon="-0.21218">
        <ele>1385.94</ele>
        <time>2017-07-31T08:04:52Z</time>
      </trkpt>
      <trkpt lat="43.01723" lon="-0.21218">
        <ele>1386.2</ele>
        <time>2017-07-31T08:04:55Z</time>
      </trkpt>
      <trkpt lat="43.01728" lon="-0.21217">
        <ele>1386.54</ele>
        <time>2017-07-31T08:04:59Z</time>
      </trkpt>
      <trkpt lat="43.01732" lon="-0.21213">
        <ele>1387.53</ele>
        <time>2017-07-31T08:05:12Z</time>
      </trkpt>
      <trkpt lat="43.01735" lon="-0.21209">
        <ele>1387.83</ele>
        <time>2017-07-31T08:05:20Z</time>
      </trkpt>
      <trkpt lat="43.01739" lon="-0.21205">
        <ele>1387.99</ele>
        <time>2017-07-31T08:05:25Z</time>
      </trkpt>
      <trkpt lat="43.01744" lon="-0.21202">
        <ele>1388.25</ele>
        <time>2017-07-31T08:05:38Z</time>
      </trkpt>
      <trkpt lat="43.01748" lon="-0.21199">
        <ele>1388.26</ele>
        <time>2017-07-31T08:05:44Z</time>
      </trkpt>
      <trkpt lat="43.01753" lon="-0.21198">
        <ele>1388.27</ele>
        <time>2017-07-31T08:05:53Z</time>
      </trkpt>
      <trkpt lat="43.01758" lon="-0.21195">
        <ele>1388.34</ele>
        <time>2017-07-31T08:05:57Z</time>
      </trkpt>
      <trkpt lat="43.01763" lon="-0.21191">
        <ele>1388.4</ele>
        <time>2017-07-31T08:06:09Z</time>
      </trkpt>
      <trkpt lat="43.01767" lon="-0.21185">
        <ele>1388.49</ele>
        <time>2017-07-31T08:06:12Z</time>
      </trkpt>
      <trkpt lat="43.01771" lon="-0.21181">
        <ele>1389.18</ele>
        <time>2017-07-31T08:06:20Z</time>
      </trkpt>
      <trkpt lat="43.01775" lon="-0.21176">
        <ele>1389.4</ele>
        <time>2017-07-31T08:06:32Z</time>
      </trkpt>
      <trkpt lat="43.01779" lon="-0.21173">
        <ele>1389.8</ele>
        <time>2017-07-31T08:06:39Z</time>
      </trkpt>
      <trkpt lat="43.01783" lon="-0.21169">
        <ele>1390.91</ele>
        <time>2017-07-31T08:06:48Z</time>
      </trkpt>
      <trkpt lat="43.01784" lon="-0.21162">
        <ele>1391.05</ele>
        <time>2017-07-31T08:06:54Z</time>
      </trkpt>
      <trkpt lat="43.01785" lon="-0.21154">
        <ele>1391.23</ele>
        <time>2017-07-31T08:06:57Z</time>
      </trkpt>
      <trkpt lat="43.01787" lon="-0.21148">
        <ele>1391.47</ele>
        <time>2017-07-31T08:07:00Z</time>
      </trkpt>
      <trkpt lat="43.01789" lon="-0.21142">
        <ele>1392.1</ele>
        <time>2017-07-31T08:07:12Z</time>
      </trkpt>
      <trkpt lat="43.01789" lon="-0.21135">
        <ele>1392.43</ele>
        <time>2017-07-31T08:07:15Z</time>
      </trkpt>
      <trkpt lat="43.01789" lon="-0.21128">
        <ele>1392.93</ele>
        <time>2017-07-31T08:07:22Z</time>
      </trkpt>
      <trkpt lat="43.01794" lon="-0.21123">
        <ele>1393.33</ele>
        <time>2017-07-31T08:07:31Z</time>
      </trkpt>
      <trkpt lat="43.01797" lon="-0.21119">
        <ele>1394.73</ele>
        <time>2017-07-31T08:07:46Z</time>
      </trkpt>
      <trkpt lat="43.01799" lon="-0.21113">
        <ele>1395.38</ele>
        <time>2017-07-31T08:08:07Z</time>
      </trkpt>
      <trkpt lat="43.01801" lon="-0.21107">
        <ele>1395.07</ele>
        <time>2017-07-31T08:08:14Z</time>
      </trkpt>
      <trkpt lat="43.01803" lon="-0.21102">
        <ele>1394.51</ele>
        <time>2017-07-31T08:08:27Z</time>
      </trkpt>
      <trkpt lat="43.01806" lon="-0.21096">
        <ele>1394.41</ele>
        <time>2017-07-31T08:08:32Z</time>
      </trkpt>
      <trkpt lat="43.01805" lon="-0.21086">
        <ele>1393.73</ele>
        <time>2017-07-31T08:08:45Z</time>
      </trkpt>
      <trkpt lat="43.01803" lon="-0.2108">
        <ele>1392.9</ele>
        <time>2017-07-31T08:08:55Z</time>
      </trkpt>
      <trkpt lat="43.01803" lon="-0.21072">
        <ele>1392.18</ele>
        <time>2017-07-31T08:09:07Z</time>
      </trkpt>
      <trkpt lat="43.01799" lon="-0.21068">
        <ele>1391.26</ele>
        <time>2017-07-31T08:09:15Z</time>
      </trkpt>
      <trkpt lat="43.01802" lon="-0.21062">
        <ele>1392.21</ele>
        <time>2017-07-31T08:09:43Z</time>
      </trkpt>
      <trkpt lat="43.01806" lon="-0.21057">
        <ele>1392.17</ele>
        <time>2017-07-31T08:09:49Z</time>
      </trkpt>
      <trkpt lat="43.01809" lon="-0.21052">
        <ele>1392.4</ele>
        <time>2017-07-31T08:10:09Z</time>
      </trkpt>
      <trkpt lat="43.01807" lon="-0.21045">
        <ele>1393.43</ele>
        <time>2017-07-31T08:10:16Z</time>
      </trkpt>
      <trkpt lat="43.01805" lon="-0.21038">
        <ele>1394.21</ele>
        <time>2017-07-31T08:10:21Z</time>
      </trkpt>
      <trkpt lat="43.01805" lon="-0.21031">
        <ele>1394.57</ele>
        <time>2017-07-31T08:10:26Z</time>
      </trkpt>
      <trkpt lat="43.01805" lon="-0.21025">
        <ele>1394.66</ele>
        <time>2017-07-31T08:10:35Z</time>
      </trkpt>
      <trkpt lat="43.01802" lon="-0.2102">
        <ele>1394.69</ele>
        <time>2017-07-31T08:10:51Z</time>
      </trkpt>
      <trkpt lat="43.01799" lon="-0.21015">
        <ele>1394.58</ele>
        <time>2017-07-31T08:11:05Z</time>
      </trkpt>
      <trkpt lat="43.01796" lon="-0.2101">
        <ele>1394.48</ele>
        <time>2017-07-31T08:11:09Z</time>
      </trkpt>
      <trkpt lat="43.01794" lon="-0.21004">
        <ele>1394.42</ele>
        <time>2017-07-31T08:11:12Z</time>
      </trkpt>
      <trkpt lat="43.01791" lon="-0.20998">
        <ele>1394.35</ele>
        <time>2017-07-31T08:11:15Z</time>
      </trkpt>
      <trkpt lat="43.01788" lon="-0.20992">
        <ele>1394.15</ele>
        <time>2017-07-31T08:11:19Z</time>
      </trkpt>
      <trkpt lat="43.01785" lon="-0.20988">
        <ele>1393.95</ele>
        <time>2017-07-31T08:11:22Z</time>
      </trkpt>
      <trkpt lat="43.01782" lon="-0.20982">
        <ele>1393.82</ele>
        <time>2017-07-31T08:11:24Z</time>
      </trkpt>
      <trkpt lat="43.01779" lon="-0.20977">
        <ele>1393.63</ele>
        <time>2017-07-31T08:11:27Z</time>
      </trkpt>
      <trkpt lat="43.01775" lon="-0.20971">
        <ele>1393.32</ele>
        <time>2017-07-31T08:11:31Z</time>
      </trkpt>
      <trkpt lat="43.0177" lon="-0.20965">
        <ele>1393.09</ele>
        <time>2017-07-31T08:11:34Z</time>
      </trkpt>
      <trkpt lat="43.01766" lon="-0.20961">
        <ele>1392.93</ele>
        <time>2017-07-31T08:11:37Z</time>
      </trkpt>
      <trkpt lat="43.01763" lon="-0.20955">
        <ele>1392.9</ele>
        <time>2017-07-31T08:11:40Z</time>
      </trkpt>
      <trkpt lat="43.01759" lon="-0.20949">
        <ele>1392.98</ele>
        <time>2017-07-31T08:11:44Z</time>
      </trkpt>
      <trkpt lat="43.01756" lon="-0.20942">
        <ele>1393.09</ele>
        <time>2017-07-31T08:11:47Z</time>
      </trkpt>
      <trkpt lat="43.01754" lon="-0.20937">
        <ele>1393.23</ele>
        <time>2017-07-31T08:11:50Z</time>
      </trkpt>
      <trkpt lat="43.01751" lon="-0.20932">
        <ele>1393.4</ele>
        <time>2017-07-31T08:11:55Z</time>
      </trkpt>
      <trkpt lat="43.01748" lon="-0.20925">
        <ele>1393.57</ele>
        <time>2017-07-31T08:12:01Z</time>
      </trkpt>
      <trkpt lat="43.01746" lon="-0.20919">
        <ele>1393.76</ele>
        <time>2017-07-31T08:12:06Z</time>
      </trkpt>
      <trkpt lat="43.01745" lon="-0.20913">
        <ele>1393.87</ele>
        <time>2017-07-31T08:12:15Z</time>
      </trkpt>
      <trkpt lat="43.01744" lon="-0.20906">
        <ele>1393.98</ele>
        <time>2017-07-31T08:12:21Z</time>
      </trkpt>
      <trkpt lat="43.01743" lon="-0.209">
        <ele>1394.15</ele>
        <time>2017-07-31T08:12:27Z</time>
      </trkpt>
      <trkpt lat="43.0174" lon="-0.20893">
        <ele>1394.38</ele>
        <time>2017-07-31T08:12:35Z</time>
      </trkpt>
      <trkpt lat="43.01738" lon="-0.20886">
        <ele>1394.52</ele>
        <time>2017-07-31T08:12:38Z</time>
      </trkpt>
      <trkpt lat="43.01736" lon="-0.20878">
        <ele>1394.79</ele>
        <time>2017-07-31T08:12:41Z</time>
      </trkpt>
      <trkpt lat="43.01732" lon="-0.20872">
        <ele>1395.04</ele>
        <time>2017-07-31T08:12:43Z</time>
      </trkpt>
      <trkpt lat="43.01729" lon="-0.20866">
        <ele>1395.33</ele>
        <time>2017-07-31T08:12:45Z</time>
      </trkpt>
      <trkpt lat="43.01725" lon="-0.2086">
        <ele>1395.64</ele>
        <time>2017-07-31T08:12:47Z</time>
      </trkpt>
      <trkpt lat="43.01722" lon="-0.20855">
        <ele>1395.96</ele>
        <time>2017-07-31T08:12:49Z</time>
      </trkpt>
      <trkpt lat="43.01721" lon="-0.20846">
        <ele>1396.25</ele>
        <time>2017-07-31T08:12:51Z</time>
      </trkpt>
      <trkpt lat="43.0172" lon="-0.20837">
        <ele>1396.75</ele>
        <time>2017-07-31T08:12:54Z</time>
      </trkpt>
      <trkpt lat="43.01717" lon="-0.2083">
        <ele>1397.04</ele>
        <time>2017-07-31T08:12:56Z</time>
      </trkpt>
      <trkpt lat="43.01714" lon="-0.20823">
        <ele>1397.34</ele>
        <time>2017-07-31T08:12:58Z</time>
      </trkpt>
      <trkpt lat="43.01712" lon="-0.20818">
        <ele>1397.67</ele>
        <time>2017-07-31T08:13:00Z</time>
      </trkpt>
      <trkpt lat="43.01707" lon="-0.20811">
        <ele>1398.3</ele>
        <time>2017-07-31T08:13:03Z</time>
      </trkpt>
      <trkpt lat="43.01704" lon="-0.20805">
        <ele>1398.75</ele>
        <time>2017-07-31T08:13:05Z</time>
      </trkpt>
      <trkpt lat="43.01701" lon="-0.20798">
        <ele>1399.16</ele>
        <time>2017-07-31T08:13:07Z</time>
      </trkpt>
      <trkpt lat="43.01698" lon="-0.20791">
        <ele>1399.78</ele>
        <time>2017-07-31T08:13:10Z</time>
      </trkpt>
      <trkpt lat="43.01694" lon="-0.20785">
        <ele>1400.19</ele>
        <time>2017-07-31T08:13:12Z</time>
      </trkpt>
      <trkpt lat="43.01692" lon="-0.2078">
        <ele>1400.63</ele>
        <time>2017-07-31T08:13:14Z</time>
      </trkpt>
      <trkpt lat="43.0169" lon="-0.20773">
        <ele>1401.11</ele>
        <time>2017-07-31T08:13:16Z</time>
      </trkpt>
      <trkpt lat="43.01688" lon="-0.20766">
        <ele>1401.55</ele>
        <time>2017-07-31T08:13:18Z</time>
      </trkpt>
      <trkpt lat="43.01686" lon="-0.20759">
        <ele>1401.92</ele>
        <time>2017-07-31T08:13:20Z</time>
      </trkpt>
      <trkpt lat="43.01684" lon="-0.20751">
        <ele>1402.18</ele>
        <time>2017-07-31T08:13:22Z</time>
      </trkpt>
      <trkpt lat="43.0168" lon="-0.20743">
        <ele>1402.32</ele>
        <time>2017-07-31T08:13:24Z</time>
      </trkpt>
      <trkpt lat="43.01677" lon="-0.20735">
        <ele>1402.37</ele>
        <time>2017-07-31T08:13:26Z</time>
      </trkpt>
      <trkpt lat="43.01673" lon="-0.20728">
        <ele>1402.33</ele>
        <time>2017-07-31T08:13:28Z</time>
      </trkpt>
      <trkpt lat="43.0167" lon="-0.20722">
        <ele>1402.24</ele>
        <time>2017-07-31T08:13:30Z</time>
      </trkpt>
      <trkpt lat="43.01666" lon="-0.20716">
        <ele>1402.11</ele>
        <time>2017-07-31T08:13:32Z</time>
      </trkpt>
      <trkpt lat="43.01663" lon="-0.2071">
        <ele>1402</ele>
        <time>2017-07-31T08:13:34Z</time>
      </trkpt>
      <trkpt lat="43.01658" lon="-0.20705">
        <ele>1401.96</ele>
        <time>2017-07-31T08:13:37Z</time>
      </trkpt>
      <trkpt lat="43.01656" lon="-0.20699">
        <ele>1402.05</ele>
        <time>2017-07-31T08:13:39Z</time>
      </trkpt>
      <trkpt lat="43.01654" lon="-0.20693">
        <ele>1402.17</ele>
        <time>2017-07-31T08:13:41Z</time>
      </trkpt>
      <trkpt lat="43.01652" lon="-0.20687">
        <ele>1402.29</ele>
        <time>2017-07-31T08:13:43Z</time>
      </trkpt>
      <trkpt lat="43.0165" lon="-0.20681">
        <ele>1402.44</ele>
        <time>2017-07-31T08:13:45Z</time>
      </trkpt>
      <trkpt lat="43.01648" lon="-0.20674">
        <ele>1402.64</ele>
        <time>2017-07-31T08:13:47Z</time>
      </trkpt>
      <trkpt lat="43.01645" lon="-0.20667">
        <ele>1402.87</ele>
        <time>2017-07-31T08:13:49Z</time>
      </trkpt>
      <trkpt lat="43.01643" lon="-0.2066">
        <ele>1403.13</ele>
        <time>2017-07-31T08:13:51Z</time>
      </trkpt>
      <trkpt lat="43.01641" lon="-0.20654">
        <ele>1403.36</ele>
        <time>2017-07-31T08:13:53Z</time>
      </trkpt>
      <trkpt lat="43.01639" lon="-0.20647">
        <ele>1403.64</ele>
        <time>2017-07-31T08:13:55Z</time>
      </trkpt>
      <trkpt lat="43.01636" lon="-0.2064">
        <ele>1403.94</ele>
        <time>2017-07-31T08:13:57Z</time>
      </trkpt>
      <trkpt lat="43.01634" lon="-0.20635">
        <ele>1404.23</ele>
        <time>2017-07-31T08:13:59Z</time>
      </trkpt>
      <trkpt lat="43.01631" lon="-0.20626">
        <ele>1404.72</ele>
        <time>2017-07-31T08:14:02Z</time>
      </trkpt>
      <trkpt lat="43.01631" lon="-0.2062">
        <ele>1405.04</ele>
        <time>2017-07-31T08:14:04Z</time>
      </trkpt>
      <trkpt lat="43.01629" lon="-0.20613">
        <ele>1405.34</ele>
        <time>2017-07-31T08:14:06Z</time>
      </trkpt>
      <trkpt lat="43.01628" lon="-0.20606">
        <ele>1405.63</ele>
        <time>2017-07-31T08:14:08Z</time>
      </trkpt>
      <trkpt lat="43.01627" lon="-0.206">
        <ele>1405.92</ele>
        <time>2017-07-31T08:14:10Z</time>
      </trkpt>
      <trkpt lat="43.01626" lon="-0.20594">
        <ele>1406.27</ele>
        <time>2017-07-31T08:14:12Z</time>
      </trkpt>
      <trkpt lat="43.01625" lon="-0.20586">
        <ele>1406.62</ele>
        <time>2017-07-31T08:14:14Z</time>
      </trkpt>
      <trkpt lat="43.01625" lon="-0.20579">
        <ele>1407.28</ele>
        <time>2017-07-31T08:14:17Z</time>
      </trkpt>
      <trkpt lat="43.01626" lon="-0.20569">
        <ele>1407.7</ele>
        <time>2017-07-31T08:14:19Z</time>
      </trkpt>
      <trkpt lat="43.01624" lon="-0.20559">
        <ele>1408.05</ele>
        <time>2017-07-31T08:14:21Z</time>
      </trkpt>
      <trkpt lat="43.01624" lon="-0.20552">
        <ele>1408.36</ele>
        <time>2017-07-31T08:14:23Z</time>
      </trkpt>
      <trkpt lat="43.01622" lon="-0.20546">
        <ele>1408.63</ele>
        <time>2017-07-31T08:14:25Z</time>
      </trkpt>
      <trkpt lat="43.0162" lon="-0.20538">
        <ele>1408.73</ele>
        <time>2017-07-31T08:14:27Z</time>
      </trkpt>
      <trkpt lat="43.01617" lon="-0.20531">
        <ele>1408.27</ele>
        <time>2017-07-31T08:14:32Z</time>
      </trkpt>
      <trkpt lat="43.01613" lon="-0.20533">
        <ele>1408.3</ele>
        <time>2017-07-31T08:15:03Z</time>
      </trkpt>
      <trkpt lat="43.01613" lon="-0.20527">
        <ele>1408.23</ele>
        <time>2017-07-31T08:15:13Z</time>
      </trkpt>
      <trkpt lat="43.01617" lon="-0.2053">
        <ele>1408.01</ele>
        <time>2017-07-31T08:15:17Z</time>
      </trkpt>
      <trkpt lat="43.01621" lon="-0.20535">
        <ele>1407.79</ele>
        <time>2017-07-31T08:15:22Z</time>
      </trkpt>
      <trkpt lat="43.0162" lon="-0.20528">
        <ele>1407.15</ele>
        <time>2017-07-31T08:15:29Z</time>
      </trkpt>
      <trkpt lat="43.01618" lon="-0.20522">
        <ele>1407.01</ele>
        <time>2017-07-31T08:15:32Z</time>
      </trkpt>
      <trkpt lat="43.01619" lon="-0.20515">
        <ele>1405.96</ele>
        <time>2017-07-31T08:16:15Z</time>
      </trkpt>
      <trkpt lat="43.01616" lon="-0.20521">
        <ele>1404.62</ele>
        <time>2017-07-31T08:16:41Z</time>
      </trkpt>
      <trkpt lat="43.01611" lon="-0.20519">
        <ele>1403.92</ele>
        <time>2017-07-31T08:16:48Z</time>
      </trkpt>
      <trkpt lat="43.01611" lon="-0.20513">
        <ele>1404.15</ele>
        <time>2017-07-31T08:17:01Z</time>
      </trkpt>
      <trkpt lat="43.01611" lon="-0.20506">
        <ele>1404.49</ele>
        <time>2017-07-31T08:17:04Z</time>
      </trkpt>
      <trkpt lat="43.01611" lon="-0.205">
        <ele>1404.8</ele>
        <time>2017-07-31T08:17:06Z</time>
      </trkpt>
      <trkpt lat="43.01608" lon="-0.20491">
        <ele>1405.35</ele>
        <time>2017-07-31T08:17:09Z</time>
      </trkpt>
      <trkpt lat="43.01607" lon="-0.20484">
        <ele>1406.14</ele>
        <time>2017-07-31T08:17:12Z</time>
      </trkpt>
      <trkpt lat="43.01607" lon="-0.20476">
        <ele>1406.71</ele>
        <time>2017-07-31T08:17:14Z</time>
      </trkpt>
      <trkpt lat="43.01607" lon="-0.20469">
        <ele>1407.22</ele>
        <time>2017-07-31T08:17:16Z</time>
      </trkpt>
      <trkpt lat="43.01608" lon="-0.20461">
        <ele>1407.58</ele>
        <time>2017-07-31T08:17:18Z</time>
      </trkpt>
      <trkpt lat="43.01612" lon="-0.20451">
        <ele>1407.67</ele>
        <time>2017-07-31T08:17:19Z</time>
      </trkpt>
      <trkpt lat="43.01614" lon="-0.20446">
        <ele>1407.69</ele>
        <time>2017-07-31T08:17:20Z</time>
      </trkpt>
      <trkpt lat="43.01615" lon="-0.20436">
        <ele>1407.56</ele>
        <time>2017-07-31T08:17:22Z</time>
      </trkpt>
      <trkpt lat="43.01615" lon="-0.20429">
        <ele>1407.17</ele>
        <time>2017-07-31T08:17:25Z</time>
      </trkpt>
      <trkpt lat="43.01615" lon="-0.20422">
        <ele>1406.9</ele>
        <time>2017-07-31T08:17:27Z</time>
      </trkpt>
      <trkpt lat="43.01613" lon="-0.20414">
        <ele>1406.56</ele>
        <time>2017-07-31T08:17:30Z</time>
      </trkpt>
      <trkpt lat="43.01612" lon="-0.20408">
        <ele>1406.44</ele>
        <time>2017-07-31T08:17:31Z</time>
      </trkpt>
      <trkpt lat="43.01611" lon="-0.20402">
        <ele>1406.16</ele>
        <time>2017-07-31T08:17:34Z</time>
      </trkpt>
      <trkpt lat="43.01612" lon="-0.20394">
        <ele>1406.11</ele>
        <time>2017-07-31T08:17:36Z</time>
      </trkpt>
      <trkpt lat="43.0161" lon="-0.20384">
        <ele>1406.04</ele>
        <time>2017-07-31T08:17:38Z</time>
      </trkpt>
      <trkpt lat="43.0161" lon="-0.20377">
        <ele>1405.87</ele>
        <time>2017-07-31T08:17:40Z</time>
      </trkpt>
      <trkpt lat="43.01608" lon="-0.20371">
        <ele>1405.64</ele>
        <time>2017-07-31T08:17:42Z</time>
      </trkpt>
      <trkpt lat="43.01608" lon="-0.20364">
        <ele>1405.22</ele>
        <time>2017-07-31T08:17:45Z</time>
      </trkpt>
      <trkpt lat="43.01609" lon="-0.20356">
        <ele>1404.87</ele>
        <time>2017-07-31T08:17:48Z</time>
      </trkpt>
      <trkpt lat="43.01608" lon="-0.20348">
        <ele>1404.67</ele>
        <time>2017-07-31T08:17:51Z</time>
      </trkpt>
      <trkpt lat="43.01607" lon="-0.20342">
        <ele>1404.66</ele>
        <time>2017-07-31T08:17:53Z</time>
      </trkpt>
      <trkpt lat="43.01604" lon="-0.20335">
        <ele>1404.6</ele>
        <time>2017-07-31T08:17:55Z</time>
      </trkpt>
      <trkpt lat="43.01601" lon="-0.20331">
        <ele>1404.47</ele>
        <time>2017-07-31T08:17:57Z</time>
      </trkpt>
      <trkpt lat="43.01596" lon="-0.20324">
        <ele>1404.19</ele>
        <time>2017-07-31T08:17:59Z</time>
      </trkpt>
      <trkpt lat="43.01592" lon="-0.20318">
        <ele>1403.56</ele>
        <time>2017-07-31T08:18:02Z</time>
      </trkpt>
      <trkpt lat="43.01589" lon="-0.20311">
        <ele>1402.91</ele>
        <time>2017-07-31T08:18:05Z</time>
      </trkpt>
      <trkpt lat="43.01586" lon="-0.20305">
        <ele>1402.4</ele>
        <time>2017-07-31T08:18:08Z</time>
      </trkpt>
      <trkpt lat="43.01583" lon="-0.20295">
        <ele>1402.11</ele>
        <time>2017-07-31T08:18:10Z</time>
      </trkpt>
      <trkpt lat="43.01581" lon="-0.20288">
        <ele>1401.88</ele>
        <time>2017-07-31T08:18:12Z</time>
      </trkpt>
      <trkpt lat="43.0158" lon="-0.2028">
        <ele>1401.77</ele>
        <time>2017-07-31T08:18:14Z</time>
      </trkpt>
      <trkpt lat="43.01579" lon="-0.20273">
        <ele>1401.78</ele>
        <time>2017-07-31T08:18:16Z</time>
      </trkpt>
      <trkpt lat="43.01578" lon="-0.20265">
        <ele>1401.96</ele>
        <time>2017-07-31T08:18:19Z</time>
      </trkpt>
      <trkpt lat="43.01575" lon="-0.20258">
        <ele>1401.99</ele>
        <time>2017-07-31T08:18:21Z</time>
      </trkpt>
      <trkpt lat="43.01572" lon="-0.20253">
        <ele>1401.8</ele>
        <time>2017-07-31T08:18:24Z</time>
      </trkpt>
      <trkpt lat="43.01578" lon="-0.20257">
        <ele>1400.32</ele>
        <time>2017-07-31T08:18:33Z</time>
      </trkpt>
      <trkpt lat="43.01581" lon="-0.20263">
        <ele>1399.32</ele>
        <time>2017-07-31T08:18:36Z</time>
      </trkpt>
      <trkpt lat="43.01583" lon="-0.20269">
        <ele>1398.16</ele>
        <time>2017-07-31T08:18:39Z</time>
      </trkpt>
      <trkpt lat="43.01588" lon="-0.20274">
        <ele>1396.59</ele>
        <time>2017-07-31T08:18:43Z</time>
      </trkpt>
      <trkpt lat="43.01591" lon="-0.20279">
        <ele>1395.32</ele>
        <time>2017-07-31T08:18:46Z</time>
      </trkpt>
      <trkpt lat="43.01597" lon="-0.20289">
        <ele>1393.39</ele>
        <time>2017-07-31T08:18:50Z</time>
      </trkpt>
      <trkpt lat="43.016" lon="-0.20294">
        <ele>1392.38</ele>
        <time>2017-07-31T08:18:52Z</time>
      </trkpt>
      <trkpt lat="43.01603" lon="-0.203">
        <ele>1391.37</ele>
        <time>2017-07-31T08:18:54Z</time>
      </trkpt>
      <trkpt lat="43.01607" lon="-0.20308">
        <ele>1390.33</ele>
        <time>2017-07-31T08:18:56Z</time>
      </trkpt>
      <trkpt lat="43.01611" lon="-0.20316">
        <ele>1389.21</ele>
        <time>2017-07-31T08:18:58Z</time>
      </trkpt>
      <trkpt lat="43.01613" lon="-0.20325">
        <ele>1388.04</ele>
        <time>2017-07-31T08:19:00Z</time>
      </trkpt>
      <trkpt lat="43.01616" lon="-0.20334">
        <ele>1386.78</ele>
        <time>2017-07-31T08:19:02Z</time>
      </trkpt>
      <trkpt lat="43.0162" lon="-0.2034">
        <ele>1386.13</ele>
        <time>2017-07-31T08:19:03Z</time>
      </trkpt>
      <trkpt lat="43.01622" lon="-0.20347">
        <ele>1384.77</ele>
        <time>2017-07-31T08:19:05Z</time>
      </trkpt>
      <trkpt lat="43.01624" lon="-0.20353">
        <ele>1383.37</ele>
        <time>2017-07-31T08:19:07Z</time>
      </trkpt>
      <trkpt lat="43.01628" lon="-0.20357">
        <ele>1382</ele>
        <time>2017-07-31T08:19:09Z</time>
      </trkpt>
      <trkpt lat="43.01634" lon="-0.20364">
        <ele>1380.7</ele>
        <time>2017-07-31T08:19:11Z</time>
      </trkpt>
      <trkpt lat="43.01638" lon="-0.2037">
        <ele>1378.86</ele>
        <time>2017-07-31T08:19:14Z</time>
      </trkpt>
      <trkpt lat="43.01642" lon="-0.20374">
        <ele>1377.68</ele>
        <time>2017-07-31T08:19:16Z</time>
      </trkpt>
      <trkpt lat="43.01646" lon="-0.20382">
        <ele>1376.02</ele>
        <time>2017-07-31T08:19:19Z</time>
      </trkpt>
      <trkpt lat="43.01649" lon="-0.20387">
        <ele>1374.98</ele>
        <time>2017-07-31T08:19:21Z</time>
      </trkpt>
      <trkpt lat="43.01653" lon="-0.20392">
        <ele>1373.55</ele>
        <time>2017-07-31T08:19:24Z</time>
      </trkpt>
      <trkpt lat="43.01656" lon="-0.20396">
        <ele>1372.72</ele>
        <time>2017-07-31T08:19:26Z</time>
      </trkpt>
      <trkpt lat="43.0166" lon="-0.20401">
        <ele>1371.98</ele>
        <time>2017-07-31T08:19:28Z</time>
      </trkpt>
      <trkpt lat="43.01663" lon="-0.20407">
        <ele>1371.33</ele>
        <time>2017-07-31T08:19:30Z</time>
      </trkpt>
      <trkpt lat="43.01666" lon="-0.20415">
        <ele>1370.78</ele>
        <time>2017-07-31T08:19:32Z</time>
      </trkpt>
      <trkpt lat="43.01669" lon="-0.20423">
        <ele>1370.14</ele>
        <time>2017-07-31T08:19:35Z</time>
      </trkpt>
      <trkpt lat="43.01672" lon="-0.20429">
        <ele>1369.79</ele>
        <time>2017-07-31T08:19:37Z</time>
      </trkpt>
      <trkpt lat="43.01674" lon="-0.20435">
        <ele>1369.41</ele>
        <time>2017-07-31T08:19:40Z</time>
      </trkpt>
      <trkpt lat="43.01676" lon="-0.20442">
        <ele>1369.13</ele>
        <time>2017-07-31T08:19:43Z</time>
      </trkpt>
      <trkpt lat="43.01678" lon="-0.20448">
        <ele>1368.97</ele>
        <time>2017-07-31T08:19:45Z</time>
      </trkpt>
      <trkpt lat="43.01681" lon="-0.20455">
        <ele>1368.75</ele>
        <time>2017-07-31T08:19:48Z</time>
      </trkpt>
      <trkpt lat="43.01685" lon="-0.20461">
        <ele>1368.48</ele>
        <time>2017-07-31T08:19:51Z</time>
      </trkpt>
      <trkpt lat="43.01689" lon="-0.20467">
        <ele>1368.2</ele>
        <time>2017-07-31T08:19:54Z</time>
      </trkpt>
      <trkpt lat="43.01692" lon="-0.20471">
        <ele>1368</ele>
        <time>2017-07-31T08:19:56Z</time>
      </trkpt>
      <trkpt lat="43.01697" lon="-0.20475">
        <ele>1367.69</ele>
        <time>2017-07-31T08:20:00Z</time>
      </trkpt>
      <trkpt lat="43.01704" lon="-0.20478">
        <ele>1367.79</ele>
        <time>2017-07-31T08:20:05Z</time>
      </trkpt>
      <trkpt lat="43.0171" lon="-0.20481">
        <ele>1368.04</ele>
        <time>2017-07-31T08:20:08Z</time>
      </trkpt>
      <trkpt lat="43.01714" lon="-0.20484">
        <ele>1368.23</ele>
        <time>2017-07-31T08:20:10Z</time>
      </trkpt>
      <trkpt lat="43.0172" lon="-0.20487">
        <ele>1368.41</ele>
        <time>2017-07-31T08:20:12Z</time>
      </trkpt>
      <trkpt lat="43.01726" lon="-0.2049">
        <ele>1368.59</ele>
        <time>2017-07-31T08:20:14Z</time>
      </trkpt>
      <trkpt lat="43.01732" lon="-0.20493">
        <ele>1368.77</ele>
        <time>2017-07-31T08:20:16Z</time>
      </trkpt>
      <trkpt lat="43.01739" lon="-0.20494">
        <ele>1368.88</ele>
        <time>2017-07-31T08:20:17Z</time>
      </trkpt>
      <trkpt lat="43.01746" lon="-0.20495">
        <ele>1369.02</ele>
        <time>2017-07-31T08:20:18Z</time>
      </trkpt>
      <trkpt lat="43.01751" lon="-0.20496">
        <ele>1369.18</ele>
        <time>2017-07-31T08:20:19Z</time>
      </trkpt>
      <trkpt lat="43.01757" lon="-0.20498">
        <ele>1369.57</ele>
        <time>2017-07-31T08:20:21Z</time>
      </trkpt>
      <trkpt lat="43.01765" lon="-0.20498">
        <ele>1369.78</ele>
        <time>2017-07-31T08:20:22Z</time>
      </trkpt>
      <trkpt lat="43.01772" lon="-0.20497">
        <ele>1370</ele>
        <time>2017-07-31T08:20:23Z</time>
      </trkpt>
      <trkpt lat="43.01778" lon="-0.20499">
        <ele>1370.24</ele>
        <time>2017-07-31T08:20:24Z</time>
      </trkpt>
      <trkpt lat="43.01784" lon="-0.205">
        <ele>1370.47</ele>
        <time>2017-07-31T08:20:25Z</time>
      </trkpt>
      <trkpt lat="43.0179" lon="-0.20501">
        <ele>1370.7</ele>
        <time>2017-07-31T08:20:26Z</time>
      </trkpt>
      <trkpt lat="43.01796" lon="-0.20503">
        <ele>1370.92</ele>
        <time>2017-07-31T08:20:27Z</time>
      </trkpt>
      <trkpt lat="43.01802" lon="-0.20507">
        <ele>1371.14</ele>
        <time>2017-07-31T08:20:28Z</time>
      </trkpt>
      <trkpt lat="43.01808" lon="-0.20512">
        <ele>1371.34</ele>
        <time>2017-07-31T08:20:29Z</time>
      </trkpt>
      <trkpt lat="43.01813" lon="-0.20517">
        <ele>1371.54</ele>
        <time>2017-07-31T08:20:30Z</time>
      </trkpt>
      <trkpt lat="43.01818" lon="-0.20521">
        <ele>1371.72</ele>
        <time>2017-07-31T08:20:31Z</time>
      </trkpt>
      <trkpt lat="43.01821" lon="-0.20525">
        <ele>1371.89</ele>
        <time>2017-07-31T08:20:32Z</time>
      </trkpt>
      <trkpt lat="43.01827" lon="-0.20531">
        <ele>1372.2</ele>
        <time>2017-07-31T08:20:34Z</time>
      </trkpt>
      <trkpt lat="43.01831" lon="-0.20535">
        <ele>1372.45</ele>
        <time>2017-07-31T08:20:36Z</time>
      </trkpt>
      <trkpt lat="43.01837" lon="-0.20537">
        <ele>1372.84</ele>
        <time>2017-07-31T08:20:39Z</time>
      </trkpt>
      <trkpt lat="43.01842" lon="-0.20535">
        <ele>1373.36</ele>
        <time>2017-07-31T08:20:42Z</time>
      </trkpt>
      <trkpt lat="43.01846" lon="-0.20529">
        <ele>1374.01</ele>
        <time>2017-07-31T08:20:45Z</time>
      </trkpt>
      <trkpt lat="43.01848" lon="-0.20522">
        <ele>1374.44</ele>
        <time>2017-07-31T08:20:47Z</time>
      </trkpt>
      <trkpt lat="43.01852" lon="-0.20516">
        <ele>1374.81</ele>
        <time>2017-07-31T08:20:49Z</time>
      </trkpt>
      <trkpt lat="43.01854" lon="-0.20509">
        <ele>1375.09</ele>
        <time>2017-07-31T08:20:51Z</time>
      </trkpt>
      <trkpt lat="43.01856" lon="-0.20501">
        <ele>1375.38</ele>
        <time>2017-07-31T08:20:53Z</time>
      </trkpt>
      <trkpt lat="43.01858" lon="-0.20493">
        <ele>1375.63</ele>
        <time>2017-07-31T08:20:55Z</time>
      </trkpt>
      <trkpt lat="43.01859" lon="-0.2048">
        <ele>1375.89</ele>
        <time>2017-07-31T08:20:57Z</time>
      </trkpt>
      <trkpt lat="43.0186" lon="-0.20474">
        <ele>1375.97</ele>
        <time>2017-07-31T08:20:58Z</time>
      </trkpt>
      <trkpt lat="43.01861" lon="-0.20467">
        <ele>1376.01</ele>
        <time>2017-07-31T08:20:59Z</time>
      </trkpt>
      <trkpt lat="43.01862" lon="-0.20457">
        <ele>1376.06</ele>
        <time>2017-07-31T08:21:01Z</time>
      </trkpt>
      <trkpt lat="43.01863" lon="-0.20448">
        <ele>1376.13</ele>
        <time>2017-07-31T08:21:03Z</time>
      </trkpt>
      <trkpt lat="43.01864" lon="-0.20437">
        <ele>1376.15</ele>
        <time>2017-07-31T08:21:05Z</time>
      </trkpt>
      <trkpt lat="43.01864" lon="-0.20429">
        <ele>1376.09</ele>
        <time>2017-07-31T08:21:07Z</time>
      </trkpt>
      <trkpt lat="43.01864" lon="-0.20419">
        <ele>1375.99</ele>
        <time>2017-07-31T08:21:09Z</time>
      </trkpt>
      <trkpt lat="43.01862" lon="-0.20409">
        <ele>1375.85</ele>
        <time>2017-07-31T08:21:11Z</time>
      </trkpt>
      <trkpt lat="43.0186" lon="-0.20399">
        <ele>1375.66</ele>
        <time>2017-07-31T08:21:13Z</time>
      </trkpt>
      <trkpt lat="43.01858" lon="-0.20389">
        <ele>1375.41</ele>
        <time>2017-07-31T08:21:15Z</time>
      </trkpt>
      <trkpt lat="43.01856" lon="-0.20379">
        <ele>1375.13</ele>
        <time>2017-07-31T08:21:17Z</time>
      </trkpt>
      <trkpt lat="43.01855" lon="-0.2037">
        <ele>1374.8</ele>
        <time>2017-07-31T08:21:19Z</time>
      </trkpt>
      <trkpt lat="43.01855" lon="-0.2036">
        <ele>1374.43</ele>
        <time>2017-07-31T08:21:21Z</time>
      </trkpt>
      <trkpt lat="43.01854" lon="-0.2035">
        <ele>1374.03</ele>
        <time>2017-07-31T08:21:23Z</time>
      </trkpt>
      <trkpt lat="43.01853" lon="-0.2034">
        <ele>1373.6</ele>
        <time>2017-07-31T08:21:25Z</time>
      </trkpt>
      <trkpt lat="43.0185" lon="-0.20328">
        <ele>1373.17</ele>
        <time>2017-07-31T08:21:27Z</time>
      </trkpt>
      <trkpt lat="43.01847" lon="-0.20322">
        <ele>1372.92</ele>
        <time>2017-07-31T08:21:28Z</time>
      </trkpt>
      <trkpt lat="43.01842" lon="-0.20312">
        <ele>1372.6</ele>
        <time>2017-07-31T08:21:29Z</time>
      </trkpt>
      <trkpt lat="43.0184" lon="-0.20306">
        <ele>1372.25</ele>
        <time>2017-07-31T08:21:30Z</time>
      </trkpt>
      <trkpt lat="43.01837" lon="-0.20298">
        <ele>1371.85</ele>
        <time>2017-07-31T08:21:31Z</time>
      </trkpt>
      <trkpt lat="43.01834" lon="-0.2029">
        <ele>1371.4</ele>
        <time>2017-07-31T08:21:32Z</time>
      </trkpt>
      <trkpt lat="43.01834" lon="-0.20283">
        <ele>1370.9</ele>
        <time>2017-07-31T08:21:33Z</time>
      </trkpt>
      <trkpt lat="43.01833" lon="-0.20273">
        <ele>1369.85</ele>
        <time>2017-07-31T08:21:35Z</time>
      </trkpt>
      <trkpt lat="43.01833" lon="-0.20266">
        <ele>1368.78</ele>
        <time>2017-07-31T08:21:37Z</time>
      </trkpt>
      <trkpt lat="43.01835" lon="-0.20259">
        <ele>1367.73</ele>
        <time>2017-07-31T08:21:39Z</time>
      </trkpt>
      <trkpt lat="43.01839" lon="-0.20251">
        <ele>1366.64</ele>
        <time>2017-07-31T08:21:41Z</time>
      </trkpt>
      <trkpt lat="43.01842" lon="-0.20246">
        <ele>1365.06</ele>
        <time>2017-07-31T08:21:44Z</time>
      </trkpt>
      <trkpt lat="43.01842" lon="-0.20239">
        <ele>1364.07</ele>
        <time>2017-07-31T08:21:46Z</time>
      </trkpt>
      <trkpt lat="43.01843" lon="-0.20232">
        <ele>1362.79</ele>
        <time>2017-07-31T08:21:49Z</time>
      </trkpt>
      <trkpt lat="43.01843" lon="-0.20223">
        <ele>1361.66</ele>
        <time>2017-07-31T08:21:52Z</time>
      </trkpt>
      <trkpt lat="43.01843" lon="-0.20214">
        <ele>1360.85</ele>
        <time>2017-07-31T08:21:54Z</time>
      </trkpt>
      <trkpt lat="43.01844" lon="-0.20206">
        <ele>1359.81</ele>
        <time>2017-07-31T08:21:56Z</time>
      </trkpt>
      <trkpt lat="43.01841" lon="-0.20199">
        <ele>1358.65</ele>
        <time>2017-07-31T08:21:58Z</time>
      </trkpt>
      <trkpt lat="43.01838" lon="-0.20191">
        <ele>1357.5</ele>
        <time>2017-07-31T08:22:00Z</time>
      </trkpt>
      <trkpt lat="43.01838" lon="-0.20185">
        <ele>1356.23</ele>
        <time>2017-07-31T08:22:02Z</time>
      </trkpt>
      <trkpt lat="43.01829" lon="-0.20176">
        <ele>1354.86</ele>
        <time>2017-07-31T08:22:04Z</time>
      </trkpt>
      <trkpt lat="43.01826" lon="-0.2017">
        <ele>1352.85</ele>
        <time>2017-07-31T08:22:07Z</time>
      </trkpt>
      <trkpt lat="43.01833" lon="-0.20167">
        <ele>1351.19</ele>
        <time>2017-07-31T08:22:10Z</time>
      </trkpt>
      <trkpt lat="43.01839" lon="-0.20169">
        <ele>1350.2</ele>
        <time>2017-07-31T08:22:12Z</time>
      </trkpt>
      <trkpt lat="43.01845" lon="-0.20171">
        <ele>1348.7</ele>
        <time>2017-07-31T08:22:15Z</time>
      </trkpt>
      <trkpt lat="43.01849" lon="-0.20174">
        <ele>1347.76</ele>
        <time>2017-07-31T08:22:17Z</time>
      </trkpt>
      <trkpt lat="43.01853" lon="-0.2018">
        <ele>1346.87</ele>
        <time>2017-07-31T08:22:19Z</time>
      </trkpt>
      <trkpt lat="43.01857" lon="-0.20188">
        <ele>1346.01</ele>
        <time>2017-07-31T08:22:21Z</time>
      </trkpt>
      <trkpt lat="43.01862" lon="-0.20195">
        <ele>1345.57</ele>
        <time>2017-07-31T08:22:22Z</time>
      </trkpt>
      <trkpt lat="43.01865" lon="-0.202">
        <ele>1345.12</ele>
        <time>2017-07-31T08:22:23Z</time>
      </trkpt>
      <trkpt lat="43.01868" lon="-0.20206">
        <ele>1344.69</ele>
        <time>2017-07-31T08:22:24Z</time>
      </trkpt>
      <trkpt lat="43.01872" lon="-0.20212">
        <ele>1343.84</ele>
        <time>2017-07-31T08:22:26Z</time>
      </trkpt>
      <trkpt lat="43.01874" lon="-0.20219">
        <ele>1343.05</ele>
        <time>2017-07-31T08:22:28Z</time>
      </trkpt>
      <trkpt lat="43.01877" lon="-0.20227">
        <ele>1342.23</ele>
        <time>2017-07-31T08:22:30Z</time>
      </trkpt>
      <trkpt lat="43.0188" lon="-0.20233">
        <ele>1341.43</ele>
        <time>2017-07-31T08:22:32Z</time>
      </trkpt>
      <trkpt lat="43.01884" lon="-0.20242">
        <ele>1340.66</ele>
        <time>2017-07-31T08:22:34Z</time>
      </trkpt>
      <trkpt lat="43.01887" lon="-0.20252">
        <ele>1339.91</ele>
        <time>2017-07-31T08:22:36Z</time>
      </trkpt>
      <trkpt lat="43.01891" lon="-0.2026">
        <ele>1339.18</ele>
        <time>2017-07-31T08:22:38Z</time>
      </trkpt>
      <trkpt lat="43.01893" lon="-0.20269">
        <ele>1338.47</ele>
        <time>2017-07-31T08:22:40Z</time>
      </trkpt>
      <trkpt lat="43.01895" lon="-0.20277">
        <ele>1337.76</ele>
        <time>2017-07-31T08:22:42Z</time>
      </trkpt>
      <trkpt lat="43.01898" lon="-0.20285">
        <ele>1337.07</ele>
        <time>2017-07-31T08:22:44Z</time>
      </trkpt>
      <trkpt lat="43.01901" lon="-0.20293">
        <ele>1336.41</ele>
        <time>2017-07-31T08:22:46Z</time>
      </trkpt>
      <trkpt lat="43.01904" lon="-0.20302">
        <ele>1335.77</ele>
        <time>2017-07-31T08:22:48Z</time>
      </trkpt>
      <trkpt lat="43.01907" lon="-0.20312">
        <ele>1335.13</ele>
        <time>2017-07-31T08:22:50Z</time>
      </trkpt>
      <trkpt lat="43.0191" lon="-0.20321">
        <ele>1334.49</ele>
        <time>2017-07-31T08:22:52Z</time>
      </trkpt>
      <trkpt lat="43.01914" lon="-0.20328">
        <ele>1333.85</ele>
        <time>2017-07-31T08:22:54Z</time>
      </trkpt>
      <trkpt lat="43.01918" lon="-0.20335">
        <ele>1333.21</ele>
        <time>2017-07-31T08:22:56Z</time>
      </trkpt>
      <trkpt lat="43.01924" lon="-0.20341">
        <ele>1332.56</ele>
        <time>2017-07-31T08:22:58Z</time>
      </trkpt>
      <trkpt lat="43.01929" lon="-0.20344">
        <ele>1331.4</ele>
        <time>2017-07-31T08:23:02Z</time>
      </trkpt>
      <trkpt lat="43.01931" lon="-0.20349">
        <ele>1330.18</ele>
        <time>2017-07-31T08:23:25Z</time>
      </trkpt>
      <trkpt lat="43.01937" lon="-0.20352">
        <ele>1327.46</ele>
        <time>2017-07-31T08:24:13Z</time>
      </trkpt>
      <trkpt lat="43.01941" lon="-0.20358">
        <ele>1326.96</ele>
        <time>2017-07-31T08:24:16Z</time>
      </trkpt>
      <trkpt lat="43.01946" lon="-0.20362">
        <ele>1326.38</ele>
        <time>2017-07-31T08:24:20Z</time>
      </trkpt>
      <trkpt lat="43.0195" lon="-0.20366">
        <ele>1325.92</ele>
        <time>2017-07-31T08:24:24Z</time>
      </trkpt>
      <trkpt lat="43.01953" lon="-0.20371">
        <ele>1325.58</ele>
        <time>2017-07-31T08:24:28Z</time>
      </trkpt>
      <trkpt lat="43.01958" lon="-0.20377">
        <ele>1325.34</ele>
        <time>2017-07-31T08:24:31Z</time>
      </trkpt>
      <trkpt lat="43.01963" lon="-0.20383">
        <ele>1325.14</ele>
        <time>2017-07-31T08:24:34Z</time>
      </trkpt>
      <trkpt lat="43.01967" lon="-0.20385">
        <ele>1325.41</ele>
        <time>2017-07-31T08:24:45Z</time>
      </trkpt>
      <trkpt lat="43.01967" lon="-0.20392">
        <ele>1325.87</ele>
        <time>2017-07-31T08:24:50Z</time>
      </trkpt>
      <trkpt lat="43.0197" lon="-0.20397">
        <ele>1326.22</ele>
        <time>2017-07-31T08:25:14Z</time>
      </trkpt>
      <trkpt lat="43.01975" lon="-0.20397">
        <ele>1326.23</ele>
        <time>2017-07-31T08:25:17Z</time>
      </trkpt>
      <trkpt lat="43.01979" lon="-0.204">
        <ele>1325.93</ele>
        <time>2017-07-31T08:25:30Z</time>
      </trkpt>
      <trkpt lat="43.01983" lon="-0.20403">
        <ele>1325.88</ele>
        <time>2017-07-31T08:25:34Z</time>
      </trkpt>
      <trkpt lat="43.01987" lon="-0.20405">
        <ele>1325.19</ele>
        <time>2017-07-31T08:25:44Z</time>
      </trkpt>
      <trkpt lat="43.01991" lon="-0.20408">
        <ele>1325.03</ele>
        <time>2017-07-31T08:25:51Z</time>
      </trkpt>
      <trkpt lat="43.01996" lon="-0.20409">
        <ele>1325.15</ele>
        <time>2017-07-31T08:26:01Z</time>
      </trkpt>
      <trkpt lat="43.02001" lon="-0.20408">
        <ele>1325.47</ele>
        <time>2017-07-31T08:26:07Z</time>
      </trkpt>
      <trkpt lat="43.02004" lon="-0.20403">
        <ele>1325.78</ele>
        <time>2017-07-31T08:26:12Z</time>
      </trkpt>
      <trkpt lat="43.02005" lon="-0.20397">
        <ele>1325.82</ele>
        <time>2017-07-31T08:27:02Z</time>
      </trkpt>
      <trkpt lat="43.02005" lon="-0.20391">
        <ele>1325.5</ele>
        <time>2017-07-31T08:27:06Z</time>
      </trkpt>
      <trkpt lat="43.02005" lon="-0.20383">
        <ele>1325.23</ele>
        <time>2017-07-31T08:27:09Z</time>
      </trkpt>
      <trkpt lat="43.02004" lon="-0.20376">
        <ele>1324.95</ele>
        <time>2017-07-31T08:27:12Z</time>
      </trkpt>
      <trkpt lat="43.02002" lon="-0.2037">
        <ele>1324.05</ele>
        <time>2017-07-31T08:28:31Z</time>
      </trkpt>
      <trkpt lat="43.02002" lon="-0.20361">
        <ele>1323.51</ele>
        <time>2017-07-31T08:29:00Z</time>
      </trkpt>
      <trkpt lat="43.01998" lon="-0.20355">
        <ele>1323.24</ele>
        <time>2017-07-31T08:29:03Z</time>
      </trkpt>
      <trkpt lat="43.01995" lon="-0.20349">
        <ele>1322.94</ele>
        <time>2017-07-31T08:29:06Z</time>
      </trkpt>
      <trkpt lat="43.01992" lon="-0.20342">
        <ele>1322.6</ele>
        <time>2017-07-31T08:29:09Z</time>
      </trkpt>
      <trkpt lat="43.01988" lon="-0.20335">
        <ele>1322.22</ele>
        <time>2017-07-31T08:29:12Z</time>
      </trkpt>
      <trkpt lat="43.01986" lon="-0.20329">
        <ele>1321.93</ele>
        <time>2017-07-31T08:29:14Z</time>
      </trkpt>
      <trkpt lat="43.01983" lon="-0.20321">
        <ele>1321.45</ele>
        <time>2017-07-31T08:29:17Z</time>
      </trkpt>
      <trkpt lat="43.0198" lon="-0.20314">
        <ele>1320.92</ele>
        <time>2017-07-31T08:29:20Z</time>
      </trkpt>
      <trkpt lat="43.01977" lon="-0.20306">
        <ele>1320.35</ele>
        <time>2017-07-31T08:29:23Z</time>
      </trkpt>
      <trkpt lat="43.01976" lon="-0.20299">
        <ele>1319.94</ele>
        <time>2017-07-31T08:29:25Z</time>
      </trkpt>
      <trkpt lat="43.01975" lon="-0.20292">
        <ele>1319.52</ele>
        <time>2017-07-31T08:29:27Z</time>
      </trkpt>
      <trkpt lat="43.01973" lon="-0.20283">
        <ele>1318.86</ele>
        <time>2017-07-31T08:29:30Z</time>
      </trkpt>
      <trkpt lat="43.01969" lon="-0.20277">
        <ele>1318.16</ele>
        <time>2017-07-31T08:29:33Z</time>
      </trkpt>
      <trkpt lat="43.01965" lon="-0.20272">
        <ele>1317.41</ele>
        <time>2017-07-31T08:29:36Z</time>
      </trkpt>
      <trkpt lat="43.01961" lon="-0.20266">
        <ele>1316.64</ele>
        <time>2017-07-31T08:29:39Z</time>
      </trkpt>
      <trkpt lat="43.01957" lon="-0.2026">
        <ele>1315.85</ele>
        <time>2017-07-31T08:29:42Z</time>
      </trkpt>
      <trkpt lat="43.01951" lon="-0.20255">
        <ele>1315.33</ele>
        <time>2017-07-31T08:29:44Z</time>
      </trkpt>
      <trkpt lat="43.01945" lon="-0.20253">
        <ele>1314.82</ele>
        <time>2017-07-31T08:29:46Z</time>
      </trkpt>
      <trkpt lat="43.0194" lon="-0.20252">
        <ele>1314.3</ele>
        <time>2017-07-31T08:29:48Z</time>
      </trkpt>
      <trkpt lat="43.01935" lon="-0.20252">
        <ele>1313.79</ele>
        <time>2017-07-31T08:29:50Z</time>
      </trkpt>
      <trkpt lat="43.01929" lon="-0.2025">
        <ele>1313.03</ele>
        <time>2017-07-31T08:29:53Z</time>
      </trkpt>
      <trkpt lat="43.01925" lon="-0.20244">
        <ele>1311.6</ele>
        <time>2017-07-31T08:29:59Z</time>
      </trkpt>
      <trkpt lat="43.01921" lon="-0.20239">
        <ele>1310.95</ele>
        <time>2017-07-31T08:30:02Z</time>
      </trkpt>
      <trkpt lat="43.01917" lon="-0.20233">
        <ele>1310.36</ele>
        <time>2017-07-31T08:30:05Z</time>
      </trkpt>
      <trkpt lat="43.01917" lon="-0.20224">
        <ele>1309.82</ele>
        <time>2017-07-31T08:30:08Z</time>
      </trkpt>
      <trkpt lat="43.01918" lon="-0.20218">
        <ele>1309.48</ele>
        <time>2017-07-31T08:30:10Z</time>
      </trkpt>
      <trkpt lat="43.01918" lon="-0.20211">
        <ele>1309.14</ele>
        <time>2017-07-31T08:30:12Z</time>
      </trkpt>
      <trkpt lat="43.01916" lon="-0.20203">
        <ele>1308.62</ele>
        <time>2017-07-31T08:30:15Z</time>
      </trkpt>
      <trkpt lat="43.01916" lon="-0.20196">
        <ele>1308.29</ele>
        <time>2017-07-31T08:30:17Z</time>
      </trkpt>
      <trkpt lat="43.01917" lon="-0.20189">
        <ele>1307.16</ele>
        <time>2017-07-31T08:30:25Z</time>
      </trkpt>
      <trkpt lat="43.01919" lon="-0.20184">
        <ele>1306.9</ele>
        <time>2017-07-31T08:30:27Z</time>
      </trkpt>
      <trkpt lat="43.01923" lon="-0.2018">
        <ele>1306.66</ele>
        <time>2017-07-31T08:30:29Z</time>
      </trkpt>
      <trkpt lat="43.01928" lon="-0.20174">
        <ele>1306.47</ele>
        <time>2017-07-31T08:30:31Z</time>
      </trkpt>
      <trkpt lat="43.01932" lon="-0.20168">
        <ele>1306.28</ele>
        <time>2017-07-31T08:30:33Z</time>
      </trkpt>
      <trkpt lat="43.01935" lon="-0.20163">
        <ele>1306.1</ele>
        <time>2017-07-31T08:30:35Z</time>
      </trkpt>
      <trkpt lat="43.01939" lon="-0.20158">
        <ele>1305.93</ele>
        <time>2017-07-31T08:30:37Z</time>
      </trkpt>
      <trkpt lat="43.01943" lon="-0.20153">
        <ele>1305.75</ele>
        <time>2017-07-31T08:30:39Z</time>
      </trkpt>
      <trkpt lat="43.01946" lon="-0.20149">
        <ele>1305.56</ele>
        <time>2017-07-31T08:30:41Z</time>
      </trkpt>
      <trkpt lat="43.0195" lon="-0.20144">
        <ele>1305.37</ele>
        <time>2017-07-31T08:30:43Z</time>
      </trkpt>
      <trkpt lat="43.01953" lon="-0.20139">
        <ele>1305.07</ele>
        <time>2017-07-31T08:30:46Z</time>
      </trkpt>
      <trkpt lat="43.01956" lon="-0.20134">
        <ele>1304.79</ele>
        <time>2017-07-31T08:30:49Z</time>
      </trkpt>
      <trkpt lat="43.0196" lon="-0.20127">
        <ele>1304.53</ele>
        <time>2017-07-31T08:30:52Z</time>
      </trkpt>
      <trkpt lat="43.01962" lon="-0.20119">
        <ele>1304.28</ele>
        <time>2017-07-31T08:30:55Z</time>
      </trkpt>
      <trkpt lat="43.01961" lon="-0.20112">
        <ele>1304.05</ele>
        <time>2017-07-31T08:30:58Z</time>
      </trkpt>
      <trkpt lat="43.0196" lon="-0.20106">
        <ele>1303.59</ele>
        <time>2017-07-31T08:31:12Z</time>
      </trkpt>
      <trkpt lat="43.01964" lon="-0.20107">
        <ele>1302.8</ele>
        <time>2017-07-31T08:31:24Z</time>
      </trkpt>
      <trkpt lat="43.01967" lon="-0.20112">
        <ele>1302.52</ele>
        <time>2017-07-31T08:31:26Z</time>
      </trkpt>
      <trkpt lat="43.01972" lon="-0.20116">
        <ele>1302.23</ele>
        <time>2017-07-31T08:31:28Z</time>
      </trkpt>
      <trkpt lat="43.01976" lon="-0.20122">
        <ele>1301.94</ele>
        <time>2017-07-31T08:31:30Z</time>
      </trkpt>
      <trkpt lat="43.0198" lon="-0.20127">
        <ele>1301.66</ele>
        <time>2017-07-31T08:31:32Z</time>
      </trkpt>
      <trkpt lat="43.01983" lon="-0.20132">
        <ele>1301.39</ele>
        <time>2017-07-31T08:31:34Z</time>
      </trkpt>
      <trkpt lat="43.01986" lon="-0.20137">
        <ele>1301.03</ele>
        <time>2017-07-31T08:31:38Z</time>
      </trkpt>
      <trkpt lat="43.01992" lon="-0.20135">
        <ele>1300.08</ele>
        <time>2017-07-31T08:31:49Z</time>
      </trkpt>
      <trkpt lat="43.01997" lon="-0.20129">
        <ele>1299.39</ele>
        <time>2017-07-31T08:31:52Z</time>
      </trkpt>
      <trkpt lat="43.02001" lon="-0.20124">
        <ele>1298.67</ele>
        <time>2017-07-31T08:31:55Z</time>
      </trkpt>
      <trkpt lat="43.02004" lon="-0.20118">
        <ele>1297.91</ele>
        <time>2017-07-31T08:31:58Z</time>
      </trkpt>
      <trkpt lat="43.02004" lon="-0.2011">
        <ele>1296.95</ele>
        <time>2017-07-31T08:32:02Z</time>
      </trkpt>
      <trkpt lat="43.02009" lon="-0.20104">
        <ele>1296.27</ele>
        <time>2017-07-31T08:32:05Z</time>
      </trkpt>
      <trkpt lat="43.02013" lon="-0.20098">
        <ele>1295.84</ele>
        <time>2017-07-31T08:32:07Z</time>
      </trkpt>
      <trkpt lat="43.02017" lon="-0.20094">
        <ele>1295.26</ele>
        <time>2017-07-31T08:32:10Z</time>
      </trkpt>
      <trkpt lat="43.02021" lon="-0.2009">
        <ele>1294.76</ele>
        <time>2017-07-31T08:32:13Z</time>
      </trkpt>
      <trkpt lat="43.02024" lon="-0.20084">
        <ele>1294.38</ele>
        <time>2017-07-31T08:32:16Z</time>
      </trkpt>
      <trkpt lat="43.02026" lon="-0.20079">
        <ele>1294.07</ele>
        <time>2017-07-31T08:32:21Z</time>
      </trkpt>
      <trkpt lat="43.02026" lon="-0.20085">
        <ele>1293.34</ele>
        <time>2017-07-31T08:32:47Z</time>
      </trkpt>
      <trkpt lat="43.02023" lon="-0.20091">
        <ele>1293.05</ele>
        <time>2017-07-31T08:32:50Z</time>
      </trkpt>
      <trkpt lat="43.02019" lon="-0.20096">
        <ele>1292.73</ele>
        <time>2017-07-31T08:32:53Z</time>
      </trkpt>
      <trkpt lat="43.02014" lon="-0.201">
        <ele>1292.45</ele>
        <time>2017-07-31T08:32:56Z</time>
      </trkpt>
      <trkpt lat="43.02011" lon="-0.20104">
        <ele>1292.24</ele>
        <time>2017-07-31T08:32:59Z</time>
      </trkpt>
      <trkpt lat="43.02006" lon="-0.20105">
        <ele>1291.94</ele>
        <time>2017-07-31T08:33:03Z</time>
      </trkpt>
      <trkpt lat="43.02008" lon="-0.20098">
        <ele>1290.99</ele>
        <time>2017-07-31T08:33:17Z</time>
      </trkpt>
      <trkpt lat="43.02012" lon="-0.20094">
        <ele>1290.77</ele>
        <time>2017-07-31T08:33:19Z</time>
      </trkpt>
      <trkpt lat="43.02015" lon="-0.20087">
        <ele>1290.34</ele>
        <time>2017-07-31T08:33:22Z</time>
      </trkpt>
      <trkpt lat="43.02017" lon="-0.20078">
        <ele>1289.81</ele>
        <time>2017-07-31T08:33:25Z</time>
      </trkpt>
      <trkpt lat="43.02019" lon="-0.2007">
        <ele>1289.26</ele>
        <time>2017-07-31T08:33:28Z</time>
      </trkpt>
      <trkpt lat="43.02021" lon="-0.20063">
        <ele>1288.39</ele>
        <time>2017-07-31T08:33:32Z</time>
      </trkpt>
      <trkpt lat="43.02022" lon="-0.20055">
        <ele>1287.55</ele>
        <time>2017-07-31T08:33:36Z</time>
      </trkpt>
      <trkpt lat="43.02023" lon="-0.20047">
        <ele>1287.02</ele>
        <time>2017-07-31T08:33:39Z</time>
      </trkpt>
      <trkpt lat="43.02027" lon="-0.20043">
        <ele>1286.29</ele>
        <time>2017-07-31T08:33:46Z</time>
      </trkpt>
      <trkpt lat="43.02032" lon="-0.20041">
        <ele>1285.19</ele>
        <time>2017-07-31T08:33:55Z</time>
      </trkpt>
      <trkpt lat="43.02035" lon="-0.20037">
        <ele>1284.75</ele>
        <time>2017-07-31T08:34:01Z</time>
      </trkpt>
      <trkpt lat="43.02039" lon="-0.20033">
        <ele>1284.12</ele>
        <time>2017-07-31T08:34:06Z</time>
      </trkpt>
      <trkpt lat="43.02043" lon="-0.20029">
        <ele>1283.62</ele>
        <time>2017-07-31T08:34:10Z</time>
      </trkpt>
      <trkpt lat="43.02047" lon="-0.20024">
        <ele>1283.29</ele>
        <time>2017-07-31T08:34:14Z</time>
      </trkpt>
      <trkpt lat="43.02051" lon="-0.20022">
        <ele>1282.34</ele>
        <time>2017-07-31T08:34:23Z</time>
      </trkpt>
      <trkpt lat="43.02056" lon="-0.20021">
        <ele>1280.78</ele>
        <time>2017-07-31T08:34:34Z</time>
      </trkpt>
      <trkpt lat="43.02061" lon="-0.20021">
        <ele>1279.98</ele>
        <time>2017-07-31T08:34:39Z</time>
      </trkpt>
      <trkpt lat="43.02065" lon="-0.20021">
        <ele>1279.16</ele>
        <time>2017-07-31T08:34:53Z</time>
      </trkpt>
      <trkpt lat="43.0207" lon="-0.20021">
        <ele>1278.79</ele>
        <time>2017-07-31T08:34:55Z</time>
      </trkpt>
      <trkpt lat="43.02077" lon="-0.20021">
        <ele>1278.41</ele>
        <time>2017-07-31T08:34:58Z</time>
      </trkpt>
      <trkpt lat="43.02082" lon="-0.20019">
        <ele>1278.03</ele>
        <time>2017-07-31T08:35:01Z</time>
      </trkpt>
      <trkpt lat="43.02086" lon="-0.20014">
        <ele>1277.68</ele>
        <time>2017-07-31T08:35:04Z</time>
      </trkpt>
      <trkpt lat="43.02088" lon="-0.20008">
        <ele>1277.46</ele>
        <time>2017-07-31T08:35:06Z</time>
      </trkpt>
      <trkpt lat="43.02091" lon="-0.20001">
        <ele>1277.15</ele>
        <time>2017-07-31T08:35:09Z</time>
      </trkpt>
      <trkpt lat="43.02094" lon="-0.19993">
        <ele>1276.87</ele>
        <time>2017-07-31T08:35:12Z</time>
      </trkpt>
      <trkpt lat="43.02096" lon="-0.19985">
        <ele>1276.57</ele>
        <time>2017-07-31T08:35:15Z</time>
      </trkpt>
      <trkpt lat="43.02098" lon="-0.19977">
        <ele>1276.27</ele>
        <time>2017-07-31T08:35:18Z</time>
      </trkpt>
      <trkpt lat="43.021" lon="-0.1997">
        <ele>1275.98</ele>
        <time>2017-07-31T08:35:21Z</time>
      </trkpt>
      <trkpt lat="43.02102" lon="-0.19962">
        <ele>1275.74</ele>
        <time>2017-07-31T08:35:24Z</time>
      </trkpt>
      <trkpt lat="43.02104" lon="-0.19955">
        <ele>1275.58</ele>
        <time>2017-07-31T08:35:26Z</time>
      </trkpt>
      <trkpt lat="43.02106" lon="-0.19947">
        <ele>1275.37</ele>
        <time>2017-07-31T08:35:28Z</time>
      </trkpt>
      <trkpt lat="43.02107" lon="-0.1994">
        <ele>1275.15</ele>
        <time>2017-07-31T08:35:30Z</time>
      </trkpt>
      <trkpt lat="43.02108" lon="-0.19934">
        <ele>1274.93</ele>
        <time>2017-07-31T08:35:32Z</time>
      </trkpt>
      <trkpt lat="43.0211" lon="-0.19925">
        <ele>1274.7</ele>
        <time>2017-07-31T08:35:34Z</time>
      </trkpt>
      <trkpt lat="43.02114" lon="-0.19915">
        <ele>1274.44</ele>
        <time>2017-07-31T08:35:36Z</time>
      </trkpt>
      <trkpt lat="43.02116" lon="-0.19909">
        <ele>1274.17</ele>
        <time>2017-07-31T08:35:38Z</time>
      </trkpt>
      <trkpt lat="43.02118" lon="-0.19903">
        <ele>1273.89</ele>
        <time>2017-07-31T08:35:40Z</time>
      </trkpt>
      <trkpt lat="43.02119" lon="-0.19895">
        <ele>1273.54</ele>
        <time>2017-07-31T08:35:42Z</time>
      </trkpt>
      <trkpt lat="43.0212" lon="-0.19885">
        <ele>1273.11</ele>
        <time>2017-07-31T08:35:44Z</time>
      </trkpt>
      <trkpt lat="43.02122" lon="-0.19878">
        <ele>1272.64</ele>
        <time>2017-07-31T08:35:46Z</time>
      </trkpt>
      <trkpt lat="43.02124" lon="-0.19872">
        <ele>1272.12</ele>
        <time>2017-07-31T08:35:48Z</time>
      </trkpt>
      <trkpt lat="43.02126" lon="-0.19864">
        <ele>1271.29</ele>
        <time>2017-07-31T08:35:51Z</time>
      </trkpt>
      <trkpt lat="43.02127" lon="-0.19856">
        <ele>1270.73</ele>
        <time>2017-07-31T08:35:53Z</time>
      </trkpt>
      <trkpt lat="43.02128" lon="-0.1985">
        <ele>1266.77</ele>
        <time>2017-07-31T08:36:20Z</time>
      </trkpt>
      <trkpt lat="43.02131" lon="-0.19845">
        <ele>1264.94</ele>
        <time>2017-07-31T08:36:38Z</time>
      </trkpt>
      <trkpt lat="43.02135" lon="-0.19838">
        <ele>1263.53</ele>
        <time>2017-07-31T08:36:54Z</time>
      </trkpt>
      <trkpt lat="43.02138" lon="-0.19831">
        <ele>1262.72</ele>
        <time>2017-07-31T08:36:57Z</time>
      </trkpt>
      <trkpt lat="43.0214" lon="-0.19822">
        <ele>1261.96</ele>
        <time>2017-07-31T08:37:00Z</time>
      </trkpt>
      <trkpt lat="43.02138" lon="-0.19813">
        <ele>1261.24</ele>
        <time>2017-07-31T08:37:03Z</time>
      </trkpt>
      <trkpt lat="43.02134" lon="-0.19808">
        <ele>1260.8</ele>
        <time>2017-07-31T08:37:05Z</time>
      </trkpt>
      <trkpt lat="43.02131" lon="-0.19802">
        <ele>1260.36</ele>
        <time>2017-07-31T08:37:07Z</time>
      </trkpt>
      <trkpt lat="43.02128" lon="-0.19795">
        <ele>1259.93</ele>
        <time>2017-07-31T08:37:09Z</time>
      </trkpt>
      <trkpt lat="43.02127" lon="-0.19785">
        <ele>1259.54</ele>
        <time>2017-07-31T08:37:11Z</time>
      </trkpt>
      <trkpt lat="43.02125" lon="-0.19776">
        <ele>1259.17</ele>
        <time>2017-07-31T08:37:13Z</time>
      </trkpt>
      <trkpt lat="43.02123" lon="-0.19768">
        <ele>1258.86</ele>
        <time>2017-07-31T08:37:15Z</time>
      </trkpt>
      <trkpt lat="43.0212" lon="-0.19761">
        <ele>1258.59</ele>
        <time>2017-07-31T08:37:17Z</time>
      </trkpt>
      <trkpt lat="43.02117" lon="-0.19754">
        <ele>1258.36</ele>
        <time>2017-07-31T08:37:19Z</time>
      </trkpt>
      <trkpt lat="43.02114" lon="-0.19747">
        <ele>1258.16</ele>
        <time>2017-07-31T08:37:21Z</time>
      </trkpt>
      <trkpt lat="43.02112" lon="-0.19739">
        <ele>1258.01</ele>
        <time>2017-07-31T08:37:23Z</time>
      </trkpt>
      <trkpt lat="43.02109" lon="-0.19733">
        <ele>1257.93</ele>
        <time>2017-07-31T08:37:25Z</time>
      </trkpt>
      <trkpt lat="43.02105" lon="-0.19729">
        <ele>1257.87</ele>
        <time>2017-07-31T08:37:27Z</time>
      </trkpt>
      <trkpt lat="43.02102" lon="-0.19722">
        <ele>1257.87</ele>
        <time>2017-07-31T08:37:29Z</time>
      </trkpt>
      <trkpt lat="43.02098" lon="-0.19718">
        <ele>1257.93</ele>
        <time>2017-07-31T08:37:31Z</time>
      </trkpt>
      <trkpt lat="43.02094" lon="-0.19712">
        <ele>1258.08</ele>
        <time>2017-07-31T08:37:33Z</time>
      </trkpt>
      <trkpt lat="43.0209" lon="-0.19709">
        <ele>1258.3</ele>
        <time>2017-07-31T08:37:35Z</time>
      </trkpt>
      <trkpt lat="43.02085" lon="-0.19705">
        <ele>1258.56</ele>
        <time>2017-07-31T08:37:37Z</time>
      </trkpt>
      <trkpt lat="43.0208" lon="-0.19702">
        <ele>1258.89</ele>
        <time>2017-07-31T08:37:39Z</time>
      </trkpt>
      <trkpt lat="43.02075" lon="-0.19699">
        <ele>1259.3</ele>
        <time>2017-07-31T08:37:41Z</time>
      </trkpt>
      <trkpt lat="43.0207" lon="-0.19697">
        <ele>1259.78</ele>
        <time>2017-07-31T08:37:43Z</time>
      </trkpt>
      <trkpt lat="43.02064" lon="-0.19694">
        <ele>1260.36</ele>
        <time>2017-07-31T08:37:45Z</time>
      </trkpt>
      <trkpt lat="43.02057" lon="-0.19691">
        <ele>1261.02</ele>
        <time>2017-07-31T08:37:47Z</time>
      </trkpt>
      <trkpt lat="43.0205" lon="-0.19688">
        <ele>1261.75</ele>
        <time>2017-07-31T08:37:49Z</time>
      </trkpt>
      <trkpt lat="43.02043" lon="-0.19684">
        <ele>1262.52</ele>
        <time>2017-07-31T08:37:51Z</time>
      </trkpt>
      <trkpt lat="43.02037" lon="-0.19681">
        <ele>1263.3</ele>
        <time>2017-07-31T08:37:53Z</time>
      </trkpt>
      <trkpt lat="43.02032" lon="-0.19677">
        <ele>1264.09</ele>
        <time>2017-07-31T08:37:55Z</time>
      </trkpt>
      <trkpt lat="43.02028" lon="-0.19671">
        <ele>1264.87</ele>
        <time>2017-07-31T08:37:57Z</time>
      </trkpt>
      <trkpt lat="43.02024" lon="-0.19666">
        <ele>1265.66</ele>
        <time>2017-07-31T08:37:59Z</time>
      </trkpt>
      <trkpt lat="43.02019" lon="-0.19661">
        <ele>1266.42</ele>
        <time>2017-07-31T08:38:01Z</time>
      </trkpt>
      <trkpt lat="43.02015" lon="-0.19655">
        <ele>1267.19</ele>
        <time>2017-07-31T08:38:03Z</time>
      </trkpt>
      <trkpt lat="43.02012" lon="-0.19649">
        <ele>1267.97</ele>
        <time>2017-07-31T08:38:05Z</time>
      </trkpt>
      <trkpt lat="43.02009" lon="-0.19643">
        <ele>1268.77</ele>
        <time>2017-07-31T08:38:07Z</time>
      </trkpt>
      <trkpt lat="43.02006" lon="-0.19638">
        <ele>1269.59</ele>
        <time>2017-07-31T08:38:09Z</time>
      </trkpt>
      <trkpt lat="43.02002" lon="-0.19633">
        <ele>1270.42</ele>
        <time>2017-07-31T08:38:11Z</time>
      </trkpt>
      <trkpt lat="43.01999" lon="-0.19623">
        <ele>1271.19</ele>
        <time>2017-07-31T08:38:13Z</time>
      </trkpt>
      <trkpt lat="43.01996" lon="-0.19614">
        <ele>1271.86</ele>
        <time>2017-07-31T08:38:15Z</time>
      </trkpt>
      <trkpt lat="43.01995" lon="-0.19607">
        <ele>1272.13</ele>
        <time>2017-07-31T08:38:16Z</time>
      </trkpt>
      <trkpt lat="43.01992" lon="-0.19597">
        <ele>1272.54</ele>
        <time>2017-07-31T08:38:18Z</time>
      </trkpt>
      <trkpt lat="43.01991" lon="-0.19587">
        <ele>1272.79</ele>
        <time>2017-07-31T08:38:20Z</time>
      </trkpt>
      <trkpt lat="43.01991" lon="-0.19579">
        <ele>1272.95</ele>
        <time>2017-07-31T08:38:22Z</time>
      </trkpt>
      <trkpt lat="43.01993" lon="-0.19571">
        <ele>1273.16</ele>
        <time>2017-07-31T08:38:25Z</time>
      </trkpt>
      <trkpt lat="43.01998" lon="-0.19566">
        <ele>1273.34</ele>
        <time>2017-07-31T08:38:28Z</time>
      </trkpt>
      <trkpt lat="43.02004" lon="-0.19563">
        <ele>1273.45</ele>
        <time>2017-07-31T08:38:31Z</time>
      </trkpt>
      <trkpt lat="43.0201" lon="-0.1956">
        <ele>1273.48</ele>
        <time>2017-07-31T08:38:34Z</time>
      </trkpt>
      <trkpt lat="43.02015" lon="-0.19558">
        <ele>1273.4</ele>
        <time>2017-07-31T08:38:39Z</time>
      </trkpt>
      <trkpt lat="43.02012" lon="-0.19549">
        <ele>1273.2</ele>
        <time>2017-07-31T08:38:46Z</time>
      </trkpt>
      <trkpt lat="43.02011" lon="-0.1954">
        <ele>1273.08</ele>
        <time>2017-07-31T08:38:48Z</time>
      </trkpt>
      <trkpt lat="43.02009" lon="-0.1953">
        <ele>1272.34</ele>
        <time>2017-07-31T08:38:50Z</time>
      </trkpt>
      <trkpt lat="43.02006" lon="-0.19518">
        <ele>1270.86</ele>
        <time>2017-07-31T08:38:52Z</time>
      </trkpt>
      <trkpt lat="43.02004" lon="-0.19511">
        <ele>1270.13</ele>
        <time>2017-07-31T08:38:53Z</time>
      </trkpt>
      <trkpt lat="43.02002" lon="-0.19505">
        <ele>1269.42</ele>
        <time>2017-07-31T08:38:54Z</time>
      </trkpt>
      <trkpt lat="43.02" lon="-0.19499">
        <ele>1268.7</ele>
        <time>2017-07-31T08:38:55Z</time>
      </trkpt>
      <trkpt lat="43.01997" lon="-0.19494">
        <ele>1268</ele>
        <time>2017-07-31T08:38:56Z</time>
      </trkpt>
      <trkpt lat="43.01993" lon="-0.19489">
        <ele>1267.29</ele>
        <time>2017-07-31T08:38:57Z</time>
      </trkpt>
      <trkpt lat="43.01989" lon="-0.19484">
        <ele>1266.56</ele>
        <time>2017-07-31T08:38:58Z</time>
      </trkpt>
      <trkpt lat="43.01985" lon="-0.1948">
        <ele>1265.87</ele>
        <time>2017-07-31T08:38:59Z</time>
      </trkpt>
      <trkpt lat="43.01979" lon="-0.19475">
        <ele>1265.16</ele>
        <time>2017-07-31T08:39:00Z</time>
      </trkpt>
      <trkpt lat="43.01974" lon="-0.19472">
        <ele>1264.48</ele>
        <time>2017-07-31T08:39:01Z</time>
      </trkpt>
      <trkpt lat="43.01968" lon="-0.19469">
        <ele>1263.85</ele>
        <time>2017-07-31T08:39:02Z</time>
      </trkpt>
      <trkpt lat="43.01964" lon="-0.19468">
        <ele>1263.25</ele>
        <time>2017-07-31T08:39:03Z</time>
      </trkpt>
      <trkpt lat="43.01959" lon="-0.19466">
        <ele>1262.7</ele>
        <time>2017-07-31T08:39:04Z</time>
      </trkpt>
      <trkpt lat="43.01954" lon="-0.19465">
        <ele>1262.2</ele>
        <time>2017-07-31T08:39:05Z</time>
      </trkpt>
      <trkpt lat="43.01947" lon="-0.19461">
        <ele>1261.93</ele>
        <time>2017-07-31T08:39:07Z</time>
      </trkpt>
      <trkpt lat="43.01941" lon="-0.19458">
        <ele>1261.82</ele>
        <time>2017-07-31T08:39:09Z</time>
      </trkpt>
      <trkpt lat="43.01935" lon="-0.19454">
        <ele>1261.74</ele>
        <time>2017-07-31T08:39:11Z</time>
      </trkpt>
      <trkpt lat="43.0193" lon="-0.1945">
        <ele>1261.68</ele>
        <time>2017-07-31T08:39:13Z</time>
      </trkpt>
      <trkpt lat="43.01925" lon="-0.19445">
        <ele>1261.66</ele>
        <time>2017-07-31T08:39:15Z</time>
      </trkpt>
      <trkpt lat="43.01919" lon="-0.1944">
        <ele>1261.67</ele>
        <time>2017-07-31T08:39:17Z</time>
      </trkpt>
      <trkpt lat="43.01914" lon="-0.19434">
        <ele>1261.72</ele>
        <time>2017-07-31T08:39:19Z</time>
      </trkpt>
      <trkpt lat="43.01909" lon="-0.19428">
        <ele>1261.8</ele>
        <time>2017-07-31T08:39:21Z</time>
      </trkpt>
      <trkpt lat="43.01904" lon="-0.19422">
        <ele>1261.94</ele>
        <time>2017-07-31T08:39:23Z</time>
      </trkpt>
      <trkpt lat="43.019" lon="-0.19416">
        <ele>1262.12</ele>
        <time>2017-07-31T08:39:25Z</time>
      </trkpt>
      <trkpt lat="43.01897" lon="-0.1941">
        <ele>1262.33</ele>
        <time>2017-07-31T08:39:27Z</time>
      </trkpt>
      <trkpt lat="43.01893" lon="-0.19403">
        <ele>1262.56</ele>
        <time>2017-07-31T08:39:29Z</time>
      </trkpt>
      <trkpt lat="43.01889" lon="-0.19397">
        <ele>1262.95</ele>
        <time>2017-07-31T08:39:32Z</time>
      </trkpt>
      <trkpt lat="43.01886" lon="-0.19393">
        <ele>1263.66</ele>
        <time>2017-07-31T08:39:37Z</time>
      </trkpt>
      <trkpt lat="43.01882" lon="-0.19389">
        <ele>1264.42</ele>
        <time>2017-07-31T08:39:42Z</time>
      </trkpt>
      <trkpt lat="43.01878" lon="-0.19383">
        <ele>1264.75</ele>
        <time>2017-07-31T08:39:44Z</time>
      </trkpt>
      <trkpt lat="43.01873" lon="-0.19375">
        <ele>1265.09</ele>
        <time>2017-07-31T08:39:46Z</time>
      </trkpt>
      <trkpt lat="43.01867" lon="-0.19367">
        <ele>1265.4</ele>
        <time>2017-07-31T08:39:48Z</time>
      </trkpt>
      <trkpt lat="43.01861" lon="-0.1936">
        <ele>1265.68</ele>
        <time>2017-07-31T08:39:50Z</time>
      </trkpt>
      <trkpt lat="43.01855" lon="-0.19353">
        <ele>1265.93</ele>
        <time>2017-07-31T08:39:52Z</time>
      </trkpt>
      <trkpt lat="43.01849" lon="-0.19348">
        <ele>1266.13</ele>
        <time>2017-07-31T08:39:54Z</time>
      </trkpt>
      <trkpt lat="43.01843" lon="-0.19344">
        <ele>1266.28</ele>
        <time>2017-07-31T08:39:56Z</time>
      </trkpt>
      <trkpt lat="43.01836" lon="-0.19342">
        <ele>1266.39</ele>
        <time>2017-07-31T08:39:58Z</time>
      </trkpt>
      <trkpt lat="43.0183" lon="-0.19338">
        <ele>1266.47</ele>
        <time>2017-07-31T08:40:00Z</time>
      </trkpt>
      <trkpt lat="43.01824" lon="-0.19336">
        <ele>1266.54</ele>
        <time>2017-07-31T08:40:02Z</time>
      </trkpt>
      <trkpt lat="43.01817" lon="-0.19334">
        <ele>1266.59</ele>
        <time>2017-07-31T08:40:04Z</time>
      </trkpt>
      <trkpt lat="43.0181" lon="-0.19331">
        <ele>1266.63</ele>
        <time>2017-07-31T08:40:06Z</time>
      </trkpt>
      <trkpt lat="43.01803" lon="-0.19328">
        <ele>1266.66</ele>
        <time>2017-07-31T08:40:08Z</time>
      </trkpt>
      <trkpt lat="43.01796" lon="-0.19325">
        <ele>1266.68</ele>
        <time>2017-07-31T08:40:10Z</time>
      </trkpt>
      <trkpt lat="43.01791" lon="-0.19321">
        <ele>1266.71</ele>
        <time>2017-07-31T08:40:12Z</time>
      </trkpt>
      <trkpt lat="43.01784" lon="-0.19318">
        <ele>1266.73</ele>
        <time>2017-07-31T08:40:14Z</time>
      </trkpt>
      <trkpt lat="43.01777" lon="-0.19314">
        <ele>1266.72</ele>
        <time>2017-07-31T08:40:16Z</time>
      </trkpt>
      <trkpt lat="43.0177" lon="-0.19311">
        <ele>1266.72</ele>
        <time>2017-07-31T08:40:18Z</time>
      </trkpt>
      <trkpt lat="43.01763" lon="-0.19309">
        <ele>1266.82</ele>
        <time>2017-07-31T08:40:20Z</time>
      </trkpt>
      <trkpt lat="43.01755" lon="-0.19306">
        <ele>1266.83</ele>
        <time>2017-07-31T08:40:22Z</time>
      </trkpt>
      <trkpt lat="43.01747" lon="-0.19303">
        <ele>1266.86</ele>
        <time>2017-07-31T08:40:24Z</time>
      </trkpt>
      <trkpt lat="43.01743" lon="-0.19303">
        <ele>1267.05</ele>
        <time>2017-07-31T08:40:25Z</time>
      </trkpt>
      <trkpt lat="43.01734" lon="-0.193">
        <ele>1267.49</ele>
        <time>2017-07-31T08:40:27Z</time>
      </trkpt>
      <trkpt lat="43.01729" lon="-0.19296">
        <ele>1268.18</ele>
        <time>2017-07-31T08:40:29Z</time>
      </trkpt>
      <trkpt lat="43.01725" lon="-0.19293">
        <ele>1268.84</ele>
        <time>2017-07-31T08:40:30Z</time>
      </trkpt>
      <trkpt lat="43.01717" lon="-0.19289">
        <ele>1270.28</ele>
        <time>2017-07-31T08:40:32Z</time>
      </trkpt>
      <trkpt lat="43.0171" lon="-0.19286">
        <ele>1271.19</ele>
        <time>2017-07-31T08:40:34Z</time>
      </trkpt>
      <trkpt lat="43.01702" lon="-0.19281">
        <ele>1271.95</ele>
        <time>2017-07-31T08:40:36Z</time>
      </trkpt>
      <trkpt lat="43.01697" lon="-0.19278">
        <ele>1272.25</ele>
        <time>2017-07-31T08:40:37Z</time>
      </trkpt>
      <trkpt lat="43.0169" lon="-0.19271">
        <ele>1272.7</ele>
        <time>2017-07-31T08:40:39Z</time>
      </trkpt>
      <trkpt lat="43.01685" lon="-0.19267">
        <ele>1272.77</ele>
        <time>2017-07-31T08:40:40Z</time>
      </trkpt>
      <trkpt lat="43.0168" lon="-0.19261">
        <ele>1272.75</ele>
        <time>2017-07-31T08:40:41Z</time>
      </trkpt>
      <trkpt lat="43.01675" lon="-0.19255">
        <ele>1272.49</ele>
        <time>2017-07-31T08:40:42Z</time>
      </trkpt>
      <trkpt lat="43.01672" lon="-0.19251">
        <ele>1272.1</ele>
        <time>2017-07-31T08:40:43Z</time>
      </trkpt>
      <trkpt lat="43.01667" lon="-0.19246">
        <ele>1271.96</ele>
        <time>2017-07-31T08:40:44Z</time>
      </trkpt>
      <trkpt lat="43.01663" lon="-0.19241">
        <ele>1271.69</ele>
        <time>2017-07-31T08:40:45Z</time>
      </trkpt>
      <trkpt lat="43.0166" lon="-0.19236">
        <ele>1271.34</ele>
        <time>2017-07-31T08:40:46Z</time>
      </trkpt>
      <trkpt lat="43.01656" lon="-0.19229">
        <ele>1270.77</ele>
        <time>2017-07-31T08:40:47Z</time>
      </trkpt>
      <trkpt lat="43.0165" lon="-0.19222">
        <ele>1270.56</ele>
        <time>2017-07-31T08:40:48Z</time>
      </trkpt>
      <trkpt lat="43.01645" lon="-0.19217">
        <ele>1270.47</ele>
        <time>2017-07-31T08:40:49Z</time>
      </trkpt>
      <trkpt lat="43.01641" lon="-0.19209">
        <ele>1270.13</ele>
        <time>2017-07-31T08:40:50Z</time>
      </trkpt>
      <trkpt lat="43.01638" lon="-0.192">
        <ele>1269.6</ele>
        <time>2017-07-31T08:40:51Z</time>
      </trkpt>
      <trkpt lat="43.01638" lon="-0.19192">
        <ele>1268.83</ele>
        <time>2017-07-31T08:40:52Z</time>
      </trkpt>
      <trkpt lat="43.01637" lon="-0.19184">
        <ele>1267.94</ele>
        <time>2017-07-31T08:40:53Z</time>
      </trkpt>
      <trkpt lat="43.01639" lon="-0.19177">
        <ele>1266.85</ele>
        <time>2017-07-31T08:40:54Z</time>
      </trkpt>
      <trkpt lat="43.01641" lon="-0.1917">
        <ele>1265.66</ele>
        <time>2017-07-31T08:40:55Z</time>
      </trkpt>
      <trkpt lat="43.01644" lon="-0.19164">
        <ele>1264.42</ele>
        <time>2017-07-31T08:40:56Z</time>
      </trkpt>
      <trkpt lat="43.01649" lon="-0.19154">
        <ele>1262</ele>
        <time>2017-07-31T08:40:58Z</time>
      </trkpt>
      <trkpt lat="43.01651" lon="-0.19148">
        <ele>1261.2</ele>
        <time>2017-07-31T08:40:59Z</time>
      </trkpt>
      <trkpt lat="43.01656" lon="-0.19143">
        <ele>1260.51</ele>
        <time>2017-07-31T08:41:00Z</time>
      </trkpt>
      <trkpt lat="43.0166" lon="-0.19137">
        <ele>1260.03</ele>
        <time>2017-07-31T08:41:01Z</time>
      </trkpt>
      <trkpt lat="43.01665" lon="-0.19133">
        <ele>1259.87</ele>
        <time>2017-07-31T08:41:02Z</time>
      </trkpt>
      <trkpt lat="43.01669" lon="-0.19129">
        <ele>1259.79</ele>
        <time>2017-07-31T08:41:03Z</time>
      </trkpt>
      <trkpt lat="43.01672" lon="-0.19124">
        <ele>1259.62</ele>
        <time>2017-07-31T08:41:04Z</time>
      </trkpt>
      <trkpt lat="43.01677" lon="-0.19117">
        <ele>1259.52</ele>
        <time>2017-07-31T08:41:06Z</time>
      </trkpt>
      <trkpt lat="43.0168" lon="-0.19112">
        <ele>1259.51</ele>
        <time>2017-07-31T08:41:07Z</time>
      </trkpt>
      <trkpt lat="43.01682" lon="-0.19106">
        <ele>1259.54</ele>
        <time>2017-07-31T08:41:09Z</time>
      </trkpt>
      <trkpt lat="43.01685" lon="-0.19101">
        <ele>1259.58</ele>
        <time>2017-07-31T08:41:10Z</time>
      </trkpt>
      <trkpt lat="43.01688" lon="-0.19095">
        <ele>1259.63</ele>
        <time>2017-07-31T08:41:11Z</time>
      </trkpt>
      <trkpt lat="43.01693" lon="-0.19084">
        <ele>1260.18</ele>
        <time>2017-07-31T08:41:13Z</time>
      </trkpt>
      <trkpt lat="43.01697" lon="-0.1908">
        <ele>1260.23</ele>
        <time>2017-07-31T08:41:14Z</time>
      </trkpt>
      <trkpt lat="43.01702" lon="-0.19073">
        <ele>1260.28</ele>
        <time>2017-07-31T08:41:16Z</time>
      </trkpt>
      <trkpt lat="43.01708" lon="-0.19063">
        <ele>1260.28</ele>
        <time>2017-07-31T08:41:18Z</time>
      </trkpt>
      <trkpt lat="43.01711" lon="-0.19058">
        <ele>1260.32</ele>
        <time>2017-07-31T08:41:19Z</time>
      </trkpt>
      <trkpt lat="43.01717" lon="-0.19049">
        <ele>1260.34</ele>
        <time>2017-07-31T08:41:21Z</time>
      </trkpt>
      <trkpt lat="43.0172" lon="-0.19045">
        <ele>1260.32</ele>
        <time>2017-07-31T08:41:22Z</time>
      </trkpt>
      <trkpt lat="43.01726" lon="-0.1904">
        <ele>1260.18</ele>
        <time>2017-07-31T08:41:24Z</time>
      </trkpt>
      <trkpt lat="43.01734" lon="-0.19035">
        <ele>1260.06</ele>
        <time>2017-07-31T08:41:26Z</time>
      </trkpt>
      <trkpt lat="43.01741" lon="-0.19034">
        <ele>1260.06</ele>
        <time>2017-07-31T08:41:28Z</time>
      </trkpt>
      <trkpt lat="43.01748" lon="-0.19031">
        <ele>1260.07</ele>
        <time>2017-07-31T08:41:30Z</time>
      </trkpt>
      <trkpt lat="43.01755" lon="-0.1903">
        <ele>1260.03</ele>
        <time>2017-07-31T08:41:32Z</time>
      </trkpt>
      <trkpt lat="43.01765" lon="-0.19032">
        <ele>1259.44</ele>
        <time>2017-07-31T08:41:34Z</time>
      </trkpt>
      <trkpt lat="43.01771" lon="-0.19034">
        <ele>1259.21</ele>
        <time>2017-07-31T08:41:35Z</time>
      </trkpt>
      <trkpt lat="43.01778" lon="-0.19037">
        <ele>1258.94</ele>
        <time>2017-07-31T08:41:37Z</time>
      </trkpt>
      <trkpt lat="43.01783" lon="-0.19043">
        <ele>1258.69</ele>
        <time>2017-07-31T08:41:39Z</time>
      </trkpt>
      <trkpt lat="43.01788" lon="-0.1905">
        <ele>1258.43</ele>
        <time>2017-07-31T08:41:41Z</time>
      </trkpt>
      <trkpt lat="43.01792" lon="-0.19059">
        <ele>1258.15</ele>
        <time>2017-07-31T08:41:43Z</time>
      </trkpt>
      <trkpt lat="43.01794" lon="-0.19067">
        <ele>1257.85</ele>
        <time>2017-07-31T08:41:45Z</time>
      </trkpt>
      <trkpt lat="43.01797" lon="-0.19076">
        <ele>1257.53</ele>
        <time>2017-07-31T08:41:47Z</time>
      </trkpt>
      <trkpt lat="43.01799" lon="-0.19084">
        <ele>1257.21</ele>
        <time>2017-07-31T08:41:49Z</time>
      </trkpt>
      <trkpt lat="43.01802" lon="-0.19093">
        <ele>1256.06</ele>
        <time>2017-07-31T08:41:51Z</time>
      </trkpt>
      <trkpt lat="43.01803" lon="-0.191">
        <ele>1255.69</ele>
        <time>2017-07-31T08:41:52Z</time>
      </trkpt>
      <trkpt lat="43.01806" lon="-0.1911">
        <ele>1254.47</ele>
        <time>2017-07-31T08:41:54Z</time>
      </trkpt>
      <trkpt lat="43.01808" lon="-0.19117">
        <ele>1253.33</ele>
        <time>2017-07-31T08:41:55Z</time>
      </trkpt>
      <trkpt lat="43.01811" lon="-0.19129">
        <ele>1252.75</ele>
        <time>2017-07-31T08:41:57Z</time>
      </trkpt>
      <trkpt lat="43.01813" lon="-0.19134">
        <ele>1252.66</ele>
        <time>2017-07-31T08:41:58Z</time>
      </trkpt>
      <trkpt lat="43.01816" lon="-0.19139">
        <ele>1252.57</ele>
        <time>2017-07-31T08:41:59Z</time>
      </trkpt>
      <trkpt lat="43.01822" lon="-0.19152">
        <ele>1252.41</ele>
        <time>2017-07-31T08:42:01Z</time>
      </trkpt>
      <trkpt lat="43.01825" lon="-0.19158">
        <ele>1252.32</ele>
        <time>2017-07-31T08:42:02Z</time>
      </trkpt>
      <trkpt lat="43.01828" lon="-0.19164">
        <ele>1252.24</ele>
        <time>2017-07-31T08:42:03Z</time>
      </trkpt>
      <trkpt lat="43.01831" lon="-0.19171">
        <ele>1252.16</ele>
        <time>2017-07-31T08:42:04Z</time>
      </trkpt>
      <trkpt lat="43.01833" lon="-0.19176">
        <ele>1252.07</ele>
        <time>2017-07-31T08:42:05Z</time>
      </trkpt>
      <trkpt lat="43.01836" lon="-0.19185">
        <ele>1251.88</ele>
        <time>2017-07-31T08:42:07Z</time>
      </trkpt>
      <trkpt lat="43.01839" lon="-0.19195">
        <ele>1251.68</ele>
        <time>2017-07-31T08:42:09Z</time>
      </trkpt>
      <trkpt lat="43.0184" lon="-0.19201">
        <ele>1251.42</ele>
        <time>2017-07-31T08:42:11Z</time>
      </trkpt>
      <trkpt lat="43.01846" lon="-0.19208">
        <ele>1250.94</ele>
        <time>2017-07-31T08:42:14Z</time>
      </trkpt>
      <trkpt lat="43.01851" lon="-0.1921">
        <ele>1250.55</ele>
        <time>2017-07-31T08:42:17Z</time>
      </trkpt>
      <trkpt lat="43.01858" lon="-0.19208">
        <ele>1250.17</ele>
        <time>2017-07-31T08:42:21Z</time>
      </trkpt>
      <trkpt lat="43.01862" lon="-0.19203">
        <ele>1250.12</ele>
        <time>2017-07-31T08:42:25Z</time>
      </trkpt>
      <trkpt lat="43.01868" lon="-0.19203">
        <ele>1250.17</ele>
        <time>2017-07-31T08:42:26Z</time>
      </trkpt>
      <trkpt lat="43.01873" lon="-0.19201">
        <ele>1250.24</ele>
        <time>2017-07-31T08:42:27Z</time>
      </trkpt>
      <trkpt lat="43.01878" lon="-0.19199">
        <ele>1250.33</ele>
        <time>2017-07-31T08:42:28Z</time>
      </trkpt>
      <trkpt lat="43.01883" lon="-0.19198">
        <ele>1250.58</ele>
        <time>2017-07-31T08:42:30Z</time>
      </trkpt>
      <trkpt lat="43.0189" lon="-0.19199">
        <ele>1250.92</ele>
        <time>2017-07-31T08:42:32Z</time>
      </trkpt>
      <trkpt lat="43.01898" lon="-0.19201">
        <ele>1251.23</ele>
        <time>2017-07-31T08:42:34Z</time>
      </trkpt>
      <trkpt lat="43.01905" lon="-0.19205">
        <ele>1251.49</ele>
        <time>2017-07-31T08:42:36Z</time>
      </trkpt>
      <trkpt lat="43.0191" lon="-0.19205">
        <ele>1251.79</ele>
        <time>2017-07-31T08:42:39Z</time>
      </trkpt>
      <trkpt lat="43.01916" lon="-0.19203">
        <ele>1252.09</ele>
        <time>2017-07-31T08:42:42Z</time>
      </trkpt>
      <trkpt lat="43.01923" lon="-0.19196">
        <ele>1252.18</ele>
        <time>2017-07-31T08:42:44Z</time>
      </trkpt>
      <trkpt lat="43.01927" lon="-0.19191">
        <ele>1252.03</ele>
        <time>2017-07-31T08:42:47Z</time>
      </trkpt>
      <trkpt lat="43.01932" lon="-0.19188">
        <ele>1252.02</ele>
        <time>2017-07-31T08:42:49Z</time>
      </trkpt>
      <trkpt lat="43.01937" lon="-0.19183">
        <ele>1252.52</ele>
        <time>2017-07-31T08:42:52Z</time>
      </trkpt>
      <trkpt lat="43.0194" lon="-0.19178">
        <ele>1252.96</ele>
        <time>2017-07-31T08:42:54Z</time>
      </trkpt>
      <trkpt lat="43.01944" lon="-0.19172">
        <ele>1253.2</ele>
        <time>2017-07-31T08:42:56Z</time>
      </trkpt>
      <trkpt lat="43.0195" lon="-0.19166">
        <ele>1253.42</ele>
        <time>2017-07-31T08:42:59Z</time>
      </trkpt>
      <trkpt lat="43.01954" lon="-0.19161">
        <ele>1253.42</ele>
        <time>2017-07-31T08:43:01Z</time>
      </trkpt>
      <trkpt lat="43.01958" lon="-0.19158">
        <ele>1253.37</ele>
        <time>2017-07-31T08:43:02Z</time>
      </trkpt>
      <trkpt lat="43.01965" lon="-0.19153">
        <ele>1253.13</ele>
        <time>2017-07-31T08:43:04Z</time>
      </trkpt>
      <trkpt lat="43.01973" lon="-0.19151">
        <ele>1252.78</ele>
        <time>2017-07-31T08:43:06Z</time>
      </trkpt>
      <trkpt lat="43.01979" lon="-0.1915">
        <ele>1252.4</ele>
        <time>2017-07-31T08:43:08Z</time>
      </trkpt>
      <trkpt lat="43.01985" lon="-0.19149">
        <ele>1251.76</ele>
        <time>2017-07-31T08:43:11Z</time>
      </trkpt>
      <trkpt lat="43.01993" lon="-0.19147">
        <ele>1251.17</ele>
        <time>2017-07-31T08:43:14Z</time>
      </trkpt>
      <trkpt lat="43.01999" lon="-0.19142">
        <ele>1250.89</ele>
        <time>2017-07-31T08:43:16Z</time>
      </trkpt>
      <trkpt lat="43.02002" lon="-0.19135">
        <ele>1250.73</ele>
        <time>2017-07-31T08:43:18Z</time>
      </trkpt>
      <trkpt lat="43.02005" lon="-0.19129">
        <ele>1250.67</ele>
        <time>2017-07-31T08:43:19Z</time>
      </trkpt>
      <trkpt lat="43.02012" lon="-0.19121">
        <ele>1250.59</ele>
        <time>2017-07-31T08:43:21Z</time>
      </trkpt>
      <trkpt lat="43.02016" lon="-0.19115">
        <ele>1250.52</ele>
        <time>2017-07-31T08:43:22Z</time>
      </trkpt>
      <trkpt lat="43.0202" lon="-0.1911">
        <ele>1250.21</ele>
        <time>2017-07-31T08:43:24Z</time>
      </trkpt>
      <trkpt lat="43.02024" lon="-0.19113">
        <ele>1248.14</ele>
        <time>2017-07-31T08:43:50Z</time>
      </trkpt>
      <trkpt lat="43.02029" lon="-0.19112">
        <ele>1246.78</ele>
        <time>2017-07-31T08:43:57Z</time>
      </trkpt>
      <trkpt lat="43.02034" lon="-0.19107">
        <ele>1243.83</ele>
        <time>2017-07-31T08:44:19Z</time>
      </trkpt>
      <trkpt lat="43.02039" lon="-0.19105">
        <ele>1243.46</ele>
        <time>2017-07-31T08:44:22Z</time>
      </trkpt>
      <trkpt lat="43.02048" lon="-0.19105">
        <ele>1243.15</ele>
        <time>2017-07-31T08:44:25Z</time>
      </trkpt>
      <trkpt lat="43.02054" lon="-0.19104">
        <ele>1242.84</ele>
        <time>2017-07-31T08:44:27Z</time>
      </trkpt>
      <trkpt lat="43.0206" lon="-0.19102">
        <ele>1242.51</ele>
        <time>2017-07-31T08:44:29Z</time>
      </trkpt>
      <trkpt lat="43.02065" lon="-0.19098">
        <ele>1242.27</ele>
        <time>2017-07-31T08:44:31Z</time>
      </trkpt>
      <trkpt lat="43.02071" lon="-0.19096">
        <ele>1242.13</ele>
        <time>2017-07-31T08:44:33Z</time>
      </trkpt>
      <trkpt lat="43.02076" lon="-0.19092">
        <ele>1242.07</ele>
        <time>2017-07-31T08:44:36Z</time>
      </trkpt>
      <trkpt lat="43.02081" lon="-0.19088">
        <ele>1242.17</ele>
        <time>2017-07-31T08:44:38Z</time>
      </trkpt>
      <trkpt lat="43.02087" lon="-0.19083">
        <ele>1242.34</ele>
        <time>2017-07-31T08:44:40Z</time>
      </trkpt>
      <trkpt lat="43.02091" lon="-0.19079">
        <ele>1242.63</ele>
        <time>2017-07-31T08:44:42Z</time>
      </trkpt>
      <trkpt lat="43.02095" lon="-0.19074">
        <ele>1243.01</ele>
        <time>2017-07-31T08:44:44Z</time>
      </trkpt>
      <trkpt lat="43.021" lon="-0.1907">
        <ele>1243.48</ele>
        <time>2017-07-31T08:44:46Z</time>
      </trkpt>
      <trkpt lat="43.02104" lon="-0.19065">
        <ele>1244.04</ele>
        <time>2017-07-31T08:44:48Z</time>
      </trkpt>
      <trkpt lat="43.02109" lon="-0.19057">
        <ele>1244.64</ele>
        <time>2017-07-31T08:44:50Z</time>
      </trkpt>
      <trkpt lat="43.02113" lon="-0.19052">
        <ele>1244.84</ele>
        <time>2017-07-31T08:44:51Z</time>
      </trkpt>
      <trkpt lat="43.02119" lon="-0.19045">
        <ele>1245.03</ele>
        <time>2017-07-31T08:44:53Z</time>
      </trkpt>
      <trkpt lat="43.02126" lon="-0.19041">
        <ele>1244.97</ele>
        <time>2017-07-31T08:44:55Z</time>
      </trkpt>
      <trkpt lat="43.02132" lon="-0.19037">
        <ele>1244.77</ele>
        <time>2017-07-31T08:44:57Z</time>
      </trkpt>
      <trkpt lat="43.02139" lon="-0.19035">
        <ele>1244.67</ele>
        <time>2017-07-31T08:44:58Z</time>
      </trkpt>
      <trkpt lat="43.02144" lon="-0.19032">
        <ele>1244.6</ele>
        <time>2017-07-31T08:44:59Z</time>
      </trkpt>
      <trkpt lat="43.02149" lon="-0.19027">
        <ele>1244.53</ele>
        <time>2017-07-31T08:45:01Z</time>
      </trkpt>
      <trkpt lat="43.02154" lon="-0.19021">
        <ele>1244.46</ele>
        <time>2017-07-31T08:45:03Z</time>
      </trkpt>
      <trkpt lat="43.02159" lon="-0.19018">
        <ele>1244.39</ele>
        <time>2017-07-31T08:45:06Z</time>
      </trkpt>
      <trkpt lat="43.02163" lon="-0.19014">
        <ele>1244.29</ele>
        <time>2017-07-31T08:45:08Z</time>
      </trkpt>
      <trkpt lat="43.02169" lon="-0.19011">
        <ele>1244.08</ele>
        <time>2017-07-31T08:45:11Z</time>
      </trkpt>
      <trkpt lat="43.02174" lon="-0.19009">
        <ele>1243.95</ele>
        <time>2017-07-31T08:45:13Z</time>
      </trkpt>
      <trkpt lat="43.02179" lon="-0.19008">
        <ele>1243.79</ele>
        <time>2017-07-31T08:45:16Z</time>
      </trkpt>
      <trkpt lat="43.02185" lon="-0.19003">
        <ele>1243.74</ele>
        <time>2017-07-31T08:45:19Z</time>
      </trkpt>
      <trkpt lat="43.0219" lon="-0.18999">
        <ele>1243.78</ele>
        <time>2017-07-31T08:45:21Z</time>
      </trkpt>
      <trkpt lat="43.02196" lon="-0.18995">
        <ele>1243.86</ele>
        <time>2017-07-31T08:45:23Z</time>
      </trkpt>
      <trkpt lat="43.02205" lon="-0.1899">
        <ele>1243.91</ele>
        <time>2017-07-31T08:45:25Z</time>
      </trkpt>
      <trkpt lat="43.0221" lon="-0.18987">
        <ele>1243.95</ele>
        <time>2017-07-31T08:45:26Z</time>
      </trkpt>
      <trkpt lat="43.02215" lon="-0.18983">
        <ele>1244.03</ele>
        <time>2017-07-31T08:45:28Z</time>
      </trkpt>
      <trkpt lat="43.02222" lon="-0.18984">
        <ele>1244.04</ele>
        <time>2017-07-31T08:45:31Z</time>
      </trkpt>
      <trkpt lat="43.02227" lon="-0.18979">
        <ele>1242.93</ele>
        <time>2017-07-31T08:45:45Z</time>
      </trkpt>
      <trkpt lat="43.0223" lon="-0.18975">
        <ele>1242.7</ele>
        <time>2017-07-31T08:45:47Z</time>
      </trkpt>
      <trkpt lat="43.02237" lon="-0.18971">
        <ele>1242.44</ele>
        <time>2017-07-31T08:45:50Z</time>
      </trkpt>
      <trkpt lat="43.02241" lon="-0.18961">
        <ele>1242.33</ele>
        <time>2017-07-31T08:45:53Z</time>
      </trkpt>
      <trkpt lat="43.02244" lon="-0.18952">
        <ele>1242.15</ele>
        <time>2017-07-31T08:45:55Z</time>
      </trkpt>
      <trkpt lat="43.02246" lon="-0.18947">
        <ele>1241.28</ele>
        <time>2017-07-31T08:45:59Z</time>
      </trkpt>
      <trkpt lat="43.02246" lon="-0.1894">
        <ele>1240.74</ele>
        <time>2017-07-31T08:46:01Z</time>
      </trkpt>
      <trkpt lat="43.02245" lon="-0.18932">
        <ele>1240.22</ele>
        <time>2017-07-31T08:46:03Z</time>
      </trkpt>
      <trkpt lat="43.02245" lon="-0.18924">
        <ele>1239.72</ele>
        <time>2017-07-31T08:46:05Z</time>
      </trkpt>
      <trkpt lat="43.02244" lon="-0.18916">
        <ele>1239.24</ele>
        <time>2017-07-31T08:46:07Z</time>
      </trkpt>
      <trkpt lat="43.02243" lon="-0.18907">
        <ele>1238.79</ele>
        <time>2017-07-31T08:46:09Z</time>
      </trkpt>
      <trkpt lat="43.02242" lon="-0.18897">
        <ele>1238.37</ele>
        <time>2017-07-31T08:46:11Z</time>
      </trkpt>
      <trkpt lat="43.02242" lon="-0.18887">
        <ele>1237.96</ele>
        <time>2017-07-31T08:46:13Z</time>
      </trkpt>
      <trkpt lat="43.02242" lon="-0.18879">
        <ele>1237.55</ele>
        <time>2017-07-31T08:46:15Z</time>
      </trkpt>
      <trkpt lat="43.02242" lon="-0.18872">
        <ele>1237.16</ele>
        <time>2017-07-31T08:46:17Z</time>
      </trkpt>
      <trkpt lat="43.02241" lon="-0.18864">
        <ele>1236.77</ele>
        <time>2017-07-31T08:46:19Z</time>
      </trkpt>
      <trkpt lat="43.0224" lon="-0.18857">
        <ele>1236.4</ele>
        <time>2017-07-31T08:46:21Z</time>
      </trkpt>
      <trkpt lat="43.0224" lon="-0.1885">
        <ele>1236.07</ele>
        <time>2017-07-31T08:46:23Z</time>
      </trkpt>
      <trkpt lat="43.0224" lon="-0.18842">
        <ele>1235.78</ele>
        <time>2017-07-31T08:46:25Z</time>
      </trkpt>
      <trkpt lat="43.02241" lon="-0.18832">
        <ele>1235.51</ele>
        <time>2017-07-31T08:46:27Z</time>
      </trkpt>
      <trkpt lat="43.02242" lon="-0.18821">
        <ele>1235.23</ele>
        <time>2017-07-31T08:46:29Z</time>
      </trkpt>
      <trkpt lat="43.02245" lon="-0.1881">
        <ele>1234.92</ele>
        <time>2017-07-31T08:46:31Z</time>
      </trkpt>
      <trkpt lat="43.02247" lon="-0.18799">
        <ele>1234.56</ele>
        <time>2017-07-31T08:46:33Z</time>
      </trkpt>
      <trkpt lat="43.0225" lon="-0.18788">
        <ele>1233.04</ele>
        <time>2017-07-31T08:46:35Z</time>
      </trkpt>
      <trkpt lat="43.02253" lon="-0.18783">
        <ele>1231.54</ele>
        <time>2017-07-31T08:46:36Z</time>
      </trkpt>
      <trkpt lat="43.02255" lon="-0.18777">
        <ele>1230.08</ele>
        <time>2017-07-31T08:46:37Z</time>
      </trkpt>
      <trkpt lat="43.02257" lon="-0.18771">
        <ele>1229.57</ele>
        <time>2017-07-31T08:46:38Z</time>
      </trkpt>
      <trkpt lat="43.02262" lon="-0.18762">
        <ele>1229.18</ele>
        <time>2017-07-31T08:46:40Z</time>
      </trkpt>
      <trkpt lat="43.02268" lon="-0.18754">
        <ele>1228.93</ele>
        <time>2017-07-31T08:46:42Z</time>
      </trkpt>
      <trkpt lat="43.02273" lon="-0.1875">
        <ele>1228.7</ele>
        <time>2017-07-31T08:46:44Z</time>
      </trkpt>
      <trkpt lat="43.02279" lon="-0.18747">
        <ele>1228.48</ele>
        <time>2017-07-31T08:46:46Z</time>
      </trkpt>
      <trkpt lat="43.02286" lon="-0.18742">
        <ele>1228.13</ele>
        <time>2017-07-31T08:46:48Z</time>
      </trkpt>
      <trkpt lat="43.02292" lon="-0.18741">
        <ele>1227.89</ele>
        <time>2017-07-31T08:46:49Z</time>
      </trkpt>
      <trkpt lat="43.02298" lon="-0.18741">
        <ele>1227.61</ele>
        <time>2017-07-31T08:46:50Z</time>
      </trkpt>
      <trkpt lat="43.02303" lon="-0.1874">
        <ele>1227.31</ele>
        <time>2017-07-31T08:46:51Z</time>
      </trkpt>
      <trkpt lat="43.02308" lon="-0.1874">
        <ele>1226.65</ele>
        <time>2017-07-31T08:46:53Z</time>
      </trkpt>
      <trkpt lat="43.02314" lon="-0.1874">
        <ele>1225.98</ele>
        <time>2017-07-31T08:46:55Z</time>
      </trkpt>
      <trkpt lat="43.02322" lon="-0.18738">
        <ele>1225.32</ele>
        <time>2017-07-31T08:46:57Z</time>
      </trkpt>
      <trkpt lat="43.02327" lon="-0.18736">
        <ele>1224.78</ele>
        <time>2017-07-31T08:46:59Z</time>
      </trkpt>
      <trkpt lat="43.02332" lon="-0.18733">
        <ele>1224.34</ele>
        <time>2017-07-31T08:47:02Z</time>
      </trkpt>
      <trkpt lat="43.02336" lon="-0.18728">
        <ele>1224.44</ele>
        <time>2017-07-31T08:47:05Z</time>
      </trkpt>
      <trkpt lat="43.0234" lon="-0.18725">
        <ele>1225.34</ele>
        <time>2017-07-31T08:47:23Z</time>
      </trkpt>
      <trkpt lat="43.02341" lon="-0.18718">
        <ele>1225.76</ele>
        <time>2017-07-31T08:47:26Z</time>
      </trkpt>
      <trkpt lat="43.02342" lon="-0.1871">
        <ele>1226.23</ele>
        <time>2017-07-31T08:47:29Z</time>
      </trkpt>
      <trkpt lat="43.02345" lon="-0.18702">
        <ele>1226.39</ele>
        <time>2017-07-31T08:47:31Z</time>
      </trkpt>
      <trkpt lat="43.02349" lon="-0.18691">
        <ele>1226.38</ele>
        <time>2017-07-31T08:47:33Z</time>
      </trkpt>
      <trkpt lat="43.02353" lon="-0.1868">
        <ele>1226.18</ele>
        <time>2017-07-31T08:47:35Z</time>
      </trkpt>
      <trkpt lat="43.02356" lon="-0.18669">
        <ele>1225.8</ele>
        <time>2017-07-31T08:47:37Z</time>
      </trkpt>
      <trkpt lat="43.02357" lon="-0.18663">
        <ele>1225.32</ele>
        <time>2017-07-31T08:47:39Z</time>
      </trkpt>
      <trkpt lat="43.02355" lon="-0.18655">
        <ele>1224.67</ele>
        <time>2017-07-31T08:47:42Z</time>
      </trkpt>
      <trkpt lat="43.02356" lon="-0.18642">
        <ele>1224.32</ele>
        <time>2017-07-31T08:47:44Z</time>
      </trkpt>
      <trkpt lat="43.02358" lon="-0.18632">
        <ele>1223.96</ele>
        <time>2017-07-31T08:47:46Z</time>
      </trkpt>
      <trkpt lat="43.02359" lon="-0.18621">
        <ele>1223.62</ele>
        <time>2017-07-31T08:47:48Z</time>
      </trkpt>
      <trkpt lat="43.02359" lon="-0.18611">
        <ele>1223.3</ele>
        <time>2017-07-31T08:47:50Z</time>
      </trkpt>
      <trkpt lat="43.0236" lon="-0.18601">
        <ele>1223.01</ele>
        <time>2017-07-31T08:47:52Z</time>
      </trkpt>
      <trkpt lat="43.02359" lon="-0.18589">
        <ele>1221.09</ele>
        <time>2017-07-31T08:47:54Z</time>
      </trkpt>
      <trkpt lat="43.02358" lon="-0.18582">
        <ele>1220.74</ele>
        <time>2017-07-31T08:47:55Z</time>
      </trkpt>
      <trkpt lat="43.02357" lon="-0.18576">
        <ele>1220.19</ele>
        <time>2017-07-31T08:47:56Z</time>
      </trkpt>
      <trkpt lat="43.02357" lon="-0.1857">
        <ele>1219.68</ele>
        <time>2017-07-31T08:47:57Z</time>
      </trkpt>
      <trkpt lat="43.02355" lon="-0.18557">
        <ele>1219.01</ele>
        <time>2017-07-31T08:47:59Z</time>
      </trkpt>
      <trkpt lat="43.02354" lon="-0.18549">
        <ele>1218.79</ele>
        <time>2017-07-31T08:48:00Z</time>
      </trkpt>
      <trkpt lat="43.02354" lon="-0.18541">
        <ele>1218.62</ele>
        <time>2017-07-31T08:48:01Z</time>
      </trkpt>
      <trkpt lat="43.02353" lon="-0.18533">
        <ele>1218.52</ele>
        <time>2017-07-31T08:48:02Z</time>
      </trkpt>
      <trkpt lat="43.02352" lon="-0.18527">
        <ele>1218.47</ele>
        <time>2017-07-31T08:48:03Z</time>
      </trkpt>
      <trkpt lat="43.02351" lon="-0.18521">
        <ele>1218.45</ele>
        <time>2017-07-31T08:48:04Z</time>
      </trkpt>
      <trkpt lat="43.0235" lon="-0.1851">
        <ele>1218.4</ele>
        <time>2017-07-31T08:48:06Z</time>
      </trkpt>
      <trkpt lat="43.02351" lon="-0.18498">
        <ele>1218.32</ele>
        <time>2017-07-31T08:48:08Z</time>
      </trkpt>
      <trkpt lat="43.02353" lon="-0.18487">
        <ele>1218.21</ele>
        <time>2017-07-31T08:48:10Z</time>
      </trkpt>
      <trkpt lat="43.02358" lon="-0.18481">
        <ele>1218.06</ele>
        <time>2017-07-31T08:48:12Z</time>
      </trkpt>
      <trkpt lat="43.02366" lon="-0.18477">
        <ele>1217.84</ele>
        <time>2017-07-31T08:48:14Z</time>
      </trkpt>
      <trkpt lat="43.02373" lon="-0.18473">
        <ele>1217.57</ele>
        <time>2017-07-31T08:48:16Z</time>
      </trkpt>
      <trkpt lat="43.0238" lon="-0.1847">
        <ele>1217.29</ele>
        <time>2017-07-31T08:48:18Z</time>
      </trkpt>
      <trkpt lat="43.02388" lon="-0.18467">
        <ele>1217</ele>
        <time>2017-07-31T08:48:20Z</time>
      </trkpt>
      <trkpt lat="43.02395" lon="-0.18464">
        <ele>1216.73</ele>
        <time>2017-07-31T08:48:22Z</time>
      </trkpt>
      <trkpt lat="43.02404" lon="-0.18461">
        <ele>1215.75</ele>
        <time>2017-07-31T08:48:24Z</time>
      </trkpt>
      <trkpt lat="43.02409" lon="-0.18459">
        <ele>1215.61</ele>
        <time>2017-07-31T08:48:25Z</time>
      </trkpt>
      <trkpt lat="43.02414" lon="-0.18456">
        <ele>1215.65</ele>
        <time>2017-07-31T08:48:26Z</time>
      </trkpt>
      <trkpt lat="43.02417" lon="-0.18451">
        <ele>1215.69</ele>
        <time>2017-07-31T08:48:27Z</time>
      </trkpt>
      <trkpt lat="43.02421" lon="-0.18446">
        <ele>1215.89</ele>
        <time>2017-07-31T08:48:28Z</time>
      </trkpt>
      <trkpt lat="43.02428" lon="-0.18439">
        <ele>1215.94</ele>
        <time>2017-07-31T08:48:30Z</time>
      </trkpt>
      <trkpt lat="43.02431" lon="-0.18434">
        <ele>1215.93</ele>
        <time>2017-07-31T08:48:31Z</time>
      </trkpt>
      <trkpt lat="43.02434" lon="-0.18429">
        <ele>1215.92</ele>
        <time>2017-07-31T08:48:32Z</time>
      </trkpt>
      <trkpt lat="43.02441" lon="-0.18422">
        <ele>1215.88</ele>
        <time>2017-07-31T08:48:34Z</time>
      </trkpt>
      <trkpt lat="43.02444" lon="-0.18417">
        <ele>1215.68</ele>
        <time>2017-07-31T08:48:35Z</time>
      </trkpt>
      <trkpt lat="43.02453" lon="-0.18414">
        <ele>1211.96</ele>
        <time>2017-07-31T08:48:37Z</time>
      </trkpt>
      <trkpt lat="43.0246" lon="-0.18412">
        <ele>1210.95</ele>
        <time>2017-07-31T08:48:39Z</time>
      </trkpt>
      <trkpt lat="43.02465" lon="-0.18406">
        <ele>1207.66</ele>
        <time>2017-07-31T08:48:41Z</time>
      </trkpt>
      <trkpt lat="43.02468" lon="-0.18391">
        <ele>1205.99</ele>
        <time>2017-07-31T08:48:43Z</time>
      </trkpt>
      <trkpt lat="43.02468" lon="-0.18385">
        <ele>1203.21</ele>
        <time>2017-07-31T08:48:44Z</time>
      </trkpt>
      <trkpt lat="43.02469" lon="-0.18378">
        <ele>1199.97</ele>
        <time>2017-07-31T08:48:45Z</time>
      </trkpt>
      <trkpt lat="43.02469" lon="-0.18368">
        <ele>1195.85</ele>
        <time>2017-07-31T08:48:47Z</time>
      </trkpt>
      <trkpt lat="43.02469" lon="-0.18358">
        <ele>1192.05</ele>
        <time>2017-07-31T08:48:49Z</time>
      </trkpt>
      <trkpt lat="43.02468" lon="-0.18346">
        <ele>1188.69</ele>
        <time>2017-07-31T08:48:51Z</time>
      </trkpt>
      <trkpt lat="43.02466" lon="-0.18335">
        <ele>1187.87</ele>
        <time>2017-07-31T08:48:53Z</time>
      </trkpt>
      <trkpt lat="43.02464" lon="-0.18324">
        <ele>1185.58</ele>
        <time>2017-07-31T08:48:55Z</time>
      </trkpt>
      <trkpt lat="43.02462" lon="-0.18313">
        <ele>1183.35</ele>
        <time>2017-07-31T08:48:57Z</time>
      </trkpt>
      <trkpt lat="43.0246" lon="-0.18307">
        <ele>1182.39</ele>
        <time>2017-07-31T08:48:58Z</time>
      </trkpt>
      <trkpt lat="43.02458" lon="-0.18301">
        <ele>1181.47</ele>
        <time>2017-07-31T08:48:59Z</time>
      </trkpt>
      <trkpt lat="43.02456" lon="-0.18295">
        <ele>1180.51</ele>
        <time>2017-07-31T08:49:00Z</time>
      </trkpt>
      <trkpt lat="43.02454" lon="-0.18289">
        <ele>1179.45</ele>
        <time>2017-07-31T08:49:01Z</time>
      </trkpt>
      <trkpt lat="43.02451" lon="-0.18278">
        <ele>1177.27</ele>
        <time>2017-07-31T08:49:03Z</time>
      </trkpt>
      <trkpt lat="43.02448" lon="-0.18273">
        <ele>1176.3</ele>
        <time>2017-07-31T08:49:04Z</time>
      </trkpt>
      <trkpt lat="43.02446" lon="-0.18268">
        <ele>1175.95</ele>
        <time>2017-07-31T08:49:05Z</time>
      </trkpt>
      <trkpt lat="43.02441" lon="-0.18258">
        <ele>1174.81</ele>
        <time>2017-07-31T08:49:07Z</time>
      </trkpt>
      <trkpt lat="43.02438" lon="-0.18248">
        <ele>1174.22</ele>
        <time>2017-07-31T08:49:09Z</time>
      </trkpt>
      <trkpt lat="43.02434" lon="-0.18238">
        <ele>1173.01</ele>
        <time>2017-07-31T08:49:11Z</time>
      </trkpt>
      <trkpt lat="43.02432" lon="-0.18232">
        <ele>1171.89</ele>
        <time>2017-07-31T08:49:12Z</time>
      </trkpt>
      <trkpt lat="43.02429" lon="-0.18225">
        <ele>1170.88</ele>
        <time>2017-07-31T08:49:13Z</time>
      </trkpt>
      <trkpt lat="43.02426" lon="-0.1822">
        <ele>1170.11</ele>
        <time>2017-07-31T08:49:14Z</time>
      </trkpt>
      <trkpt lat="43.02422" lon="-0.18216">
        <ele>1169.52</ele>
        <time>2017-07-31T08:49:15Z</time>
      </trkpt>
      <trkpt lat="43.02414" lon="-0.1821">
        <ele>1168.93</ele>
        <time>2017-07-31T08:49:17Z</time>
      </trkpt>
      <trkpt lat="43.02407" lon="-0.18204">
        <ele>1168.78</ele>
        <time>2017-07-31T08:49:19Z</time>
      </trkpt>
      <trkpt lat="43.024" lon="-0.18197">
        <ele>1168.77</ele>
        <time>2017-07-31T08:49:21Z</time>
      </trkpt>
      <trkpt lat="43.02397" lon="-0.18193">
        <ele>1168.77</ele>
        <time>2017-07-31T08:49:22Z</time>
      </trkpt>
      <trkpt lat="43.0239" lon="-0.18186">
        <ele>1168.74</ele>
        <time>2017-07-31T08:49:24Z</time>
      </trkpt>
      <trkpt lat="43.02384" lon="-0.18182">
        <ele>1168.67</ele>
        <time>2017-07-31T08:49:26Z</time>
      </trkpt>
      <trkpt lat="43.02379" lon="-0.18178">
        <ele>1168.62</ele>
        <time>2017-07-31T08:49:28Z</time>
      </trkpt>
      <trkpt lat="43.02373" lon="-0.18174">
        <ele>1168.55</ele>
        <time>2017-07-31T08:49:30Z</time>
      </trkpt>
      <trkpt lat="43.02367" lon="-0.1817">
        <ele>1168.47</ele>
        <time>2017-07-31T08:49:32Z</time>
      </trkpt>
      <trkpt lat="43.02361" lon="-0.18167">
        <ele>1168.38</ele>
        <time>2017-07-31T08:49:34Z</time>
      </trkpt>
      <trkpt lat="43.02354" lon="-0.18162">
        <ele>1168.25</ele>
        <time>2017-07-31T08:49:36Z</time>
      </trkpt>
      <trkpt lat="43.02349" lon="-0.18159">
        <ele>1168.1</ele>
        <time>2017-07-31T08:49:38Z</time>
      </trkpt>
      <trkpt lat="43.02344" lon="-0.18156">
        <ele>1167.87</ele>
        <time>2017-07-31T08:49:41Z</time>
      </trkpt>
      <trkpt lat="43.02339" lon="-0.18154">
        <ele>1167.67</ele>
        <time>2017-07-31T08:49:44Z</time>
      </trkpt>
      <trkpt lat="43.02337" lon="-0.18147">
        <ele>1167.15</ele>
        <time>2017-07-31T08:50:04Z</time>
      </trkpt>
      <trkpt lat="43.02342" lon="-0.18138">
        <ele>1166.39</ele>
        <time>2017-07-31T08:50:06Z</time>
      </trkpt>
      <trkpt lat="43.02343" lon="-0.18131">
        <ele>1165.57</ele>
        <time>2017-07-31T08:50:07Z</time>
      </trkpt>
      <trkpt lat="43.02344" lon="-0.18124">
        <ele>1164.78</ele>
        <time>2017-07-31T08:50:08Z</time>
      </trkpt>
      <trkpt lat="43.02346" lon="-0.18117">
        <ele>1164.01</ele>
        <time>2017-07-31T08:50:09Z</time>
      </trkpt>
      <trkpt lat="43.02348" lon="-0.1811">
        <ele>1163.24</ele>
        <time>2017-07-31T08:50:10Z</time>
      </trkpt>
      <trkpt lat="43.0235" lon="-0.18103">
        <ele>1162.46</ele>
        <time>2017-07-31T08:50:11Z</time>
      </trkpt>
      <trkpt lat="43.02351" lon="-0.18096">
        <ele>1161.76</ele>
        <time>2017-07-31T08:50:12Z</time>
      </trkpt>
      <trkpt lat="43.02354" lon="-0.1809">
        <ele>1161.12</ele>
        <time>2017-07-31T08:50:13Z</time>
      </trkpt>
      <trkpt lat="43.02357" lon="-0.18083">
        <ele>1160.53</ele>
        <time>2017-07-31T08:50:14Z</time>
      </trkpt>
      <trkpt lat="43.0236" lon="-0.18077">
        <ele>1159.97</ele>
        <time>2017-07-31T08:50:15Z</time>
      </trkpt>
      <trkpt lat="43.02363" lon="-0.18071">
        <ele>1159.49</ele>
        <time>2017-07-31T08:50:16Z</time>
      </trkpt>
      <trkpt lat="43.02366" lon="-0.18065">
        <ele>1159.16</ele>
        <time>2017-07-31T08:50:17Z</time>
      </trkpt>
      <trkpt lat="43.0237" lon="-0.18059">
        <ele>1158.76</ele>
        <time>2017-07-31T08:50:18Z</time>
      </trkpt>
      <trkpt lat="43.02374" lon="-0.18052">
        <ele>1158.28</ele>
        <time>2017-07-31T08:50:19Z</time>
      </trkpt>
      <trkpt lat="43.02379" lon="-0.18046">
        <ele>1157.83</ele>
        <time>2017-07-31T08:50:20Z</time>
      </trkpt>
      <trkpt lat="43.02383" lon="-0.1804">
        <ele>1157.46</ele>
        <time>2017-07-31T08:50:21Z</time>
      </trkpt>
      <trkpt lat="43.02388" lon="-0.18033">
        <ele>1157.09</ele>
        <time>2017-07-31T08:50:22Z</time>
      </trkpt>
      <trkpt lat="43.02393" lon="-0.18027">
        <ele>1156.6</ele>
        <time>2017-07-31T08:50:23Z</time>
      </trkpt>
      <trkpt lat="43.02398" lon="-0.18021">
        <ele>1156.22</ele>
        <time>2017-07-31T08:50:24Z</time>
      </trkpt>
      <trkpt lat="43.02403" lon="-0.18016">
        <ele>1155.78</ele>
        <time>2017-07-31T08:50:25Z</time>
      </trkpt>
      <trkpt lat="43.02408" lon="-0.1801">
        <ele>1154.7</ele>
        <time>2017-07-31T08:50:26Z</time>
      </trkpt>
      <trkpt lat="43.02414" lon="-0.18003">
        <ele>1153.47</ele>
        <time>2017-07-31T08:50:27Z</time>
      </trkpt>
      <trkpt lat="43.02419" lon="-0.17997">
        <ele>1152.38</ele>
        <time>2017-07-31T08:50:28Z</time>
      </trkpt>
      <trkpt lat="43.02424" lon="-0.1799">
        <ele>1151.19</ele>
        <time>2017-07-31T08:50:29Z</time>
      </trkpt>
      <trkpt lat="43.02429" lon="-0.17984">
        <ele>1149.78</ele>
        <time>2017-07-31T08:50:30Z</time>
      </trkpt>
      <trkpt lat="43.02434" lon="-0.17978">
        <ele>1148.41</ele>
        <time>2017-07-31T08:50:31Z</time>
      </trkpt>
      <trkpt lat="43.02439" lon="-0.17973">
        <ele>1146.9</ele>
        <time>2017-07-31T08:50:32Z</time>
      </trkpt>
      <trkpt lat="43.02446" lon="-0.17969">
        <ele>1145.37</ele>
        <time>2017-07-31T08:50:33Z</time>
      </trkpt>
      <trkpt lat="43.02451" lon="-0.17967">
        <ele>1143.81</ele>
        <time>2017-07-31T08:50:34Z</time>
      </trkpt>
      <trkpt lat="43.02457" lon="-0.17967">
        <ele>1142.34</ele>
        <time>2017-07-31T08:50:35Z</time>
      </trkpt>
      <trkpt lat="43.02463" lon="-0.17967">
        <ele>1140.83</ele>
        <time>2017-07-31T08:50:36Z</time>
      </trkpt>
      <trkpt lat="43.02469" lon="-0.17966">
        <ele>1139.36</ele>
        <time>2017-07-31T08:50:37Z</time>
      </trkpt>
      <trkpt lat="43.02475" lon="-0.17964">
        <ele>1137.86</ele>
        <time>2017-07-31T08:50:38Z</time>
      </trkpt>
      <trkpt lat="43.0248" lon="-0.1796">
        <ele>1136.49</ele>
        <time>2017-07-31T08:50:39Z</time>
      </trkpt>
      <trkpt lat="43.02482" lon="-0.17954">
        <ele>1135.53</ele>
        <time>2017-07-31T08:50:40Z</time>
      </trkpt>
      <trkpt lat="43.0248" lon="-0.17945">
        <ele>1134.87</ele>
        <time>2017-07-31T08:50:42Z</time>
      </trkpt>
      <trkpt lat="43.02477" lon="-0.17939">
        <ele>1134.85</ele>
        <time>2017-07-31T08:50:43Z</time>
      </trkpt>
      <trkpt lat="43.02473" lon="-0.17932">
        <ele>1135.06</ele>
        <time>2017-07-31T08:50:44Z</time>
      </trkpt>
      <trkpt lat="43.0247" lon="-0.17923">
        <ele>1135.34</ele>
        <time>2017-07-31T08:50:45Z</time>
      </trkpt>
      <trkpt lat="43.02466" lon="-0.17916">
        <ele>1135.74</ele>
        <time>2017-07-31T08:50:46Z</time>
      </trkpt>
      <trkpt lat="43.02464" lon="-0.17908">
        <ele>1136.36</ele>
        <time>2017-07-31T08:50:47Z</time>
      </trkpt>
      <trkpt lat="43.02461" lon="-0.179">
        <ele>1137.17</ele>
        <time>2017-07-31T08:50:48Z</time>
      </trkpt>
      <trkpt lat="43.02457" lon="-0.17893">
        <ele>1137.45</ele>
        <time>2017-07-31T08:50:49Z</time>
      </trkpt>
      <trkpt lat="43.02453" lon="-0.17886">
        <ele>1137</ele>
        <time>2017-07-31T08:50:50Z</time>
      </trkpt>
      <trkpt lat="43.0245" lon="-0.17878">
        <ele>1136.16</ele>
        <time>2017-07-31T08:50:51Z</time>
      </trkpt>
      <trkpt lat="43.02447" lon="-0.1787">
        <ele>1135.11</ele>
        <time>2017-07-31T08:50:52Z</time>
      </trkpt>
      <trkpt lat="43.02445" lon="-0.17861">
        <ele>1133.95</ele>
        <time>2017-07-31T08:50:53Z</time>
      </trkpt>
      <trkpt lat="43.02444" lon="-0.17852">
        <ele>1132.71</ele>
        <time>2017-07-31T08:50:54Z</time>
      </trkpt>
      <trkpt lat="43.02444" lon="-0.17843">
        <ele>1131.42</ele>
        <time>2017-07-31T08:50:55Z</time>
      </trkpt>
      <trkpt lat="43.02443" lon="-0.17835">
        <ele>1130.11</ele>
        <time>2017-07-31T08:50:56Z</time>
      </trkpt>
      <trkpt lat="43.02442" lon="-0.17826">
        <ele>1128.82</ele>
        <time>2017-07-31T08:50:57Z</time>
      </trkpt>
      <trkpt lat="43.02441" lon="-0.17817">
        <ele>1127.55</ele>
        <time>2017-07-31T08:50:58Z</time>
      </trkpt>
      <trkpt lat="43.02441" lon="-0.17809">
        <ele>1126.33</ele>
        <time>2017-07-31T08:50:59Z</time>
      </trkpt>
      <trkpt lat="43.02441" lon="-0.17799">
        <ele>1125.67</ele>
        <time>2017-07-31T08:51:01Z</time>
      </trkpt>
      <trkpt lat="43.02439" lon="-0.17791">
        <ele>1125.36</ele>
        <time>2017-07-31T08:51:03Z</time>
      </trkpt>
      <trkpt lat="43.02436" lon="-0.17784">
        <ele>1124.03</ele>
        <time>2017-07-31T08:51:34Z</time>
      </trkpt>
      <trkpt lat="43.02435" lon="-0.17776">
        <ele>1123.46</ele>
        <time>2017-07-31T08:51:37Z</time>
      </trkpt>
      <trkpt lat="43.02435" lon="-0.17769">
        <ele>1122.91</ele>
        <time>2017-07-31T08:51:40Z</time>
      </trkpt>
      <trkpt lat="43.02436" lon="-0.17763">
        <ele>1122.57</ele>
        <time>2017-07-31T08:51:42Z</time>
      </trkpt>
      <trkpt lat="43.02435" lon="-0.17756">
        <ele>1122.24</ele>
        <time>2017-07-31T08:51:44Z</time>
      </trkpt>
      <trkpt lat="43.02435" lon="-0.17749">
        <ele>1121.95</ele>
        <time>2017-07-31T08:51:46Z</time>
      </trkpt>
      <trkpt lat="43.02435" lon="-0.17742">
        <ele>1121.68</ele>
        <time>2017-07-31T08:51:48Z</time>
      </trkpt>
      <trkpt lat="43.02435" lon="-0.17735">
        <ele>1121.45</ele>
        <time>2017-07-31T08:51:50Z</time>
      </trkpt>
      <trkpt lat="43.02434" lon="-0.17729">
        <ele>1121.27</ele>
        <time>2017-07-31T08:51:52Z</time>
      </trkpt>
      <trkpt lat="43.02433" lon="-0.17721">
        <ele>1121.13</ele>
        <time>2017-07-31T08:51:54Z</time>
      </trkpt>
      <trkpt lat="43.02434" lon="-0.17714">
        <ele>1121.03</ele>
        <time>2017-07-31T08:51:56Z</time>
      </trkpt>
      <trkpt lat="43.02433" lon="-0.17706">
        <ele>1120.97</ele>
        <time>2017-07-31T08:51:58Z</time>
      </trkpt>
      <trkpt lat="43.02433" lon="-0.17698">
        <ele>1120.95</ele>
        <time>2017-07-31T08:52:00Z</time>
      </trkpt>
      <trkpt lat="43.02434" lon="-0.17691">
        <ele>1120.97</ele>
        <time>2017-07-31T08:52:02Z</time>
      </trkpt>
      <trkpt lat="43.02434" lon="-0.17683">
        <ele>1121.04</ele>
        <time>2017-07-31T08:52:04Z</time>
      </trkpt>
      <trkpt lat="43.02434" lon="-0.17676">
        <ele>1121.15</ele>
        <time>2017-07-31T08:52:06Z</time>
      </trkpt>
      <trkpt lat="43.02435" lon="-0.17668">
        <ele>1121.31</ele>
        <time>2017-07-31T08:52:08Z</time>
      </trkpt>
      <trkpt lat="43.02435" lon="-0.17659">
        <ele>1121.5</ele>
        <time>2017-07-31T08:52:10Z</time>
      </trkpt>
      <trkpt lat="43.02434" lon="-0.1765">
        <ele>1121.7</ele>
        <time>2017-07-31T08:52:12Z</time>
      </trkpt>
      <trkpt lat="43.02432" lon="-0.17642">
        <ele>1121.91</ele>
        <time>2017-07-31T08:52:14Z</time>
      </trkpt>
      <trkpt lat="43.02428" lon="-0.17636">
        <ele>1122.13</ele>
        <time>2017-07-31T08:52:16Z</time>
      </trkpt>
      <trkpt lat="43.02423" lon="-0.17631">
        <ele>1122.37</ele>
        <time>2017-07-31T08:52:18Z</time>
      </trkpt>
      <trkpt lat="43.0242" lon="-0.17626">
        <ele>1122.6</ele>
        <time>2017-07-31T08:52:20Z</time>
      </trkpt>
      <trkpt lat="43.02419" lon="-0.17618">
        <ele>1122.84</ele>
        <time>2017-07-31T08:52:22Z</time>
      </trkpt>
      <trkpt lat="43.02419" lon="-0.1761">
        <ele>1123.08</ele>
        <time>2017-07-31T08:52:24Z</time>
      </trkpt>
      <trkpt lat="43.0242" lon="-0.17603">
        <ele>1123.32</ele>
        <time>2017-07-31T08:52:26Z</time>
      </trkpt>
      <trkpt lat="43.02423" lon="-0.17596">
        <ele>1123.58</ele>
        <time>2017-07-31T08:52:28Z</time>
      </trkpt>
      <trkpt lat="43.02425" lon="-0.1759">
        <ele>1123.85</ele>
        <time>2017-07-31T08:52:30Z</time>
      </trkpt>
      <trkpt lat="43.02427" lon="-0.17584">
        <ele>1124.13</ele>
        <time>2017-07-31T08:52:32Z</time>
      </trkpt>
      <trkpt lat="43.02429" lon="-0.17578">
        <ele>1124.43</ele>
        <time>2017-07-31T08:52:34Z</time>
      </trkpt>
      <trkpt lat="43.02432" lon="-0.17571">
        <ele>1124.74</ele>
        <time>2017-07-31T08:52:36Z</time>
      </trkpt>
      <trkpt lat="43.02435" lon="-0.17565">
        <ele>1125.04</ele>
        <time>2017-07-31T08:52:38Z</time>
      </trkpt>
      <trkpt lat="43.02437" lon="-0.17559">
        <ele>1125.36</ele>
        <time>2017-07-31T08:52:40Z</time>
      </trkpt>
      <trkpt lat="43.0244" lon="-0.17552">
        <ele>1125.71</ele>
        <time>2017-07-31T08:52:42Z</time>
      </trkpt>
      <trkpt lat="43.02443" lon="-0.17545">
        <ele>1126.06</ele>
        <time>2017-07-31T08:52:44Z</time>
      </trkpt>
      <trkpt lat="43.02447" lon="-0.17539">
        <ele>1126.44</ele>
        <time>2017-07-31T08:52:46Z</time>
      </trkpt>
      <trkpt lat="43.0245" lon="-0.17533">
        <ele>1126.85</ele>
        <time>2017-07-31T08:52:48Z</time>
      </trkpt>
      <trkpt lat="43.02453" lon="-0.17526">
        <ele>1127.27</ele>
        <time>2017-07-31T08:52:50Z</time>
      </trkpt>
      <trkpt lat="43.02457" lon="-0.17519">
        <ele>1127.71</ele>
        <time>2017-07-31T08:52:52Z</time>
      </trkpt>
      <trkpt lat="43.0246" lon="-0.17512">
        <ele>1128.14</ele>
        <time>2017-07-31T08:52:54Z</time>
      </trkpt>
      <trkpt lat="43.02464" lon="-0.17506">
        <ele>1128.56</ele>
        <time>2017-07-31T08:52:56Z</time>
      </trkpt>
      <trkpt lat="43.02468" lon="-0.17501">
        <ele>1129</ele>
        <time>2017-07-31T08:52:58Z</time>
      </trkpt>
      <trkpt lat="43.02473" lon="-0.17497">
        <ele>1129.45</ele>
        <time>2017-07-31T08:53:00Z</time>
      </trkpt>
      <trkpt lat="43.02478" lon="-0.17494">
        <ele>1129.9</ele>
        <time>2017-07-31T08:53:02Z</time>
      </trkpt>
      <trkpt lat="43.02483" lon="-0.17491">
        <ele>1130.34</ele>
        <time>2017-07-31T08:53:04Z</time>
      </trkpt>
      <trkpt lat="43.02489" lon="-0.17488">
        <ele>1130.78</ele>
        <time>2017-07-31T08:53:06Z</time>
      </trkpt>
      <trkpt lat="43.02493" lon="-0.17485">
        <ele>1131.26</ele>
        <time>2017-07-31T08:53:08Z</time>
      </trkpt>
      <trkpt lat="43.02498" lon="-0.17479">
        <ele>1132.04</ele>
        <time>2017-07-31T08:53:11Z</time>
      </trkpt>
      <trkpt lat="43.02502" lon="-0.17476">
        <ele>1132.58</ele>
        <time>2017-07-31T08:53:13Z</time>
      </trkpt>
      <trkpt lat="43.02505" lon="-0.17472">
        <ele>1133.16</ele>
        <time>2017-07-31T08:53:15Z</time>
      </trkpt>
      <trkpt lat="43.0251" lon="-0.17465">
        <ele>1133.76</ele>
        <time>2017-07-31T08:53:17Z</time>
      </trkpt>
      <trkpt lat="43.02514" lon="-0.1746">
        <ele>1134.37</ele>
        <time>2017-07-31T08:53:19Z</time>
      </trkpt>
      <trkpt lat="43.02518" lon="-0.17452">
        <ele>1134.98</ele>
        <time>2017-07-31T08:53:21Z</time>
      </trkpt>
      <trkpt lat="43.02521" lon="-0.17446">
        <ele>1135.6</ele>
        <time>2017-07-31T08:53:23Z</time>
      </trkpt>
      <trkpt lat="43.02523" lon="-0.1744">
        <ele>1136.25</ele>
        <time>2017-07-31T08:53:25Z</time>
      </trkpt>
      <trkpt lat="43.02527" lon="-0.17433">
        <ele>1136.88</ele>
        <time>2017-07-31T08:53:27Z</time>
      </trkpt>
      <trkpt lat="43.0253" lon="-0.17428">
        <ele>1137.53</ele>
        <time>2017-07-31T08:53:29Z</time>
      </trkpt>
      <trkpt lat="43.02533" lon="-0.17421">
        <ele>1138.2</ele>
        <time>2017-07-31T08:53:31Z</time>
      </trkpt>
      <trkpt lat="43.02536" lon="-0.17412">
        <ele>1138.85</ele>
        <time>2017-07-31T08:53:33Z</time>
      </trkpt>
      <trkpt lat="43.02539" lon="-0.17404">
        <ele>1139.51</ele>
        <time>2017-07-31T08:53:35Z</time>
      </trkpt>
      <trkpt lat="43.02541" lon="-0.17395">
        <ele>1140.18</ele>
        <time>2017-07-31T08:53:37Z</time>
      </trkpt>
      <trkpt lat="43.02543" lon="-0.17386">
        <ele>1141.34</ele>
        <time>2017-07-31T08:53:40Z</time>
      </trkpt>
      <trkpt lat="43.02546" lon="-0.17377">
        <ele>1142.17</ele>
        <time>2017-07-31T08:53:42Z</time>
      </trkpt>
      <trkpt lat="43.02549" lon="-0.1737">
        <ele>1143.01</ele>
        <time>2017-07-31T08:53:44Z</time>
      </trkpt>
      <trkpt lat="43.02552" lon="-0.17361">
        <ele>1144.26</ele>
        <time>2017-07-31T08:53:47Z</time>
      </trkpt>
      <trkpt lat="43.02557" lon="-0.17354">
        <ele>1145.06</ele>
        <time>2017-07-31T08:53:49Z</time>
      </trkpt>
      <trkpt lat="43.0256" lon="-0.17347">
        <ele>1145.82</ele>
        <time>2017-07-31T08:53:51Z</time>
      </trkpt>
      <trkpt lat="43.02562" lon="-0.17341">
        <ele>1146.56</ele>
        <time>2017-07-31T08:53:53Z</time>
      </trkpt>
      <trkpt lat="43.02565" lon="-0.17333">
        <ele>1147.66</ele>
        <time>2017-07-31T08:53:56Z</time>
      </trkpt>
      <trkpt lat="43.02569" lon="-0.17325">
        <ele>1148.92</ele>
        <time>2017-07-31T08:53:59Z</time>
      </trkpt>
      <trkpt lat="43.02572" lon="-0.17317">
        <ele>1149.82</ele>
        <time>2017-07-31T08:54:01Z</time>
      </trkpt>
      <trkpt lat="43.02577" lon="-0.17309">
        <ele>1150.64</ele>
        <time>2017-07-31T08:54:03Z</time>
      </trkpt>
      <trkpt lat="43.02582" lon="-0.17303">
        <ele>1151.33</ele>
        <time>2017-07-31T08:54:05Z</time>
      </trkpt>
      <trkpt lat="43.02588" lon="-0.17298">
        <ele>1151.92</ele>
        <time>2017-07-31T08:54:07Z</time>
      </trkpt>
      <trkpt lat="43.02594" lon="-0.17294">
        <ele>1152.41</ele>
        <time>2017-07-31T08:54:09Z</time>
      </trkpt>
      <trkpt lat="43.02601" lon="-0.1729">
        <ele>1152.82</ele>
        <time>2017-07-31T08:54:11Z</time>
      </trkpt>
      <trkpt lat="43.02608" lon="-0.17285">
        <ele>1153.16</ele>
        <time>2017-07-31T08:54:13Z</time>
      </trkpt>
      <trkpt lat="43.02614" lon="-0.17278">
        <ele>1153.44</ele>
        <time>2017-07-31T08:54:15Z</time>
      </trkpt>
      <trkpt lat="43.0262" lon="-0.17271">
        <ele>1153.65</ele>
        <time>2017-07-31T08:54:17Z</time>
      </trkpt>
      <trkpt lat="43.02623" lon="-0.17267">
        <ele>1153.75</ele>
        <time>2017-07-31T08:54:18Z</time>
      </trkpt>
      <trkpt lat="43.02629" lon="-0.17258">
        <ele>1153.93</ele>
        <time>2017-07-31T08:54:20Z</time>
      </trkpt>
      <trkpt lat="43.02634" lon="-0.17251">
        <ele>1154.09</ele>
        <time>2017-07-31T08:54:22Z</time>
      </trkpt>
      <trkpt lat="43.02638" lon="-0.17246">
        <ele>1154.18</ele>
        <time>2017-07-31T08:54:23Z</time>
      </trkpt>
      <trkpt lat="43.02641" lon="-0.17242">
        <ele>1154.26</ele>
        <time>2017-07-31T08:54:24Z</time>
      </trkpt>
      <trkpt lat="43.02646" lon="-0.17237">
        <ele>1154.42</ele>
        <time>2017-07-31T08:54:26Z</time>
      </trkpt>
      <trkpt lat="43.02651" lon="-0.17231">
        <ele>1154.58</ele>
        <time>2017-07-31T08:54:28Z</time>
      </trkpt>
      <trkpt lat="43.02656" lon="-0.17226">
        <ele>1154.77</ele>
        <time>2017-07-31T08:54:30Z</time>
      </trkpt>
      <trkpt lat="43.02662" lon="-0.1722">
        <ele>1154.99</ele>
        <time>2017-07-31T08:54:32Z</time>
      </trkpt>
      <trkpt lat="43.02667" lon="-0.17213">
        <ele>1155.26</ele>
        <time>2017-07-31T08:54:34Z</time>
      </trkpt>
      <trkpt lat="43.02672" lon="-0.17208">
        <ele>1155.61</ele>
        <time>2017-07-31T08:54:36Z</time>
      </trkpt>
      <trkpt lat="43.02678" lon="-0.17203">
        <ele>1156.04</ele>
        <time>2017-07-31T08:54:38Z</time>
      </trkpt>
      <trkpt lat="43.02682" lon="-0.17198">
        <ele>1156.62</ele>
        <time>2017-07-31T08:54:40Z</time>
      </trkpt>
      <trkpt lat="43.02685" lon="-0.17191">
        <ele>1157.36</ele>
        <time>2017-07-31T08:54:42Z</time>
      </trkpt>
      <trkpt lat="43.02688" lon="-0.17181">
        <ele>1158.2</ele>
        <time>2017-07-31T08:54:44Z</time>
      </trkpt>
      <trkpt lat="43.0269" lon="-0.17169">
        <ele>1158.97</ele>
        <time>2017-07-31T08:54:46Z</time>
      </trkpt>
      <trkpt lat="43.0269" lon="-0.17159">
        <ele>1159.61</ele>
        <time>2017-07-31T08:54:48Z</time>
      </trkpt>
      <trkpt lat="43.02689" lon="-0.1715">
        <ele>1160.16</ele>
        <time>2017-07-31T08:54:50Z</time>
      </trkpt>
      <trkpt lat="43.02688" lon="-0.17144">
        <ele>1160.65</ele>
        <time>2017-07-31T08:54:52Z</time>
      </trkpt>
      <trkpt lat="43.02687" lon="-0.17136">
        <ele>1161.09</ele>
        <time>2017-07-31T08:54:54Z</time>
      </trkpt>
      <trkpt lat="43.02685" lon="-0.1713">
        <ele>1161.51</ele>
        <time>2017-07-31T08:54:56Z</time>
      </trkpt>
      <trkpt lat="43.02682" lon="-0.17122">
        <ele>1161.94</ele>
        <time>2017-07-31T08:54:58Z</time>
      </trkpt>
      <trkpt lat="43.02679" lon="-0.17116">
        <ele>1162.71</ele>
        <time>2017-07-31T08:55:01Z</time>
      </trkpt>
      <trkpt lat="43.02674" lon="-0.17105">
        <ele>1163.27</ele>
        <time>2017-07-31T08:55:03Z</time>
      </trkpt>
      <trkpt lat="43.0267" lon="-0.17097">
        <ele>1165.11</ele>
        <time>2017-07-31T08:55:04Z</time>
      </trkpt>
      <trkpt lat="43.02667" lon="-0.17091">
        <ele>1166.91</ele>
        <time>2017-07-31T08:55:05Z</time>
      </trkpt>
      <trkpt lat="43.02663" lon="-0.17082">
        <ele>1167.8</ele>
        <time>2017-07-31T08:55:07Z</time>
      </trkpt>
      <trkpt lat="43.0266" lon="-0.17075">
        <ele>1168.36</ele>
        <time>2017-07-31T08:55:08Z</time>
      </trkpt>
      <trkpt lat="43.02656" lon="-0.17067">
        <ele>1168.52</ele>
        <time>2017-07-31T08:55:09Z</time>
      </trkpt>
      <trkpt lat="43.02654" lon="-0.17057">
        <ele>1168.56</ele>
        <time>2017-07-31T08:55:11Z</time>
      </trkpt>
      <trkpt lat="43.02649" lon="-0.17045">
        <ele>1168.05</ele>
        <time>2017-07-31T08:55:13Z</time>
      </trkpt>
      <trkpt lat="43.02646" lon="-0.17037">
        <ele>1167.82</ele>
        <time>2017-07-31T08:55:14Z</time>
      </trkpt>
      <trkpt lat="43.02643" lon="-0.17025">
        <ele>1165.91</ele>
        <time>2017-07-31T08:55:16Z</time>
      </trkpt>
      <trkpt lat="43.02642" lon="-0.17019">
        <ele>1165.5</ele>
        <time>2017-07-31T08:55:17Z</time>
      </trkpt>
      <trkpt lat="43.02641" lon="-0.17009">
        <ele>1165.12</ele>
        <time>2017-07-31T08:55:19Z</time>
      </trkpt>
      <trkpt lat="43.02641" lon="-0.17">
        <ele>1164.8</ele>
        <time>2017-07-31T08:55:21Z</time>
      </trkpt>
      <trkpt lat="43.0264" lon="-0.16993">
        <ele>1164.46</ele>
        <time>2017-07-31T08:55:23Z</time>
      </trkpt>
      <trkpt lat="43.0264" lon="-0.16984">
        <ele>1164.18</ele>
        <time>2017-07-31T08:55:25Z</time>
      </trkpt>
      <trkpt lat="43.0264" lon="-0.16975">
        <ele>1163.98</ele>
        <time>2017-07-31T08:55:27Z</time>
      </trkpt>
      <trkpt lat="43.0264" lon="-0.16964">
        <ele>1163.86</ele>
        <time>2017-07-31T08:55:29Z</time>
      </trkpt>
      <trkpt lat="43.02642" lon="-0.16954">
        <ele>1163.74</ele>
        <time>2017-07-31T08:55:31Z</time>
      </trkpt>
      <trkpt lat="43.02643" lon="-0.16944">
        <ele>1163.63</ele>
        <time>2017-07-31T08:55:33Z</time>
      </trkpt>
      <trkpt lat="43.02645" lon="-0.16934">
        <ele>1163.53</ele>
        <time>2017-07-31T08:55:35Z</time>
      </trkpt>
      <trkpt lat="43.02647" lon="-0.16923">
        <ele>1163.49</ele>
        <time>2017-07-31T08:55:37Z</time>
      </trkpt>
      <trkpt lat="43.02649" lon="-0.16913">
        <ele>1163.52</ele>
        <time>2017-07-31T08:55:39Z</time>
      </trkpt>
      <trkpt lat="43.0265" lon="-0.16905">
        <ele>1163.62</ele>
        <time>2017-07-31T08:55:41Z</time>
      </trkpt>
      <trkpt lat="43.02654" lon="-0.16894">
        <ele>1163.73</ele>
        <time>2017-07-31T08:55:43Z</time>
      </trkpt>
      <trkpt lat="43.02657" lon="-0.16883">
        <ele>1163.85</ele>
        <time>2017-07-31T08:55:45Z</time>
      </trkpt>
      <trkpt lat="43.02659" lon="-0.16875">
        <ele>1163.99</ele>
        <time>2017-07-31T08:55:47Z</time>
      </trkpt>
      <trkpt lat="43.02661" lon="-0.16865">
        <ele>1164.13</ele>
        <time>2017-07-31T08:55:49Z</time>
      </trkpt>
      <trkpt lat="43.02663" lon="-0.16857">
        <ele>1164.26</ele>
        <time>2017-07-31T08:55:51Z</time>
      </trkpt>
      <trkpt lat="43.02664" lon="-0.16848">
        <ele>1164.4</ele>
        <time>2017-07-31T08:55:53Z</time>
      </trkpt>
      <trkpt lat="43.02665" lon="-0.1684">
        <ele>1164.61</ele>
        <time>2017-07-31T08:55:55Z</time>
      </trkpt>
      <trkpt lat="43.02666" lon="-0.16831">
        <ele>1164.92</ele>
        <time>2017-07-31T08:55:57Z</time>
      </trkpt>
      <trkpt lat="43.02668" lon="-0.16823">
        <ele>1165.28</ele>
        <time>2017-07-31T08:55:59Z</time>
      </trkpt>
      <trkpt lat="43.02669" lon="-0.16814">
        <ele>1165.63</ele>
        <time>2017-07-31T08:56:01Z</time>
      </trkpt>
      <trkpt lat="43.0267" lon="-0.16806">
        <ele>1166.03</ele>
        <time>2017-07-31T08:56:03Z</time>
      </trkpt>
      <trkpt lat="43.02672" lon="-0.16796">
        <ele>1166.45</ele>
        <time>2017-07-31T08:56:05Z</time>
      </trkpt>
      <trkpt lat="43.02673" lon="-0.16786">
        <ele>1166.89</ele>
        <time>2017-07-31T08:56:07Z</time>
      </trkpt>
      <trkpt lat="43.02675" lon="-0.16777">
        <ele>1167.36</ele>
        <time>2017-07-31T08:56:09Z</time>
      </trkpt>
      <trkpt lat="43.02678" lon="-0.16768">
        <ele>1167.83</ele>
        <time>2017-07-31T08:56:11Z</time>
      </trkpt>
      <trkpt lat="43.0268" lon="-0.1676">
        <ele>1168.32</ele>
        <time>2017-07-31T08:56:13Z</time>
      </trkpt>
      <trkpt lat="43.02682" lon="-0.16752">
        <ele>1168.81</ele>
        <time>2017-07-31T08:56:15Z</time>
      </trkpt>
      <trkpt lat="43.02684" lon="-0.16744">
        <ele>1169.32</ele>
        <time>2017-07-31T08:56:17Z</time>
      </trkpt>
      <trkpt lat="43.02686" lon="-0.16735">
        <ele>1169.83</ele>
        <time>2017-07-31T08:56:19Z</time>
      </trkpt>
      <trkpt lat="43.02689" lon="-0.16726">
        <ele>1170.34</ele>
        <time>2017-07-31T08:56:21Z</time>
      </trkpt>
      <trkpt lat="43.02691" lon="-0.16717">
        <ele>1170.83</ele>
        <time>2017-07-31T08:56:23Z</time>
      </trkpt>
      <trkpt lat="43.02693" lon="-0.16708">
        <ele>1171.33</ele>
        <time>2017-07-31T08:56:25Z</time>
      </trkpt>
      <trkpt lat="43.02696" lon="-0.167">
        <ele>1171.81</ele>
        <time>2017-07-31T08:56:27Z</time>
      </trkpt>
      <trkpt lat="43.02698" lon="-0.16692">
        <ele>1172.3</ele>
        <time>2017-07-31T08:56:29Z</time>
      </trkpt>
      <trkpt lat="43.02701" lon="-0.16684">
        <ele>1172.77</ele>
        <time>2017-07-31T08:56:31Z</time>
      </trkpt>
      <trkpt lat="43.02703" lon="-0.16676">
        <ele>1173.25</ele>
        <time>2017-07-31T08:56:33Z</time>
      </trkpt>
      <trkpt lat="43.02704" lon="-0.16668">
        <ele>1173.7</ele>
        <time>2017-07-31T08:56:35Z</time>
      </trkpt>
      <trkpt lat="43.02706" lon="-0.16659">
        <ele>1174.15</ele>
        <time>2017-07-31T08:56:37Z</time>
      </trkpt>
      <trkpt lat="43.02708" lon="-0.16651">
        <ele>1174.59</ele>
        <time>2017-07-31T08:56:39Z</time>
      </trkpt>
      <trkpt lat="43.02709" lon="-0.16644">
        <ele>1175.03</ele>
        <time>2017-07-31T08:56:41Z</time>
      </trkpt>
      <trkpt lat="43.02711" lon="-0.16636">
        <ele>1175.47</ele>
        <time>2017-07-31T08:56:43Z</time>
      </trkpt>
      <trkpt lat="43.02712" lon="-0.16628">
        <ele>1175.9</ele>
        <time>2017-07-31T08:56:45Z</time>
      </trkpt>
      <trkpt lat="43.02714" lon="-0.16621">
        <ele>1176.29</ele>
        <time>2017-07-31T08:56:47Z</time>
      </trkpt>
      <trkpt lat="43.02715" lon="-0.16614">
        <ele>1176.64</ele>
        <time>2017-07-31T08:56:49Z</time>
      </trkpt>
      <trkpt lat="43.02716" lon="-0.16607">
        <ele>1176.98</ele>
        <time>2017-07-31T08:56:51Z</time>
      </trkpt>
      <trkpt lat="43.02717" lon="-0.16599">
        <ele>1177.29</ele>
        <time>2017-07-31T08:56:53Z</time>
      </trkpt>
      <trkpt lat="43.02718" lon="-0.16591">
        <ele>1177.6</ele>
        <time>2017-07-31T08:56:55Z</time>
      </trkpt>
      <trkpt lat="43.02719" lon="-0.16583">
        <ele>1177.9</ele>
        <time>2017-07-31T08:56:57Z</time>
      </trkpt>
      <trkpt lat="43.0272" lon="-0.16576">
        <ele>1178.19</ele>
        <time>2017-07-31T08:56:59Z</time>
      </trkpt>
      <trkpt lat="43.02721" lon="-0.16568">
        <ele>1178.47</ele>
        <time>2017-07-31T08:57:01Z</time>
      </trkpt>
      <trkpt lat="43.02722" lon="-0.1656">
        <ele>1178.74</ele>
        <time>2017-07-31T08:57:03Z</time>
      </trkpt>
      <trkpt lat="43.02724" lon="-0.16553">
        <ele>1179.01</ele>
        <time>2017-07-31T08:57:05Z</time>
      </trkpt>
      <trkpt lat="43.02725" lon="-0.16546">
        <ele>1179.27</ele>
        <time>2017-07-31T08:57:07Z</time>
      </trkpt>
      <trkpt lat="43.02726" lon="-0.16538">
        <ele>1179.53</ele>
        <time>2017-07-31T08:57:09Z</time>
      </trkpt>
      <trkpt lat="43.02727" lon="-0.16531">
        <ele>1179.78</ele>
        <time>2017-07-31T08:57:11Z</time>
      </trkpt>
      <trkpt lat="43.02727" lon="-0.16523">
        <ele>1180</ele>
        <time>2017-07-31T08:57:13Z</time>
      </trkpt>
      <trkpt lat="43.02728" lon="-0.16516">
        <ele>1180.21</ele>
        <time>2017-07-31T08:57:15Z</time>
      </trkpt>
      <trkpt lat="43.02729" lon="-0.16509">
        <ele>1180.43</ele>
        <time>2017-07-31T08:57:17Z</time>
      </trkpt>
      <trkpt lat="43.02729" lon="-0.16502">
        <ele>1180.64</ele>
        <time>2017-07-31T08:57:19Z</time>
      </trkpt>
      <trkpt lat="43.0273" lon="-0.16495">
        <ele>1180.86</ele>
        <time>2017-07-31T08:57:21Z</time>
      </trkpt>
      <trkpt lat="43.0273" lon="-0.16488">
        <ele>1181.08</ele>
        <time>2017-07-31T08:57:23Z</time>
      </trkpt>
      <trkpt lat="43.02731" lon="-0.16481">
        <ele>1181.32</ele>
        <time>2017-07-31T08:57:25Z</time>
      </trkpt>
      <trkpt lat="43.02732" lon="-0.16474">
        <ele>1181.57</ele>
        <time>2017-07-31T08:57:27Z</time>
      </trkpt>
      <trkpt lat="43.02732" lon="-0.16467">
        <ele>1181.83</ele>
        <time>2017-07-31T08:57:29Z</time>
      </trkpt>
      <trkpt lat="43.02733" lon="-0.16459">
        <ele>1182.19</ele>
        <time>2017-07-31T08:57:32Z</time>
      </trkpt>
      <trkpt lat="43.02734" lon="-0.16452">
        <ele>1182.43</ele>
        <time>2017-07-31T08:57:34Z</time>
      </trkpt>
      <trkpt lat="43.02735" lon="-0.16446">
        <ele>1182.68</ele>
        <time>2017-07-31T08:57:36Z</time>
      </trkpt>
      <trkpt lat="43.02736" lon="-0.16439">
        <ele>1182.94</ele>
        <time>2017-07-31T08:57:38Z</time>
      </trkpt>
      <trkpt lat="43.02737" lon="-0.16431">
        <ele>1183.35</ele>
        <time>2017-07-31T08:57:41Z</time>
      </trkpt>
      <trkpt lat="43.02739" lon="-0.16424">
        <ele>1183.79</ele>
        <time>2017-07-31T08:57:44Z</time>
      </trkpt>
      <trkpt lat="43.0274" lon="-0.16418">
        <ele>1184.11</ele>
        <time>2017-07-31T08:57:46Z</time>
      </trkpt>
      <trkpt lat="43.02742" lon="-0.16411">
        <ele>1184.42</ele>
        <time>2017-07-31T08:57:48Z</time>
      </trkpt>
      <trkpt lat="43.02745" lon="-0.16403">
        <ele>1184.72</ele>
        <time>2017-07-31T08:57:50Z</time>
      </trkpt>
      <trkpt lat="43.02748" lon="-0.16396">
        <ele>1185.03</ele>
        <time>2017-07-31T08:57:52Z</time>
      </trkpt>
      <trkpt lat="43.02751" lon="-0.16389">
        <ele>1185.36</ele>
        <time>2017-07-31T08:57:54Z</time>
      </trkpt>
      <trkpt lat="43.02755" lon="-0.16384">
        <ele>1185.7</ele>
        <time>2017-07-31T08:57:56Z</time>
      </trkpt>
      <trkpt lat="43.02759" lon="-0.16379">
        <ele>1186.05</ele>
        <time>2017-07-31T08:57:58Z</time>
      </trkpt>
      <trkpt lat="43.02763" lon="-0.16374">
        <ele>1186.41</ele>
        <time>2017-07-31T08:58:00Z</time>
      </trkpt>
      <trkpt lat="43.02768" lon="-0.16371">
        <ele>1186.78</ele>
        <time>2017-07-31T08:58:02Z</time>
      </trkpt>
      <trkpt lat="43.02772" lon="-0.16367">
        <ele>1187.18</ele>
        <time>2017-07-31T08:58:04Z</time>
      </trkpt>
      <trkpt lat="43.02777" lon="-0.16365">
        <ele>1187.88</ele>
        <time>2017-07-31T08:58:07Z</time>
      </trkpt>
      <trkpt lat="43.02783" lon="-0.16361">
        <ele>1188.68</ele>
        <time>2017-07-31T08:58:10Z</time>
      </trkpt>
      <trkpt lat="43.02787" lon="-0.16357">
        <ele>1189.25</ele>
        <time>2017-07-31T08:58:12Z</time>
      </trkpt>
      <trkpt lat="43.02794" lon="-0.16355">
        <ele>1190.18</ele>
        <time>2017-07-31T08:58:15Z</time>
      </trkpt>
      <trkpt lat="43.02798" lon="-0.16353">
        <ele>1191.19</ele>
        <time>2017-07-31T08:58:18Z</time>
      </trkpt>
      <trkpt lat="43.02803" lon="-0.16351">
        <ele>1192.32</ele>
        <time>2017-07-31T08:58:21Z</time>
      </trkpt>
      <trkpt lat="43.02809" lon="-0.16349">
        <ele>1193.58</ele>
        <time>2017-07-31T08:58:24Z</time>
      </trkpt>
      <trkpt lat="43.02815" lon="-0.16346">
        <ele>1194.97</ele>
        <time>2017-07-31T08:58:27Z</time>
      </trkpt>
      <trkpt lat="43.0282" lon="-0.16343">
        <ele>1196.41</ele>
        <time>2017-07-31T08:58:30Z</time>
      </trkpt>
      <trkpt lat="43.02827" lon="-0.1634">
        <ele>1198</ele>
        <time>2017-07-31T08:58:33Z</time>
      </trkpt>
      <trkpt lat="43.02832" lon="-0.16339">
        <ele>1199.07</ele>
        <time>2017-07-31T08:58:35Z</time>
      </trkpt>
      <trkpt lat="43.02838" lon="-0.16337">
        <ele>1200.55</ele>
        <time>2017-07-31T08:58:38Z</time>
      </trkpt>
      <trkpt lat="43.02842" lon="-0.16336">
        <ele>1201.49</ele>
        <time>2017-07-31T08:58:40Z</time>
      </trkpt>
      <trkpt lat="43.02847" lon="-0.16334">
        <ele>1202.43</ele>
        <time>2017-07-31T08:58:42Z</time>
      </trkpt>
      <trkpt lat="43.02853" lon="-0.16332">
        <ele>1203.84</ele>
        <time>2017-07-31T08:58:45Z</time>
      </trkpt>
      <trkpt lat="43.02858" lon="-0.1633">
        <ele>1204.77</ele>
        <time>2017-07-31T08:58:47Z</time>
      </trkpt>
      <trkpt lat="43.02864" lon="-0.16328">
        <ele>1206.2</ele>
        <time>2017-07-31T08:58:50Z</time>
      </trkpt>
      <trkpt lat="43.02869" lon="-0.16327">
        <ele>1207.68</ele>
        <time>2017-07-31T08:58:53Z</time>
      </trkpt>
      <trkpt lat="43.02874" lon="-0.16328">
        <ele>1209.33</ele>
        <time>2017-07-31T08:58:56Z</time>
      </trkpt>
      <trkpt lat="43.02881" lon="-0.16328">
        <ele>1211.09</ele>
        <time>2017-07-31T08:58:59Z</time>
      </trkpt>
      <trkpt lat="43.02886" lon="-0.16328">
        <ele>1212.23</ele>
        <time>2017-07-31T08:59:01Z</time>
      </trkpt>
      <trkpt lat="43.02891" lon="-0.16328">
        <ele>1213.31</ele>
        <time>2017-07-31T08:59:03Z</time>
      </trkpt>
      <trkpt lat="43.02896" lon="-0.16328">
        <ele>1214.31</ele>
        <time>2017-07-31T08:59:05Z</time>
      </trkpt>
      <trkpt lat="43.02902" lon="-0.16328">
        <ele>1215.69</ele>
        <time>2017-07-31T08:59:08Z</time>
      </trkpt>
      <trkpt lat="43.02908" lon="-0.16328">
        <ele>1216.57</ele>
        <time>2017-07-31T08:59:10Z</time>
      </trkpt>
      <trkpt lat="43.02912" lon="-0.16327">
        <ele>1217.4</ele>
        <time>2017-07-31T08:59:12Z</time>
      </trkpt>
      <trkpt lat="43.02917" lon="-0.16325">
        <ele>1218.21</ele>
        <time>2017-07-31T08:59:14Z</time>
      </trkpt>
      <trkpt lat="43.02923" lon="-0.16325">
        <ele>1219.34</ele>
        <time>2017-07-31T08:59:17Z</time>
      </trkpt>
      <trkpt lat="43.02928" lon="-0.16325">
        <ele>1220.06</ele>
        <time>2017-07-31T08:59:19Z</time>
      </trkpt>
      <trkpt lat="43.02933" lon="-0.16323">
        <ele>1221.15</ele>
        <time>2017-07-31T08:59:22Z</time>
      </trkpt>
      <trkpt lat="43.02938" lon="-0.1632">
        <ele>1222.73</ele>
        <time>2017-07-31T08:59:26Z</time>
      </trkpt>
      <trkpt lat="43.02944" lon="-0.1632">
        <ele>1223.88</ele>
        <time>2017-07-31T08:59:29Z</time>
      </trkpt>
      <trkpt lat="43.0295" lon="-0.16319">
        <ele>1224.99</ele>
        <time>2017-07-31T08:59:32Z</time>
      </trkpt>
      <trkpt lat="43.02956" lon="-0.16318">
        <ele>1226.11</ele>
        <time>2017-07-31T08:59:35Z</time>
      </trkpt>
      <trkpt lat="43.0296" lon="-0.16318">
        <ele>1226.86</ele>
        <time>2017-07-31T08:59:37Z</time>
      </trkpt>
      <trkpt lat="43.02965" lon="-0.16317">
        <ele>1227.63</ele>
        <time>2017-07-31T08:59:39Z</time>
      </trkpt>
      <trkpt lat="43.0297" lon="-0.16316">
        <ele>1228.4</ele>
        <time>2017-07-31T08:59:41Z</time>
      </trkpt>
      <trkpt lat="43.02975" lon="-0.16314">
        <ele>1229.2</ele>
        <time>2017-07-31T08:59:43Z</time>
      </trkpt>
      <trkpt lat="43.0298" lon="-0.16314">
        <ele>1229.99</ele>
        <time>2017-07-31T08:59:45Z</time>
      </trkpt>
      <trkpt lat="43.02985" lon="-0.16314">
        <ele>1230.78</ele>
        <time>2017-07-31T08:59:47Z</time>
      </trkpt>
      <trkpt lat="43.0299" lon="-0.16313">
        <ele>1231.97</ele>
        <time>2017-07-31T08:59:50Z</time>
      </trkpt>
      <trkpt lat="43.02995" lon="-0.16311">
        <ele>1233.17</ele>
        <time>2017-07-31T08:59:53Z</time>
      </trkpt>
      <trkpt lat="43.03" lon="-0.16309">
        <ele>1234.41</ele>
        <time>2017-07-31T08:59:56Z</time>
      </trkpt>
      <trkpt lat="43.03007" lon="-0.16308">
        <ele>1235.67</ele>
        <time>2017-07-31T08:59:59Z</time>
      </trkpt>
      <trkpt lat="43.03011" lon="-0.16308">
        <ele>1236.47</ele>
        <time>2017-07-31T09:00:01Z</time>
      </trkpt>
      <trkpt lat="43.03017" lon="-0.16307">
        <ele>1237.62</ele>
        <time>2017-07-31T09:00:04Z</time>
      </trkpt>
      <trkpt lat="43.03022" lon="-0.16307">
        <ele>1238.7</ele>
        <time>2017-07-31T09:00:07Z</time>
      </trkpt>
      <trkpt lat="43.03027" lon="-0.16306">
        <ele>1239.69</ele>
        <time>2017-07-31T09:00:10Z</time>
      </trkpt>
      <trkpt lat="43.03033" lon="-0.16304">
        <ele>1240.89</ele>
        <time>2017-07-31T09:00:14Z</time>
      </trkpt>
      <trkpt lat="43.03038" lon="-0.163">
        <ele>1242.07</ele>
        <time>2017-07-31T09:00:18Z</time>
      </trkpt>
      <trkpt lat="43.03044" lon="-0.16295">
        <ele>1242.92</ele>
        <time>2017-07-31T09:00:21Z</time>
      </trkpt>
      <trkpt lat="43.03048" lon="-0.1629">
        <ele>1243.7</ele>
        <time>2017-07-31T09:00:24Z</time>
      </trkpt>
      <trkpt lat="43.03053" lon="-0.16292">
        <ele>1245.04</ele>
        <time>2017-07-31T09:01:17Z</time>
      </trkpt>
      <trkpt lat="43.03058" lon="-0.16291">
        <ele>1244.45</ele>
        <time>2017-07-31T09:01:47Z</time>
      </trkpt>
      <trkpt lat="43.03062" lon="-0.16288">
        <ele>1244.37</ele>
        <time>2017-07-31T09:02:07Z</time>
      </trkpt>
      <trkpt lat="43.0306" lon="-0.16282">
        <ele>1244.54</ele>
        <time>2017-07-31T09:02:15Z</time>
      </trkpt>
      <trkpt lat="43.0306" lon="-0.16276">
        <ele>1244.62</ele>
        <time>2017-07-31T09:02:17Z</time>
      </trkpt>
      <trkpt lat="43.0306" lon="-0.16267">
        <ele>1244.78</ele>
        <time>2017-07-31T09:02:20Z</time>
      </trkpt>
      <trkpt lat="43.0306" lon="-0.1626">
        <ele>1245.02</ele>
        <time>2017-07-31T09:02:23Z</time>
      </trkpt>
      <trkpt lat="43.03062" lon="-0.16254">
        <ele>1245.58</ele>
        <time>2017-07-31T09:02:29Z</time>
      </trkpt>
      <trkpt lat="43.03064" lon="-0.16248">
        <ele>1246.46</ele>
        <time>2017-07-31T09:02:40Z</time>
      </trkpt>
      <trkpt lat="43.03065" lon="-0.16241">
        <ele>1246.82</ele>
        <time>2017-07-31T09:02:50Z</time>
      </trkpt>
      <trkpt lat="43.03065" lon="-0.16235">
        <ele>1247.12</ele>
        <time>2017-07-31T09:02:56Z</time>
      </trkpt>
      <trkpt lat="43.03066" lon="-0.16228">
        <ele>1247.43</ele>
        <time>2017-07-31T09:03:05Z</time>
      </trkpt>
      <trkpt lat="43.03063" lon="-0.1622">
        <ele>1247.63</ele>
        <time>2017-07-31T09:03:09Z</time>
      </trkpt>
      <trkpt lat="43.0306" lon="-0.16214">
        <ele>1247.67</ele>
        <time>2017-07-31T09:03:12Z</time>
      </trkpt>
      <trkpt lat="43.03057" lon="-0.16207">
        <ele>1247.67</ele>
        <time>2017-07-31T09:03:14Z</time>
      </trkpt>
      <trkpt lat="43.03055" lon="-0.162">
        <ele>1247.64</ele>
        <time>2017-07-31T09:03:17Z</time>
      </trkpt>
      <trkpt lat="43.03053" lon="-0.16192">
        <ele>1247.58</ele>
        <time>2017-07-31T09:03:20Z</time>
      </trkpt>
      <trkpt lat="43.03052" lon="-0.16185">
        <ele>1247.54</ele>
        <time>2017-07-31T09:03:22Z</time>
      </trkpt>
      <trkpt lat="43.03052" lon="-0.16179">
        <ele>1247.53</ele>
        <time>2017-07-31T09:03:24Z</time>
      </trkpt>
      <trkpt lat="43.03051" lon="-0.16172">
        <ele>1247.44</ele>
        <time>2017-07-31T09:03:30Z</time>
      </trkpt>
      <trkpt lat="43.03049" lon="-0.16165">
        <ele>1247.37</ele>
        <time>2017-07-31T09:03:33Z</time>
      </trkpt>
      <trkpt lat="43.03048" lon="-0.16158">
        <ele>1247.08</ele>
        <time>2017-07-31T09:03:46Z</time>
      </trkpt>
      <trkpt lat="43.03047" lon="-0.16152">
        <ele>1246.49</ele>
        <time>2017-07-31T09:03:53Z</time>
      </trkpt>
      <trkpt lat="43.03046" lon="-0.16146">
        <ele>1245.43</ele>
        <time>2017-07-31T09:04:05Z</time>
      </trkpt>
      <trkpt lat="43.03048" lon="-0.16141">
        <ele>1244.72</ele>
        <time>2017-07-31T09:04:13Z</time>
      </trkpt>
      <trkpt lat="43.03048" lon="-0.16134">
        <ele>1243.78</ele>
        <time>2017-07-31T09:04:21Z</time>
      </trkpt>
      <trkpt lat="43.03047" lon="-0.16128">
        <ele>1243.35</ele>
        <time>2017-07-31T09:04:27Z</time>
      </trkpt>
      <trkpt lat="43.03045" lon="-0.16122">
        <ele>1242.96</ele>
        <time>2017-07-31T09:05:01Z</time>
      </trkpt>
      <trkpt lat="43.03045" lon="-0.16115">
        <ele>1242.82</ele>
        <time>2017-07-31T09:05:13Z</time>
      </trkpt>
      <trkpt lat="43.03043" lon="-0.16109">
        <ele>1242.83</ele>
        <time>2017-07-31T09:05:30Z</time>
      </trkpt>
      <trkpt lat="43.03044" lon="-0.16102">
        <ele>1242.99</ele>
        <time>2017-07-31T09:05:39Z</time>
      </trkpt>
      <trkpt lat="43.03044" lon="-0.16096">
        <ele>1243.22</ele>
        <time>2017-07-31T09:05:47Z</time>
      </trkpt>
      <trkpt lat="43.03045" lon="-0.16089">
        <ele>1243.75</ele>
        <time>2017-07-31T09:06:06Z</time>
      </trkpt>
      <trkpt lat="43.03046" lon="-0.16083">
        <ele>1244.25</ele>
        <time>2017-07-31T09:06:16Z</time>
      </trkpt>
      <trkpt lat="43.03047" lon="-0.16076">
        <ele>1245.03</ele>
        <time>2017-07-31T09:06:31Z</time>
      </trkpt>
      <trkpt lat="43.03048" lon="-0.1607">
        <ele>1245.84</ele>
        <time>2017-07-31T09:06:45Z</time>
      </trkpt>
      <trkpt lat="43.03049" lon="-0.16064">
        <ele>1246.37</ele>
        <time>2017-07-31T09:06:51Z</time>
      </trkpt>
      <trkpt lat="43.03051" lon="-0.16057">
        <ele>1247.41</ele>
        <time>2017-07-31T09:07:14Z</time>
      </trkpt>
      <trkpt lat="43.03051" lon="-0.16051">
        <ele>1248.55</ele>
        <time>2017-07-31T09:07:23Z</time>
      </trkpt>
      <trkpt lat="43.03051" lon="-0.16045">
        <ele>1249.47</ele>
        <time>2017-07-31T09:07:31Z</time>
      </trkpt>
      <trkpt lat="43.03052" lon="-0.16038">
        <ele>1250.32</ele>
        <time>2017-07-31T09:07:39Z</time>
      </trkpt>
      <trkpt lat="43.03052" lon="-0.16032">
        <ele>1251.06</ele>
        <time>2017-07-31T09:07:47Z</time>
      </trkpt>
      <trkpt lat="43.03051" lon="-0.16026">
        <ele>1252.48</ele>
        <time>2017-07-31T09:08:19Z</time>
      </trkpt>
      <trkpt lat="43.03051" lon="-0.16019">
        <ele>1253.35</ele>
        <time>2017-07-31T09:08:30Z</time>
      </trkpt>
      <trkpt lat="43.03051" lon="-0.16012">
        <ele>1253.86</ele>
        <time>2017-07-31T09:08:36Z</time>
      </trkpt>
      <trkpt lat="43.0305" lon="-0.16006">
        <ele>1254.28</ele>
        <time>2017-07-31T09:08:41Z</time>
      </trkpt>
      <trkpt lat="43.0305" lon="-0.16">
        <ele>1254.82</ele>
        <time>2017-07-31T09:08:47Z</time>
      </trkpt>
      <trkpt lat="43.03049" lon="-0.15994">
        <ele>1255.52</ele>
        <time>2017-07-31T09:08:54Z</time>
      </trkpt>
      <trkpt lat="43.03049" lon="-0.15987">
        <ele>1256.14</ele>
        <time>2017-07-31T09:09:00Z</time>
      </trkpt>
      <trkpt lat="43.03049" lon="-0.15981">
        <ele>1256.87</ele>
        <time>2017-07-31T09:09:07Z</time>
      </trkpt>
      <trkpt lat="43.03048" lon="-0.15974">
        <ele>1257.62</ele>
        <time>2017-07-31T09:09:14Z</time>
      </trkpt>
      <trkpt lat="43.03048" lon="-0.15967">
        <ele>1258.27</ele>
        <time>2017-07-31T09:09:20Z</time>
      </trkpt>
      <trkpt lat="43.03048" lon="-0.15961">
        <ele>1258.92</ele>
        <time>2017-07-31T09:09:26Z</time>
      </trkpt>
      <trkpt lat="43.03048" lon="-0.15954">
        <ele>1259.59</ele>
        <time>2017-07-31T09:09:32Z</time>
      </trkpt>
      <trkpt lat="43.03048" lon="-0.15947">
        <ele>1260.29</ele>
        <time>2017-07-31T09:09:38Z</time>
      </trkpt>
      <trkpt lat="43.03048" lon="-0.1594">
        <ele>1261.27</ele>
        <time>2017-07-31T09:09:46Z</time>
      </trkpt>
      <trkpt lat="43.03048" lon="-0.15932">
        <ele>1262.31</ele>
        <time>2017-07-31T09:10:02Z</time>
      </trkpt>
      <trkpt lat="43.03047" lon="-0.15925">
        <ele>1263.03</ele>
        <time>2017-07-31T09:10:07Z</time>
      </trkpt>
      <trkpt lat="43.03048" lon="-0.15919">
        <ele>1263.94</ele>
        <time>2017-07-31T09:10:13Z</time>
      </trkpt>
      <trkpt lat="43.03047" lon="-0.15912">
        <ele>1265.58</ele>
        <time>2017-07-31T09:10:35Z</time>
      </trkpt>
      <trkpt lat="43.03045" lon="-0.15905">
        <ele>1266.54</ele>
        <time>2017-07-31T09:10:42Z</time>
      </trkpt>
      <trkpt lat="43.03045" lon="-0.15899">
        <ele>1267.5</ele>
        <time>2017-07-31T09:10:49Z</time>
      </trkpt>
      <trkpt lat="43.03045" lon="-0.15892">
        <ele>1268.73</ele>
        <time>2017-07-31T09:10:58Z</time>
      </trkpt>
      <trkpt lat="43.03045" lon="-0.15886">
        <ele>1270.1</ele>
        <time>2017-07-31T09:11:08Z</time>
      </trkpt>
      <trkpt lat="43.03045" lon="-0.15879">
        <ele>1271.2</ele>
        <time>2017-07-31T09:11:16Z</time>
      </trkpt>
      <trkpt lat="43.03045" lon="-0.15872">
        <ele>1272.16</ele>
        <time>2017-07-31T09:11:23Z</time>
      </trkpt>
      <trkpt lat="43.03045" lon="-0.15866">
        <ele>1273.54</ele>
        <time>2017-07-31T09:11:38Z</time>
      </trkpt>
      <trkpt lat="43.03045" lon="-0.1586">
        <ele>1274.72</ele>
        <time>2017-07-31T09:11:45Z</time>
      </trkpt>
      <trkpt lat="43.03045" lon="-0.15853">
        <ele>1276.4</ele>
        <time>2017-07-31T09:11:55Z</time>
      </trkpt>
      <trkpt lat="43.03046" lon="-0.15846">
        <ele>1277.8</ele>
        <time>2017-07-31T09:12:13Z</time>
      </trkpt>
      <trkpt lat="43.03046" lon="-0.1584">
        <ele>1279.14</ele>
        <time>2017-07-31T09:12:21Z</time>
      </trkpt>
      <trkpt lat="43.03046" lon="-0.15834">
        <ele>1279.95</ele>
        <time>2017-07-31T09:12:26Z</time>
      </trkpt>
      <trkpt lat="43.03047" lon="-0.15827">
        <ele>1281.02</ele>
        <time>2017-07-31T09:12:33Z</time>
      </trkpt>
      <trkpt lat="43.03047" lon="-0.1582">
        <ele>1282.19</ele>
        <time>2017-07-31T09:12:41Z</time>
      </trkpt>
      <trkpt lat="43.03047" lon="-0.15813">
        <ele>1283.19</ele>
        <time>2017-07-31T09:12:48Z</time>
      </trkpt>
      <trkpt lat="43.03049" lon="-0.15807">
        <ele>1284.8</ele>
        <time>2017-07-31T09:13:04Z</time>
      </trkpt>
      <trkpt lat="43.0305" lon="-0.15799">
        <ele>1286.38</ele>
        <time>2017-07-31T09:13:18Z</time>
      </trkpt>
      <trkpt lat="43.03052" lon="-0.15791">
        <ele>1286.78</ele>
        <time>2017-07-31T09:13:21Z</time>
      </trkpt>
      <trkpt lat="43.03053" lon="-0.15785">
        <ele>1287.51</ele>
        <time>2017-07-31T09:13:26Z</time>
      </trkpt>
      <trkpt lat="43.03057" lon="-0.15781">
        <ele>1288.58</ele>
        <time>2017-07-31T09:13:41Z</time>
      </trkpt>
      <trkpt lat="43.03061" lon="-0.15778">
        <ele>1291.83</ele>
        <time>2017-07-31T09:13:59Z</time>
      </trkpt>
      <trkpt lat="43.03066" lon="-0.15777">
        <ele>1293.36</ele>
        <time>2017-07-31T09:14:18Z</time>
      </trkpt>
      <trkpt lat="43.0307" lon="-0.15775">
        <ele>1294.96</ele>
        <time>2017-07-31T09:14:33Z</time>
      </trkpt>
      <trkpt lat="43.03073" lon="-0.1578">
        <ele>1298.83</ele>
        <time>2017-07-31T09:14:55Z</time>
      </trkpt>
      <trkpt lat="43.03078" lon="-0.15782">
        <ele>1300.21</ele>
        <time>2017-07-31T09:15:14Z</time>
      </trkpt>
      <trkpt lat="43.03082" lon="-0.15786">
        <ele>1301.71</ele>
        <time>2017-07-31T09:15:26Z</time>
      </trkpt>
      <trkpt lat="43.03086" lon="-0.15784">
        <ele>1304.71</ele>
        <time>2017-07-31T09:15:46Z</time>
      </trkpt>
      <trkpt lat="43.03091" lon="-0.1578">
        <ele>1306.4</ele>
        <time>2017-07-31T09:15:55Z</time>
      </trkpt>
      <trkpt lat="43.03095" lon="-0.15777">
        <ele>1307.99</ele>
        <time>2017-07-31T09:16:04Z</time>
      </trkpt>
      <trkpt lat="43.03099" lon="-0.15773">
        <ele>1309.76</ele>
        <time>2017-07-31T09:16:27Z</time>
      </trkpt>
      <trkpt lat="43.03102" lon="-0.15769">
        <ele>1310.06</ele>
        <time>2017-07-31T09:16:34Z</time>
      </trkpt>
      <trkpt lat="43.03106" lon="-0.15765">
        <ele>1312.28</ele>
        <time>2017-07-31T09:16:51Z</time>
      </trkpt>
      <trkpt lat="43.03109" lon="-0.15759">
        <ele>1313.04</ele>
        <time>2017-07-31T09:16:56Z</time>
      </trkpt>
      <trkpt lat="43.03113" lon="-0.15755">
        <ele>1313.75</ele>
        <time>2017-07-31T09:17:02Z</time>
      </trkpt>
      <trkpt lat="43.03118" lon="-0.15753">
        <ele>1314.23</ele>
        <time>2017-07-31T09:17:08Z</time>
      </trkpt>
      <trkpt lat="43.03122" lon="-0.1575">
        <ele>1314.77</ele>
        <time>2017-07-31T09:17:15Z</time>
      </trkpt>
      <trkpt lat="43.03126" lon="-0.15747">
        <ele>1315.41</ele>
        <time>2017-07-31T09:17:23Z</time>
      </trkpt>
      <trkpt lat="43.0313" lon="-0.15743">
        <ele>1315.68</ele>
        <time>2017-07-31T09:17:31Z</time>
      </trkpt>
      <trkpt lat="43.03135" lon="-0.15741">
        <ele>1315.94</ele>
        <time>2017-07-31T09:17:44Z</time>
      </trkpt>
      <trkpt lat="43.0314" lon="-0.15738">
        <ele>1316.05</ele>
        <time>2017-07-31T09:17:47Z</time>
      </trkpt>
      <trkpt lat="43.03146" lon="-0.15733">
        <ele>1316.14</ele>
        <time>2017-07-31T09:17:50Z</time>
      </trkpt>
      <trkpt lat="43.03151" lon="-0.15732">
        <ele>1316.21</ele>
        <time>2017-07-31T09:17:53Z</time>
      </trkpt>
      <trkpt lat="43.03156" lon="-0.15731">
        <ele>1316.31</ele>
        <time>2017-07-31T09:17:56Z</time>
      </trkpt>
      <trkpt lat="43.03162" lon="-0.15732">
        <ele>1316.43</ele>
        <time>2017-07-31T09:17:58Z</time>
      </trkpt>
      <trkpt lat="43.03166" lon="-0.15732">
        <ele>1316.6</ele>
        <time>2017-07-31T09:18:00Z</time>
      </trkpt>
      <trkpt lat="43.03171" lon="-0.15732">
        <ele>1316.78</ele>
        <time>2017-07-31T09:18:02Z</time>
      </trkpt>
      <trkpt lat="43.03176" lon="-0.15733">
        <ele>1316.94</ele>
        <time>2017-07-31T09:18:04Z</time>
      </trkpt>
      <trkpt lat="43.03181" lon="-0.15734">
        <ele>1317.03</ele>
        <time>2017-07-31T09:18:06Z</time>
      </trkpt>
      <trkpt lat="43.03186" lon="-0.15734">
        <ele>1317.04</ele>
        <time>2017-07-31T09:18:08Z</time>
      </trkpt>
      <trkpt lat="43.0319" lon="-0.15733">
        <ele>1317.01</ele>
        <time>2017-07-31T09:18:10Z</time>
      </trkpt>
      <trkpt lat="43.03196" lon="-0.15734">
        <ele>1316.99</ele>
        <time>2017-07-31T09:18:13Z</time>
      </trkpt>
      <trkpt lat="43.03202" lon="-0.15738">
        <ele>1317.05</ele>
        <time>2017-07-31T09:18:16Z</time>
      </trkpt>
      <trkpt lat="43.03207" lon="-0.1574">
        <ele>1317.18</ele>
        <time>2017-07-31T09:18:20Z</time>
      </trkpt>
      <trkpt lat="43.03213" lon="-0.15739">
        <ele>1317.28</ele>
        <time>2017-07-31T09:18:23Z</time>
      </trkpt>
      <trkpt lat="43.03218" lon="-0.15741">
        <ele>1317.4</ele>
        <time>2017-07-31T09:18:26Z</time>
      </trkpt>
      <trkpt lat="43.03224" lon="-0.15743">
        <ele>1317.69</ele>
        <time>2017-07-31T09:18:29Z</time>
      </trkpt>
      <trkpt lat="43.03229" lon="-0.15743">
        <ele>1318.02</ele>
        <time>2017-07-31T09:18:32Z</time>
      </trkpt>
      <trkpt lat="43.03234" lon="-0.15744">
        <ele>1318.32</ele>
        <time>2017-07-31T09:18:35Z</time>
      </trkpt>
      <trkpt lat="43.03239" lon="-0.15748">
        <ele>1318.88</ele>
        <time>2017-07-31T09:18:39Z</time>
      </trkpt>
      <trkpt lat="43.03244" lon="-0.15752">
        <ele>1319.99</ele>
        <time>2017-07-31T09:18:44Z</time>
      </trkpt>
      <trkpt lat="43.03248" lon="-0.15755">
        <ele>1320.75</ele>
        <time>2017-07-31T09:18:47Z</time>
      </trkpt>
      <trkpt lat="43.03252" lon="-0.15759">
        <ele>1321.5</ele>
        <time>2017-07-31T09:18:50Z</time>
      </trkpt>
      <trkpt lat="43.03256" lon="-0.15763">
        <ele>1322.17</ele>
        <time>2017-07-31T09:18:53Z</time>
      </trkpt>
      <trkpt lat="43.03258" lon="-0.15757">
        <ele>1323.06</ele>
        <time>2017-07-31T09:18:58Z</time>
      </trkpt>
      <trkpt lat="43.03254" lon="-0.15752">
        <ele>1323.48</ele>
        <time>2017-07-31T09:19:01Z</time>
      </trkpt>
      <trkpt lat="43.03252" lon="-0.15745">
        <ele>1323.87</ele>
        <time>2017-07-31T09:19:04Z</time>
      </trkpt>
      <trkpt lat="43.03248" lon="-0.1574">
        <ele>1324.65</ele>
        <time>2017-07-31T09:19:54Z</time>
      </trkpt>
      <trkpt lat="43.03243" lon="-0.15738">
        <ele>1324.79</ele>
        <time>2017-07-31T09:19:58Z</time>
      </trkpt>
      <trkpt lat="43.03238" lon="-0.15736">
        <ele>1324.86</ele>
        <time>2017-07-31T09:20:02Z</time>
      </trkpt>
      <trkpt lat="43.03232" lon="-0.15737">
        <ele>1324.82</ele>
        <time>2017-07-31T09:20:05Z</time>
      </trkpt>
      <trkpt lat="43.03228" lon="-0.1574">
        <ele>1324.76</ele>
        <time>2017-07-31T09:20:07Z</time>
      </trkpt>
      <trkpt lat="43.03223" lon="-0.15742">
        <ele>1324.62</ele>
        <time>2017-07-31T09:20:10Z</time>
      </trkpt>
      <trkpt lat="43.03219" lon="-0.15739">
        <ele>1324.43</ele>
        <time>2017-07-31T09:20:13Z</time>
      </trkpt>
      <trkpt lat="43.03215" lon="-0.15734">
        <ele>1324.17</ele>
        <time>2017-07-31T09:20:16Z</time>
      </trkpt>
      <trkpt lat="43.03212" lon="-0.15728">
        <ele>1323.88</ele>
        <time>2017-07-31T09:20:19Z</time>
      </trkpt>
      <trkpt lat="43.03207" lon="-0.15721">
        <ele>1323.57</ele>
        <time>2017-07-31T09:20:22Z</time>
      </trkpt>
      <trkpt lat="43.03202" lon="-0.15719">
        <ele>1322.72</ele>
        <time>2017-07-31T09:20:35Z</time>
      </trkpt>
      <trkpt lat="43.03197" lon="-0.15723">
        <ele>1322.42</ele>
        <time>2017-07-31T09:20:38Z</time>
      </trkpt>
      <trkpt lat="43.03192" lon="-0.15722">
        <ele>1322.07</ele>
        <time>2017-07-31T09:20:41Z</time>
      </trkpt>
      <trkpt lat="43.03192" lon="-0.15715">
        <ele>1319.48</ele>
        <time>2017-07-31T09:21:09Z</time>
      </trkpt>
      <trkpt lat="43.0319" lon="-0.1571">
        <ele>1318.41</ele>
        <time>2017-07-31T09:21:45Z</time>
      </trkpt>
      <trkpt lat="43.03184" lon="-0.15711">
        <ele>1316.86</ele>
        <time>2017-07-31T09:21:56Z</time>
      </trkpt>
      <trkpt lat="43.03181" lon="-0.15716">
        <ele>1316.06</ele>
        <time>2017-07-31T09:22:04Z</time>
      </trkpt>
      <trkpt lat="43.03176" lon="-0.15717">
        <ele>1315.36</ele>
        <time>2017-07-31T09:22:15Z</time>
      </trkpt>
      <trkpt lat="43.03172" lon="-0.15717">
        <ele>1315.14</ele>
        <time>2017-07-31T09:22:24Z</time>
      </trkpt>
      <trkpt lat="43.03167" lon="-0.15716">
        <ele>1315.19</ele>
        <time>2017-07-31T09:22:32Z</time>
      </trkpt>
      <trkpt lat="43.03162" lon="-0.15712">
        <ele>1315.38</ele>
        <time>2017-07-31T09:22:41Z</time>
      </trkpt>
      <trkpt lat="43.03158" lon="-0.15708">
        <ele>1315.45</ele>
        <time>2017-07-31T09:22:51Z</time>
      </trkpt>
      <trkpt lat="43.03156" lon="-0.15703">
        <ele>1315.35</ele>
        <time>2017-07-31T09:23:03Z</time>
      </trkpt>
      <trkpt lat="43.03153" lon="-0.15698">
        <ele>1315.2</ele>
        <time>2017-07-31T09:23:10Z</time>
      </trkpt>
      <trkpt lat="43.03149" lon="-0.15694">
        <ele>1315.09</ele>
        <time>2017-07-31T09:23:15Z</time>
      </trkpt>
      <trkpt lat="43.03151" lon="-0.15688">
        <ele>1313.62</ele>
        <time>2017-07-31T09:23:37Z</time>
      </trkpt>
      <trkpt lat="43.03156" lon="-0.15684">
        <ele>1312.35</ele>
        <time>2017-07-31T09:23:44Z</time>
      </trkpt>
      <trkpt lat="43.0316" lon="-0.1568">
        <ele>1311.71</ele>
        <time>2017-07-31T09:23:47Z</time>
      </trkpt>
      <trkpt lat="43.03164" lon="-0.15678">
        <ele>1310.16</ele>
        <time>2017-07-31T09:24:06Z</time>
      </trkpt>
      <trkpt lat="43.03169" lon="-0.15675">
        <ele>1308.65</ele>
        <time>2017-07-31T09:24:12Z</time>
      </trkpt>
      <trkpt lat="43.0317" lon="-0.15668">
        <ele>1306.98</ele>
        <time>2017-07-31T09:24:34Z</time>
      </trkpt>
      <trkpt lat="43.03167" lon="-0.15661">
        <ele>1306.07</ele>
        <time>2017-07-31T09:24:39Z</time>
      </trkpt>
      <trkpt lat="43.03164" lon="-0.15657">
        <ele>1305.55</ele>
        <time>2017-07-31T09:24:45Z</time>
      </trkpt>
      <trkpt lat="43.03159" lon="-0.15652">
        <ele>1304.74</ele>
        <time>2017-07-31T09:24:51Z</time>
      </trkpt>
      <trkpt lat="43.03155" lon="-0.15651">
        <ele>1304.21</ele>
        <time>2017-07-31T09:25:01Z</time>
      </trkpt>
      <trkpt lat="43.0315" lon="-0.15649">
        <ele>1301.18</ele>
        <time>2017-07-31T09:25:43Z</time>
      </trkpt>
      <trkpt lat="43.03148" lon="-0.15644">
        <ele>1294.49</ele>
        <time>2017-07-31T09:26:32Z</time>
      </trkpt>
      <trkpt lat="43.03145" lon="-0.15638">
        <ele>1292.85</ele>
        <time>2017-07-31T09:26:47Z</time>
      </trkpt>
      <trkpt lat="43.03143" lon="-0.15633">
        <ele>1291.79</ele>
        <time>2017-07-31T09:26:55Z</time>
      </trkpt>
      <trkpt lat="43.03139" lon="-0.15629">
        <ele>1291.19</ele>
        <time>2017-07-31T09:27:02Z</time>
      </trkpt>
      <trkpt lat="43.03135" lon="-0.15626">
        <ele>1289.68</ele>
        <time>2017-07-31T09:27:17Z</time>
      </trkpt>
      <trkpt lat="43.03133" lon="-0.1562">
        <ele>1289.26</ele>
        <time>2017-07-31T09:27:25Z</time>
      </trkpt>
      <trkpt lat="43.03131" lon="-0.15615">
        <ele>1288.97</ele>
        <time>2017-07-31T09:27:33Z</time>
      </trkpt>
      <trkpt lat="43.03129" lon="-0.15608">
        <ele>1288.91</ele>
        <time>2017-07-31T09:27:43Z</time>
      </trkpt>
      <trkpt lat="43.03127" lon="-0.15603">
        <ele>1288.83</ele>
        <time>2017-07-31T09:27:47Z</time>
      </trkpt>
      <trkpt lat="43.03122" lon="-0.15603">
        <ele>1288.55</ele>
        <time>2017-07-31T09:27:56Z</time>
      </trkpt>
      <trkpt lat="43.03117" lon="-0.15605">
        <ele>1288.31</ele>
        <time>2017-07-31T09:27:59Z</time>
      </trkpt>
      <trkpt lat="43.03113" lon="-0.15608">
        <ele>1288.03</ele>
        <time>2017-07-31T09:28:02Z</time>
      </trkpt>
      <trkpt lat="43.03108" lon="-0.15611">
        <ele>1287.51</ele>
        <time>2017-07-31T09:28:07Z</time>
      </trkpt>
      <trkpt lat="43.03103" lon="-0.15607">
        <ele>1286.96</ele>
        <time>2017-07-31T09:28:11Z</time>
      </trkpt>
      <trkpt lat="43.03101" lon="-0.15599">
        <ele>1286.42</ele>
        <time>2017-07-31T09:28:14Z</time>
      </trkpt>
      <trkpt lat="43.031" lon="-0.15593">
        <ele>1285.81</ele>
        <time>2017-07-31T09:28:17Z</time>
      </trkpt>
      <trkpt lat="43.031" lon="-0.15587">
        <ele>1284.63</ele>
        <time>2017-07-31T09:28:22Z</time>
      </trkpt>
      <trkpt lat="43.03098" lon="-0.15579">
        <ele>1283.06</ele>
        <time>2017-07-31T09:28:28Z</time>
      </trkpt>
      <trkpt lat="43.03097" lon="-0.15571">
        <ele>1281.38</ele>
        <time>2017-07-31T09:28:35Z</time>
      </trkpt>
      <trkpt lat="43.03096" lon="-0.15564">
        <ele>1280.09</ele>
        <time>2017-07-31T09:28:40Z</time>
      </trkpt>
      <trkpt lat="43.03096" lon="-0.15557">
        <ele>1278.31</ele>
        <time>2017-07-31T09:28:49Z</time>
      </trkpt>
      <trkpt lat="43.03095" lon="-0.15551">
        <ele>1275.89</ele>
        <time>2017-07-31T09:28:59Z</time>
      </trkpt>
      <trkpt lat="43.03093" lon="-0.15544">
        <ele>1274.44</ele>
        <time>2017-07-31T09:29:06Z</time>
      </trkpt>
      <trkpt lat="43.0309" lon="-0.15538">
        <ele>1273.09</ele>
        <time>2017-07-31T09:29:12Z</time>
      </trkpt>
      <trkpt lat="43.03088" lon="-0.15532">
        <ele>1271.63</ele>
        <time>2017-07-31T09:29:17Z</time>
      </trkpt>
      <trkpt lat="43.03086" lon="-0.15526">
        <ele>1270.77</ele>
        <time>2017-07-31T09:29:20Z</time>
      </trkpt>
      <trkpt lat="43.03084" lon="-0.15518">
        <ele>1269.63</ele>
        <time>2017-07-31T09:29:25Z</time>
      </trkpt>
      <trkpt lat="43.03082" lon="-0.15511">
        <ele>1268.57</ele>
        <time>2017-07-31T09:29:29Z</time>
      </trkpt>
      <trkpt lat="43.03081" lon="-0.15503">
        <ele>1267.53</ele>
        <time>2017-07-31T09:29:33Z</time>
      </trkpt>
      <trkpt lat="43.03078" lon="-0.15496">
        <ele>1266.76</ele>
        <time>2017-07-31T09:29:36Z</time>
      </trkpt>
      <trkpt lat="43.03076" lon="-0.1549">
        <ele>1266.23</ele>
        <time>2017-07-31T09:29:38Z</time>
      </trkpt>
      <trkpt lat="43.03074" lon="-0.15483">
        <ele>1265.66</ele>
        <time>2017-07-31T09:29:40Z</time>
      </trkpt>
      <trkpt lat="43.03072" lon="-0.15476">
        <ele>1265.06</ele>
        <time>2017-07-31T09:29:42Z</time>
      </trkpt>
      <trkpt lat="43.03071" lon="-0.15467">
        <ele>1264.4</ele>
        <time>2017-07-31T09:29:44Z</time>
      </trkpt>
      <trkpt lat="43.0307" lon="-0.1546">
        <ele>1263.67</ele>
        <time>2017-07-31T09:29:46Z</time>
      </trkpt>
      <trkpt lat="43.03069" lon="-0.15452">
        <ele>1262.87</ele>
        <time>2017-07-31T09:29:48Z</time>
      </trkpt>
      <trkpt lat="43.03067" lon="-0.15445">
        <ele>1262.04</ele>
        <time>2017-07-31T09:29:50Z</time>
      </trkpt>
      <trkpt lat="43.03066" lon="-0.15439">
        <ele>1261.19</ele>
        <time>2017-07-31T09:29:52Z</time>
      </trkpt>
      <trkpt lat="43.03065" lon="-0.15431">
        <ele>1259.94</ele>
        <time>2017-07-31T09:29:55Z</time>
      </trkpt>
      <trkpt lat="43.03063" lon="-0.15424">
        <ele>1258.26</ele>
        <time>2017-07-31T09:29:59Z</time>
      </trkpt>
      <trkpt lat="43.03061" lon="-0.15418">
        <ele>1256.94</ele>
        <time>2017-07-31T09:30:02Z</time>
      </trkpt>
      <trkpt lat="43.03057" lon="-0.15412">
        <ele>1255.58</ele>
        <time>2017-07-31T09:30:05Z</time>
      </trkpt>
      <trkpt lat="43.03054" lon="-0.15406">
        <ele>1254.67</ele>
        <time>2017-07-31T09:30:07Z</time>
      </trkpt>
      <trkpt lat="43.03052" lon="-0.15401">
        <ele>1253.33</ele>
        <time>2017-07-31T09:30:10Z</time>
      </trkpt>
      <trkpt lat="43.03049" lon="-0.15394">
        <ele>1251.53</ele>
        <time>2017-07-31T09:30:14Z</time>
      </trkpt>
      <trkpt lat="43.03046" lon="-0.15387">
        <ele>1250.24</ele>
        <time>2017-07-31T09:30:17Z</time>
      </trkpt>
      <trkpt lat="43.03045" lon="-0.15381">
        <ele>1248.95</ele>
        <time>2017-07-31T09:30:20Z</time>
      </trkpt>
      <trkpt lat="43.03043" lon="-0.15374">
        <ele>1246.42</ele>
        <time>2017-07-31T09:30:26Z</time>
      </trkpt>
      <trkpt lat="43.0304" lon="-0.15368">
        <ele>1244.67</ele>
        <time>2017-07-31T09:30:31Z</time>
      </trkpt>
      <trkpt lat="43.03038" lon="-0.15361">
        <ele>1243.38</ele>
        <time>2017-07-31T09:30:34Z</time>
      </trkpt>
      <trkpt lat="43.03037" lon="-0.15355">
        <ele>1241.05</ele>
        <time>2017-07-31T09:30:43Z</time>
      </trkpt>
      <trkpt lat="43.03035" lon="-0.1535">
        <ele>1237.72</ele>
        <time>2017-07-31T09:30:51Z</time>
      </trkpt>
      <trkpt lat="43.0303" lon="-0.15347">
        <ele>1234.29</ele>
        <time>2017-07-31T09:31:00Z</time>
      </trkpt>
      <trkpt lat="43.03026" lon="-0.15345">
        <ele>1231.13</ele>
        <time>2017-07-31T09:31:12Z</time>
      </trkpt>
      <trkpt lat="43.03022" lon="-0.15341">
        <ele>1229.44</ele>
        <time>2017-07-31T09:31:21Z</time>
      </trkpt>
      <trkpt lat="43.03018" lon="-0.15335">
        <ele>1228.35</ele>
        <time>2017-07-31T09:31:25Z</time>
      </trkpt>
      <trkpt lat="43.03016" lon="-0.15328">
        <ele>1227.19</ele>
        <time>2017-07-31T09:31:29Z</time>
      </trkpt>
      <trkpt lat="43.03013" lon="-0.1532">
        <ele>1225.93</ele>
        <time>2017-07-31T09:31:33Z</time>
      </trkpt>
      <trkpt lat="43.03012" lon="-0.15313">
        <ele>1224.97</ele>
        <time>2017-07-31T09:31:36Z</time>
      </trkpt>
      <trkpt lat="43.03009" lon="-0.15306">
        <ele>1223.98</ele>
        <time>2017-07-31T09:31:39Z</time>
      </trkpt>
      <trkpt lat="43.03006" lon="-0.15298">
        <ele>1222.98</ele>
        <time>2017-07-31T09:31:42Z</time>
      </trkpt>
      <trkpt lat="43.03004" lon="-0.15292">
        <ele>1222.3</ele>
        <time>2017-07-31T09:31:44Z</time>
      </trkpt>
      <trkpt lat="43.03003" lon="-0.15286">
        <ele>1221.61</ele>
        <time>2017-07-31T09:31:46Z</time>
      </trkpt>
      <trkpt lat="43.03" lon="-0.15278">
        <ele>1220.2</ele>
        <time>2017-07-31T09:31:50Z</time>
      </trkpt>
      <trkpt lat="43.02998" lon="-0.15272">
        <ele>1218.37</ele>
        <time>2017-07-31T09:31:55Z</time>
      </trkpt>
      <trkpt lat="43.02994" lon="-0.15267">
        <ele>1217.22</ele>
        <time>2017-07-31T09:31:58Z</time>
      </trkpt>
      <trkpt lat="43.02992" lon="-0.15261">
        <ele>1216.02</ele>
        <time>2017-07-31T09:32:01Z</time>
      </trkpt>
      <trkpt lat="43.02989" lon="-0.15254">
        <ele>1214.8</ele>
        <time>2017-07-31T09:32:04Z</time>
      </trkpt>
      <trkpt lat="43.02984" lon="-0.15248">
        <ele>1213.22</ele>
        <time>2017-07-31T09:32:08Z</time>
      </trkpt>
      <trkpt lat="43.02981" lon="-0.15244">
        <ele>1212.43</ele>
        <time>2017-07-31T09:32:10Z</time>
      </trkpt>
      <trkpt lat="43.02977" lon="-0.15237">
        <ele>1211.2</ele>
        <time>2017-07-31T09:32:13Z</time>
      </trkpt>
      <trkpt lat="43.02973" lon="-0.15231">
        <ele>1210.39</ele>
        <time>2017-07-31T09:32:15Z</time>
      </trkpt>
      <trkpt lat="43.0297" lon="-0.15226">
        <ele>1209.59</ele>
        <time>2017-07-31T09:32:17Z</time>
      </trkpt>
      <trkpt lat="43.02969" lon="-0.15219">
        <ele>1208.38</ele>
        <time>2017-07-31T09:32:20Z</time>
      </trkpt>
      <trkpt lat="43.02966" lon="-0.15214">
        <ele>1207.6</ele>
        <time>2017-07-31T09:32:22Z</time>
      </trkpt>
      <trkpt lat="43.02963" lon="-0.15206">
        <ele>1206.82</ele>
        <time>2017-07-31T09:32:24Z</time>
      </trkpt>
      <trkpt lat="43.0296" lon="-0.152">
        <ele>1206.06</ele>
        <time>2017-07-31T09:32:26Z</time>
      </trkpt>
      <trkpt lat="43.02957" lon="-0.15194">
        <ele>1205.28</ele>
        <time>2017-07-31T09:32:28Z</time>
      </trkpt>
      <trkpt lat="43.02953" lon="-0.15189">
        <ele>1204.45</ele>
        <time>2017-07-31T09:32:30Z</time>
      </trkpt>
      <trkpt lat="43.0295" lon="-0.15184">
        <ele>1203.61</ele>
        <time>2017-07-31T09:32:32Z</time>
      </trkpt>
      <trkpt lat="43.02947" lon="-0.15176">
        <ele>1202.78</ele>
        <time>2017-07-31T09:32:34Z</time>
      </trkpt>
      <trkpt lat="43.02943" lon="-0.15168">
        <ele>1201.99</ele>
        <time>2017-07-31T09:32:36Z</time>
      </trkpt>
      <trkpt lat="43.02938" lon="-0.15163">
        <ele>1201.21</ele>
        <time>2017-07-31T09:32:38Z</time>
      </trkpt>
      <trkpt lat="43.02932" lon="-0.15155">
        <ele>1200.41</ele>
        <time>2017-07-31T09:32:40Z</time>
      </trkpt>
      <trkpt lat="43.02926" lon="-0.15148">
        <ele>1199.61</ele>
        <time>2017-07-31T09:32:42Z</time>
      </trkpt>
      <trkpt lat="43.02922" lon="-0.15144">
        <ele>1198.79</ele>
        <time>2017-07-31T09:32:44Z</time>
      </trkpt>
      <trkpt lat="43.02918" lon="-0.15138">
        <ele>1197.56</ele>
        <time>2017-07-31T09:32:47Z</time>
      </trkpt>
      <trkpt lat="43.02913" lon="-0.15133">
        <ele>1196.32</ele>
        <time>2017-07-31T09:32:50Z</time>
      </trkpt>
      <trkpt lat="43.02908" lon="-0.15129">
        <ele>1195</ele>
        <time>2017-07-31T09:32:53Z</time>
      </trkpt>
      <trkpt lat="43.02904" lon="-0.15126">
        <ele>1193.6</ele>
        <time>2017-07-31T09:32:56Z</time>
      </trkpt>
      <trkpt lat="43.02901" lon="-0.15121">
        <ele>1192.11</ele>
        <time>2017-07-31T09:32:59Z</time>
      </trkpt>
      <trkpt lat="43.02896" lon="-0.15115">
        <ele>1190.02</ele>
        <time>2017-07-31T09:33:03Z</time>
      </trkpt>
      <trkpt lat="43.02893" lon="-0.15111">
        <ele>1188.4</ele>
        <time>2017-07-31T09:33:06Z</time>
      </trkpt>
      <trkpt lat="43.0289" lon="-0.15105">
        <ele>1186.77</ele>
        <time>2017-07-31T09:33:09Z</time>
      </trkpt>
      <trkpt lat="43.02886" lon="-0.15101">
        <ele>1185.14</ele>
        <time>2017-07-31T09:33:12Z</time>
      </trkpt>
      <trkpt lat="43.02883" lon="-0.15094">
        <ele>1183.54</ele>
        <time>2017-07-31T09:33:15Z</time>
      </trkpt>
      <trkpt lat="43.0288" lon="-0.15089">
        <ele>1182.02</ele>
        <time>2017-07-31T09:33:18Z</time>
      </trkpt>
      <trkpt lat="43.02876" lon="-0.15083">
        <ele>1179.99</ele>
        <time>2017-07-31T09:33:22Z</time>
      </trkpt>
      <trkpt lat="43.02873" lon="-0.15078">
        <ele>1178.44</ele>
        <time>2017-07-31T09:33:25Z</time>
      </trkpt>
      <trkpt lat="43.02868" lon="-0.15075">
        <ele>1176.85</ele>
        <time>2017-07-31T09:33:28Z</time>
      </trkpt>
      <trkpt lat="43.02864" lon="-0.1507">
        <ele>1175.23</ele>
        <time>2017-07-31T09:33:31Z</time>
      </trkpt>
      <trkpt lat="43.02858" lon="-0.15065">
        <ele>1173.55</ele>
        <time>2017-07-31T09:33:34Z</time>
      </trkpt>
      <trkpt lat="43.02853" lon="-0.15061">
        <ele>1171.81</ele>
        <time>2017-07-31T09:33:37Z</time>
      </trkpt>
      <trkpt lat="43.02848" lon="-0.15057">
        <ele>1170.04</ele>
        <time>2017-07-31T09:33:40Z</time>
      </trkpt>
      <trkpt lat="43.02842" lon="-0.15052">
        <ele>1168.22</ele>
        <time>2017-07-31T09:33:43Z</time>
      </trkpt>
      <trkpt lat="43.02839" lon="-0.15049">
        <ele>1167.01</ele>
        <time>2017-07-31T09:33:45Z</time>
      </trkpt>
      <trkpt lat="43.02834" lon="-0.15044">
        <ele>1165.84</ele>
        <time>2017-07-31T09:33:47Z</time>
      </trkpt>
      <trkpt lat="43.0283" lon="-0.1504">
        <ele>1164.66</ele>
        <time>2017-07-31T09:33:49Z</time>
      </trkpt>
      <trkpt lat="43.02826" lon="-0.15036">
        <ele>1163.5</ele>
        <time>2017-07-31T09:33:51Z</time>
      </trkpt>
      <trkpt lat="43.02823" lon="-0.15032">
        <ele>1162.35</ele>
        <time>2017-07-31T09:33:53Z</time>
      </trkpt>
      <trkpt lat="43.02819" lon="-0.15026">
        <ele>1160.65</ele>
        <time>2017-07-31T09:33:56Z</time>
      </trkpt>
      <trkpt lat="43.02815" lon="-0.15022">
        <ele>1158.91</ele>
        <time>2017-07-31T09:33:59Z</time>
      </trkpt>
      <trkpt lat="43.02811" lon="-0.15017">
        <ele>1156.5</ele>
        <time>2017-07-31T09:34:03Z</time>
      </trkpt>
      <trkpt lat="43.02806" lon="-0.15014">
        <ele>1154.59</ele>
        <time>2017-07-31T09:34:06Z</time>
      </trkpt>
      <trkpt lat="43.02801" lon="-0.15011">
        <ele>1153.25</ele>
        <time>2017-07-31T09:34:08Z</time>
      </trkpt>
      <trkpt lat="43.02796" lon="-0.15007">
        <ele>1151.9</ele>
        <time>2017-07-31T09:34:10Z</time>
      </trkpt>
      <trkpt lat="43.02792" lon="-0.15003">
        <ele>1150.55</ele>
        <time>2017-07-31T09:34:12Z</time>
      </trkpt>
      <trkpt lat="43.02789" lon="-0.14998">
        <ele>1148.51</ele>
        <time>2017-07-31T09:34:15Z</time>
      </trkpt>
      <trkpt lat="43.02785" lon="-0.14993">
        <ele>1146.48</ele>
        <time>2017-07-31T09:34:18Z</time>
      </trkpt>
      <trkpt lat="43.0278" lon="-0.14991">
        <ele>1143.77</ele>
        <time>2017-07-31T09:34:22Z</time>
      </trkpt>
      <trkpt lat="43.02775" lon="-0.14988">
        <ele>1141.73</ele>
        <time>2017-07-31T09:34:25Z</time>
      </trkpt>
      <trkpt lat="43.02771" lon="-0.14984">
        <ele>1139.65</ele>
        <time>2017-07-31T09:34:28Z</time>
      </trkpt>
      <trkpt lat="43.02767" lon="-0.1498">
        <ele>1138.01</ele>
        <time>2017-07-31T09:34:31Z</time>
      </trkpt>
      <trkpt lat="43.02763" lon="-0.14975">
        <ele>1134.88</ele>
        <time>2017-07-31T09:34:43Z</time>
      </trkpt>
      <trkpt lat="43.0276" lon="-0.14971">
        <ele>1133.51</ele>
        <time>2017-07-31T09:34:45Z</time>
      </trkpt>
      <trkpt lat="43.02755" lon="-0.14966">
        <ele>1132.15</ele>
        <time>2017-07-31T09:34:47Z</time>
      </trkpt>
      <trkpt lat="43.02749" lon="-0.14962">
        <ele>1130.12</ele>
        <time>2017-07-31T09:34:50Z</time>
      </trkpt>
      <trkpt lat="43.02745" lon="-0.14958">
        <ele>1128.76</ele>
        <time>2017-07-31T09:34:52Z</time>
      </trkpt>
      <trkpt lat="43.0274" lon="-0.14954">
        <ele>1126.66</ele>
        <time>2017-07-31T09:34:55Z</time>
      </trkpt>
      <trkpt lat="43.02734" lon="-0.14952">
        <ele>1124.54</ele>
        <time>2017-07-31T09:34:58Z</time>
      </trkpt>
      <trkpt lat="43.02731" lon="-0.14947">
        <ele>1123.16</ele>
        <time>2017-07-31T09:35:00Z</time>
      </trkpt>
      <trkpt lat="43.02728" lon="-0.1494">
        <ele>1120.66</ele>
        <time>2017-07-31T09:35:04Z</time>
      </trkpt>
      <trkpt lat="43.02724" lon="-0.14935">
        <ele>1118.99</ele>
        <time>2017-07-31T09:35:07Z</time>
      </trkpt>
      <trkpt lat="43.0272" lon="-0.14931">
        <ele>1117.43</ele>
        <time>2017-07-31T09:35:10Z</time>
      </trkpt>
      <trkpt lat="43.02716" lon="-0.14928">
        <ele>1115.92</ele>
        <time>2017-07-31T09:35:13Z</time>
      </trkpt>
      <trkpt lat="43.02712" lon="-0.14924">
        <ele>1114.41</ele>
        <time>2017-07-31T09:35:16Z</time>
      </trkpt>
      <trkpt lat="43.02707" lon="-0.1492">
        <ele>1112.91</ele>
        <time>2017-07-31T09:35:19Z</time>
      </trkpt>
      <trkpt lat="43.02703" lon="-0.14916">
        <ele>1111.49</ele>
        <time>2017-07-31T09:35:22Z</time>
      </trkpt>
      <trkpt lat="43.02697" lon="-0.14912">
        <ele>1110.07</ele>
        <time>2017-07-31T09:35:25Z</time>
      </trkpt>
      <trkpt lat="43.02693" lon="-0.14907">
        <ele>1108.65</ele>
        <time>2017-07-31T09:35:28Z</time>
      </trkpt>
      <trkpt lat="43.02688" lon="-0.14903">
        <ele>1106.73</ele>
        <time>2017-07-31T09:35:32Z</time>
      </trkpt>
      <trkpt lat="43.02683" lon="-0.149">
        <ele>1104.75</ele>
        <time>2017-07-31T09:35:36Z</time>
      </trkpt>
      <trkpt lat="43.02678" lon="-0.14897">
        <ele>1103.28</ele>
        <time>2017-07-31T09:35:39Z</time>
      </trkpt>
      <trkpt lat="43.02674" lon="-0.14893">
        <ele>1101.79</ele>
        <time>2017-07-31T09:35:42Z</time>
      </trkpt>
      <trkpt lat="43.02669" lon="-0.1489">
        <ele>1100.79</ele>
        <time>2017-07-31T09:35:44Z</time>
      </trkpt>
      <trkpt lat="43.02665" lon="-0.14887">
        <ele>1099.76</ele>
        <time>2017-07-31T09:35:46Z</time>
      </trkpt>
      <trkpt lat="43.02659" lon="-0.14883">
        <ele>1098.17</ele>
        <time>2017-07-31T09:35:49Z</time>
      </trkpt>
      <trkpt lat="43.02654" lon="-0.14878">
        <ele>1096.55</ele>
        <time>2017-07-31T09:35:52Z</time>
      </trkpt>
      <trkpt lat="43.02649" lon="-0.14873">
        <ele>1095.45</ele>
        <time>2017-07-31T09:35:54Z</time>
      </trkpt>
      <trkpt lat="43.02644" lon="-0.14868">
        <ele>1094.31</ele>
        <time>2017-07-31T09:35:56Z</time>
      </trkpt>
      <trkpt lat="43.02639" lon="-0.14866">
        <ele>1093.16</ele>
        <time>2017-07-31T09:35:58Z</time>
      </trkpt>
      <trkpt lat="43.02634" lon="-0.14865">
        <ele>1092.01</ele>
        <time>2017-07-31T09:36:00Z</time>
      </trkpt>
      <trkpt lat="43.0263" lon="-0.14863">
        <ele>1089.7</ele>
        <time>2017-07-31T09:36:04Z</time>
      </trkpt>
      <trkpt lat="43.02625" lon="-0.14861">
        <ele>1085.41</ele>
        <time>2017-07-31T09:36:22Z</time>
      </trkpt>
      <trkpt lat="43.02621" lon="-0.14857">
        <ele>1081.19</ele>
        <time>2017-07-31T09:36:41Z</time>
      </trkpt>
      <trkpt lat="43.02615" lon="-0.14857">
        <ele>1077.25</ele>
        <time>2017-07-31T09:37:00Z</time>
      </trkpt>
      <trkpt lat="43.02609" lon="-0.14861">
        <ele>1076.18</ele>
        <time>2017-07-31T09:37:03Z</time>
      </trkpt>
      <trkpt lat="43.02602" lon="-0.14861">
        <ele>1075.48</ele>
        <time>2017-07-31T09:37:05Z</time>
      </trkpt>
      <trkpt lat="43.02597" lon="-0.14862">
        <ele>1074.79</ele>
        <time>2017-07-31T09:37:07Z</time>
      </trkpt>
      <trkpt lat="43.02592" lon="-0.14863">
        <ele>1073.99</ele>
        <time>2017-07-31T09:37:10Z</time>
      </trkpt>
      <trkpt lat="43.02587" lon="-0.14864">
        <ele>1072.2</ele>
        <time>2017-07-31T09:37:17Z</time>
      </trkpt>
      <trkpt lat="43.02582" lon="-0.14866">
        <ele>1070.7</ele>
        <time>2017-07-31T09:37:23Z</time>
      </trkpt>
      <trkpt lat="43.02577" lon="-0.14867">
        <ele>1069.67</ele>
        <time>2017-07-31T09:37:26Z</time>
      </trkpt>
      <trkpt lat="43.02572" lon="-0.14869">
        <ele>1068.62</ele>
        <time>2017-07-31T09:37:29Z</time>
      </trkpt>
      <trkpt lat="43.02568" lon="-0.14871">
        <ele>1067.24</ele>
        <time>2017-07-31T09:37:33Z</time>
      </trkpt>
      <trkpt lat="43.02563" lon="-0.14871">
        <ele>1066.21</ele>
        <time>2017-07-31T09:37:36Z</time>
      </trkpt>
      <trkpt lat="43.02558" lon="-0.14869">
        <ele>1065.16</ele>
        <time>2017-07-31T09:37:39Z</time>
      </trkpt>
      <trkpt lat="43.02552" lon="-0.14867">
        <ele>1063.73</ele>
        <time>2017-07-31T09:37:43Z</time>
      </trkpt>
      <trkpt lat="43.02547" lon="-0.14865">
        <ele>1062.25</ele>
        <time>2017-07-31T09:37:47Z</time>
      </trkpt>
      <trkpt lat="43.02542" lon="-0.14862">
        <ele>1060.79</ele>
        <time>2017-07-31T09:37:51Z</time>
      </trkpt>
      <trkpt lat="43.02539" lon="-0.14857">
        <ele>1058.94</ele>
        <time>2017-07-31T09:37:56Z</time>
      </trkpt>
      <trkpt lat="43.02534" lon="-0.14854">
        <ele>1056.75</ele>
        <time>2017-07-31T09:38:02Z</time>
      </trkpt>
      <trkpt lat="43.0253" lon="-0.14849">
        <ele>1055.71</ele>
        <time>2017-07-31T09:38:05Z</time>
      </trkpt>
      <trkpt lat="43.02526" lon="-0.14845">
        <ele>1054.99</ele>
        <time>2017-07-31T09:38:07Z</time>
      </trkpt>
      <trkpt lat="43.02523" lon="-0.1484">
        <ele>1054.27</ele>
        <time>2017-07-31T09:38:09Z</time>
      </trkpt>
      <trkpt lat="43.02522" lon="-0.14834">
        <ele>1052.9</ele>
        <time>2017-07-31T09:38:13Z</time>
      </trkpt>
      <trkpt lat="43.02519" lon="-0.14828">
        <ele>1051.62</ele>
        <time>2017-07-31T09:38:17Z</time>
      </trkpt>
      <trkpt lat="43.02516" lon="-0.14821">
        <ele>1050.65</ele>
        <time>2017-07-31T09:38:20Z</time>
      </trkpt>
      <trkpt lat="43.02512" lon="-0.14816">
        <ele>1049.61</ele>
        <time>2017-07-31T09:38:23Z</time>
      </trkpt>
      <trkpt lat="43.02509" lon="-0.14811">
        <ele>1048.17</ele>
        <time>2017-07-31T09:38:27Z</time>
      </trkpt>
      <trkpt lat="43.0251" lon="-0.14804">
        <ele>1046.22</ele>
        <time>2017-07-31T09:38:32Z</time>
      </trkpt>
      <trkpt lat="43.02511" lon="-0.14797">
        <ele>1044.99</ele>
        <time>2017-07-31T09:38:35Z</time>
      </trkpt>
      <trkpt lat="43.02512" lon="-0.14789">
        <ele>1043.76</ele>
        <time>2017-07-31T09:38:38Z</time>
      </trkpt>
      <trkpt lat="43.02512" lon="-0.14782">
        <ele>1042.05</ele>
        <time>2017-07-31T09:38:42Z</time>
      </trkpt>
      <trkpt lat="43.02513" lon="-0.14775">
        <ele>1040.4</ele>
        <time>2017-07-31T09:38:55Z</time>
      </trkpt>
      <trkpt lat="43.02517" lon="-0.1477">
        <ele>1039.64</ele>
        <time>2017-07-31T09:38:57Z</time>
      </trkpt>
      <trkpt lat="43.0252" lon="-0.14766">
        <ele>1038.94</ele>
        <time>2017-07-31T09:38:59Z</time>
      </trkpt>
      <trkpt lat="43.02524" lon="-0.14762">
        <ele>1037.98</ele>
        <time>2017-07-31T09:39:02Z</time>
      </trkpt>
      <trkpt lat="43.02527" lon="-0.14757">
        <ele>1037.16</ele>
        <time>2017-07-31T09:39:05Z</time>
      </trkpt>
      <trkpt lat="43.02529" lon="-0.14751">
        <ele>1036.54</ele>
        <time>2017-07-31T09:39:08Z</time>
      </trkpt>
      <trkpt lat="43.02531" lon="-0.14746">
        <ele>1036.24</ele>
        <time>2017-07-31T09:39:10Z</time>
      </trkpt>
      <trkpt lat="43.02532" lon="-0.14739">
        <ele>1035.67</ele>
        <time>2017-07-31T09:39:15Z</time>
      </trkpt>
      <trkpt lat="43.02528" lon="-0.14742">
        <ele>1035.34</ele>
        <time>2017-07-31T09:39:22Z</time>
      </trkpt>
      <trkpt lat="43.02526" lon="-0.14748">
        <ele>1035.45</ele>
        <time>2017-07-31T09:39:39Z</time>
      </trkpt>
      <trkpt lat="43.02524" lon="-0.14742">
        <ele>1035.39</ele>
        <time>2017-07-31T09:39:46Z</time>
      </trkpt>
      <trkpt lat="43.02522" lon="-0.14734">
        <ele>1035.2</ele>
        <time>2017-07-31T09:39:49Z</time>
      </trkpt>
      <trkpt lat="43.02523" lon="-0.14725">
        <ele>1034.88</ele>
        <time>2017-07-31T09:39:52Z</time>
      </trkpt>
      <trkpt lat="43.02523" lon="-0.14717">
        <ele>1034.56</ele>
        <time>2017-07-31T09:39:54Z</time>
      </trkpt>
      <trkpt lat="43.02523" lon="-0.1471">
        <ele>1034.01</ele>
        <time>2017-07-31T09:39:57Z</time>
      </trkpt>
      <trkpt lat="43.0252" lon="-0.14702">
        <ele>1033.35</ele>
        <time>2017-07-31T09:40:00Z</time>
      </trkpt>
      <trkpt lat="43.02517" lon="-0.14694">
        <ele>1032.6</ele>
        <time>2017-07-31T09:40:03Z</time>
      </trkpt>
      <trkpt lat="43.02516" lon="-0.14687">
        <ele>1031.73</ele>
        <time>2017-07-31T09:40:06Z</time>
      </trkpt>
      <trkpt lat="43.02516" lon="-0.14681">
        <ele>1031.06</ele>
        <time>2017-07-31T09:40:08Z</time>
      </trkpt>
      <trkpt lat="43.02517" lon="-0.14674">
        <ele>1029.93</ele>
        <time>2017-07-31T09:40:11Z</time>
      </trkpt>
      <trkpt lat="43.02519" lon="-0.14668">
        <ele>1028.74</ele>
        <time>2017-07-31T09:40:14Z</time>
      </trkpt>
      <trkpt lat="43.02522" lon="-0.14662">
        <ele>1027.11</ele>
        <time>2017-07-31T09:40:18Z</time>
      </trkpt>
      <trkpt lat="43.02524" lon="-0.14654">
        <ele>1025.35</ele>
        <time>2017-07-31T09:40:22Z</time>
      </trkpt>
      <trkpt lat="43.02526" lon="-0.14648">
        <ele>1023.97</ele>
        <time>2017-07-31T09:40:25Z</time>
      </trkpt>
      <trkpt lat="43.02528" lon="-0.14641">
        <ele>1022.54</ele>
        <time>2017-07-31T09:40:28Z</time>
      </trkpt>
      <trkpt lat="43.02529" lon="-0.14634">
        <ele>1019.18</ele>
        <time>2017-07-31T09:40:36Z</time>
      </trkpt>
      <trkpt lat="43.02532" lon="-0.14627">
        <ele>1015.74</ele>
        <time>2017-07-31T09:40:44Z</time>
      </trkpt>
      <trkpt lat="43.02533" lon="-0.14621">
        <ele>1014.27</ele>
        <time>2017-07-31T09:40:47Z</time>
      </trkpt>
      <trkpt lat="43.02534" lon="-0.14614">
        <ele>1012.82</ele>
        <time>2017-07-31T09:40:50Z</time>
      </trkpt>
      <trkpt lat="43.02537" lon="-0.14609">
        <ele>1011.27</ele>
        <time>2017-07-31T09:40:54Z</time>
      </trkpt>
      <trkpt lat="43.02539" lon="-0.14603">
        <ele>1008.17</ele>
        <time>2017-07-31T09:41:04Z</time>
      </trkpt>
      <trkpt lat="43.02541" lon="-0.14596">
        <ele>1006.35</ele>
        <time>2017-07-31T09:41:12Z</time>
      </trkpt>
      <trkpt lat="43.02545" lon="-0.1459">
        <ele>1005.11</ele>
        <time>2017-07-31T09:41:15Z</time>
      </trkpt>
      <trkpt lat="43.02548" lon="-0.14585">
        <ele>1003.9</ele>
        <time>2017-07-31T09:41:18Z</time>
      </trkpt>
      <trkpt lat="43.02551" lon="-0.1458">
        <ele>1002.69</ele>
        <time>2017-07-31T09:41:21Z</time>
      </trkpt>
      <trkpt lat="43.02555" lon="-0.14574">
        <ele>1001.06</ele>
        <time>2017-07-31T09:41:25Z</time>
      </trkpt>
      <trkpt lat="43.02557" lon="-0.14567">
        <ele>1000.23</ele>
        <time>2017-07-31T09:41:27Z</time>
      </trkpt>
      <trkpt lat="43.0256" lon="-0.14562">
        <ele>999.42</ele>
        <time>2017-07-31T09:41:29Z</time>
      </trkpt>
      <trkpt lat="43.02563" lon="-0.14556">
        <ele>998.31</ele>
        <time>2017-07-31T09:41:32Z</time>
      </trkpt>
      <trkpt lat="43.02564" lon="-0.14549">
        <ele>997.22</ele>
        <time>2017-07-31T09:41:35Z</time>
      </trkpt>
      <trkpt lat="43.02567" lon="-0.14543">
        <ele>995.76</ele>
        <time>2017-07-31T09:41:39Z</time>
      </trkpt>
      <trkpt lat="43.02571" lon="-0.14539">
        <ele>994.61</ele>
        <time>2017-07-31T09:41:42Z</time>
      </trkpt>
      <trkpt lat="43.02572" lon="-0.14531">
        <ele>993.42</ele>
        <time>2017-07-31T09:41:45Z</time>
      </trkpt>
      <trkpt lat="43.02574" lon="-0.14525">
        <ele>992.22</ele>
        <time>2017-07-31T09:41:48Z</time>
      </trkpt>
      <trkpt lat="43.02575" lon="-0.14518">
        <ele>990.98</ele>
        <time>2017-07-31T09:41:51Z</time>
      </trkpt>
      <trkpt lat="43.02577" lon="-0.14512">
        <ele>989.68</ele>
        <time>2017-07-31T09:41:54Z</time>
      </trkpt>
      <trkpt lat="43.0258" lon="-0.14506">
        <ele>988.36</ele>
        <time>2017-07-31T09:41:57Z</time>
      </trkpt>
      <trkpt lat="43.02579" lon="-0.14498">
        <ele>986.94</ele>
        <time>2017-07-31T09:42:01Z</time>
      </trkpt>
      <trkpt lat="43.02579" lon="-0.14491">
        <ele>984.97</ele>
        <time>2017-07-31T09:42:05Z</time>
      </trkpt>
      <trkpt lat="43.0258" lon="-0.14483">
        <ele>982.39</ele>
        <time>2017-07-31T09:42:10Z</time>
      </trkpt>
      <trkpt lat="43.02581" lon="-0.14475">
        <ele>980.76</ele>
        <time>2017-07-31T09:42:13Z</time>
      </trkpt>
      <trkpt lat="43.02582" lon="-0.14468">
        <ele>979.06</ele>
        <time>2017-07-31T09:42:16Z</time>
      </trkpt>
      <trkpt lat="43.02586" lon="-0.14463">
        <ele>976.69</ele>
        <time>2017-07-31T09:42:20Z</time>
      </trkpt>
      <trkpt lat="43.02589" lon="-0.14457">
        <ele>974.82</ele>
        <time>2017-07-31T09:42:23Z</time>
      </trkpt>
      <trkpt lat="43.02593" lon="-0.14453">
        <ele>972.88</ele>
        <time>2017-07-31T09:42:26Z</time>
      </trkpt>
      <trkpt lat="43.02599" lon="-0.14448">
        <ele>970.95</ele>
        <time>2017-07-31T09:42:29Z</time>
      </trkpt>
      <trkpt lat="43.02603" lon="-0.14445">
        <ele>968.99</ele>
        <time>2017-07-31T09:42:32Z</time>
      </trkpt>
      <trkpt lat="43.02607" lon="-0.14442">
        <ele>967.68</ele>
        <time>2017-07-31T09:42:34Z</time>
      </trkpt>
      <trkpt lat="43.02612" lon="-0.14437">
        <ele>965.64</ele>
        <time>2017-07-31T09:42:37Z</time>
      </trkpt>
      <trkpt lat="43.02616" lon="-0.14432">
        <ele>963.56</ele>
        <time>2017-07-31T09:42:40Z</time>
      </trkpt>
      <trkpt lat="43.0262" lon="-0.14426">
        <ele>961.4</ele>
        <time>2017-07-31T09:42:43Z</time>
      </trkpt>
      <trkpt lat="43.02622" lon="-0.1442">
        <ele>959.91</ele>
        <time>2017-07-31T09:42:45Z</time>
      </trkpt>
      <trkpt lat="43.02624" lon="-0.14412">
        <ele>957.62</ele>
        <time>2017-07-31T09:42:48Z</time>
      </trkpt>
      <trkpt lat="43.02624" lon="-0.14405">
        <ele>956.1</ele>
        <time>2017-07-31T09:42:50Z</time>
      </trkpt>
      <trkpt lat="43.02625" lon="-0.14399">
        <ele>953.88</ele>
        <time>2017-07-31T09:42:53Z</time>
      </trkpt>
      <trkpt lat="43.02626" lon="-0.14391">
        <ele>951.62</ele>
        <time>2017-07-31T09:42:56Z</time>
      </trkpt>
      <trkpt lat="43.02626" lon="-0.14384">
        <ele>947.52</ele>
        <time>2017-07-31T09:43:04Z</time>
      </trkpt>
      <trkpt lat="43.02628" lon="-0.14378">
        <ele>944.51</ele>
        <time>2017-07-31T09:43:08Z</time>
      </trkpt>
      <trkpt lat="43.0263" lon="-0.14373">
        <ele>940.58</ele>
        <time>2017-07-31T09:43:17Z</time>
      </trkpt>
      <trkpt lat="43.02634" lon="-0.14366">
        <ele>938.46</ele>
        <time>2017-07-31T09:43:20Z</time>
      </trkpt>
      <trkpt lat="43.0264" lon="-0.14363">
        <ele>934.87</ele>
        <time>2017-07-31T09:43:25Z</time>
      </trkpt>
      <trkpt lat="43.02645" lon="-0.14359">
        <ele>933.41</ele>
        <time>2017-07-31T09:43:27Z</time>
      </trkpt>
      <trkpt lat="43.02649" lon="-0.14356">
        <ele>931.95</ele>
        <time>2017-07-31T09:43:29Z</time>
      </trkpt>
      <trkpt lat="43.02653" lon="-0.14357">
        <ele>929.82</ele>
        <time>2017-07-31T09:43:32Z</time>
      </trkpt>
      <trkpt lat="43.02659" lon="-0.1436">
        <ele>927.67</ele>
        <time>2017-07-31T09:43:35Z</time>
      </trkpt>
      <trkpt lat="43.02664" lon="-0.14359">
        <ele>926.25</ele>
        <time>2017-07-31T09:43:37Z</time>
      </trkpt>
      <trkpt lat="43.02668" lon="-0.14361">
        <ele>924.82</ele>
        <time>2017-07-31T09:43:39Z</time>
      </trkpt>
      <trkpt lat="43.02673" lon="-0.14361">
        <ele>923.36</ele>
        <time>2017-07-31T09:43:41Z</time>
      </trkpt>
      <trkpt lat="43.02679" lon="-0.14361">
        <ele>921.86</ele>
        <time>2017-07-31T09:43:43Z</time>
      </trkpt>
      <trkpt lat="43.02686" lon="-0.14359">
        <ele>920.34</ele>
        <time>2017-07-31T09:43:45Z</time>
      </trkpt>
      <trkpt lat="43.02692" lon="-0.14359">
        <ele>918.8</ele>
        <time>2017-07-31T09:43:47Z</time>
      </trkpt>
      <trkpt lat="43.02698" lon="-0.14359">
        <ele>917.25</ele>
        <time>2017-07-31T09:43:49Z</time>
      </trkpt>
      <trkpt lat="43.02704" lon="-0.14359">
        <ele>915.69</ele>
        <time>2017-07-31T09:43:51Z</time>
      </trkpt>
      <trkpt lat="43.02709" lon="-0.14359">
        <ele>913.36</ele>
        <time>2017-07-31T09:43:54Z</time>
      </trkpt>
      <trkpt lat="43.02714" lon="-0.14358">
        <ele>911.01</ele>
        <time>2017-07-31T09:43:57Z</time>
      </trkpt>
      <trkpt lat="43.02717" lon="-0.14353">
        <ele>907.24</ele>
        <time>2017-07-31T09:44:02Z</time>
      </trkpt>
      <trkpt lat="43.02718" lon="-0.14347">
        <ele>902.63</ele>
        <time>2017-07-31T09:44:14Z</time>
      </trkpt>
      <trkpt lat="43.02716" lon="-0.14338">
        <ele>900.66</ele>
        <time>2017-07-31T09:44:17Z</time>
      </trkpt>
      <trkpt lat="43.02714" lon="-0.14328">
        <ele>899.4</ele>
        <time>2017-07-31T09:44:19Z</time>
      </trkpt>
      <trkpt lat="43.02714" lon="-0.14316">
        <ele>898.21</ele>
        <time>2017-07-31T09:44:21Z</time>
      </trkpt>
      <trkpt lat="43.02713" lon="-0.14305">
        <ele>893.47</ele>
        <time>2017-07-31T09:44:23Z</time>
      </trkpt>
      <trkpt lat="43.02711" lon="-0.14299">
        <ele>891.91</ele>
        <time>2017-07-31T09:44:24Z</time>
      </trkpt>
      <trkpt lat="43.02707" lon="-0.14289">
        <ele>887.86</ele>
        <time>2017-07-31T09:44:26Z</time>
      </trkpt>
      <trkpt lat="43.02702" lon="-0.14285">
        <ele>884.5</ele>
        <time>2017-07-31T09:44:27Z</time>
      </trkpt>
      <trkpt lat="43.02697" lon="-0.14281">
        <ele>881.56</ele>
        <time>2017-07-31T09:44:28Z</time>
      </trkpt>
      <trkpt lat="43.02691" lon="-0.14276">
        <ele>879.13</ele>
        <time>2017-07-31T09:44:29Z</time>
      </trkpt>
      <trkpt lat="43.02685" lon="-0.14274">
        <ele>876.96</ele>
        <time>2017-07-31T09:44:30Z</time>
      </trkpt>
      <trkpt lat="43.02679" lon="-0.14272">
        <ele>875.1</ele>
        <time>2017-07-31T09:44:31Z</time>
      </trkpt>
      <trkpt lat="43.02673" lon="-0.1427">
        <ele>873.56</ele>
        <time>2017-07-31T09:44:32Z</time>
      </trkpt>
      <trkpt lat="43.02667" lon="-0.14267">
        <ele>872.11</ele>
        <time>2017-07-31T09:44:33Z</time>
      </trkpt>
      <trkpt lat="43.02658" lon="-0.14266">
        <ele>871.36</ele>
        <time>2017-07-31T09:44:35Z</time>
      </trkpt>
      <trkpt lat="43.02651" lon="-0.14265">
        <ele>870.3</ele>
        <time>2017-07-31T09:44:36Z</time>
      </trkpt>
      <trkpt lat="43.02646" lon="-0.14263">
        <ele>869.09</ele>
        <time>2017-07-31T09:44:37Z</time>
      </trkpt>
      <trkpt lat="43.02638" lon="-0.14261">
        <ele>867.85</ele>
        <time>2017-07-31T09:44:38Z</time>
      </trkpt>
      <trkpt lat="43.02631" lon="-0.14259">
        <ele>866.52</ele>
        <time>2017-07-31T09:44:39Z</time>
      </trkpt>
      <trkpt lat="43.02624" lon="-0.14256">
        <ele>865.34</ele>
        <time>2017-07-31T09:44:40Z</time>
      </trkpt>
      <trkpt lat="43.02619" lon="-0.14255">
        <ele>864.17</ele>
        <time>2017-07-31T09:44:41Z</time>
      </trkpt>
      <trkpt lat="43.02613" lon="-0.14256">
        <ele>862.99</ele>
        <time>2017-07-31T09:44:42Z</time>
      </trkpt>
      <trkpt lat="43.02607" lon="-0.14257">
        <ele>862.01</ele>
        <time>2017-07-31T09:44:43Z</time>
      </trkpt>
      <trkpt lat="43.02601" lon="-0.14259">
        <ele>861.53</ele>
        <time>2017-07-31T09:44:44Z</time>
      </trkpt>
      <trkpt lat="43.02594" lon="-0.14262">
        <ele>861.01</ele>
        <time>2017-07-31T09:44:45Z</time>
      </trkpt>
      <trkpt lat="43.02588" lon="-0.14266">
        <ele>860.3</ele>
        <time>2017-07-31T09:44:46Z</time>
      </trkpt>
      <trkpt lat="43.02582" lon="-0.14269">
        <ele>859.59</ele>
        <time>2017-07-31T09:44:47Z</time>
      </trkpt>
      <trkpt lat="43.02575" lon="-0.14272">
        <ele>859.19</ele>
        <time>2017-07-31T09:44:48Z</time>
      </trkpt>
      <trkpt lat="43.02569" lon="-0.14276">
        <ele>858.75</ele>
        <time>2017-07-31T09:44:49Z</time>
      </trkpt>
      <trkpt lat="43.02563" lon="-0.14281">
        <ele>858.18</ele>
        <time>2017-07-31T09:44:50Z</time>
      </trkpt>
      <trkpt lat="43.02557" lon="-0.14286">
        <ele>857.66</ele>
        <time>2017-07-31T09:44:51Z</time>
      </trkpt>
      <trkpt lat="43.02544" lon="-0.14291">
        <ele>856.99</ele>
        <time>2017-07-31T09:44:52Z</time>
      </trkpt>
      <trkpt lat="43.02533" lon="-0.14295">
        <ele>856.56</ele>
        <time>2017-07-31T09:44:53Z</time>
      </trkpt>
      <trkpt lat="43.02523" lon="-0.14299">
        <ele>855.94</ele>
        <time>2017-07-31T09:44:54Z</time>
      </trkpt>
      <trkpt lat="43.02513" lon="-0.14303">
        <ele>855.06</ele>
        <time>2017-07-31T09:44:55Z</time>
      </trkpt>
      <trkpt lat="43.02504" lon="-0.14308">
        <ele>854.22</ele>
        <time>2017-07-31T09:44:56Z</time>
      </trkpt>
      <trkpt lat="43.02495" lon="-0.14312">
        <ele>853.29</ele>
        <time>2017-07-31T09:44:57Z</time>
      </trkpt>
      <trkpt lat="43.02486" lon="-0.14317">
        <ele>852.34</ele>
        <time>2017-07-31T09:44:58Z</time>
      </trkpt>
      <trkpt lat="43.02477" lon="-0.14321">
        <ele>851.41</ele>
        <time>2017-07-31T09:44:59Z</time>
      </trkpt>
      <trkpt lat="43.02468" lon="-0.14324">
        <ele>850.54</ele>
        <time>2017-07-31T09:45:00Z</time>
      </trkpt>
      <trkpt lat="43.0246" lon="-0.14328">
        <ele>849.72</ele>
        <time>2017-07-31T09:45:01Z</time>
      </trkpt>
      <trkpt lat="43.02452" lon="-0.14332">
        <ele>849.27</ele>
        <time>2017-07-31T09:45:02Z</time>
      </trkpt>
      <trkpt lat="43.02444" lon="-0.14336">
        <ele>848.74</ele>
        <time>2017-07-31T09:45:03Z</time>
      </trkpt>
      <trkpt lat="43.02437" lon="-0.1434">
        <ele>848.07</ele>
        <time>2017-07-31T09:45:04Z</time>
      </trkpt>
      <trkpt lat="43.0243" lon="-0.14345">
        <ele>847.54</ele>
        <time>2017-07-31T09:45:05Z</time>
      </trkpt>
      <trkpt lat="43.02422" lon="-0.1435">
        <ele>847.13</ele>
        <time>2017-07-31T09:45:06Z</time>
      </trkpt>
      <trkpt lat="43.02415" lon="-0.14355">
        <ele>846.63</ele>
        <time>2017-07-31T09:45:07Z</time>
      </trkpt>
      <trkpt lat="43.02409" lon="-0.14361">
        <ele>846.08</ele>
        <time>2017-07-31T09:45:08Z</time>
      </trkpt>
      <trkpt lat="43.02402" lon="-0.14367">
        <ele>845.68</ele>
        <time>2017-07-31T09:45:09Z</time>
      </trkpt>
      <trkpt lat="43.02395" lon="-0.14372">
        <ele>845.2</ele>
        <time>2017-07-31T09:45:10Z</time>
      </trkpt>
      <trkpt lat="43.02389" lon="-0.14377">
        <ele>844.69</ele>
        <time>2017-07-31T09:45:11Z</time>
      </trkpt>
      <trkpt lat="43.02383" lon="-0.14382">
        <ele>844.18</ele>
        <time>2017-07-31T09:45:12Z</time>
      </trkpt>
      <trkpt lat="43.02378" lon="-0.14388">
        <ele>843.77</ele>
        <time>2017-07-31T09:45:13Z</time>
      </trkpt>
      <trkpt lat="43.02372" lon="-0.14394">
        <ele>843.25</ele>
        <time>2017-07-31T09:45:14Z</time>
      </trkpt>
      <trkpt lat="43.02367" lon="-0.144">
        <ele>842.79</ele>
        <time>2017-07-31T09:45:15Z</time>
      </trkpt>
      <trkpt lat="43.02362" lon="-0.14407">
        <ele>842.36</ele>
        <time>2017-07-31T09:45:16Z</time>
      </trkpt>
      <trkpt lat="43.02357" lon="-0.14414">
        <ele>841.94</ele>
        <time>2017-07-31T09:45:17Z</time>
      </trkpt>
      <trkpt lat="43.02353" lon="-0.14422">
        <ele>841.52</ele>
        <time>2017-07-31T09:45:18Z</time>
      </trkpt>
      <trkpt lat="43.02348" lon="-0.14429">
        <ele>841.08</ele>
        <time>2017-07-31T09:45:19Z</time>
      </trkpt>
      <trkpt lat="43.02343" lon="-0.14437">
        <ele>840.63</ele>
        <time>2017-07-31T09:45:20Z</time>
      </trkpt>
      <trkpt lat="43.02339" lon="-0.14444">
        <ele>840.12</ele>
        <time>2017-07-31T09:45:21Z</time>
      </trkpt>
      <trkpt lat="43.02334" lon="-0.14451">
        <ele>839.57</ele>
        <time>2017-07-31T09:45:22Z</time>
      </trkpt>
      <trkpt lat="43.02328" lon="-0.14459">
        <ele>839.02</ele>
        <time>2017-07-31T09:45:23Z</time>
      </trkpt>
      <trkpt lat="43.02322" lon="-0.14466">
        <ele>838.64</ele>
        <time>2017-07-31T09:45:24Z</time>
      </trkpt>
      <trkpt lat="43.02317" lon="-0.14474">
        <ele>838.22</ele>
        <time>2017-07-31T09:45:25Z</time>
      </trkpt>
      <trkpt lat="43.02311" lon="-0.14481">
        <ele>837.67</ele>
        <time>2017-07-31T09:45:26Z</time>
      </trkpt>
      <trkpt lat="43.02306" lon="-0.14489">
        <ele>837.12</ele>
        <time>2017-07-31T09:45:27Z</time>
      </trkpt>
      <trkpt lat="43.023" lon="-0.14498">
        <ele>836.57</ele>
        <time>2017-07-31T09:45:28Z</time>
      </trkpt>
      <trkpt lat="43.02296" lon="-0.14506">
        <ele>835.9</ele>
        <time>2017-07-31T09:45:29Z</time>
      </trkpt>
      <trkpt lat="43.02292" lon="-0.14515">
        <ele>835.09</ele>
        <time>2017-07-31T09:45:30Z</time>
      </trkpt>
      <trkpt lat="43.02289" lon="-0.14521">
        <ele>834.35</ele>
        <time>2017-07-31T09:45:31Z</time>
      </trkpt>
      <trkpt lat="43.02285" lon="-0.14527">
        <ele>833.76</ele>
        <time>2017-07-31T09:45:32Z</time>
      </trkpt>
      <trkpt lat="43.0228" lon="-0.14532">
        <ele>833.16</ele>
        <time>2017-07-31T09:45:33Z</time>
      </trkpt>
      <trkpt lat="43.02276" lon="-0.14538">
        <ele>832.45</ele>
        <time>2017-07-31T09:45:34Z</time>
      </trkpt>
      <trkpt lat="43.02273" lon="-0.14544">
        <ele>831.76</ele>
        <time>2017-07-31T09:45:35Z</time>
      </trkpt>
      <trkpt lat="43.02269" lon="-0.14551">
        <ele>831.08</ele>
        <time>2017-07-31T09:45:36Z</time>
      </trkpt>
      <trkpt lat="43.02265" lon="-0.14555">
        <ele>830.42</ele>
        <time>2017-07-31T09:45:37Z</time>
      </trkpt>
      <trkpt lat="43.0226" lon="-0.14559">
        <ele>829.62</ele>
        <time>2017-07-31T09:45:38Z</time>
      </trkpt>
      <trkpt lat="43.02257" lon="-0.14565">
        <ele>828.89</ele>
        <time>2017-07-31T09:45:39Z</time>
      </trkpt>
      <trkpt lat="43.02254" lon="-0.14572">
        <ele>828.52</ele>
        <time>2017-07-31T09:45:41Z</time>
      </trkpt>
      <trkpt lat="43.02252" lon="-0.14577">
        <ele>828.39</ele>
        <time>2017-07-31T09:45:43Z</time>
      </trkpt>
      <trkpt lat="43.02248" lon="-0.14585">
        <ele>828.24</ele>
        <time>2017-07-31T09:45:46Z</time>
      </trkpt>
      <trkpt lat="43.02245" lon="-0.14593">
        <ele>828.12</ele>
        <time>2017-07-31T09:45:49Z</time>
      </trkpt>
      <trkpt lat="43.02243" lon="-0.14601">
        <ele>828.05</ele>
        <time>2017-07-31T09:45:52Z</time>
      </trkpt>
      <trkpt lat="43.02241" lon="-0.14608">
        <ele>827.99</ele>
        <time>2017-07-31T09:45:55Z</time>
      </trkpt>
      <trkpt lat="43.02236" lon="-0.14613">
        <ele>828.78</ele>
        <time>2017-07-31T09:46:21Z</time>
      </trkpt>
      <trkpt lat="43.02233" lon="-0.1462">
        <ele>829.19</ele>
        <time>2017-07-31T09:46:24Z</time>
      </trkpt>
      <trkpt lat="43.02229" lon="-0.14625">
        <ele>829.88</ele>
        <time>2017-07-31T09:46:27Z</time>
      </trkpt>
      <trkpt lat="43.02227" lon="-0.14632">
        <ele>830.56</ele>
        <time>2017-07-31T09:46:30Z</time>
      </trkpt>
      <trkpt lat="43.02224" lon="-0.1464">
        <ele>831.27</ele>
        <time>2017-07-31T09:46:33Z</time>
      </trkpt>
      <trkpt lat="43.02221" lon="-0.14647">
        <ele>832.02</ele>
        <time>2017-07-31T09:46:36Z</time>
      </trkpt>
      <trkpt lat="43.02217" lon="-0.14655">
        <ele>832.8</ele>
        <time>2017-07-31T09:46:39Z</time>
      </trkpt>
      <trkpt lat="43.02215" lon="-0.14663">
        <ele>833.64</ele>
        <time>2017-07-31T09:46:42Z</time>
      </trkpt>
      <trkpt lat="43.02212" lon="-0.14669">
        <ele>834.54</ele>
        <time>2017-07-31T09:46:45Z</time>
      </trkpt>
      <trkpt lat="43.02209" lon="-0.14676">
        <ele>835.56</ele>
        <time>2017-07-31T09:46:48Z</time>
      </trkpt>
      <trkpt lat="43.02207" lon="-0.14684">
        <ele>836.78</ele>
        <time>2017-07-31T09:46:51Z</time>
      </trkpt>
      <trkpt lat="43.02205" lon="-0.14692">
        <ele>837.64</ele>
        <time>2017-07-31T09:46:53Z</time>
      </trkpt>
      <trkpt lat="43.02204" lon="-0.14701">
        <ele>838.43</ele>
        <time>2017-07-31T09:46:55Z</time>
      </trkpt>
      <trkpt lat="43.02202" lon="-0.14709">
        <ele>839.19</ele>
        <time>2017-07-31T09:46:57Z</time>
      </trkpt>
      <trkpt lat="43.02202" lon="-0.14716">
        <ele>839.9</ele>
        <time>2017-07-31T09:46:59Z</time>
      </trkpt>
      <trkpt lat="43.022" lon="-0.14723">
        <ele>840.54</ele>
        <time>2017-07-31T09:47:01Z</time>
      </trkpt>
      <trkpt lat="43.02195" lon="-0.14746">
        <ele>841.66</ele>
        <time>2017-07-31T09:47:07Z</time>
      </trkpt>
      <trkpt lat="43.02194" lon="-0.14756">
        <ele>842.38</ele>
        <time>2017-07-31T09:47:09Z</time>
      </trkpt>
      <trkpt lat="43.02193" lon="-0.14764">
        <ele>842.74</ele>
        <time>2017-07-31T09:47:11Z</time>
      </trkpt>
      <trkpt lat="43.02192" lon="-0.14773">
        <ele>843.07</ele>
        <time>2017-07-31T09:47:13Z</time>
      </trkpt>
      <trkpt lat="43.02192" lon="-0.14781">
        <ele>843.39</ele>
        <time>2017-07-31T09:47:15Z</time>
      </trkpt>
      <trkpt lat="43.02192" lon="-0.14791">
        <ele>843.65</ele>
        <time>2017-07-31T09:47:17Z</time>
      </trkpt>
      <trkpt lat="43.02192" lon="-0.14799">
        <ele>843.92</ele>
        <time>2017-07-31T09:47:19Z</time>
      </trkpt>
      <trkpt lat="43.02191" lon="-0.14807">
        <ele>844.16</ele>
        <time>2017-07-31T09:47:21Z</time>
      </trkpt>
      <trkpt lat="43.02192" lon="-0.14816">
        <ele>844.43</ele>
        <time>2017-07-31T09:47:23Z</time>
      </trkpt>
      <trkpt lat="43.02192" lon="-0.14827">
        <ele>844.61</ele>
        <time>2017-07-31T09:47:25Z</time>
      </trkpt>
      <trkpt lat="43.02192" lon="-0.14835">
        <ele>844.79</ele>
        <time>2017-07-31T09:47:27Z</time>
      </trkpt>
      <trkpt lat="43.02192" lon="-0.14842">
        <ele>845.06</ele>
        <time>2017-07-31T09:47:29Z</time>
      </trkpt>
      <trkpt lat="43.02192" lon="-0.14848">
        <ele>845.42</ele>
        <time>2017-07-31T09:47:31Z</time>
      </trkpt>
      <trkpt lat="43.02192" lon="-0.14858">
        <ele>845.9</ele>
        <time>2017-07-31T09:47:33Z</time>
      </trkpt>
      <trkpt lat="43.02192" lon="-0.14865">
        <ele>846.56</ele>
        <time>2017-07-31T09:47:35Z</time>
      </trkpt>
      <trkpt lat="43.02192" lon="-0.14873">
        <ele>847.87</ele>
        <time>2017-07-31T09:47:38Z</time>
      </trkpt>
      <trkpt lat="43.02192" lon="-0.14882">
        <ele>848.86</ele>
        <time>2017-07-31T09:47:40Z</time>
      </trkpt>
      <trkpt lat="43.02192" lon="-0.14897">
        <ele>850.15</ele>
        <time>2017-07-31T09:47:43Z</time>
      </trkpt>
      <trkpt lat="43.02193" lon="-0.14908">
        <ele>851.19</ele>
        <time>2017-07-31T09:47:45Z</time>
      </trkpt>
      <trkpt lat="43.02192" lon="-0.14919">
        <ele>852.1</ele>
        <time>2017-07-31T09:47:47Z</time>
      </trkpt>
      <trkpt lat="43.02192" lon="-0.14929">
        <ele>852.93</ele>
        <time>2017-07-31T09:47:49Z</time>
      </trkpt>
      <trkpt lat="43.02191" lon="-0.14937">
        <ele>853.81</ele>
        <time>2017-07-31T09:47:51Z</time>
      </trkpt>
      <trkpt lat="43.02192" lon="-0.14948">
        <ele>854.61</ele>
        <time>2017-07-31T09:47:53Z</time>
      </trkpt>
      <trkpt lat="43.02193" lon="-0.14958">
        <ele>855.32</ele>
        <time>2017-07-31T09:47:55Z</time>
      </trkpt>
      <trkpt lat="43.02193" lon="-0.14966">
        <ele>856</ele>
        <time>2017-07-31T09:47:57Z</time>
      </trkpt>
      <trkpt lat="43.02193" lon="-0.14973">
        <ele>856.63</ele>
        <time>2017-07-31T09:47:59Z</time>
      </trkpt>
      <trkpt lat="43.02193" lon="-0.14984">
        <ele>857.26</ele>
        <time>2017-07-31T09:48:01Z</time>
      </trkpt>
      <trkpt lat="43.02193" lon="-0.14991">
        <ele>857.94</ele>
        <time>2017-07-31T09:48:03Z</time>
      </trkpt>
      <trkpt lat="43.0219" lon="-0.15016">
        <ele>859.17</ele>
        <time>2017-07-31T09:48:08Z</time>
      </trkpt>
      <trkpt lat="43.02188" lon="-0.15025">
        <ele>859.93</ele>
        <time>2017-07-31T09:48:10Z</time>
      </trkpt>
      <trkpt lat="43.02185" lon="-0.15033">
        <ele>860.48</ele>
        <time>2017-07-31T09:48:12Z</time>
      </trkpt>
      <trkpt lat="43.02182" lon="-0.15041">
        <ele>861</ele>
        <time>2017-07-31T09:48:14Z</time>
      </trkpt>
      <trkpt lat="43.02179" lon="-0.15048">
        <ele>861.53</ele>
        <time>2017-07-31T09:48:16Z</time>
      </trkpt>
      <trkpt lat="43.02176" lon="-0.15057">
        <ele>862.03</ele>
        <time>2017-07-31T09:48:18Z</time>
      </trkpt>
      <trkpt lat="43.02173" lon="-0.15066">
        <ele>862.49</ele>
        <time>2017-07-31T09:48:20Z</time>
      </trkpt>
      <trkpt lat="43.0217" lon="-0.15075">
        <ele>862.9</ele>
        <time>2017-07-31T09:48:22Z</time>
      </trkpt>
      <trkpt lat="43.02167" lon="-0.15084">
        <ele>863.28</ele>
        <time>2017-07-31T09:48:24Z</time>
      </trkpt>
      <trkpt lat="43.02164" lon="-0.15091">
        <ele>863.64</ele>
        <time>2017-07-31T09:48:26Z</time>
      </trkpt>
      <trkpt lat="43.02161" lon="-0.15098">
        <ele>863.97</ele>
        <time>2017-07-31T09:48:28Z</time>
      </trkpt>
      <trkpt lat="43.02157" lon="-0.15104">
        <ele>864.32</ele>
        <time>2017-07-31T09:48:30Z</time>
      </trkpt>
      <trkpt lat="43.02152" lon="-0.15115">
        <ele>864.73</ele>
        <time>2017-07-31T09:48:33Z</time>
      </trkpt>
      <trkpt lat="43.02149" lon="-0.15123">
        <ele>865.16</ele>
        <time>2017-07-31T09:48:35Z</time>
      </trkpt>
      <trkpt lat="43.02146" lon="-0.1513">
        <ele>865.5</ele>
        <time>2017-07-31T09:48:37Z</time>
      </trkpt>
      <trkpt lat="43.02141" lon="-0.15141">
        <ele>865.94</ele>
        <time>2017-07-31T09:48:40Z</time>
      </trkpt>
      <trkpt lat="43.02137" lon="-0.15147">
        <ele>866.31</ele>
        <time>2017-07-31T09:48:42Z</time>
      </trkpt>
      <trkpt lat="43.02134" lon="-0.15155">
        <ele>866.63</ele>
        <time>2017-07-31T09:48:44Z</time>
      </trkpt>
      <trkpt lat="43.02131" lon="-0.15162">
        <ele>866.96</ele>
        <time>2017-07-31T09:48:46Z</time>
      </trkpt>
      <trkpt lat="43.02128" lon="-0.1517">
        <ele>867.29</ele>
        <time>2017-07-31T09:48:48Z</time>
      </trkpt>
      <trkpt lat="43.02125" lon="-0.15177">
        <ele>867.63</ele>
        <time>2017-07-31T09:48:50Z</time>
      </trkpt>
      <trkpt lat="43.02121" lon="-0.15184">
        <ele>867.98</ele>
        <time>2017-07-31T09:48:52Z</time>
      </trkpt>
      <trkpt lat="43.02119" lon="-0.1519">
        <ele>868.27</ele>
        <time>2017-07-31T09:48:54Z</time>
      </trkpt>
      <trkpt lat="43.02115" lon="-0.15196">
        <ele>868.66</ele>
        <time>2017-07-31T09:48:56Z</time>
      </trkpt>
      <trkpt lat="43.02112" lon="-0.15202">
        <ele>869.02</ele>
        <time>2017-07-31T09:48:58Z</time>
      </trkpt>
      <trkpt lat="43.0211" lon="-0.15208">
        <ele>869.39</ele>
        <time>2017-07-31T09:49:00Z</time>
      </trkpt>
      <trkpt lat="43.02106" lon="-0.15214">
        <ele>869.77</ele>
        <time>2017-07-31T09:49:02Z</time>
      </trkpt>
      <trkpt lat="43.02104" lon="-0.1522">
        <ele>870.15</ele>
        <time>2017-07-31T09:49:04Z</time>
      </trkpt>
      <trkpt lat="43.02102" lon="-0.15226">
        <ele>870.54</ele>
        <time>2017-07-31T09:49:06Z</time>
      </trkpt>
      <trkpt lat="43.021" lon="-0.15232">
        <ele>870.9</ele>
        <time>2017-07-31T09:49:08Z</time>
      </trkpt>
      <trkpt lat="43.02097" lon="-0.15239">
        <ele>871.46</ele>
        <time>2017-07-31T09:49:11Z</time>
      </trkpt>
      <trkpt lat="43.02095" lon="-0.15245">
        <ele>872.06</ele>
        <time>2017-07-31T09:49:14Z</time>
      </trkpt>
      <trkpt lat="43.02092" lon="-0.15252">
        <ele>872.72</ele>
        <time>2017-07-31T09:49:17Z</time>
      </trkpt>
      <trkpt lat="43.02089" lon="-0.15259">
        <ele>873.42</ele>
        <time>2017-07-31T09:49:20Z</time>
      </trkpt>
      <trkpt lat="43.02087" lon="-0.15265">
        <ele>873.93</ele>
        <time>2017-07-31T09:49:22Z</time>
      </trkpt>
      <trkpt lat="43.02082" lon="-0.15271">
        <ele>874.77</ele>
        <time>2017-07-31T09:49:25Z</time>
      </trkpt>
      <trkpt lat="43.02079" lon="-0.15276">
        <ele>875.7</ele>
        <time>2017-07-31T09:49:28Z</time>
      </trkpt>
      <trkpt lat="43.02076" lon="-0.15282">
        <ele>876.33</ele>
        <time>2017-07-31T09:49:30Z</time>
      </trkpt>
      <trkpt lat="43.02073" lon="-0.15287">
        <ele>876.95</ele>
        <time>2017-07-31T09:49:32Z</time>
      </trkpt>
      <trkpt lat="43.0207" lon="-0.15293">
        <ele>877.58</ele>
        <time>2017-07-31T09:49:34Z</time>
      </trkpt>
      <trkpt lat="43.02068" lon="-0.153">
        <ele>878.21</ele>
        <time>2017-07-31T09:49:36Z</time>
      </trkpt>
      <trkpt lat="43.02066" lon="-0.15307">
        <ele>878.85</ele>
        <time>2017-07-31T09:49:38Z</time>
      </trkpt>
      <trkpt lat="43.02063" lon="-0.15315">
        <ele>879.46</ele>
        <time>2017-07-31T09:49:40Z</time>
      </trkpt>
      <trkpt lat="43.02062" lon="-0.15322">
        <ele>880.04</ele>
        <time>2017-07-31T09:49:42Z</time>
      </trkpt>
      <trkpt lat="43.0206" lon="-0.15329">
        <ele>880.58</ele>
        <time>2017-07-31T09:49:44Z</time>
      </trkpt>
      <trkpt lat="43.0206" lon="-0.15336">
        <ele>881.11</ele>
        <time>2017-07-31T09:49:46Z</time>
      </trkpt>
      <trkpt lat="43.02059" lon="-0.15344">
        <ele>881.9</ele>
        <time>2017-07-31T09:49:49Z</time>
      </trkpt>
      <trkpt lat="43.0206" lon="-0.15351">
        <ele>882.7</ele>
        <time>2017-07-31T09:49:52Z</time>
      </trkpt>
      <trkpt lat="43.02061" lon="-0.15358">
        <ele>884.24</ele>
        <time>2017-07-31T09:49:57Z</time>
      </trkpt>
      <trkpt lat="43.02063" lon="-0.15366">
        <ele>885.26</ele>
        <time>2017-07-31T09:50:00Z</time>
      </trkpt>
      <trkpt lat="43.02066" lon="-0.15373">
        <ele>886.32</ele>
        <time>2017-07-31T09:50:03Z</time>
      </trkpt>
      <trkpt lat="43.02067" lon="-0.15379">
        <ele>887.04</ele>
        <time>2017-07-31T09:50:05Z</time>
      </trkpt>
      <trkpt lat="43.02071" lon="-0.15391">
        <ele>888.29</ele>
        <time>2017-07-31T09:50:09Z</time>
      </trkpt>
      <trkpt lat="43.02073" lon="-0.15398">
        <ele>888.98</ele>
        <time>2017-07-31T09:50:11Z</time>
      </trkpt>
      <trkpt lat="43.02074" lon="-0.15404">
        <ele>889.55</ele>
        <time>2017-07-31T09:50:13Z</time>
      </trkpt>
      <trkpt lat="43.02077" lon="-0.15413">
        <ele>890.41</ele>
        <time>2017-07-31T09:50:16Z</time>
      </trkpt>
      <trkpt lat="43.02079" lon="-0.1542">
        <ele>890.96</ele>
        <time>2017-07-31T09:50:18Z</time>
      </trkpt>
      <trkpt lat="43.02082" lon="-0.15428">
        <ele>891.77</ele>
        <time>2017-07-31T09:50:21Z</time>
      </trkpt>
      <trkpt lat="43.02084" lon="-0.15435">
        <ele>892.28</ele>
        <time>2017-07-31T09:50:23Z</time>
      </trkpt>
      <trkpt lat="43.02085" lon="-0.15441">
        <ele>892.75</ele>
        <time>2017-07-31T09:50:25Z</time>
      </trkpt>
      <trkpt lat="43.02086" lon="-0.15448">
        <ele>893.2</ele>
        <time>2017-07-31T09:50:27Z</time>
      </trkpt>
      <trkpt lat="43.0209" lon="-0.15455">
        <ele>893.9</ele>
        <time>2017-07-31T09:50:30Z</time>
      </trkpt>
      <trkpt lat="43.02094" lon="-0.15467">
        <ele>895.17</ele>
        <time>2017-07-31T09:50:35Z</time>
      </trkpt>
      <trkpt lat="43.02098" lon="-0.15473">
        <ele>896.3</ele>
        <time>2017-07-31T09:50:38Z</time>
      </trkpt>
      <trkpt lat="43.02103" lon="-0.1548">
        <ele>897.39</ele>
        <time>2017-07-31T09:50:41Z</time>
      </trkpt>
      <trkpt lat="43.02106" lon="-0.15487">
        <ele>898.12</ele>
        <time>2017-07-31T09:50:43Z</time>
      </trkpt>
      <trkpt lat="43.02108" lon="-0.15494">
        <ele>898.76</ele>
        <time>2017-07-31T09:50:45Z</time>
      </trkpt>
      <trkpt lat="43.02111" lon="-0.155">
        <ele>899.34</ele>
        <time>2017-07-31T09:50:47Z</time>
      </trkpt>
      <trkpt lat="43.02114" lon="-0.15505">
        <ele>899.85</ele>
        <time>2017-07-31T09:50:49Z</time>
      </trkpt>
      <trkpt lat="43.02119" lon="-0.1551">
        <ele>900.67</ele>
        <time>2017-07-31T09:50:52Z</time>
      </trkpt>
      <trkpt lat="43.02123" lon="-0.15515">
        <ele>901.27</ele>
        <time>2017-07-31T09:50:54Z</time>
      </trkpt>
      <trkpt lat="43.02127" lon="-0.1552">
        <ele>901.9</ele>
        <time>2017-07-31T09:50:56Z</time>
      </trkpt>
      <trkpt lat="43.0213" lon="-0.15525">
        <ele>902.57</ele>
        <time>2017-07-31T09:50:58Z</time>
      </trkpt>
      <trkpt lat="43.02134" lon="-0.15533">
        <ele>903.69</ele>
        <time>2017-07-31T09:51:01Z</time>
      </trkpt>
      <trkpt lat="43.02136" lon="-0.15539">
        <ele>904.46</ele>
        <time>2017-07-31T09:51:03Z</time>
      </trkpt>
      <trkpt lat="43.02138" lon="-0.15546">
        <ele>905.24</ele>
        <time>2017-07-31T09:51:05Z</time>
      </trkpt>
      <trkpt lat="43.0214" lon="-0.15554">
        <ele>906.43</ele>
        <time>2017-07-31T09:51:08Z</time>
      </trkpt>
      <trkpt lat="43.02141" lon="-0.15563">
        <ele>907.63</ele>
        <time>2017-07-31T09:51:11Z</time>
      </trkpt>
      <trkpt lat="43.02141" lon="-0.1557">
        <ele>908.4</ele>
        <time>2017-07-31T09:51:13Z</time>
      </trkpt>
      <trkpt lat="43.02141" lon="-0.15577">
        <ele>909.16</ele>
        <time>2017-07-31T09:51:15Z</time>
      </trkpt>
      <trkpt lat="43.02141" lon="-0.15584">
        <ele>909.9</ele>
        <time>2017-07-31T09:51:17Z</time>
      </trkpt>
      <trkpt lat="43.02142" lon="-0.1559">
        <ele>910.63</ele>
        <time>2017-07-31T09:51:19Z</time>
      </trkpt>
      <trkpt lat="43.02142" lon="-0.15597">
        <ele>911.33</ele>
        <time>2017-07-31T09:51:21Z</time>
      </trkpt>
      <trkpt lat="43.02142" lon="-0.15606">
        <ele>912.37</ele>
        <time>2017-07-31T09:51:24Z</time>
      </trkpt>
      <trkpt lat="43.02142" lon="-0.15614">
        <ele>913.09</ele>
        <time>2017-07-31T09:51:26Z</time>
      </trkpt>
      <trkpt lat="43.02141" lon="-0.15623">
        <ele>913.73</ele>
        <time>2017-07-31T09:51:28Z</time>
      </trkpt>
      <trkpt lat="43.02141" lon="-0.1563">
        <ele>914.29</ele>
        <time>2017-07-31T09:51:30Z</time>
      </trkpt>
      <trkpt lat="43.0214" lon="-0.15637">
        <ele>915.09</ele>
        <time>2017-07-31T09:51:33Z</time>
      </trkpt>
      <trkpt lat="43.0214" lon="-0.15644">
        <ele>915.59</ele>
        <time>2017-07-31T09:51:35Z</time>
      </trkpt>
      <trkpt lat="43.0214" lon="-0.15651">
        <ele>916.04</ele>
        <time>2017-07-31T09:51:37Z</time>
      </trkpt>
      <trkpt lat="43.02139" lon="-0.15657">
        <ele>916.48</ele>
        <time>2017-07-31T09:51:39Z</time>
      </trkpt>
      <trkpt lat="43.02139" lon="-0.15665">
        <ele>917.16</ele>
        <time>2017-07-31T09:51:42Z</time>
      </trkpt>
      <trkpt lat="43.02138" lon="-0.15672">
        <ele>917.61</ele>
        <time>2017-07-31T09:51:44Z</time>
      </trkpt>
      <trkpt lat="43.02138" lon="-0.15679">
        <ele>918.08</ele>
        <time>2017-07-31T09:51:46Z</time>
      </trkpt>
      <trkpt lat="43.02138" lon="-0.15686">
        <ele>918.56</ele>
        <time>2017-07-31T09:51:48Z</time>
      </trkpt>
      <trkpt lat="43.02138" lon="-0.15697">
        <ele>919.17</ele>
        <time>2017-07-31T09:51:51Z</time>
      </trkpt>
      <trkpt lat="43.02138" lon="-0.15704">
        <ele>919.68</ele>
        <time>2017-07-31T09:51:53Z</time>
      </trkpt>
      <trkpt lat="43.02137" lon="-0.15711">
        <ele>920.14</ele>
        <time>2017-07-31T09:51:55Z</time>
      </trkpt>
      <trkpt lat="43.02137" lon="-0.15718">
        <ele>920.58</ele>
        <time>2017-07-31T09:51:57Z</time>
      </trkpt>
      <trkpt lat="43.02136" lon="-0.15724">
        <ele>921.04</ele>
        <time>2017-07-31T09:51:59Z</time>
      </trkpt>
      <trkpt lat="43.02135" lon="-0.1573">
        <ele>921.52</ele>
        <time>2017-07-31T09:52:01Z</time>
      </trkpt>
      <trkpt lat="43.02135" lon="-0.15737">
        <ele>922.01</ele>
        <time>2017-07-31T09:52:03Z</time>
      </trkpt>
      <trkpt lat="43.02134" lon="-0.15744">
        <ele>922.5</ele>
        <time>2017-07-31T09:52:05Z</time>
      </trkpt>
      <trkpt lat="43.02134" lon="-0.15752">
        <ele>923.01</ele>
        <time>2017-07-31T09:52:07Z</time>
      </trkpt>
      <trkpt lat="43.02134" lon="-0.15759">
        <ele>923.5</ele>
        <time>2017-07-31T09:52:09Z</time>
      </trkpt>
      <trkpt lat="43.02133" lon="-0.15766">
        <ele>924.01</ele>
        <time>2017-07-31T09:52:11Z</time>
      </trkpt>
      <trkpt lat="43.02133" lon="-0.15774">
        <ele>924.49</ele>
        <time>2017-07-31T09:52:13Z</time>
      </trkpt>
      <trkpt lat="43.02133" lon="-0.15781">
        <ele>924.96</ele>
        <time>2017-07-31T09:52:15Z</time>
      </trkpt>
      <trkpt lat="43.02133" lon="-0.1579">
        <ele>925.41</ele>
        <time>2017-07-31T09:52:17Z</time>
      </trkpt>
      <trkpt lat="43.02135" lon="-0.15797">
        <ele>925.84</ele>
        <time>2017-07-31T09:52:19Z</time>
      </trkpt>
      <trkpt lat="43.02137" lon="-0.15806">
        <ele>926.26</ele>
        <time>2017-07-31T09:52:21Z</time>
      </trkpt>
      <trkpt lat="43.02138" lon="-0.15814">
        <ele>926.67</ele>
        <time>2017-07-31T09:52:23Z</time>
      </trkpt>
      <trkpt lat="43.0214" lon="-0.15822">
        <ele>927.07</ele>
        <time>2017-07-31T09:52:25Z</time>
      </trkpt>
      <trkpt lat="43.02141" lon="-0.1583">
        <ele>927.46</ele>
        <time>2017-07-31T09:52:27Z</time>
      </trkpt>
      <trkpt lat="43.02144" lon="-0.15836">
        <ele>927.9</ele>
        <time>2017-07-31T09:52:29Z</time>
      </trkpt>
      <trkpt lat="43.02146" lon="-0.15846">
        <ele>928.39</ele>
        <time>2017-07-31T09:52:31Z</time>
      </trkpt>
      <trkpt lat="43.02148" lon="-0.15853">
        <ele>928.88</ele>
        <time>2017-07-31T09:52:33Z</time>
      </trkpt>
      <trkpt lat="43.02149" lon="-0.15861">
        <ele>929.11</ele>
        <time>2017-07-31T09:52:34Z</time>
      </trkpt>
      <trkpt lat="43.0215" lon="-0.15873">
        <ele>929.51</ele>
        <time>2017-07-31T09:52:36Z</time>
      </trkpt>
      <trkpt lat="43.0215" lon="-0.15883">
        <ele>929.84</ele>
        <time>2017-07-31T09:52:38Z</time>
      </trkpt>
      <trkpt lat="43.0215" lon="-0.15892">
        <ele>930.13</ele>
        <time>2017-07-31T09:52:40Z</time>
      </trkpt>
      <trkpt lat="43.02148" lon="-0.15901">
        <ele>930.38</ele>
        <time>2017-07-31T09:52:42Z</time>
      </trkpt>
      <trkpt lat="43.02147" lon="-0.15911">
        <ele>930.59</ele>
        <time>2017-07-31T09:52:44Z</time>
      </trkpt>
      <trkpt lat="43.02146" lon="-0.15922">
        <ele>930.8</ele>
        <time>2017-07-31T09:52:46Z</time>
      </trkpt>
      <trkpt lat="43.02146" lon="-0.15932">
        <ele>931.07</ele>
        <time>2017-07-31T09:52:48Z</time>
      </trkpt>
      <trkpt lat="43.02144" lon="-0.15942">
        <ele>931.39</ele>
        <time>2017-07-31T09:52:50Z</time>
      </trkpt>
      <trkpt lat="43.02139" lon="-0.15949">
        <ele>931.75</ele>
        <time>2017-07-31T09:52:52Z</time>
      </trkpt>
      <trkpt lat="43.02132" lon="-0.15951">
        <ele>932.15</ele>
        <time>2017-07-31T09:52:54Z</time>
      </trkpt>
      <trkpt lat="43.02125" lon="-0.15951">
        <ele>932.58</ele>
        <time>2017-07-31T09:52:56Z</time>
      </trkpt>
      <trkpt lat="43.02118" lon="-0.15951">
        <ele>933.01</ele>
        <time>2017-07-31T09:52:58Z</time>
      </trkpt>
      <trkpt lat="43.02113" lon="-0.15947">
        <ele>933.43</ele>
        <time>2017-07-31T09:53:00Z</time>
      </trkpt>
      <trkpt lat="43.02109" lon="-0.15941">
        <ele>933.84</ele>
        <time>2017-07-31T09:53:02Z</time>
      </trkpt>
      <trkpt lat="43.02108" lon="-0.15934">
        <ele>934.17</ele>
        <time>2017-07-31T09:53:04Z</time>
      </trkpt>
      <trkpt lat="43.02105" lon="-0.15928">
        <ele>934.49</ele>
        <time>2017-07-31T09:53:06Z</time>
      </trkpt>
      <trkpt lat="43.02099" lon="-0.15922">
        <ele>934.88</ele>
        <time>2017-07-31T09:53:08Z</time>
      </trkpt>
      <trkpt lat="43.02095" lon="-0.1592">
        <ele>935.07</ele>
        <time>2017-07-31T09:53:09Z</time>
      </trkpt>
      <trkpt lat="43.02091" lon="-0.15919">
        <ele>936.32</ele>
        <time>2017-07-31T09:53:10Z</time>
      </trkpt>
      <trkpt lat="43.02085" lon="-0.1592">
        <ele>937.47</ele>
        <time>2017-07-31T09:53:11Z</time>
      </trkpt>
      <trkpt lat="43.0208" lon="-0.15921">
        <ele>938.36</ele>
        <time>2017-07-31T09:53:12Z</time>
      </trkpt>
      <trkpt lat="43.02075" lon="-0.15921">
        <ele>938.95</ele>
        <time>2017-07-31T09:53:13Z</time>
      </trkpt>
      <trkpt lat="43.0207" lon="-0.15921">
        <ele>939.15</ele>
        <time>2017-07-31T09:53:14Z</time>
      </trkpt>
      <trkpt lat="43.02065" lon="-0.15922">
        <ele>939.02</ele>
        <time>2017-07-31T09:53:15Z</time>
      </trkpt>
      <trkpt lat="43.02058" lon="-0.15923">
        <ele>938.58</ele>
        <time>2017-07-31T09:53:16Z</time>
      </trkpt>
      <trkpt lat="43.02052" lon="-0.15923">
        <ele>938.05</ele>
        <time>2017-07-31T09:53:17Z</time>
      </trkpt>
      <trkpt lat="43.02046" lon="-0.15923">
        <ele>937.57</ele>
        <time>2017-07-31T09:53:18Z</time>
      </trkpt>
      <trkpt lat="43.02039" lon="-0.15922">
        <ele>937.19</ele>
        <time>2017-07-31T09:53:19Z</time>
      </trkpt>
      <trkpt lat="43.02033" lon="-0.15921">
        <ele>936.86</ele>
        <time>2017-07-31T09:53:20Z</time>
      </trkpt>
      <trkpt lat="43.02027" lon="-0.15921">
        <ele>936.68</ele>
        <time>2017-07-31T09:53:21Z</time>
      </trkpt>
      <trkpt lat="43.0202" lon="-0.1592">
        <ele>936.54</ele>
        <time>2017-07-31T09:53:22Z</time>
      </trkpt>
      <trkpt lat="43.02014" lon="-0.1592">
        <ele>936.45</ele>
        <time>2017-07-31T09:53:23Z</time>
      </trkpt>
      <trkpt lat="43.02008" lon="-0.15919">
        <ele>936.37</ele>
        <time>2017-07-31T09:53:24Z</time>
      </trkpt>
      <trkpt lat="43.02002" lon="-0.1592">
        <ele>936.19</ele>
        <time>2017-07-31T09:53:25Z</time>
      </trkpt>
      <trkpt lat="43.01996" lon="-0.15922">
        <ele>936</ele>
        <time>2017-07-31T09:53:26Z</time>
      </trkpt>
      <trkpt lat="43.0199" lon="-0.15925">
        <ele>935.73</ele>
        <time>2017-07-31T09:53:27Z</time>
      </trkpt>
      <trkpt lat="43.01983" lon="-0.15928">
        <ele>935.55</ele>
        <time>2017-07-31T09:53:28Z</time>
      </trkpt>
      <trkpt lat="43.01976" lon="-0.15929">
        <ele>935.3</ele>
        <time>2017-07-31T09:53:29Z</time>
      </trkpt>
      <trkpt lat="43.01968" lon="-0.15929">
        <ele>935.01</ele>
        <time>2017-07-31T09:53:30Z</time>
      </trkpt>
      <trkpt lat="43.0196" lon="-0.1593">
        <ele>934.74</ele>
        <time>2017-07-31T09:53:31Z</time>
      </trkpt>
      <trkpt lat="43.01951" lon="-0.1593">
        <ele>934.5</ele>
        <time>2017-07-31T09:53:32Z</time>
      </trkpt>
      <trkpt lat="43.01942" lon="-0.1593">
        <ele>934.26</ele>
        <time>2017-07-31T09:53:33Z</time>
      </trkpt>
      <trkpt lat="43.01933" lon="-0.1593">
        <ele>934.04</ele>
        <time>2017-07-31T09:53:34Z</time>
      </trkpt>
      <trkpt lat="43.01925" lon="-0.1593">
        <ele>933.8</ele>
        <time>2017-07-31T09:53:35Z</time>
      </trkpt>
      <trkpt lat="43.01916" lon="-0.15928">
        <ele>933.53</ele>
        <time>2017-07-31T09:53:36Z</time>
      </trkpt>
      <trkpt lat="43.01908" lon="-0.15927">
        <ele>933.28</ele>
        <time>2017-07-31T09:53:37Z</time>
      </trkpt>
      <trkpt lat="43.019" lon="-0.15926">
        <ele>933.06</ele>
        <time>2017-07-31T09:53:38Z</time>
      </trkpt>
      <trkpt lat="43.01893" lon="-0.15924">
        <ele>932.83</ele>
        <time>2017-07-31T09:53:39Z</time>
      </trkpt>
      <trkpt lat="43.01887" lon="-0.15922">
        <ele>932.74</ele>
        <time>2017-07-31T09:53:40Z</time>
      </trkpt>
      <trkpt lat="43.01881" lon="-0.15919">
        <ele>932.71</ele>
        <time>2017-07-31T09:53:41Z</time>
      </trkpt>
      <trkpt lat="43.01875" lon="-0.15918">
        <ele>932.8</ele>
        <time>2017-07-31T09:53:42Z</time>
      </trkpt>
      <trkpt lat="43.01869" lon="-0.15918">
        <ele>932.92</ele>
        <time>2017-07-31T09:53:43Z</time>
      </trkpt>
      <trkpt lat="43.01863" lon="-0.15919">
        <ele>933.13</ele>
        <time>2017-07-31T09:53:44Z</time>
      </trkpt>
      <trkpt lat="43.01858" lon="-0.15921">
        <ele>933.22</ele>
        <time>2017-07-31T09:53:45Z</time>
      </trkpt>
      <trkpt lat="43.01853" lon="-0.15925">
        <ele>933.36</ele>
        <time>2017-07-31T09:53:47Z</time>
      </trkpt>
      <trkpt lat="43.01847" lon="-0.15927">
        <ele>933.54</ele>
        <time>2017-07-31T09:53:49Z</time>
      </trkpt>
      <trkpt lat="43.01842" lon="-0.15928">
        <ele>933.76</ele>
        <time>2017-07-31T09:53:50Z</time>
      </trkpt>
      <trkpt lat="43.01837" lon="-0.15929">
        <ele>934.03</ele>
        <time>2017-07-31T09:53:52Z</time>
      </trkpt>
      <trkpt lat="43.01832" lon="-0.15934">
        <ele>934.35</ele>
        <time>2017-07-31T09:53:54Z</time>
      </trkpt>
      <trkpt lat="43.01826" lon="-0.15938">
        <ele>934.73</ele>
        <time>2017-07-31T09:53:56Z</time>
      </trkpt>
      <trkpt lat="43.0182" lon="-0.15943">
        <ele>935.14</ele>
        <time>2017-07-31T09:53:58Z</time>
      </trkpt>
      <trkpt lat="43.01762" lon="-0.15973">
        <ele>926.4</ele>
        <time>2017-07-31T09:54:10Z</time>
      </trkpt>
      <trkpt lat="43.01763" lon="-0.15967">
        <ele>929.45</ele>
        <time>2017-07-31T09:54:12Z</time>
      </trkpt>
      <trkpt lat="43.01767" lon="-0.15971">
        <ele>930.36</ele>
        <time>2017-07-31T09:54:26Z</time>
      </trkpt>
      <trkpt lat="43.01761" lon="-0.15967">
        <ele>924.84</ele>
        <time>2017-07-31T09:54:28Z</time>
      </trkpt>
      <trkpt lat="43.01756" lon="-0.15966">
        <ele>923.73</ele>
        <time>2017-07-31T09:54:31Z</time>
      </trkpt>
      <trkpt lat="43.0175" lon="-0.15965">
        <ele>924.56</ele>
        <time>2017-07-31T09:54:33Z</time>
      </trkpt>
      <trkpt lat="43.01741" lon="-0.15963">
        <ele>925.19</ele>
        <time>2017-07-31T09:54:35Z</time>
      </trkpt>
      <trkpt lat="43.01736" lon="-0.15961">
        <ele>925.42</ele>
        <time>2017-07-31T09:54:36Z</time>
      </trkpt>
      <trkpt lat="43.01731" lon="-0.15958">
        <ele>925.75</ele>
        <time>2017-07-31T09:54:37Z</time>
      </trkpt>
      <trkpt lat="43.01725" lon="-0.15955">
        <ele>926.25</ele>
        <time>2017-07-31T09:54:38Z</time>
      </trkpt>
      <trkpt lat="43.0172" lon="-0.15955">
        <ele>926.58</ele>
        <time>2017-07-31T09:54:39Z</time>
      </trkpt>
      <trkpt lat="43.01714" lon="-0.15956">
        <ele>926.99</ele>
        <time>2017-07-31T09:54:40Z</time>
      </trkpt>
      <trkpt lat="43.01709" lon="-0.15954">
        <ele>927.37</ele>
        <time>2017-07-31T09:54:41Z</time>
      </trkpt>
      <trkpt lat="43.01704" lon="-0.15951">
        <ele>927.48</ele>
        <time>2017-07-31T09:54:42Z</time>
      </trkpt>
      <trkpt lat="43.01699" lon="-0.15948">
        <ele>927.49</ele>
        <time>2017-07-31T09:54:43Z</time>
      </trkpt>
      <trkpt lat="43.01694" lon="-0.15946">
        <ele>927.64</ele>
        <time>2017-07-31T09:54:44Z</time>
      </trkpt>
      <trkpt lat="43.01688" lon="-0.15943">
        <ele>927.7</ele>
        <time>2017-07-31T09:54:45Z</time>
      </trkpt>
      <trkpt lat="43.01682" lon="-0.15941">
        <ele>927.73</ele>
        <time>2017-07-31T09:54:46Z</time>
      </trkpt>
      <trkpt lat="43.01676" lon="-0.15939">
        <ele>927.76</ele>
        <time>2017-07-31T09:54:47Z</time>
      </trkpt>
      <trkpt lat="43.0167" lon="-0.15937">
        <ele>927.76</ele>
        <time>2017-07-31T09:54:48Z</time>
      </trkpt>
      <trkpt lat="43.01664" lon="-0.15935">
        <ele>927.78</ele>
        <time>2017-07-31T09:54:49Z</time>
      </trkpt>
      <trkpt lat="43.01658" lon="-0.15932">
        <ele>927.77</ele>
        <time>2017-07-31T09:54:50Z</time>
      </trkpt>
      <trkpt lat="43.01652" lon="-0.15931">
        <ele>927.75</ele>
        <time>2017-07-31T09:54:51Z</time>
      </trkpt>
      <trkpt lat="43.01646" lon="-0.15929">
        <ele>927.71</ele>
        <time>2017-07-31T09:54:52Z</time>
      </trkpt>
      <trkpt lat="43.01639" lon="-0.15927">
        <ele>927.67</ele>
        <time>2017-07-31T09:54:53Z</time>
      </trkpt>
      <trkpt lat="43.01633" lon="-0.15928">
        <ele>927.59</ele>
        <time>2017-07-31T09:54:54Z</time>
      </trkpt>
      <trkpt lat="43.01627" lon="-0.1593">
        <ele>927.52</ele>
        <time>2017-07-31T09:54:55Z</time>
      </trkpt>
      <trkpt lat="43.01621" lon="-0.15934">
        <ele>927.45</ele>
        <time>2017-07-31T09:54:56Z</time>
      </trkpt>
      <trkpt lat="43.01615" lon="-0.15938">
        <ele>927.4</ele>
        <time>2017-07-31T09:54:57Z</time>
      </trkpt>
      <trkpt lat="43.01609" lon="-0.1594">
        <ele>927.35</ele>
        <time>2017-07-31T09:54:58Z</time>
      </trkpt>
      <trkpt lat="43.01603" lon="-0.15942">
        <ele>927.3</ele>
        <time>2017-07-31T09:54:59Z</time>
      </trkpt>
      <trkpt lat="43.01596" lon="-0.15944">
        <ele>927.26</ele>
        <time>2017-07-31T09:55:00Z</time>
      </trkpt>
      <trkpt lat="43.01583" lon="-0.15944">
        <ele>927.09</ele>
        <time>2017-07-31T09:55:02Z</time>
      </trkpt>
      <trkpt lat="43.01577" lon="-0.15942">
        <ele>926.98</ele>
        <time>2017-07-31T09:55:03Z</time>
      </trkpt>
      <trkpt lat="43.0157" lon="-0.1594">
        <ele>926.86</ele>
        <time>2017-07-31T09:55:04Z</time>
      </trkpt>
      <trkpt lat="43.01564" lon="-0.15939">
        <ele>926.73</ele>
        <time>2017-07-31T09:55:05Z</time>
      </trkpt>
      <trkpt lat="43.01557" lon="-0.15937">
        <ele>926.59</ele>
        <time>2017-07-31T09:55:06Z</time>
      </trkpt>
      <trkpt lat="43.0155" lon="-0.15935">
        <ele>926.5</ele>
        <time>2017-07-31T09:55:07Z</time>
      </trkpt>
      <trkpt lat="43.01544" lon="-0.15932">
        <ele>926.38</ele>
        <time>2017-07-31T09:55:08Z</time>
      </trkpt>
      <trkpt lat="43.01537" lon="-0.1593">
        <ele>926.24</ele>
        <time>2017-07-31T09:55:09Z</time>
      </trkpt>
      <trkpt lat="43.01532" lon="-0.15926">
        <ele>926.14</ele>
        <time>2017-07-31T09:55:10Z</time>
      </trkpt>
      <trkpt lat="43.01528" lon="-0.15921">
        <ele>926.16</ele>
        <time>2017-07-31T09:55:11Z</time>
      </trkpt>
      <trkpt lat="43.01525" lon="-0.15915">
        <ele>926.14</ele>
        <time>2017-07-31T09:55:12Z</time>
      </trkpt>
      <trkpt lat="43.01522" lon="-0.15907">
        <ele>925.88</ele>
        <time>2017-07-31T09:55:13Z</time>
      </trkpt>
      <trkpt lat="43.01517" lon="-0.159">
        <ele>925.65</ele>
        <time>2017-07-31T09:55:14Z</time>
      </trkpt>
      <trkpt lat="43.01512" lon="-0.15895">
        <ele>925.46</ele>
        <time>2017-07-31T09:55:15Z</time>
      </trkpt>
      <trkpt lat="43.01506" lon="-0.15889">
        <ele>925.31</ele>
        <time>2017-07-31T09:55:16Z</time>
      </trkpt>
      <trkpt lat="43.015" lon="-0.15885">
        <ele>925.14</ele>
        <time>2017-07-31T09:55:17Z</time>
      </trkpt>
      <trkpt lat="43.01493" lon="-0.15882">
        <ele>924.9</ele>
        <time>2017-07-31T09:55:18Z</time>
      </trkpt>
      <trkpt lat="43.01488" lon="-0.15881">
        <ele>924.81</ele>
        <time>2017-07-31T09:55:19Z</time>
      </trkpt>
      <trkpt lat="43.01483" lon="-0.15882">
        <ele>924.75</ele>
        <time>2017-07-31T09:55:21Z</time>
      </trkpt>
      <trkpt lat="43.01478" lon="-0.15884">
        <ele>924.74</ele>
        <time>2017-07-31T09:55:23Z</time>
      </trkpt>
      <trkpt lat="43.01474" lon="-0.15889">
        <ele>924.82</ele>
        <time>2017-07-31T09:55:25Z</time>
      </trkpt>
      <trkpt lat="43.0147" lon="-0.15892">
        <ele>924.87</ele>
        <time>2017-07-31T09:55:26Z</time>
      </trkpt>
      <trkpt lat="43.01462" lon="-0.15899">
        <ele>925.48</ele>
        <time>2017-07-31T09:55:28Z</time>
      </trkpt>
      <trkpt lat="43.01459" lon="-0.15903">
        <ele>926.03</ele>
        <time>2017-07-31T09:55:29Z</time>
      </trkpt>
      <trkpt lat="43.01453" lon="-0.15912">
        <ele>926.27</ele>
        <time>2017-07-31T09:55:31Z</time>
      </trkpt>
      <trkpt lat="43.01445" lon="-0.15921">
        <ele>926.49</ele>
        <time>2017-07-31T09:55:34Z</time>
      </trkpt>
      <trkpt lat="43.01443" lon="-0.15929">
        <ele>926.71</ele>
        <time>2017-07-31T09:55:37Z</time>
      </trkpt>
      <trkpt lat="43.01444" lon="-0.15939">
        <ele>927.03</ele>
        <time>2017-07-31T09:55:41Z</time>
      </trkpt>
      <trkpt lat="43.01447" lon="-0.1595">
        <ele>928.21</ele>
        <time>2017-07-31T09:55:43Z</time>
      </trkpt>
      <trkpt lat="43.01449" lon="-0.15957">
        <ele>928.64</ele>
        <time>2017-07-31T09:55:44Z</time>
      </trkpt>
      <trkpt lat="43.0145" lon="-0.15963">
        <ele>929.01</ele>
        <time>2017-07-31T09:55:45Z</time>
      </trkpt>
      <trkpt lat="43.01451" lon="-0.1597">
        <ele>929.26</ele>
        <time>2017-07-31T09:55:46Z</time>
      </trkpt>
      <trkpt lat="43.01452" lon="-0.15977">
        <ele>929.44</ele>
        <time>2017-07-31T09:55:47Z</time>
      </trkpt>
      <trkpt lat="43.01453" lon="-0.15985">
        <ele>929.54</ele>
        <time>2017-07-31T09:55:48Z</time>
      </trkpt>
      <trkpt lat="43.01454" lon="-0.15992">
        <ele>929.53</ele>
        <time>2017-07-31T09:55:49Z</time>
      </trkpt>
      <trkpt lat="43.01454" lon="-0.15999">
        <ele>929.38</ele>
        <time>2017-07-31T09:55:50Z</time>
      </trkpt>
      <trkpt lat="43.01455" lon="-0.16006">
        <ele>929.11</ele>
        <time>2017-07-31T09:55:51Z</time>
      </trkpt>
      <trkpt lat="43.01455" lon="-0.16012">
        <ele>928.8</ele>
        <time>2017-07-31T09:55:52Z</time>
      </trkpt>
      <trkpt lat="43.01455" lon="-0.1602">
        <ele>928.45</ele>
        <time>2017-07-31T09:55:53Z</time>
      </trkpt>
      <trkpt lat="43.01455" lon="-0.16028">
        <ele>928.08</ele>
        <time>2017-07-31T09:55:54Z</time>
      </trkpt>
      <trkpt lat="43.01455" lon="-0.16036">
        <ele>927.64</ele>
        <time>2017-07-31T09:55:55Z</time>
      </trkpt>
      <trkpt lat="43.01455" lon="-0.16044">
        <ele>927.12</ele>
        <time>2017-07-31T09:55:56Z</time>
      </trkpt>
      <trkpt lat="43.01455" lon="-0.16052">
        <ele>926.56</ele>
        <time>2017-07-31T09:55:57Z</time>
      </trkpt>
      <trkpt lat="43.01455" lon="-0.16059">
        <ele>926</ele>
        <time>2017-07-31T09:55:58Z</time>
      </trkpt>
      <trkpt lat="43.01455" lon="-0.16067">
        <ele>925.47</ele>
        <time>2017-07-31T09:55:59Z</time>
      </trkpt>
      <trkpt lat="43.01455" lon="-0.16074">
        <ele>924.98</ele>
        <time>2017-07-31T09:56:00Z</time>
      </trkpt>
      <trkpt lat="43.01455" lon="-0.16082">
        <ele>924.62</ele>
        <time>2017-07-31T09:56:01Z</time>
      </trkpt>
      <trkpt lat="43.01455" lon="-0.16089">
        <ele>924.36</ele>
        <time>2017-07-31T09:56:02Z</time>
      </trkpt>
      <trkpt lat="43.01455" lon="-0.16096">
        <ele>924.28</ele>
        <time>2017-07-31T09:56:03Z</time>
      </trkpt>
      <trkpt lat="43.01455" lon="-0.1611">
        <ele>924.44</ele>
        <time>2017-07-31T09:56:05Z</time>
      </trkpt>
      <trkpt lat="43.01455" lon="-0.16118">
        <ele>924.54</ele>
        <time>2017-07-31T09:56:06Z</time>
      </trkpt>
      <trkpt lat="43.01455" lon="-0.16128">
        <ele>924.41</ele>
        <time>2017-07-31T09:56:07Z</time>
      </trkpt>
      <trkpt lat="43.01456" lon="-0.16134">
        <ele>924.28</ele>
        <time>2017-07-31T09:56:08Z</time>
      </trkpt>
      <trkpt lat="43.01455" lon="-0.16145">
        <ele>924.38</ele>
        <time>2017-07-31T09:56:10Z</time>
      </trkpt>
      <trkpt lat="43.01453" lon="-0.16154">
        <ele>924.55</ele>
        <time>2017-07-31T09:56:12Z</time>
      </trkpt>
      <trkpt lat="43.01453" lon="-0.16162">
        <ele>924.98</ele>
        <time>2017-07-31T09:56:15Z</time>
      </trkpt>
      <trkpt lat="43.01452" lon="-0.16171">
        <ele>925.36</ele>
        <time>2017-07-31T09:56:17Z</time>
      </trkpt>
      <trkpt lat="43.01404" lon="-0.16273">
        <ele>941.95</ele>
        <time>2017-07-31T09:56:40Z</time>
      </trkpt>
      <trkpt lat="43.01399" lon="-0.16276">
        <ele>947.22</ele>
        <time>2017-07-31T09:56:41Z</time>
      </trkpt>
      <trkpt lat="43.01394" lon="-0.1628">
        <ele>948.94</ele>
        <time>2017-07-31T09:56:42Z</time>
      </trkpt>
      <trkpt lat="43.01388" lon="-0.16284">
        <ele>949.74</ele>
        <time>2017-07-31T09:56:43Z</time>
      </trkpt>
      <trkpt lat="43.01384" lon="-0.16286">
        <ele>949.85</ele>
        <time>2017-07-31T09:56:44Z</time>
      </trkpt>
      <trkpt lat="43.01375" lon="-0.16288">
        <ele>950.1</ele>
        <time>2017-07-31T09:56:46Z</time>
      </trkpt>
      <trkpt lat="43.0137" lon="-0.16288">
        <ele>950.3</ele>
        <time>2017-07-31T09:56:47Z</time>
      </trkpt>
      <trkpt lat="43.01366" lon="-0.16288">
        <ele>950.53</ele>
        <time>2017-07-31T09:56:48Z</time>
      </trkpt>
      <trkpt lat="43.01358" lon="-0.16288">
        <ele>950.89</ele>
        <time>2017-07-31T09:56:50Z</time>
      </trkpt>
      <trkpt lat="43.01196" lon="-0.16129">
        <ele>1006.84</ele>
        <time>2017-07-31T09:57:34Z</time>
      </trkpt>
      <trkpt lat="43.01195" lon="-0.16149">
        <ele>1025.35</ele>
        <time>2017-07-31T09:57:35Z</time>
      </trkpt>
      <trkpt lat="43.01192" lon="-0.16162">
        <ele>1029.08</ele>
        <time>2017-07-31T09:57:36Z</time>
      </trkpt>
      <trkpt lat="43.01187" lon="-0.16164">
        <ele>1027.89</ele>
        <time>2017-07-31T09:57:38Z</time>
      </trkpt>
      <trkpt lat="43.0118" lon="-0.16162">
        <ele>1025.71</ele>
        <time>2017-07-31T09:57:40Z</time>
      </trkpt>
      <trkpt lat="43.01171" lon="-0.16157">
        <ele>1021.9</ele>
        <time>2017-07-31T09:57:42Z</time>
      </trkpt>
      <trkpt lat="43.01167" lon="-0.16155">
        <ele>1019.37</ele>
        <time>2017-07-31T09:57:43Z</time>
      </trkpt>
      <trkpt lat="43.01162" lon="-0.16152">
        <ele>1016.79</ele>
        <time>2017-07-31T09:57:44Z</time>
      </trkpt>
      <trkpt lat="43.01158" lon="-0.1615">
        <ele>1013.11</ele>
        <time>2017-07-31T09:57:45Z</time>
      </trkpt>
      <trkpt lat="43.01152" lon="-0.16146">
        <ele>1006.63</ele>
        <time>2017-07-31T09:57:47Z</time>
      </trkpt>
      <trkpt lat="43.01148" lon="-0.16142">
        <ele>1000.23</ele>
        <time>2017-07-31T09:57:50Z</time>
      </trkpt>
      <trkpt lat="43.01143" lon="-0.16137">
        <ele>985.41</ele>
        <time>2017-07-31T09:57:59Z</time>
      </trkpt>
      <trkpt lat="43.01138" lon="-0.16137">
        <ele>983.25</ele>
        <time>2017-07-31T09:58:13Z</time>
      </trkpt>
      <trkpt lat="43.01133" lon="-0.16139">
        <ele>982.75</ele>
        <time>2017-07-31T09:58:19Z</time>
      </trkpt>
      <trkpt lat="43.01128" lon="-0.16137">
        <ele>982.48</ele>
        <time>2017-07-31T09:58:21Z</time>
      </trkpt>
      <trkpt lat="43.01121" lon="-0.16135">
        <ele>982.18</ele>
        <time>2017-07-31T09:58:23Z</time>
      </trkpt>
      <trkpt lat="43.01115" lon="-0.16134">
        <ele>981.84</ele>
        <time>2017-07-31T09:58:25Z</time>
      </trkpt>
      <trkpt lat="43.01109" lon="-0.16136">
        <ele>981.53</ele>
        <time>2017-07-31T09:58:27Z</time>
      </trkpt>
      <trkpt lat="43.01105" lon="-0.16139">
        <ele>981.27</ele>
        <time>2017-07-31T09:58:29Z</time>
      </trkpt>
      <trkpt lat="43.011" lon="-0.16139">
        <ele>980.83</ele>
        <time>2017-07-31T09:58:33Z</time>
      </trkpt>
      <trkpt lat="43.01106" lon="-0.16138">
        <ele>980.65</ele>
        <time>2017-07-31T09:58:38Z</time>
      </trkpt>
      <trkpt lat="43.01115" lon="-0.16136">
        <ele>980.6</ele>
        <time>2017-07-31T09:58:40Z</time>
      </trkpt>
      <trkpt lat="43.0112" lon="-0.16135">
        <ele>980.55</ele>
        <time>2017-07-31T09:58:41Z</time>
      </trkpt>
      <trkpt lat="43.01128" lon="-0.16134">
        <ele>980.39</ele>
        <time>2017-07-31T09:58:43Z</time>
      </trkpt>
      <trkpt lat="43.01134" lon="-0.16134">
        <ele>980.18</ele>
        <time>2017-07-31T09:58:45Z</time>
      </trkpt>
      <trkpt lat="43.01139" lon="-0.16126">
        <ele>979.94</ele>
        <time>2017-07-31T09:58:47Z</time>
      </trkpt>
      <trkpt lat="43.0114" lon="-0.1612">
        <ele>979.67</ele>
        <time>2017-07-31T09:58:50Z</time>
      </trkpt>
      <trkpt lat="43.01138" lon="-0.16113">
        <ele>979.51</ele>
        <time>2017-07-31T09:58:52Z</time>
      </trkpt>
      <trkpt lat="43.01133" lon="-0.16108">
        <ele>979.38</ele>
        <time>2017-07-31T09:58:54Z</time>
      </trkpt>
      <trkpt lat="43.01128" lon="-0.16104">
        <ele>979.21</ele>
        <time>2017-07-31T09:58:56Z</time>
      </trkpt>
      <trkpt lat="43.01121" lon="-0.16102">
        <ele>979.08</ele>
        <time>2017-07-31T09:58:58Z</time>
      </trkpt>
      <trkpt lat="43.01115" lon="-0.161">
        <ele>978.89</ele>
        <time>2017-07-31T09:59:00Z</time>
      </trkpt>
      <trkpt lat="43.01109" lon="-0.16097">
        <ele>978.67</ele>
        <time>2017-07-31T09:59:02Z</time>
      </trkpt>
      <trkpt lat="43.01104" lon="-0.16095">
        <ele>978.43</ele>
        <time>2017-07-31T09:59:04Z</time>
      </trkpt>
      <trkpt lat="43.01097" lon="-0.16093">
        <ele>978.23</ele>
        <time>2017-07-31T09:59:06Z</time>
      </trkpt>
      <trkpt lat="43.01091" lon="-0.16089">
        <ele>978.05</ele>
        <time>2017-07-31T09:59:08Z</time>
      </trkpt>
      <trkpt lat="43.01087" lon="-0.16083">
        <ele>977.9</ele>
        <time>2017-07-31T09:59:10Z</time>
      </trkpt>
      <trkpt lat="43.01084" lon="-0.16078">
        <ele>977.82</ele>
        <time>2017-07-31T09:59:12Z</time>
      </trkpt>
      <trkpt lat="43.0108" lon="-0.16072">
        <ele>977.8</ele>
        <time>2017-07-31T09:59:14Z</time>
      </trkpt>
      <trkpt lat="43.01076" lon="-0.16066">
        <ele>977.85</ele>
        <time>2017-07-31T09:59:16Z</time>
      </trkpt>
      <trkpt lat="43.01073" lon="-0.16058">
        <ele>978.07</ele>
        <time>2017-07-31T09:59:19Z</time>
      </trkpt>
      <trkpt lat="43.01068" lon="-0.16051">
        <ele>978.34</ele>
        <time>2017-07-31T09:59:21Z</time>
      </trkpt>
      <trkpt lat="43.01061" lon="-0.16045">
        <ele>978.69</ele>
        <time>2017-07-31T09:59:23Z</time>
      </trkpt>
      <trkpt lat="43.01058" lon="-0.16039">
        <ele>979.08</ele>
        <time>2017-07-31T09:59:25Z</time>
      </trkpt>
      <trkpt lat="43.01053" lon="-0.16032">
        <ele>979.51</ele>
        <time>2017-07-31T09:59:27Z</time>
      </trkpt>
      <trkpt lat="43.01047" lon="-0.16024">
        <ele>979.9</ele>
        <time>2017-07-31T09:59:29Z</time>
      </trkpt>
      <trkpt lat="43.01041" lon="-0.16018">
        <ele>980.21</ele>
        <time>2017-07-31T09:59:31Z</time>
      </trkpt>
      <trkpt lat="43.01035" lon="-0.1601">
        <ele>980.47</ele>
        <time>2017-07-31T09:59:33Z</time>
      </trkpt>
      <trkpt lat="43.0103" lon="-0.16001">
        <ele>980.71</ele>
        <time>2017-07-31T09:59:35Z</time>
      </trkpt>
      <trkpt lat="43.01028" lon="-0.15995">
        <ele>980.97</ele>
        <time>2017-07-31T09:59:37Z</time>
      </trkpt>
      <trkpt lat="43.01025" lon="-0.15985">
        <ele>981.65</ele>
        <time>2017-07-31T09:59:40Z</time>
      </trkpt>
      <trkpt lat="43.01022" lon="-0.15975">
        <ele>982.31</ele>
        <time>2017-07-31T09:59:42Z</time>
      </trkpt>
      <trkpt lat="43.01019" lon="-0.15967">
        <ele>983.09</ele>
        <time>2017-07-31T09:59:44Z</time>
      </trkpt>
      <trkpt lat="43.01017" lon="-0.1596">
        <ele>983.93</ele>
        <time>2017-07-31T09:59:46Z</time>
      </trkpt>
      <trkpt lat="43.01015" lon="-0.15952">
        <ele>985.25</ele>
        <time>2017-07-31T09:59:49Z</time>
      </trkpt>
      <trkpt lat="43.01013" lon="-0.15943">
        <ele>986.16</ele>
        <time>2017-07-31T09:59:51Z</time>
      </trkpt>
      <trkpt lat="43.0101" lon="-0.15936">
        <ele>986.61</ele>
        <time>2017-07-31T09:59:52Z</time>
      </trkpt>
      <trkpt lat="43.01008" lon="-0.1593">
        <ele>987.08</ele>
        <time>2017-07-31T09:59:53Z</time>
      </trkpt>
      <trkpt lat="43.01005" lon="-0.1592">
        <ele>987.56</ele>
        <time>2017-07-31T09:59:54Z</time>
      </trkpt>
      <trkpt lat="43.01001" lon="-0.15909">
        <ele>988.52</ele>
        <time>2017-07-31T09:59:56Z</time>
      </trkpt>
      <trkpt lat="43.00999" lon="-0.15903">
        <ele>989</ele>
        <time>2017-07-31T09:59:57Z</time>
      </trkpt>
      <trkpt lat="43.00996" lon="-0.15897">
        <ele>989.48</ele>
        <time>2017-07-31T09:59:58Z</time>
      </trkpt>
      <trkpt lat="43.00993" lon="-0.15888">
        <ele>990.44</ele>
        <time>2017-07-31T10:00:00Z</time>
      </trkpt>
      <trkpt lat="43.00991" lon="-0.15881">
        <ele>991.41</ele>
        <time>2017-07-31T10:00:02Z</time>
      </trkpt>
      <trkpt lat="43.00988" lon="-0.15872">
        <ele>992.33</ele>
        <time>2017-07-31T10:00:04Z</time>
      </trkpt>
      <trkpt lat="43.00986" lon="-0.15866">
        <ele>993.08</ele>
        <time>2017-07-31T10:00:06Z</time>
      </trkpt>
      <trkpt lat="43.00984" lon="-0.1586">
        <ele>993.42</ele>
        <time>2017-07-31T10:00:07Z</time>
      </trkpt>
      <trkpt lat="43.00981" lon="-0.15852">
        <ele>994.01</ele>
        <time>2017-07-31T10:00:09Z</time>
      </trkpt>
      <trkpt lat="43.00977" lon="-0.15843">
        <ele>994.51</ele>
        <time>2017-07-31T10:00:11Z</time>
      </trkpt>
      <trkpt lat="43.00973" lon="-0.15835">
        <ele>995</ele>
        <time>2017-07-31T10:00:13Z</time>
      </trkpt>
      <trkpt lat="43.00968" lon="-0.15827">
        <ele>995.47</ele>
        <time>2017-07-31T10:00:15Z</time>
      </trkpt>
      <trkpt lat="43.00965" lon="-0.15819">
        <ele>995.92</ele>
        <time>2017-07-31T10:00:17Z</time>
      </trkpt>
      <trkpt lat="43.0096" lon="-0.15813">
        <ele>996.35</ele>
        <time>2017-07-31T10:00:19Z</time>
      </trkpt>
      <trkpt lat="43.00956" lon="-0.15806">
        <ele>996.75</ele>
        <time>2017-07-31T10:00:21Z</time>
      </trkpt>
      <trkpt lat="43.00952" lon="-0.15796">
        <ele>997.04</ele>
        <time>2017-07-31T10:00:23Z</time>
      </trkpt>
      <trkpt lat="43.00948" lon="-0.15786">
        <ele>997.35</ele>
        <time>2017-07-31T10:00:25Z</time>
      </trkpt>
      <trkpt lat="43.00946" lon="-0.15779">
        <ele>997.7</ele>
        <time>2017-07-31T10:00:27Z</time>
      </trkpt>
      <trkpt lat="43.00944" lon="-0.15769">
        <ele>998.11</ele>
        <time>2017-07-31T10:00:29Z</time>
      </trkpt>
      <trkpt lat="43.00943" lon="-0.15763">
        <ele>998.32</ele>
        <time>2017-07-31T10:00:30Z</time>
      </trkpt>
      <trkpt lat="43.00939" lon="-0.15756">
        <ele>998.69</ele>
        <time>2017-07-31T10:00:32Z</time>
      </trkpt>
      <trkpt lat="43.00936" lon="-0.15746">
        <ele>999.05</ele>
        <time>2017-07-31T10:00:34Z</time>
      </trkpt>
      <trkpt lat="43.00933" lon="-0.15739">
        <ele>999.38</ele>
        <time>2017-07-31T10:00:36Z</time>
      </trkpt>
      <trkpt lat="43.0093" lon="-0.15729">
        <ele>999.74</ele>
        <time>2017-07-31T10:00:38Z</time>
      </trkpt>
      <trkpt lat="43.00926" lon="-0.15721">
        <ele>1000.06</ele>
        <time>2017-07-31T10:00:40Z</time>
      </trkpt>
      <trkpt lat="43.00922" lon="-0.15713">
        <ele>1000.51</ele>
        <time>2017-07-31T10:00:43Z</time>
      </trkpt>
      <trkpt lat="43.00919" lon="-0.15707">
        <ele>1000.86</ele>
        <time>2017-07-31T10:00:45Z</time>
      </trkpt>
      <trkpt lat="43.00915" lon="-0.15698">
        <ele>1001.25</ele>
        <time>2017-07-31T10:00:47Z</time>
      </trkpt>
      <trkpt lat="43.0091" lon="-0.15691">
        <ele>1001.62</ele>
        <time>2017-07-31T10:00:49Z</time>
      </trkpt>
      <trkpt lat="43.00905" lon="-0.15683">
        <ele>1001.97</ele>
        <time>2017-07-31T10:00:51Z</time>
      </trkpt>
      <trkpt lat="43.009" lon="-0.15675">
        <ele>1002.27</ele>
        <time>2017-07-31T10:00:53Z</time>
      </trkpt>
      <trkpt lat="43.00897" lon="-0.15667">
        <ele>1002.57</ele>
        <time>2017-07-31T10:00:55Z</time>
      </trkpt>
      <trkpt lat="43.00893" lon="-0.15661">
        <ele>1002.93</ele>
        <time>2017-07-31T10:00:57Z</time>
      </trkpt>
      <trkpt lat="43.0089" lon="-0.15653">
        <ele>1003.31</ele>
        <time>2017-07-31T10:00:59Z</time>
      </trkpt>
      <trkpt lat="43.00888" lon="-0.15646">
        <ele>1003.68</ele>
        <time>2017-07-31T10:01:01Z</time>
      </trkpt>
      <trkpt lat="43.00885" lon="-0.1564">
        <ele>1004.05</ele>
        <time>2017-07-31T10:01:03Z</time>
      </trkpt>
      <trkpt lat="43.00881" lon="-0.15633">
        <ele>1004.47</ele>
        <time>2017-07-31T10:01:05Z</time>
      </trkpt>
      <trkpt lat="43.00876" lon="-0.15627">
        <ele>1004.88</ele>
        <time>2017-07-31T10:01:07Z</time>
      </trkpt>
      <trkpt lat="43.00871" lon="-0.15619">
        <ele>1005.28</ele>
        <time>2017-07-31T10:01:09Z</time>
      </trkpt>
      <trkpt lat="43.00868" lon="-0.1561">
        <ele>1005.69</ele>
        <time>2017-07-31T10:01:11Z</time>
      </trkpt>
      <trkpt lat="43.00864" lon="-0.15604">
        <ele>1006.14</ele>
        <time>2017-07-31T10:01:13Z</time>
      </trkpt>
      <trkpt lat="43.00861" lon="-0.15597">
        <ele>1006.64</ele>
        <time>2017-07-31T10:01:15Z</time>
      </trkpt>
      <trkpt lat="43.00858" lon="-0.1559">
        <ele>1007.18</ele>
        <time>2017-07-31T10:01:17Z</time>
      </trkpt>
      <trkpt lat="43.00853" lon="-0.15584">
        <ele>1007.68</ele>
        <time>2017-07-31T10:01:19Z</time>
      </trkpt>
      <trkpt lat="43.00848" lon="-0.15578">
        <ele>1008.17</ele>
        <time>2017-07-31T10:01:21Z</time>
      </trkpt>
      <trkpt lat="43.00844" lon="-0.15573">
        <ele>1008.41</ele>
        <time>2017-07-31T10:01:22Z</time>
      </trkpt>
      <trkpt lat="43.00836" lon="-0.15565">
        <ele>1008.91</ele>
        <time>2017-07-31T10:01:25Z</time>
      </trkpt>
      <trkpt lat="43.00835" lon="-0.15558">
        <ele>1009.31</ele>
        <time>2017-07-31T10:01:27Z</time>
      </trkpt>
      <trkpt lat="43.00832" lon="-0.1555">
        <ele>1009.98</ele>
        <time>2017-07-31T10:01:30Z</time>
      </trkpt>
      <trkpt lat="43.00825" lon="-0.15545">
        <ele>1010.53</ele>
        <time>2017-07-31T10:01:32Z</time>
      </trkpt>
      <trkpt lat="43.00819" lon="-0.15546">
        <ele>1011.06</ele>
        <time>2017-07-31T10:01:34Z</time>
      </trkpt>
      <trkpt lat="43.00816" lon="-0.15551">
        <ele>1011.51</ele>
        <time>2017-07-31T10:01:36Z</time>
      </trkpt>
      <trkpt lat="43.00814" lon="-0.1556">
        <ele>1012.14</ele>
        <time>2017-07-31T10:01:39Z</time>
      </trkpt>
      <trkpt lat="43.00811" lon="-0.15569">
        <ele>1012.76</ele>
        <time>2017-07-31T10:01:42Z</time>
      </trkpt>
      <trkpt lat="43.00807" lon="-0.15575">
        <ele>1013.2</ele>
        <time>2017-07-31T10:01:44Z</time>
      </trkpt>
      <trkpt lat="43.00804" lon="-0.15581">
        <ele>1013.68</ele>
        <time>2017-07-31T10:01:46Z</time>
      </trkpt>
      <trkpt lat="43.00801" lon="-0.15591">
        <ele>1014.2</ele>
        <time>2017-07-31T10:01:48Z</time>
      </trkpt>
      <trkpt lat="43.00799" lon="-0.15598">
        <ele>1014.75</ele>
        <time>2017-07-31T10:01:50Z</time>
      </trkpt>
      <trkpt lat="43.00795" lon="-0.15606">
        <ele>1015.29</ele>
        <time>2017-07-31T10:01:52Z</time>
      </trkpt>
      <trkpt lat="43.00792" lon="-0.15613">
        <ele>1015.81</ele>
        <time>2017-07-31T10:01:54Z</time>
      </trkpt>
      <trkpt lat="43.00788" lon="-0.1562">
        <ele>1016.28</ele>
        <time>2017-07-31T10:01:56Z</time>
      </trkpt>
      <trkpt lat="43.00785" lon="-0.15627">
        <ele>1016.82</ele>
        <time>2017-07-31T10:01:58Z</time>
      </trkpt>
      <trkpt lat="43.00782" lon="-0.15637">
        <ele>1017.37</ele>
        <time>2017-07-31T10:02:00Z</time>
      </trkpt>
      <trkpt lat="43.00771" lon="-0.15656">
        <ele>1018.64</ele>
        <time>2017-07-31T10:02:06Z</time>
      </trkpt>
      <trkpt lat="43.00767" lon="-0.15662">
        <ele>1019.72</ele>
        <time>2017-07-31T10:02:08Z</time>
      </trkpt>
      <trkpt lat="43.00764" lon="-0.1567">
        <ele>1020.4</ele>
        <time>2017-07-31T10:02:10Z</time>
      </trkpt>
      <trkpt lat="43.0076" lon="-0.15677">
        <ele>1020.99</ele>
        <time>2017-07-31T10:02:12Z</time>
      </trkpt>
      <trkpt lat="43.00755" lon="-0.15684">
        <ele>1021.6</ele>
        <time>2017-07-31T10:02:14Z</time>
      </trkpt>
      <trkpt lat="43.00751" lon="-0.15692">
        <ele>1022.24</ele>
        <time>2017-07-31T10:02:16Z</time>
      </trkpt>
      <trkpt lat="43.00748" lon="-0.157">
        <ele>1022.85</ele>
        <time>2017-07-31T10:02:18Z</time>
      </trkpt>
      <trkpt lat="43.00744" lon="-0.15708">
        <ele>1023.43</ele>
        <time>2017-07-31T10:02:20Z</time>
      </trkpt>
      <trkpt lat="43.00739" lon="-0.15715">
        <ele>1024.05</ele>
        <time>2017-07-31T10:02:22Z</time>
      </trkpt>
      <trkpt lat="43.00733" lon="-0.15723">
        <ele>1024.61</ele>
        <time>2017-07-31T10:02:24Z</time>
      </trkpt>
      <trkpt lat="43.0073" lon="-0.15727">
        <ele>1024.85</ele>
        <time>2017-07-31T10:02:25Z</time>
      </trkpt>
      <trkpt lat="43.00724" lon="-0.15733">
        <ele>1025.32</ele>
        <time>2017-07-31T10:02:27Z</time>
      </trkpt>
      <trkpt lat="43.00719" lon="-0.15739">
        <ele>1025.83</ele>
        <time>2017-07-31T10:02:29Z</time>
      </trkpt>
      <trkpt lat="43.00713" lon="-0.15744">
        <ele>1026.37</ele>
        <time>2017-07-31T10:02:31Z</time>
      </trkpt>
      <trkpt lat="43.00708" lon="-0.15749">
        <ele>1026.83</ele>
        <time>2017-07-31T10:02:33Z</time>
      </trkpt>
      <trkpt lat="43.00702" lon="-0.15755">
        <ele>1027.22</ele>
        <time>2017-07-31T10:02:35Z</time>
      </trkpt>
      <trkpt lat="43.00696" lon="-0.15763">
        <ele>1027.64</ele>
        <time>2017-07-31T10:02:37Z</time>
      </trkpt>
      <trkpt lat="43.00693" lon="-0.15773">
        <ele>1028.11</ele>
        <time>2017-07-31T10:02:39Z</time>
      </trkpt>
      <trkpt lat="43.00687" lon="-0.15779">
        <ele>1028.6</ele>
        <time>2017-07-31T10:02:41Z</time>
      </trkpt>
      <trkpt lat="43.00682" lon="-0.15785">
        <ele>1029.17</ele>
        <time>2017-07-31T10:02:43Z</time>
      </trkpt>
      <trkpt lat="43.00676" lon="-0.15792">
        <ele>1029.74</ele>
        <time>2017-07-31T10:02:45Z</time>
      </trkpt>
      <trkpt lat="43.00675" lon="-0.15799">
        <ele>1030.04</ele>
        <time>2017-07-31T10:02:46Z</time>
      </trkpt>
      <trkpt lat="43.00672" lon="-0.15808">
        <ele>1030.72</ele>
        <time>2017-07-31T10:02:48Z</time>
      </trkpt>
      <trkpt lat="43.00667" lon="-0.15815">
        <ele>1031.39</ele>
        <time>2017-07-31T10:02:50Z</time>
      </trkpt>
      <trkpt lat="43.00661" lon="-0.15825">
        <ele>1031.94</ele>
        <time>2017-07-31T10:02:52Z</time>
      </trkpt>
      <trkpt lat="43.00656" lon="-0.15831">
        <ele>1032.48</ele>
        <time>2017-07-31T10:02:54Z</time>
      </trkpt>
      <trkpt lat="43.0065" lon="-0.15837">
        <ele>1033.07</ele>
        <time>2017-07-31T10:02:56Z</time>
      </trkpt>
      <trkpt lat="43.00645" lon="-0.15842">
        <ele>1033.37</ele>
        <time>2017-07-31T10:02:57Z</time>
      </trkpt>
      <trkpt lat="43.00642" lon="-0.15846">
        <ele>1033.71</ele>
        <time>2017-07-31T10:02:58Z</time>
      </trkpt>
      <trkpt lat="43.00639" lon="-0.15851">
        <ele>1034.07</ele>
        <time>2017-07-31T10:02:59Z</time>
      </trkpt>
      <trkpt lat="43.00633" lon="-0.15858">
        <ele>1034.86</ele>
        <time>2017-07-31T10:03:01Z</time>
      </trkpt>
      <trkpt lat="43.00628" lon="-0.15866">
        <ele>1035.71</ele>
        <time>2017-07-31T10:03:03Z</time>
      </trkpt>
      <trkpt lat="43.00625" lon="-0.15875">
        <ele>1036.51</ele>
        <time>2017-07-31T10:03:05Z</time>
      </trkpt>
      <trkpt lat="43.00622" lon="-0.15885">
        <ele>1037.24</ele>
        <time>2017-07-31T10:03:07Z</time>
      </trkpt>
      <trkpt lat="43.0062" lon="-0.15897">
        <ele>1039.83</ele>
        <time>2017-07-31T10:03:09Z</time>
      </trkpt>
      <trkpt lat="43.0062" lon="-0.15903">
        <ele>1040.81</ele>
        <time>2017-07-31T10:03:10Z</time>
      </trkpt>
      <trkpt lat="43.00621" lon="-0.15909">
        <ele>1041.3</ele>
        <time>2017-07-31T10:03:11Z</time>
      </trkpt>
      <trkpt lat="43.00621" lon="-0.15922">
        <ele>1045.45</ele>
        <time>2017-07-31T10:03:13Z</time>
      </trkpt>
      <trkpt lat="43.00621" lon="-0.15932">
        <ele>1046.47</ele>
        <time>2017-07-31T10:03:15Z</time>
      </trkpt>
      <trkpt lat="43.00621" lon="-0.15943">
        <ele>1047.25</ele>
        <time>2017-07-31T10:03:17Z</time>
      </trkpt>
      <trkpt lat="43.00622" lon="-0.15949">
        <ele>1047.49</ele>
        <time>2017-07-31T10:03:18Z</time>
      </trkpt>
      <trkpt lat="43.00623" lon="-0.15961">
        <ele>1048.55</ele>
        <time>2017-07-31T10:03:20Z</time>
      </trkpt>
      <trkpt lat="43.00626" lon="-0.15972">
        <ele>1049.18</ele>
        <time>2017-07-31T10:03:22Z</time>
      </trkpt>
      <trkpt lat="43.00627" lon="-0.15978">
        <ele>1049.33</ele>
        <time>2017-07-31T10:03:23Z</time>
      </trkpt>
      <trkpt lat="43.00628" lon="-0.15984">
        <ele>1049.42</ele>
        <time>2017-07-31T10:03:24Z</time>
      </trkpt>
      <trkpt lat="43.0063" lon="-0.15991">
        <ele>1049.43</ele>
        <time>2017-07-31T10:03:25Z</time>
      </trkpt>
      <trkpt lat="43.00633" lon="-0.16002">
        <ele>1049.36</ele>
        <time>2017-07-31T10:03:27Z</time>
      </trkpt>
      <trkpt lat="43.00635" lon="-0.16013">
        <ele>1049.45</ele>
        <time>2017-07-31T10:03:29Z</time>
      </trkpt>
      <trkpt lat="43.00636" lon="-0.16024">
        <ele>1049.6</ele>
        <time>2017-07-31T10:03:31Z</time>
      </trkpt>
      <trkpt lat="43.00638" lon="-0.16035">
        <ele>1049.96</ele>
        <time>2017-07-31T10:03:33Z</time>
      </trkpt>
      <trkpt lat="43.0064" lon="-0.16045">
        <ele>1050.4</ele>
        <time>2017-07-31T10:03:35Z</time>
      </trkpt>
      <trkpt lat="43.00641" lon="-0.16056">
        <ele>1050.86</ele>
        <time>2017-07-31T10:03:37Z</time>
      </trkpt>
      <trkpt lat="43.00643" lon="-0.16065">
        <ele>1051.06</ele>
        <time>2017-07-31T10:03:39Z</time>
      </trkpt>
      <trkpt lat="43.00644" lon="-0.16075">
        <ele>1051.28</ele>
        <time>2017-07-31T10:03:41Z</time>
      </trkpt>
      <trkpt lat="43.00646" lon="-0.16084">
        <ele>1051.58</ele>
        <time>2017-07-31T10:03:43Z</time>
      </trkpt>
      <trkpt lat="43.00647" lon="-0.16096">
        <ele>1053.11</ele>
        <time>2017-07-31T10:03:45Z</time>
      </trkpt>
      <trkpt lat="43.00649" lon="-0.16107">
        <ele>1055.15</ele>
        <time>2017-07-31T10:03:47Z</time>
      </trkpt>
      <trkpt lat="43.0065" lon="-0.16118">
        <ele>1055.63</ele>
        <time>2017-07-31T10:03:49Z</time>
      </trkpt>
      <trkpt lat="43.00651" lon="-0.16128">
        <ele>1056</ele>
        <time>2017-07-31T10:03:51Z</time>
      </trkpt>
      <trkpt lat="43.00653" lon="-0.16138">
        <ele>1056.37</ele>
        <time>2017-07-31T10:03:53Z</time>
      </trkpt>
      <trkpt lat="43.00655" lon="-0.16148">
        <ele>1056.73</ele>
        <time>2017-07-31T10:03:55Z</time>
      </trkpt>
      <trkpt lat="43.00657" lon="-0.16158">
        <ele>1057.08</ele>
        <time>2017-07-31T10:03:57Z</time>
      </trkpt>
      <trkpt lat="43.00659" lon="-0.16168">
        <ele>1057.44</ele>
        <time>2017-07-31T10:03:59Z</time>
      </trkpt>
      <trkpt lat="43.00661" lon="-0.16179">
        <ele>1060.24</ele>
        <time>2017-07-31T10:04:01Z</time>
      </trkpt>
      <trkpt lat="43.00664" lon="-0.16189">
        <ele>1061.98</ele>
        <time>2017-07-31T10:04:03Z</time>
      </trkpt>
      <trkpt lat="43.00666" lon="-0.162">
        <ele>1063.68</ele>
        <time>2017-07-31T10:04:05Z</time>
      </trkpt>
      <trkpt lat="43.00669" lon="-0.16211">
        <ele>1065.44</ele>
        <time>2017-07-31T10:04:07Z</time>
      </trkpt>
      <trkpt lat="43.00672" lon="-0.16222">
        <ele>1066.65</ele>
        <time>2017-07-31T10:04:09Z</time>
      </trkpt>
      <trkpt lat="43.00676" lon="-0.16232">
        <ele>1067.66</ele>
        <time>2017-07-31T10:04:11Z</time>
      </trkpt>
      <trkpt lat="43.00678" lon="-0.16242">
        <ele>1068.48</ele>
        <time>2017-07-31T10:04:13Z</time>
      </trkpt>
      <trkpt lat="43.00679" lon="-0.16248">
        <ele>1068.73</ele>
        <time>2017-07-31T10:04:14Z</time>
      </trkpt>
      <trkpt lat="43.00681" lon="-0.16258">
        <ele>1068.93</ele>
        <time>2017-07-31T10:04:16Z</time>
      </trkpt>
      <trkpt lat="43.00683" lon="-0.16271">
        <ele>1069.13</ele>
        <time>2017-07-31T10:04:18Z</time>
      </trkpt>
      <trkpt lat="43.00686" lon="-0.1628">
        <ele>1069.54</ele>
        <time>2017-07-31T10:04:20Z</time>
      </trkpt>
      <trkpt lat="43.00688" lon="-0.16286">
        <ele>1069.76</ele>
        <time>2017-07-31T10:04:21Z</time>
      </trkpt>
      <trkpt lat="43.00689" lon="-0.16298">
        <ele>1070.22</ele>
        <time>2017-07-31T10:04:23Z</time>
      </trkpt>
      <trkpt lat="43.00689" lon="-0.16306">
        <ele>1070.73</ele>
        <time>2017-07-31T10:04:25Z</time>
      </trkpt>
      <trkpt lat="43.00689" lon="-0.16316">
        <ele>1071.23</ele>
        <time>2017-07-31T10:04:27Z</time>
      </trkpt>
      <trkpt lat="43.00689" lon="-0.16329">
        <ele>1071.72</ele>
        <time>2017-07-31T10:04:29Z</time>
      </trkpt>
      <trkpt lat="43.00689" lon="-0.16341">
        <ele>1072.17</ele>
        <time>2017-07-31T10:04:31Z</time>
      </trkpt>
      <trkpt lat="43.00688" lon="-0.16348">
        <ele>1072.38</ele>
        <time>2017-07-31T10:04:32Z</time>
      </trkpt>
      <trkpt lat="43.00687" lon="-0.16355">
        <ele>1072.57</ele>
        <time>2017-07-31T10:04:33Z</time>
      </trkpt>
      <trkpt lat="43.00687" lon="-0.16366">
        <ele>1072.89</ele>
        <time>2017-07-31T10:04:35Z</time>
      </trkpt>
      <trkpt lat="43.00686" lon="-0.16376">
        <ele>1073.2</ele>
        <time>2017-07-31T10:04:37Z</time>
      </trkpt>
      <trkpt lat="43.00684" lon="-0.16384">
        <ele>1073.49</ele>
        <time>2017-07-31T10:04:39Z</time>
      </trkpt>
      <trkpt lat="43.00681" lon="-0.16394">
        <ele>1073.8</ele>
        <time>2017-07-31T10:04:41Z</time>
      </trkpt>
      <trkpt lat="43.00679" lon="-0.164">
        <ele>1073.98</ele>
        <time>2017-07-31T10:04:42Z</time>
      </trkpt>
      <trkpt lat="43.00676" lon="-0.16409">
        <ele>1074.33</ele>
        <time>2017-07-31T10:04:44Z</time>
      </trkpt>
      <trkpt lat="43.00673" lon="-0.16419">
        <ele>1074.68</ele>
        <time>2017-07-31T10:04:46Z</time>
      </trkpt>
      <trkpt lat="43.00668" lon="-0.16427">
        <ele>1075.01</ele>
        <time>2017-07-31T10:04:48Z</time>
      </trkpt>
      <trkpt lat="43.00664" lon="-0.16433">
        <ele>1075.36</ele>
        <time>2017-07-31T10:04:50Z</time>
      </trkpt>
      <trkpt lat="43.00658" lon="-0.16439">
        <ele>1075.68</ele>
        <time>2017-07-31T10:04:52Z</time>
      </trkpt>
      <trkpt lat="43.00655" lon="-0.16444">
        <ele>1075.8</ele>
        <time>2017-07-31T10:04:53Z</time>
      </trkpt>
      <trkpt lat="43.00651" lon="-0.1645">
        <ele>1075.91</ele>
        <time>2017-07-31T10:04:54Z</time>
      </trkpt>
      <trkpt lat="43.00645" lon="-0.16458">
        <ele>1076.1</ele>
        <time>2017-07-31T10:04:56Z</time>
      </trkpt>
      <trkpt lat="43.00641" lon="-0.16466">
        <ele>1076.44</ele>
        <time>2017-07-31T10:04:58Z</time>
      </trkpt>
      <trkpt lat="43.00638" lon="-0.16472">
        <ele>1077.06</ele>
        <time>2017-07-31T10:05:00Z</time>
      </trkpt>
      <trkpt lat="43.00636" lon="-0.1648">
        <ele>1077.84</ele>
        <time>2017-07-31T10:05:02Z</time>
      </trkpt>
      <trkpt lat="43.00638" lon="-0.16488">
        <ele>1078.69</ele>
        <time>2017-07-31T10:05:04Z</time>
      </trkpt>
      <trkpt lat="43.00641" lon="-0.16501">
        <ele>1079.54</ele>
        <time>2017-07-31T10:05:06Z</time>
      </trkpt>
      <trkpt lat="43.00643" lon="-0.16506">
        <ele>1079.98</ele>
        <time>2017-07-31T10:05:07Z</time>
      </trkpt>
      <trkpt lat="43.00645" lon="-0.16514">
        <ele>1080.89</ele>
        <time>2017-07-31T10:05:09Z</time>
      </trkpt>
      <trkpt lat="43.00643" lon="-0.16525">
        <ele>1082.43</ele>
        <time>2017-07-31T10:05:12Z</time>
      </trkpt>
      <trkpt lat="43.00643" lon="-0.16541">
        <ele>1083.55</ele>
        <time>2017-07-31T10:05:14Z</time>
      </trkpt>
      <trkpt lat="43.00644" lon="-0.1655">
        <ele>1084.1</ele>
        <time>2017-07-31T10:05:15Z</time>
      </trkpt>
      <trkpt lat="43.00646" lon="-0.16557">
        <ele>1084.62</ele>
        <time>2017-07-31T10:05:16Z</time>
      </trkpt>
      <trkpt lat="43.00647" lon="-0.16568">
        <ele>1085.61</ele>
        <time>2017-07-31T10:05:18Z</time>
      </trkpt>
      <trkpt lat="43.00649" lon="-0.16579">
        <ele>1086.5</ele>
        <time>2017-07-31T10:05:20Z</time>
      </trkpt>
      <trkpt lat="43.00653" lon="-0.1659">
        <ele>1087.34</ele>
        <time>2017-07-31T10:05:22Z</time>
      </trkpt>
      <trkpt lat="43.00653" lon="-0.16597">
        <ele>1087.75</ele>
        <time>2017-07-31T10:05:23Z</time>
      </trkpt>
      <trkpt lat="43.00655" lon="-0.16609">
        <ele>1091.16</ele>
        <time>2017-07-31T10:05:25Z</time>
      </trkpt>
      <trkpt lat="43.00657" lon="-0.16619">
        <ele>1092.83</ele>
        <time>2017-07-31T10:05:27Z</time>
      </trkpt>
      <trkpt lat="43.00659" lon="-0.16629">
        <ele>1093.51</ele>
        <time>2017-07-31T10:05:29Z</time>
      </trkpt>
      <trkpt lat="43.00661" lon="-0.16636">
        <ele>1093.77</ele>
        <time>2017-07-31T10:05:30Z</time>
      </trkpt>
      <trkpt lat="43.00664" lon="-0.16644">
        <ele>1094.21</ele>
        <time>2017-07-31T10:05:32Z</time>
      </trkpt>
      <trkpt lat="43.00667" lon="-0.16651">
        <ele>1094.89</ele>
        <time>2017-07-31T10:05:35Z</time>
      </trkpt>
      <trkpt lat="43.00673" lon="-0.1666">
        <ele>1095.39</ele>
        <time>2017-07-31T10:05:37Z</time>
      </trkpt>
      <trkpt lat="43.00678" lon="-0.16667">
        <ele>1095.61</ele>
        <time>2017-07-31T10:05:38Z</time>
      </trkpt>
      <trkpt lat="43.00682" lon="-0.16673">
        <ele>1095.8</ele>
        <time>2017-07-31T10:05:39Z</time>
      </trkpt>
      <trkpt lat="43.00686" lon="-0.16684">
        <ele>1095.99</ele>
        <time>2017-07-31T10:05:41Z</time>
      </trkpt>
      <trkpt lat="43.00688" lon="-0.16696">
        <ele>1096.17</ele>
        <time>2017-07-31T10:05:43Z</time>
      </trkpt>
      <trkpt lat="43.00691" lon="-0.16705">
        <ele>1096.26</ele>
        <time>2017-07-31T10:05:44Z</time>
      </trkpt>
      <trkpt lat="43.00692" lon="-0.16712">
        <ele>1096.33</ele>
        <time>2017-07-31T10:05:45Z</time>
      </trkpt>
      <trkpt lat="43.00694" lon="-0.1672">
        <ele>1096.83</ele>
        <time>2017-07-31T10:05:46Z</time>
      </trkpt>
      <trkpt lat="43.00695" lon="-0.16731">
        <ele>1097.18</ele>
        <time>2017-07-31T10:05:48Z</time>
      </trkpt>
      <trkpt lat="43.00693" lon="-0.16741">
        <ele>1097.45</ele>
        <time>2017-07-31T10:05:50Z</time>
      </trkpt>
      <trkpt lat="43.00691" lon="-0.1675">
        <ele>1097.77</ele>
        <time>2017-07-31T10:05:52Z</time>
      </trkpt>
      <trkpt lat="43.00691" lon="-0.16768">
        <ele>1098.32</ele>
        <time>2017-07-31T10:05:55Z</time>
      </trkpt>
      <trkpt lat="43.00688" lon="-0.16784">
        <ele>1098.95</ele>
        <time>2017-07-31T10:05:58Z</time>
      </trkpt>
      <trkpt lat="43.00687" lon="-0.16795">
        <ele>1099.5</ele>
        <time>2017-07-31T10:06:00Z</time>
      </trkpt>
      <trkpt lat="43.00686" lon="-0.16805">
        <ele>1100.05</ele>
        <time>2017-07-31T10:06:02Z</time>
      </trkpt>
      <trkpt lat="43.00685" lon="-0.16814">
        <ele>1100.61</ele>
        <time>2017-07-31T10:06:04Z</time>
      </trkpt>
      <trkpt lat="43.00683" lon="-0.16825">
        <ele>1101.22</ele>
        <time>2017-07-31T10:06:06Z</time>
      </trkpt>
      <trkpt lat="43.00682" lon="-0.16832">
        <ele>1101.85</ele>
        <time>2017-07-31T10:06:08Z</time>
      </trkpt>
      <trkpt lat="43.00679" lon="-0.16838">
        <ele>1102.89</ele>
        <time>2017-07-31T10:06:11Z</time>
      </trkpt>
      <trkpt lat="43.00676" lon="-0.16847">
        <ele>1103.56</ele>
        <time>2017-07-31T10:06:13Z</time>
      </trkpt>
      <trkpt lat="43.00674" lon="-0.16853">
        <ele>1104.17</ele>
        <time>2017-07-31T10:06:15Z</time>
      </trkpt>
      <trkpt lat="43.00671" lon="-0.16861">
        <ele>1104.69</ele>
        <time>2017-07-31T10:06:17Z</time>
      </trkpt>
      <trkpt lat="43.00668" lon="-0.16872">
        <ele>1105.13</ele>
        <time>2017-07-31T10:06:19Z</time>
      </trkpt>
      <trkpt lat="43.00665" lon="-0.16881">
        <ele>1105.5</ele>
        <time>2017-07-31T10:06:21Z</time>
      </trkpt>
      <trkpt lat="43.00659" lon="-0.16888">
        <ele>1105.75</ele>
        <time>2017-07-31T10:06:23Z</time>
      </trkpt>
      <trkpt lat="43.00651" lon="-0.16891">
        <ele>1105.86</ele>
        <time>2017-07-31T10:06:25Z</time>
      </trkpt>
      <trkpt lat="43.00646" lon="-0.16891">
        <ele>1105.86</ele>
        <time>2017-07-31T10:06:26Z</time>
      </trkpt>
      <trkpt lat="43.00605" lon="-0.17054">
        <ele>1155.45</ele>
        <time>2017-07-31T10:07:10Z</time>
      </trkpt>
      <trkpt lat="43.00601" lon="-0.17065">
        <ele>1171.71</ele>
        <time>2017-07-31T10:07:11Z</time>
      </trkpt>
      <trkpt lat="43.00598" lon="-0.17074">
        <ele>1177.5</ele>
        <time>2017-07-31T10:07:13Z</time>
      </trkpt>
      <trkpt lat="43.00595" lon="-0.17082">
        <ele>1176.8</ele>
        <time>2017-07-31T10:07:15Z</time>
      </trkpt>
      <trkpt lat="43.00594" lon="-0.17089">
        <ele>1176.29</ele>
        <time>2017-07-31T10:07:17Z</time>
      </trkpt>
      <trkpt lat="43.00592" lon="-0.17101">
        <ele>1173.14</ele>
        <time>2017-07-31T10:07:20Z</time>
      </trkpt>
      <trkpt lat="43.00591" lon="-0.17108">
        <ele>1170.79</ele>
        <time>2017-07-31T10:07:22Z</time>
      </trkpt>
      <trkpt lat="43.00589" lon="-0.17116">
        <ele>1168.94</ele>
        <time>2017-07-31T10:07:24Z</time>
      </trkpt>
      <trkpt lat="43.00587" lon="-0.17124">
        <ele>1167.32</ele>
        <time>2017-07-31T10:07:26Z</time>
      </trkpt>
      <trkpt lat="43.00586" lon="-0.17131">
        <ele>1167.59</ele>
        <time>2017-07-31T10:07:28Z</time>
      </trkpt>
      <trkpt lat="43.00585" lon="-0.17139">
        <ele>1166.84</ele>
        <time>2017-07-31T10:07:31Z</time>
      </trkpt>
      <trkpt lat="43.00586" lon="-0.17147">
        <ele>1165.91</ele>
        <time>2017-07-31T10:07:33Z</time>
      </trkpt>
      <trkpt lat="43.00586" lon="-0.17155">
        <ele>1164.76</ele>
        <time>2017-07-31T10:07:35Z</time>
      </trkpt>
      <trkpt lat="43.00586" lon="-0.17162">
        <ele>1163.91</ele>
        <time>2017-07-31T10:07:38Z</time>
      </trkpt>
      <trkpt lat="43.00587" lon="-0.17172">
        <ele>1163.12</ele>
        <time>2017-07-31T10:07:41Z</time>
      </trkpt>
      <trkpt lat="43.00586" lon="-0.17178">
        <ele>1162.97</ele>
        <time>2017-07-31T10:07:43Z</time>
      </trkpt>
      <trkpt lat="43.00588" lon="-0.17185">
        <ele>1162.74</ele>
        <time>2017-07-31T10:07:45Z</time>
      </trkpt>
      <trkpt lat="43.00588" lon="-0.17192">
        <ele>1162.52</ele>
        <time>2017-07-31T10:07:47Z</time>
      </trkpt>
      <trkpt lat="43.00586" lon="-0.17199">
        <ele>1162.37</ele>
        <time>2017-07-31T10:07:49Z</time>
      </trkpt>
      <trkpt lat="43.00581" lon="-0.17204">
        <ele>1162.17</ele>
        <time>2017-07-31T10:07:52Z</time>
      </trkpt>
      <trkpt lat="43.00577" lon="-0.172">
        <ele>1162.08</ele>
        <time>2017-07-31T10:07:53Z</time>
      </trkpt>
      <trkpt lat="43.00573" lon="-0.17194">
        <ele>1161.84</ele>
        <time>2017-07-31T10:07:55Z</time>
      </trkpt>
      <trkpt lat="43.00578" lon="-0.172">
        <ele>1161.27</ele>
        <time>2017-07-31T10:08:24Z</time>
      </trkpt>
      <trkpt lat="43.00583" lon="-0.17204">
        <ele>1161.49</ele>
        <time>2017-07-31T10:08:25Z</time>
      </trkpt>
      <trkpt lat="43.00587" lon="-0.17209">
        <ele>1161.75</ele>
        <time>2017-07-31T10:08:26Z</time>
      </trkpt>
      <trkpt lat="43.00591" lon="-0.17213">
        <ele>1161.84</ele>
        <time>2017-07-31T10:08:27Z</time>
      </trkpt>
      <trkpt lat="43.00595" lon="-0.17218">
        <ele>1161.9</ele>
        <time>2017-07-31T10:08:28Z</time>
      </trkpt>
      <trkpt lat="43.00601" lon="-0.17225">
        <ele>1161.97</ele>
        <time>2017-07-31T10:08:30Z</time>
      </trkpt>
      <trkpt lat="43.00603" lon="-0.17422">
        <ele>1183.28</ele>
        <time>2017-07-31T10:09:18Z</time>
      </trkpt>
      <trkpt lat="43.00601" lon="-0.17429">
        <ele>1190.27</ele>
        <time>2017-07-31T10:09:20Z</time>
      </trkpt>
      <trkpt lat="43.00598" lon="-0.17437">
        <ele>1193.05</ele>
        <time>2017-07-31T10:09:23Z</time>
      </trkpt>
      <trkpt lat="43.00595" lon="-0.17442">
        <ele>1193.4</ele>
        <time>2017-07-31T10:09:25Z</time>
      </trkpt>
      <trkpt lat="43.00592" lon="-0.17448">
        <ele>1194.25</ele>
        <time>2017-07-31T10:09:28Z</time>
      </trkpt>
      <trkpt lat="43.00589" lon="-0.17454">
        <ele>1196.32</ele>
        <time>2017-07-31T10:09:31Z</time>
      </trkpt>
      <trkpt lat="43.00587" lon="-0.17463">
        <ele>1198.47</ele>
        <time>2017-07-31T10:09:33Z</time>
      </trkpt>
      <trkpt lat="43.00586" lon="-0.17471">
        <ele>1200.52</ele>
        <time>2017-07-31T10:09:35Z</time>
      </trkpt>
      <trkpt lat="43.00585" lon="-0.1748">
        <ele>1200.65</ele>
        <time>2017-07-31T10:09:37Z</time>
      </trkpt>
      <trkpt lat="43.00583" lon="-0.17492">
        <ele>1200.31</ele>
        <time>2017-07-31T10:09:39Z</time>
      </trkpt>
      <trkpt lat="43.00583" lon="-0.17499">
        <ele>1199.75</ele>
        <time>2017-07-31T10:09:40Z</time>
      </trkpt>
      <trkpt lat="43.00583" lon="-0.17505">
        <ele>1199.12</ele>
        <time>2017-07-31T10:09:41Z</time>
      </trkpt>
      <trkpt lat="43.00581" lon="-0.17515">
        <ele>1197.87</ele>
        <time>2017-07-31T10:09:43Z</time>
      </trkpt>
      <trkpt lat="43.00578" lon="-0.17525">
        <ele>1196.51</ele>
        <time>2017-07-31T10:09:45Z</time>
      </trkpt>
      <trkpt lat="43.00576" lon="-0.17535">
        <ele>1195.12</ele>
        <time>2017-07-31T10:09:47Z</time>
      </trkpt>
      <trkpt lat="43.00573" lon="-0.17545">
        <ele>1193.5</ele>
        <time>2017-07-31T10:09:49Z</time>
      </trkpt>
      <trkpt lat="43.00569" lon="-0.17553">
        <ele>1193.16</ele>
        <time>2017-07-31T10:09:51Z</time>
      </trkpt>
      <trkpt lat="43.00565" lon="-0.17562">
        <ele>1192.8</ele>
        <time>2017-07-31T10:09:53Z</time>
      </trkpt>
      <trkpt lat="43.00561" lon="-0.17569">
        <ele>1192.33</ele>
        <time>2017-07-31T10:09:55Z</time>
      </trkpt>
      <trkpt lat="43.00557" lon="-0.17575">
        <ele>1191.8</ele>
        <time>2017-07-31T10:09:57Z</time>
      </trkpt>
      <trkpt lat="43.00552" lon="-0.17582">
        <ele>1191.17</ele>
        <time>2017-07-31T10:09:59Z</time>
      </trkpt>
      <trkpt lat="43.0055" lon="-0.1759">
        <ele>1190.43</ele>
        <time>2017-07-31T10:10:01Z</time>
      </trkpt>
      <trkpt lat="43.00547" lon="-0.17597">
        <ele>1189.66</ele>
        <time>2017-07-31T10:10:03Z</time>
      </trkpt>
      <trkpt lat="43.00543" lon="-0.17601">
        <ele>1188.94</ele>
        <time>2017-07-31T10:10:05Z</time>
      </trkpt>
      <trkpt lat="43.00539" lon="-0.17608">
        <ele>1188.25</ele>
        <time>2017-07-31T10:10:07Z</time>
      </trkpt>
      <trkpt lat="43.00535" lon="-0.17613">
        <ele>1187.54</ele>
        <time>2017-07-31T10:10:09Z</time>
      </trkpt>
      <trkpt lat="43.0053" lon="-0.17617">
        <ele>1186.84</ele>
        <time>2017-07-31T10:10:11Z</time>
      </trkpt>
      <trkpt lat="43.00526" lon="-0.17623">
        <ele>1186.16</ele>
        <time>2017-07-31T10:10:13Z</time>
      </trkpt>
      <trkpt lat="43.00523" lon="-0.17629">
        <ele>1185.53</ele>
        <time>2017-07-31T10:10:15Z</time>
      </trkpt>
      <trkpt lat="43.00519" lon="-0.17633">
        <ele>1184.96</ele>
        <time>2017-07-31T10:10:17Z</time>
      </trkpt>
      <trkpt lat="43.00515" lon="-0.17638">
        <ele>1184.45</ele>
        <time>2017-07-31T10:10:19Z</time>
      </trkpt>
      <trkpt lat="43.00512" lon="-0.17644">
        <ele>1184.08</ele>
        <time>2017-07-31T10:10:21Z</time>
      </trkpt>
      <trkpt lat="43.00508" lon="-0.1765">
        <ele>1183.75</ele>
        <time>2017-07-31T10:10:24Z</time>
      </trkpt>
      <trkpt lat="43.00504" lon="-0.17655">
        <ele>1183.68</ele>
        <time>2017-07-31T10:10:26Z</time>
      </trkpt>
      <trkpt lat="43.005" lon="-0.17659">
        <ele>1183.59</ele>
        <time>2017-07-31T10:10:28Z</time>
      </trkpt>
      <trkpt lat="43.00495" lon="-0.17663">
        <ele>1183.44</ele>
        <time>2017-07-31T10:10:30Z</time>
      </trkpt>
      <trkpt lat="43.0049" lon="-0.17667">
        <ele>1183.26</ele>
        <time>2017-07-31T10:10:32Z</time>
      </trkpt>
      <trkpt lat="43.00486" lon="-0.17671">
        <ele>1183.09</ele>
        <time>2017-07-31T10:10:34Z</time>
      </trkpt>
      <trkpt lat="43.00481" lon="-0.17675">
        <ele>1182.94</ele>
        <time>2017-07-31T10:10:36Z</time>
      </trkpt>
      <trkpt lat="43.00475" lon="-0.17679">
        <ele>1182.87</ele>
        <time>2017-07-31T10:10:38Z</time>
      </trkpt>
      <trkpt lat="43.00471" lon="-0.17684">
        <ele>1182.87</ele>
        <time>2017-07-31T10:10:40Z</time>
      </trkpt>
      <trkpt lat="43.00467" lon="-0.17689">
        <ele>1182.96</ele>
        <time>2017-07-31T10:10:42Z</time>
      </trkpt>
      <trkpt lat="43.00464" lon="-0.17694">
        <ele>1183.12</ele>
        <time>2017-07-31T10:10:44Z</time>
      </trkpt>
      <trkpt lat="43.00462" lon="-0.17701">
        <ele>1183.41</ele>
        <time>2017-07-31T10:10:46Z</time>
      </trkpt>
      <trkpt lat="43.00461" lon="-0.17708">
        <ele>1183.76</ele>
        <time>2017-07-31T10:10:48Z</time>
      </trkpt>
      <trkpt lat="43.00459" lon="-0.17714">
        <ele>1184.16</ele>
        <time>2017-07-31T10:10:50Z</time>
      </trkpt>
      <trkpt lat="43.00456" lon="-0.17722">
        <ele>1184.88</ele>
        <time>2017-07-31T10:10:53Z</time>
      </trkpt>
      <trkpt lat="43.00454" lon="-0.17728">
        <ele>1185.42</ele>
        <time>2017-07-31T10:10:55Z</time>
      </trkpt>
      <trkpt lat="43.00452" lon="-0.17735">
        <ele>1186.02</ele>
        <time>2017-07-31T10:10:57Z</time>
      </trkpt>
      <trkpt lat="43.0045" lon="-0.17743">
        <ele>1187.04</ele>
        <time>2017-07-31T10:11:00Z</time>
      </trkpt>
      <trkpt lat="43.00448" lon="-0.17749">
        <ele>1187.72</ele>
        <time>2017-07-31T10:11:02Z</time>
      </trkpt>
      <trkpt lat="43.00444" lon="-0.17759">
        <ele>1188.78</ele>
        <time>2017-07-31T10:11:05Z</time>
      </trkpt>
      <trkpt lat="43.00443" lon="-0.17764">
        <ele>1189.18</ele>
        <time>2017-07-31T10:11:06Z</time>
      </trkpt>
      <trkpt lat="43.0044" lon="-0.17777">
        <ele>1190.42</ele>
        <time>2017-07-31T10:11:09Z</time>
      </trkpt>
      <trkpt lat="43.00442" lon="-0.17788">
        <ele>1192.33</ele>
        <time>2017-07-31T10:11:12Z</time>
      </trkpt>
      <trkpt lat="43.00445" lon="-0.17796">
        <ele>1193.66</ele>
        <time>2017-07-31T10:11:14Z</time>
      </trkpt>
      <trkpt lat="43.00447" lon="-0.17802">
        <ele>1194.31</ele>
        <time>2017-07-31T10:11:15Z</time>
      </trkpt>
      <trkpt lat="43.00449" lon="-0.1781">
        <ele>1195.53</ele>
        <time>2017-07-31T10:11:17Z</time>
      </trkpt>
      <trkpt lat="43.00452" lon="-0.17819">
        <ele>1196.68</ele>
        <time>2017-07-31T10:11:19Z</time>
      </trkpt>
      <trkpt lat="43.00453" lon="-0.17828">
        <ele>1197.76</ele>
        <time>2017-07-31T10:11:21Z</time>
      </trkpt>
      <trkpt lat="43.00452" lon="-0.17836">
        <ele>1198.75</ele>
        <time>2017-07-31T10:11:23Z</time>
      </trkpt>
      <trkpt lat="43.00451" lon="-0.17843">
        <ele>1199.64</ele>
        <time>2017-07-31T10:11:25Z</time>
      </trkpt>
      <trkpt lat="43.00448" lon="-0.1785">
        <ele>1200.45</ele>
        <time>2017-07-31T10:11:27Z</time>
      </trkpt>
      <trkpt lat="43.00446" lon="-0.17857">
        <ele>1201.62</ele>
        <time>2017-07-31T10:11:30Z</time>
      </trkpt>
      <trkpt lat="43.00447" lon="-0.17866">
        <ele>1202.81</ele>
        <time>2017-07-31T10:11:33Z</time>
      </trkpt>
      <trkpt lat="43.00447" lon="-0.17877">
        <ele>1203.6</ele>
        <time>2017-07-31T10:11:35Z</time>
      </trkpt>
      <trkpt lat="43.00449" lon="-0.17886">
        <ele>1204.32</ele>
        <time>2017-07-31T10:11:37Z</time>
      </trkpt>
      <trkpt lat="43.00451" lon="-0.17895">
        <ele>1204.98</ele>
        <time>2017-07-31T10:11:39Z</time>
      </trkpt>
      <trkpt lat="43.00453" lon="-0.17902">
        <ele>1205.58</ele>
        <time>2017-07-31T10:11:41Z</time>
      </trkpt>
      <trkpt lat="43.00454" lon="-0.17909">
        <ele>1206.16</ele>
        <time>2017-07-31T10:11:43Z</time>
      </trkpt>
      <trkpt lat="43.00456" lon="-0.17916">
        <ele>1206.74</ele>
        <time>2017-07-31T10:11:45Z</time>
      </trkpt>
      <trkpt lat="43.00458" lon="-0.17923">
        <ele>1207.58</ele>
        <time>2017-07-31T10:11:48Z</time>
      </trkpt>
      <trkpt lat="43.00459" lon="-0.17931">
        <ele>1208.71</ele>
        <time>2017-07-31T10:11:52Z</time>
      </trkpt>
      <trkpt lat="43.0046" lon="-0.17938">
        <ele>1209.57</ele>
        <time>2017-07-31T10:11:55Z</time>
      </trkpt>
      <trkpt lat="43.0046" lon="-0.17945">
        <ele>1210.15</ele>
        <time>2017-07-31T10:11:57Z</time>
      </trkpt>
      <trkpt lat="43.00461" lon="-0.17954">
        <ele>1210.99</ele>
        <time>2017-07-31T10:12:00Z</time>
      </trkpt>
      <trkpt lat="43.00461" lon="-0.17961">
        <ele>1211.6</ele>
        <time>2017-07-31T10:12:02Z</time>
      </trkpt>
      <trkpt lat="43.00462" lon="-0.1797">
        <ele>1212.45</ele>
        <time>2017-07-31T10:12:05Z</time>
      </trkpt>
      <trkpt lat="43.00461" lon="-0.17977">
        <ele>1213.3</ele>
        <time>2017-07-31T10:12:08Z</time>
      </trkpt>
      <trkpt lat="43.00461" lon="-0.17984">
        <ele>1213.86</ele>
        <time>2017-07-31T10:12:10Z</time>
      </trkpt>
      <trkpt lat="43.00462" lon="-0.1799">
        <ele>1214.36</ele>
        <time>2017-07-31T10:12:12Z</time>
      </trkpt>
      <trkpt lat="43.00461" lon="-0.17998">
        <ele>1215.07</ele>
        <time>2017-07-31T10:12:15Z</time>
      </trkpt>
      <trkpt lat="43.00461" lon="-0.18005">
        <ele>1215.79</ele>
        <time>2017-07-31T10:12:18Z</time>
      </trkpt>
      <trkpt lat="43.00461" lon="-0.18016">
        <ele>1216.66</ele>
        <time>2017-07-31T10:12:22Z</time>
      </trkpt>
      <trkpt lat="43.0046" lon="-0.18024">
        <ele>1217.3</ele>
        <time>2017-07-31T10:12:25Z</time>
      </trkpt>
      <trkpt lat="43.0046" lon="-0.18032">
        <ele>1217.93</ele>
        <time>2017-07-31T10:12:27Z</time>
      </trkpt>
      <trkpt lat="43.0046" lon="-0.18039">
        <ele>1218.31</ele>
        <time>2017-07-31T10:12:29Z</time>
      </trkpt>
      <trkpt lat="43.00459" lon="-0.18048">
        <ele>1219.03</ele>
        <time>2017-07-31T10:12:32Z</time>
      </trkpt>
      <trkpt lat="43.00459" lon="-0.18055">
        <ele>1219.58</ele>
        <time>2017-07-31T10:12:34Z</time>
      </trkpt>
      <trkpt lat="43.00459" lon="-0.18064">
        <ele>1220.48</ele>
        <time>2017-07-31T10:12:37Z</time>
      </trkpt>
      <trkpt lat="43.0046" lon="-0.18071">
        <ele>1221.16</ele>
        <time>2017-07-31T10:12:39Z</time>
      </trkpt>
      <trkpt lat="43.0046" lon="-0.18081">
        <ele>1221.82</ele>
        <time>2017-07-31T10:12:41Z</time>
      </trkpt>
      <trkpt lat="43.0046" lon="-0.18088">
        <ele>1222.77</ele>
        <time>2017-07-31T10:12:44Z</time>
      </trkpt>
      <trkpt lat="43.00462" lon="-0.18095">
        <ele>1223.44</ele>
        <time>2017-07-31T10:12:46Z</time>
      </trkpt>
      <trkpt lat="43.00463" lon="-0.18104">
        <ele>1224.38</ele>
        <time>2017-07-31T10:12:49Z</time>
      </trkpt>
      <trkpt lat="43.00464" lon="-0.1811">
        <ele>1224.79</ele>
        <time>2017-07-31T10:12:50Z</time>
      </trkpt>
      <trkpt lat="43.00465" lon="-0.18121">
        <ele>1225.47</ele>
        <time>2017-07-31T10:12:52Z</time>
      </trkpt>
      <trkpt lat="43.00467" lon="-0.1813">
        <ele>1226.08</ele>
        <time>2017-07-31T10:12:54Z</time>
      </trkpt>
      <trkpt lat="43.00467" lon="-0.18142">
        <ele>1226.8</ele>
        <time>2017-07-31T10:12:57Z</time>
      </trkpt>
      <trkpt lat="43.00467" lon="-0.18149">
        <ele>1227.37</ele>
        <time>2017-07-31T10:12:59Z</time>
      </trkpt>
      <trkpt lat="43.00467" lon="-0.18157">
        <ele>1227.87</ele>
        <time>2017-07-31T10:13:01Z</time>
      </trkpt>
      <trkpt lat="43.00465" lon="-0.1817">
        <ele>1228.31</ele>
        <time>2017-07-31T10:13:04Z</time>
      </trkpt>
      <trkpt lat="43.00463" lon="-0.18177">
        <ele>1228.71</ele>
        <time>2017-07-31T10:13:06Z</time>
      </trkpt>
      <trkpt lat="43.00461" lon="-0.18186">
        <ele>1228.98</ele>
        <time>2017-07-31T10:13:08Z</time>
      </trkpt>
      <trkpt lat="43.00458" lon="-0.18193">
        <ele>1229.13</ele>
        <time>2017-07-31T10:13:10Z</time>
      </trkpt>
      <trkpt lat="43.00455" lon="-0.18199">
        <ele>1229.19</ele>
        <time>2017-07-31T10:13:12Z</time>
      </trkpt>
      <trkpt lat="43.00453" lon="-0.18206">
        <ele>1229.23</ele>
        <time>2017-07-31T10:13:14Z</time>
      </trkpt>
      <trkpt lat="43.0045" lon="-0.18213">
        <ele>1229.27</ele>
        <time>2017-07-31T10:13:16Z</time>
      </trkpt>
      <trkpt lat="43.00447" lon="-0.18218">
        <ele>1229.26</ele>
        <time>2017-07-31T10:13:19Z</time>
      </trkpt>
      <trkpt lat="43.00443" lon="-0.18224">
        <ele>1229.2</ele>
        <time>2017-07-31T10:13:22Z</time>
      </trkpt>
      <trkpt lat="43.00443" lon="-0.18231">
        <ele>1229.34</ele>
        <time>2017-07-31T10:13:46Z</time>
      </trkpt>
      <trkpt lat="43.00436" lon="-0.18228">
        <ele>1229.39</ele>
        <time>2017-07-31T10:13:49Z</time>
      </trkpt>
      <trkpt lat="43.00433" lon="-0.18222">
        <ele>1229.28</ele>
        <time>2017-07-31T10:13:51Z</time>
      </trkpt>
      <trkpt lat="43.00433" lon="-0.18213">
        <ele>1229.03</ele>
        <time>2017-07-31T10:13:54Z</time>
      </trkpt>
      <trkpt lat="43.00436" lon="-0.18207">
        <ele>1228.87</ele>
        <time>2017-07-31T10:13:56Z</time>
      </trkpt>
      <trkpt lat="43.00441" lon="-0.182">
        <ele>1228.63</ele>
        <time>2017-07-31T10:13:59Z</time>
      </trkpt>
      <trkpt lat="43.00443" lon="-0.18135">
        <ele>1242.88</ele>
        <time>2017-07-31T10:14:18Z</time>
      </trkpt>
      <trkpt lat="43.00442" lon="-0.18127">
        <ele>1245.89</ele>
        <time>2017-07-31T10:14:20Z</time>
      </trkpt>
      <trkpt lat="43.00437" lon="-0.18115">
        <ele>1247.11</ele>
        <time>2017-07-31T10:14:26Z</time>
      </trkpt>
      <trkpt lat="43.00435" lon="-0.18109">
        <ele>1247.5</ele>
        <time>2017-07-31T10:14:28Z</time>
      </trkpt>
      <trkpt lat="43.00433" lon="-0.18101">
        <ele>1247.35</ele>
        <time>2017-07-31T10:14:30Z</time>
      </trkpt>
      <trkpt lat="43.00433" lon="-0.18094">
        <ele>1246.79</ele>
        <time>2017-07-31T10:14:32Z</time>
      </trkpt>
      <trkpt lat="43.00432" lon="-0.18085">
        <ele>1245.96</ele>
        <time>2017-07-31T10:14:34Z</time>
      </trkpt>
      <trkpt lat="43.0043" lon="-0.18077">
        <ele>1245.43</ele>
        <time>2017-07-31T10:14:36Z</time>
      </trkpt>
      <trkpt lat="43.00429" lon="-0.18069">
        <ele>1244.88</ele>
        <time>2017-07-31T10:14:38Z</time>
      </trkpt>
      <trkpt lat="43.00427" lon="-0.18061">
        <ele>1244.19</ele>
        <time>2017-07-31T10:14:40Z</time>
      </trkpt>
      <trkpt lat="43.00425" lon="-0.18052">
        <ele>1243.45</ele>
        <time>2017-07-31T10:14:42Z</time>
      </trkpt>
      <trkpt lat="43.00421" lon="-0.18043">
        <ele>1243.52</ele>
        <time>2017-07-31T10:14:44Z</time>
      </trkpt>
      <trkpt lat="43.00417" lon="-0.18036">
        <ele>1243.93</ele>
        <time>2017-07-31T10:14:46Z</time>
      </trkpt>
      <trkpt lat="43.00413" lon="-0.1803">
        <ele>1244.11</ele>
        <time>2017-07-31T10:14:48Z</time>
      </trkpt>
      <trkpt lat="43.0041" lon="-0.18025">
        <ele>1244.17</ele>
        <time>2017-07-31T10:14:50Z</time>
      </trkpt>
      <trkpt lat="43.00404" lon="-0.18019">
        <ele>1244.19</ele>
        <time>2017-07-31T10:14:52Z</time>
      </trkpt>
      <trkpt lat="43.00411" lon="-0.18087">
        <ele>1252.84</ele>
        <time>2017-07-31T10:15:18Z</time>
      </trkpt>
      <trkpt lat="43.00405" lon="-0.18092">
        <ele>1268.56</ele>
        <time>2017-07-31T10:15:20Z</time>
      </trkpt>
      <trkpt lat="43.00406" lon="-0.18101">
        <ele>1274.29</ele>
        <time>2017-07-31T10:15:23Z</time>
      </trkpt>
      <trkpt lat="43.00405" lon="-0.18111">
        <ele>1274.05</ele>
        <time>2017-07-31T10:15:25Z</time>
      </trkpt>
      <trkpt lat="43.00404" lon="-0.18122">
        <ele>1272.76</ele>
        <time>2017-07-31T10:15:27Z</time>
      </trkpt>
      <trkpt lat="43.00402" lon="-0.18131">
        <ele>1270.96</ele>
        <time>2017-07-31T10:15:29Z</time>
      </trkpt>
      <trkpt lat="43.00398" lon="-0.18139">
        <ele>1267.82</ele>
        <time>2017-07-31T10:15:31Z</time>
      </trkpt>
      <trkpt lat="43.00395" lon="-0.18147">
        <ele>1264.84</ele>
        <time>2017-07-31T10:15:33Z</time>
      </trkpt>
      <trkpt lat="43.00392" lon="-0.18154">
        <ele>1262.92</ele>
        <time>2017-07-31T10:15:35Z</time>
      </trkpt>
      <trkpt lat="43.00388" lon="-0.1816">
        <ele>1262.2</ele>
        <time>2017-07-31T10:15:37Z</time>
      </trkpt>
      <trkpt lat="43.00384" lon="-0.18165">
        <ele>1262.21</ele>
        <time>2017-07-31T10:15:39Z</time>
      </trkpt>
      <trkpt lat="43.0038" lon="-0.1817">
        <ele>1262.21</ele>
        <time>2017-07-31T10:15:41Z</time>
      </trkpt>
      <trkpt lat="43.00376" lon="-0.18175">
        <ele>1261.74</ele>
        <time>2017-07-31T10:15:43Z</time>
      </trkpt>
      <trkpt lat="43.00371" lon="-0.18179">
        <ele>1261.12</ele>
        <time>2017-07-31T10:15:45Z</time>
      </trkpt>
      <trkpt lat="43.00366" lon="-0.18184">
        <ele>1260.45</ele>
        <time>2017-07-31T10:15:47Z</time>
      </trkpt>
      <trkpt lat="43.00361" lon="-0.18189">
        <ele>1260</ele>
        <time>2017-07-31T10:15:49Z</time>
      </trkpt>
      <trkpt lat="43.00354" lon="-0.18195">
        <ele>1259.93</ele>
        <time>2017-07-31T10:15:51Z</time>
      </trkpt>
      <trkpt lat="43.00346" lon="-0.18199">
        <ele>1259.8</ele>
        <time>2017-07-31T10:15:53Z</time>
      </trkpt>
      <trkpt lat="43.00339" lon="-0.18203">
        <ele>1259.52</ele>
        <time>2017-07-31T10:15:55Z</time>
      </trkpt>
      <trkpt lat="43.00332" lon="-0.18205">
        <ele>1259.14</ele>
        <time>2017-07-31T10:15:57Z</time>
      </trkpt>
      <trkpt lat="43.00327" lon="-0.18207">
        <ele>1258.72</ele>
        <time>2017-07-31T10:15:59Z</time>
      </trkpt>
      <trkpt lat="43.00321" lon="-0.18209">
        <ele>1258.29</ele>
        <time>2017-07-31T10:16:01Z</time>
      </trkpt>
      <trkpt lat="43.00315" lon="-0.1821">
        <ele>1257.88</ele>
        <time>2017-07-31T10:16:03Z</time>
      </trkpt>
      <trkpt lat="43.00309" lon="-0.18212">
        <ele>1257.5</ele>
        <time>2017-07-31T10:16:05Z</time>
      </trkpt>
      <trkpt lat="43.00303" lon="-0.18212">
        <ele>1257.17</ele>
        <time>2017-07-31T10:16:07Z</time>
      </trkpt>
      <trkpt lat="43.00297" lon="-0.18214">
        <ele>1256.89</ele>
        <time>2017-07-31T10:16:09Z</time>
      </trkpt>
      <trkpt lat="43.0029" lon="-0.18214">
        <ele>1256.63</ele>
        <time>2017-07-31T10:16:11Z</time>
      </trkpt>
      <trkpt lat="43.00284" lon="-0.18215">
        <ele>1256.4</ele>
        <time>2017-07-31T10:16:13Z</time>
      </trkpt>
      <trkpt lat="43.00278" lon="-0.18217">
        <ele>1256.22</ele>
        <time>2017-07-31T10:16:15Z</time>
      </trkpt>
      <trkpt lat="43.00272" lon="-0.18219">
        <ele>1256.06</ele>
        <time>2017-07-31T10:16:17Z</time>
      </trkpt>
      <trkpt lat="43.00267" lon="-0.18221">
        <ele>1255.92</ele>
        <time>2017-07-31T10:16:19Z</time>
      </trkpt>
      <trkpt lat="43.00263" lon="-0.18225">
        <ele>1255.84</ele>
        <time>2017-07-31T10:16:21Z</time>
      </trkpt>
      <trkpt lat="43.00258" lon="-0.1823">
        <ele>1255.83</ele>
        <time>2017-07-31T10:16:23Z</time>
      </trkpt>
      <trkpt lat="43.00251" lon="-0.18244">
        <ele>1256.01</ele>
        <time>2017-07-31T10:16:27Z</time>
      </trkpt>
      <trkpt lat="43.00249" lon="-0.18252">
        <ele>1256.24</ele>
        <time>2017-07-31T10:16:29Z</time>
      </trkpt>
      <trkpt lat="43.00246" lon="-0.18259">
        <ele>1256.5</ele>
        <time>2017-07-31T10:16:31Z</time>
      </trkpt>
      <trkpt lat="43.00244" lon="-0.18266">
        <ele>1256.85</ele>
        <time>2017-07-31T10:16:33Z</time>
      </trkpt>
      <trkpt lat="43.00242" lon="-0.18272">
        <ele>1257.3</ele>
        <time>2017-07-31T10:16:35Z</time>
      </trkpt>
      <trkpt lat="43.00241" lon="-0.18279">
        <ele>1257.86</ele>
        <time>2017-07-31T10:16:37Z</time>
      </trkpt>
      <trkpt lat="43.0024" lon="-0.18287">
        <ele>1258.46</ele>
        <time>2017-07-31T10:16:39Z</time>
      </trkpt>
      <trkpt lat="43.00238" lon="-0.18296">
        <ele>1259.09</ele>
        <time>2017-07-31T10:16:41Z</time>
      </trkpt>
      <trkpt lat="43.00236" lon="-0.18304">
        <ele>1259.75</ele>
        <time>2017-07-31T10:16:43Z</time>
      </trkpt>
      <trkpt lat="43.00233" lon="-0.18312">
        <ele>1260.45</ele>
        <time>2017-07-31T10:16:45Z</time>
      </trkpt>
      <trkpt lat="43.00231" lon="-0.1832">
        <ele>1261.15</ele>
        <time>2017-07-31T10:16:47Z</time>
      </trkpt>
      <trkpt lat="43.00228" lon="-0.18328">
        <ele>1261.87</ele>
        <time>2017-07-31T10:16:49Z</time>
      </trkpt>
      <trkpt lat="43.00225" lon="-0.18336">
        <ele>1262.58</ele>
        <time>2017-07-31T10:16:51Z</time>
      </trkpt>
      <trkpt lat="43.00223" lon="-0.18343">
        <ele>1263.3</ele>
        <time>2017-07-31T10:16:53Z</time>
      </trkpt>
      <trkpt lat="43.00221" lon="-0.18351">
        <ele>1264.03</ele>
        <time>2017-07-31T10:16:55Z</time>
      </trkpt>
      <trkpt lat="43.00219" lon="-0.18359">
        <ele>1264.76</ele>
        <time>2017-07-31T10:16:57Z</time>
      </trkpt>
      <trkpt lat="43.00218" lon="-0.18366">
        <ele>1265.53</ele>
        <time>2017-07-31T10:16:59Z</time>
      </trkpt>
      <trkpt lat="43.00219" lon="-0.18373">
        <ele>1266.31</ele>
        <time>2017-07-31T10:17:01Z</time>
      </trkpt>
      <trkpt lat="43.00221" lon="-0.18388">
        <ele>1267.61</ele>
        <time>2017-07-31T10:17:05Z</time>
      </trkpt>
      <trkpt lat="43.00223" lon="-0.18396">
        <ele>1268.53</ele>
        <time>2017-07-31T10:17:07Z</time>
      </trkpt>
      <trkpt lat="43.00226" lon="-0.18403">
        <ele>1269.24</ele>
        <time>2017-07-31T10:17:09Z</time>
      </trkpt>
      <trkpt lat="43.00229" lon="-0.1841">
        <ele>1269.94</ele>
        <time>2017-07-31T10:17:11Z</time>
      </trkpt>
      <trkpt lat="43.00231" lon="-0.18418">
        <ele>1270.65</ele>
        <time>2017-07-31T10:17:13Z</time>
      </trkpt>
      <trkpt lat="43.00233" lon="-0.18428">
        <ele>1271.33</ele>
        <time>2017-07-31T10:17:15Z</time>
      </trkpt>
      <trkpt lat="43.00233" lon="-0.18437">
        <ele>1271.98</ele>
        <time>2017-07-31T10:17:17Z</time>
      </trkpt>
      <trkpt lat="43.00233" lon="-0.18445">
        <ele>1272.63</ele>
        <time>2017-07-31T10:17:19Z</time>
      </trkpt>
      <trkpt lat="43.00233" lon="-0.18454">
        <ele>1273.28</ele>
        <time>2017-07-31T10:17:21Z</time>
      </trkpt>
      <trkpt lat="43.00232" lon="-0.18462">
        <ele>1273.91</ele>
        <time>2017-07-31T10:17:23Z</time>
      </trkpt>
      <trkpt lat="43.00231" lon="-0.18471">
        <ele>1274.5</ele>
        <time>2017-07-31T10:17:25Z</time>
      </trkpt>
      <trkpt lat="43.0023" lon="-0.18481">
        <ele>1275.05</ele>
        <time>2017-07-31T10:17:27Z</time>
      </trkpt>
      <trkpt lat="43.00229" lon="-0.18489">
        <ele>1275.57</ele>
        <time>2017-07-31T10:17:29Z</time>
      </trkpt>
      <trkpt lat="43.00227" lon="-0.18497">
        <ele>1276.1</ele>
        <time>2017-07-31T10:17:31Z</time>
      </trkpt>
      <trkpt lat="43.00225" lon="-0.18504">
        <ele>1276.65</ele>
        <time>2017-07-31T10:17:33Z</time>
      </trkpt>
      <trkpt lat="43.00224" lon="-0.18511">
        <ele>1277.22</ele>
        <time>2017-07-31T10:17:35Z</time>
      </trkpt>
      <trkpt lat="43.00222" lon="-0.18519">
        <ele>1277.81</ele>
        <time>2017-07-31T10:17:37Z</time>
      </trkpt>
      <trkpt lat="43.0022" lon="-0.18529">
        <ele>1278.38</ele>
        <time>2017-07-31T10:17:39Z</time>
      </trkpt>
      <trkpt lat="43.00218" lon="-0.1854">
        <ele>1278.95</ele>
        <time>2017-07-31T10:17:41Z</time>
      </trkpt>
      <trkpt lat="43.00215" lon="-0.18551">
        <ele>1279.5</ele>
        <time>2017-07-31T10:17:43Z</time>
      </trkpt>
      <trkpt lat="43.00213" lon="-0.1856">
        <ele>1280.05</ele>
        <time>2017-07-31T10:17:45Z</time>
      </trkpt>
      <trkpt lat="43.0021" lon="-0.18571">
        <ele>1280.58</ele>
        <time>2017-07-31T10:17:47Z</time>
      </trkpt>
      <trkpt lat="43.00208" lon="-0.18582">
        <ele>1281.08</ele>
        <time>2017-07-31T10:17:49Z</time>
      </trkpt>
      <trkpt lat="43.00206" lon="-0.18592">
        <ele>1281.56</ele>
        <time>2017-07-31T10:17:51Z</time>
      </trkpt>
      <trkpt lat="43.00203" lon="-0.18602">
        <ele>1282.05</ele>
        <time>2017-07-31T10:17:53Z</time>
      </trkpt>
      <trkpt lat="43.00201" lon="-0.18612">
        <ele>1282.54</ele>
        <time>2017-07-31T10:17:55Z</time>
      </trkpt>
      <trkpt lat="43.00198" lon="-0.18621">
        <ele>1283.05</ele>
        <time>2017-07-31T10:17:57Z</time>
      </trkpt>
      <trkpt lat="43.00195" lon="-0.18631">
        <ele>1283.56</ele>
        <time>2017-07-31T10:17:59Z</time>
      </trkpt>
      <trkpt lat="43.00193" lon="-0.1864">
        <ele>1284.09</ele>
        <time>2017-07-31T10:18:01Z</time>
      </trkpt>
      <trkpt lat="43.00191" lon="-0.18649">
        <ele>1284.63</ele>
        <time>2017-07-31T10:18:03Z</time>
      </trkpt>
      <trkpt lat="43.00187" lon="-0.18657">
        <ele>1285.17</ele>
        <time>2017-07-31T10:18:05Z</time>
      </trkpt>
      <trkpt lat="43.00184" lon="-0.18665">
        <ele>1285.73</ele>
        <time>2017-07-31T10:18:07Z</time>
      </trkpt>
      <trkpt lat="43.00181" lon="-0.18673">
        <ele>1286.28</ele>
        <time>2017-07-31T10:18:09Z</time>
      </trkpt>
      <trkpt lat="43.00179" lon="-0.1868">
        <ele>1286.84</ele>
        <time>2017-07-31T10:18:11Z</time>
      </trkpt>
      <trkpt lat="43.00177" lon="-0.18688">
        <ele>1287.43</ele>
        <time>2017-07-31T10:18:13Z</time>
      </trkpt>
      <trkpt lat="43.00175" lon="-0.18695">
        <ele>1288</ele>
        <time>2017-07-31T10:18:15Z</time>
      </trkpt>
      <trkpt lat="43.00172" lon="-0.18704">
        <ele>1288.56</ele>
        <time>2017-07-31T10:18:17Z</time>
      </trkpt>
      <trkpt lat="43.00171" lon="-0.18723">
        <ele>1289.36</ele>
        <time>2017-07-31T10:18:21Z</time>
      </trkpt>
      <trkpt lat="43.0017" lon="-0.18734">
        <ele>1290.02</ele>
        <time>2017-07-31T10:18:23Z</time>
      </trkpt>
      <trkpt lat="43.0017" lon="-0.18747">
        <ele>1290.45</ele>
        <time>2017-07-31T10:18:25Z</time>
      </trkpt>
      <trkpt lat="43.0017" lon="-0.18759">
        <ele>1290.83</ele>
        <time>2017-07-31T10:18:27Z</time>
      </trkpt>
      <trkpt lat="43.00171" lon="-0.1877">
        <ele>1291.22</ele>
        <time>2017-07-31T10:18:29Z</time>
      </trkpt>
      <trkpt lat="43.00172" lon="-0.1878">
        <ele>1291.64</ele>
        <time>2017-07-31T10:18:31Z</time>
      </trkpt>
      <trkpt lat="43.00172" lon="-0.18786">
        <ele>1291.85</ele>
        <time>2017-07-31T10:18:32Z</time>
      </trkpt>
      <trkpt lat="43.00172" lon="-0.18793">
        <ele>1292.06</ele>
        <time>2017-07-31T10:18:33Z</time>
      </trkpt>
      <trkpt lat="43.00173" lon="-0.18804">
        <ele>1292.46</ele>
        <time>2017-07-31T10:18:35Z</time>
      </trkpt>
      <trkpt lat="43.00174" lon="-0.1881">
        <ele>1292.65</ele>
        <time>2017-07-31T10:18:36Z</time>
      </trkpt>
      <trkpt lat="43.00177" lon="-0.1882">
        <ele>1293.03</ele>
        <time>2017-07-31T10:18:38Z</time>
      </trkpt>
      <trkpt lat="43.0018" lon="-0.1883">
        <ele>1293.45</ele>
        <time>2017-07-31T10:18:40Z</time>
      </trkpt>
      <trkpt lat="43.00183" lon="-0.1884">
        <ele>1293.89</ele>
        <time>2017-07-31T10:18:42Z</time>
      </trkpt>
      <trkpt lat="43.00187" lon="-0.18848">
        <ele>1294.34</ele>
        <time>2017-07-31T10:18:44Z</time>
      </trkpt>
      <trkpt lat="43.00189" lon="-0.18855">
        <ele>1294.82</ele>
        <time>2017-07-31T10:18:46Z</time>
      </trkpt>
      <trkpt lat="43.00192" lon="-0.18862">
        <ele>1295.33</ele>
        <time>2017-07-31T10:18:48Z</time>
      </trkpt>
      <trkpt lat="43.00195" lon="-0.1887">
        <ele>1295.88</ele>
        <time>2017-07-31T10:18:50Z</time>
      </trkpt>
      <trkpt lat="43.00199" lon="-0.18881">
        <ele>1296.43</ele>
        <time>2017-07-31T10:18:52Z</time>
      </trkpt>
      <trkpt lat="43.00202" lon="-0.1889">
        <ele>1296.98</ele>
        <time>2017-07-31T10:18:54Z</time>
      </trkpt>
      <trkpt lat="43.00206" lon="-0.18898">
        <ele>1297.57</ele>
        <time>2017-07-31T10:18:56Z</time>
      </trkpt>
      <trkpt lat="43.0021" lon="-0.18905">
        <ele>1298.21</ele>
        <time>2017-07-31T10:18:58Z</time>
      </trkpt>
      <trkpt lat="43.00215" lon="-0.18911">
        <ele>1298.88</ele>
        <time>2017-07-31T10:19:00Z</time>
      </trkpt>
      <trkpt lat="43.0022" lon="-0.18917">
        <ele>1299.52</ele>
        <time>2017-07-31T10:19:02Z</time>
      </trkpt>
      <trkpt lat="43.00226" lon="-0.18923">
        <ele>1300.16</ele>
        <time>2017-07-31T10:19:04Z</time>
      </trkpt>
      <trkpt lat="43.00232" lon="-0.18929">
        <ele>1300.81</ele>
        <time>2017-07-31T10:19:06Z</time>
      </trkpt>
      <trkpt lat="43.00238" lon="-0.18936">
        <ele>1301.45</ele>
        <time>2017-07-31T10:19:08Z</time>
      </trkpt>
      <trkpt lat="43.00242" lon="-0.18943">
        <ele>1302.07</ele>
        <time>2017-07-31T10:19:10Z</time>
      </trkpt>
      <trkpt lat="43.00244" lon="-0.18954">
        <ele>1302.73</ele>
        <time>2017-07-31T10:19:12Z</time>
      </trkpt>
      <trkpt lat="43.00244" lon="-0.18963">
        <ele>1303.4</ele>
        <time>2017-07-31T10:19:14Z</time>
      </trkpt>
      <trkpt lat="43.00244" lon="-0.18971">
        <ele>1304.09</ele>
        <time>2017-07-31T10:19:16Z</time>
      </trkpt>
      <trkpt lat="43.00246" lon="-0.18987">
        <ele>1304.88</ele>
        <time>2017-07-31T10:19:18Z</time>
      </trkpt>
      <trkpt lat="43.00246" lon="-0.18995">
        <ele>1305.32</ele>
        <time>2017-07-31T10:19:19Z</time>
      </trkpt>
      <trkpt lat="43.00246" lon="-0.19006">
        <ele>1306.16</ele>
        <time>2017-07-31T10:19:21Z</time>
      </trkpt>
      <trkpt lat="43.00245" lon="-0.19013">
        <ele>1306.86</ele>
        <time>2017-07-31T10:19:23Z</time>
      </trkpt>
      <trkpt lat="43.00246" lon="-0.19025">
        <ele>1307.56</ele>
        <time>2017-07-31T10:19:25Z</time>
      </trkpt>
      <trkpt lat="43.00248" lon="-0.19033">
        <ele>1307.93</ele>
        <time>2017-07-31T10:19:26Z</time>
      </trkpt>
      <trkpt lat="43.00249" lon="-0.19039">
        <ele>1308.33</ele>
        <time>2017-07-31T10:19:27Z</time>
      </trkpt>
      <trkpt lat="43.00247" lon="-0.19051">
        <ele>1309.18</ele>
        <time>2017-07-31T10:19:29Z</time>
      </trkpt>
      <trkpt lat="43.00247" lon="-0.19057">
        <ele>1309.58</ele>
        <time>2017-07-31T10:19:30Z</time>
      </trkpt>
      <trkpt lat="43.00244" lon="-0.19063">
        <ele>1309.94</ele>
        <time>2017-07-31T10:19:31Z</time>
      </trkpt>
      <trkpt lat="43.00238" lon="-0.19073">
        <ele>1310.56</ele>
        <time>2017-07-31T10:19:33Z</time>
      </trkpt>
      <trkpt lat="43.00232" lon="-0.19081">
        <ele>1311.03</ele>
        <time>2017-07-31T10:19:35Z</time>
      </trkpt>
      <trkpt lat="43.00229" lon="-0.19092">
        <ele>1311.34</ele>
        <time>2017-07-31T10:19:37Z</time>
      </trkpt>
      <trkpt lat="43.00223" lon="-0.19101">
        <ele>1311.56</ele>
        <time>2017-07-31T10:19:39Z</time>
      </trkpt>
      <trkpt lat="43.00218" lon="-0.19109">
        <ele>1311.76</ele>
        <time>2017-07-31T10:19:41Z</time>
      </trkpt>
      <trkpt lat="43.00212" lon="-0.19117">
        <ele>1312.56</ele>
        <time>2017-07-31T10:19:43Z</time>
      </trkpt>
      <trkpt lat="43.00202" lon="-0.19126">
        <ele>1312.82</ele>
        <time>2017-07-31T10:19:46Z</time>
      </trkpt>
      <trkpt lat="43.00195" lon="-0.19131">
        <ele>1312.95</ele>
        <time>2017-07-31T10:19:48Z</time>
      </trkpt>
      <trkpt lat="43.00188" lon="-0.19135">
        <ele>1313.03</ele>
        <time>2017-07-31T10:19:50Z</time>
      </trkpt>
      <trkpt lat="43.00181" lon="-0.19139">
        <ele>1313.06</ele>
        <time>2017-07-31T10:19:52Z</time>
      </trkpt>
      <trkpt lat="43.00173" lon="-0.19144">
        <ele>1313.06</ele>
        <time>2017-07-31T10:19:54Z</time>
      </trkpt>
      <trkpt lat="43.00165" lon="-0.19148">
        <ele>1313.12</ele>
        <time>2017-07-31T10:19:56Z</time>
      </trkpt>
      <trkpt lat="43.00157" lon="-0.19152">
        <ele>1313.37</ele>
        <time>2017-07-31T10:19:58Z</time>
      </trkpt>
      <trkpt lat="43.00149" lon="-0.19154">
        <ele>1313.51</ele>
        <time>2017-07-31T10:20:00Z</time>
      </trkpt>
      <trkpt lat="43.00142" lon="-0.19156">
        <ele>1313.61</ele>
        <time>2017-07-31T10:20:02Z</time>
      </trkpt>
      <trkpt lat="43.00134" lon="-0.19159">
        <ele>1313.72</ele>
        <time>2017-07-31T10:20:04Z</time>
      </trkpt>
      <trkpt lat="43.00127" lon="-0.1916">
        <ele>1313.85</ele>
        <time>2017-07-31T10:20:06Z</time>
      </trkpt>
      <trkpt lat="43.00119" lon="-0.19161">
        <ele>1313.97</ele>
        <time>2017-07-31T10:20:08Z</time>
      </trkpt>
      <trkpt lat="43.00112" lon="-0.1916">
        <ele>1314.51</ele>
        <time>2017-07-31T10:20:10Z</time>
      </trkpt>
      <trkpt lat="43.00105" lon="-0.1916">
        <ele>1314.82</ele>
        <time>2017-07-31T10:20:12Z</time>
      </trkpt>
      <trkpt lat="43.00099" lon="-0.19159">
        <ele>1315.03</ele>
        <time>2017-07-31T10:20:14Z</time>
      </trkpt>
      <trkpt lat="43.00091" lon="-0.1916">
        <ele>1315.29</ele>
        <time>2017-07-31T10:20:16Z</time>
      </trkpt>
      <trkpt lat="43.00083" lon="-0.19161">
        <ele>1315.56</ele>
        <time>2017-07-31T10:20:18Z</time>
      </trkpt>
      <trkpt lat="43.00075" lon="-0.19161">
        <ele>1316.79</ele>
        <time>2017-07-31T10:20:20Z</time>
      </trkpt>
      <trkpt lat="43.00067" lon="-0.19162">
        <ele>1317.43</ele>
        <time>2017-07-31T10:20:22Z</time>
      </trkpt>
      <trkpt lat="43.0006" lon="-0.19162">
        <ele>1319.12</ele>
        <time>2017-07-31T10:20:24Z</time>
      </trkpt>
      <trkpt lat="43.00055" lon="-0.19162">
        <ele>1320.3</ele>
        <time>2017-07-31T10:20:25Z</time>
      </trkpt>
      <trkpt lat="43.00051" lon="-0.19162">
        <ele>1320.75</ele>
        <time>2017-07-31T10:20:26Z</time>
      </trkpt>
      <trkpt lat="43.00044" lon="-0.19162">
        <ele>1321.14</ele>
        <time>2017-07-31T10:20:28Z</time>
      </trkpt>
      <trkpt lat="43.00037" lon="-0.19164">
        <ele>1321.46</ele>
        <time>2017-07-31T10:20:30Z</time>
      </trkpt>
      <trkpt lat="43.0003" lon="-0.19165">
        <ele>1321.82</ele>
        <time>2017-07-31T10:20:32Z</time>
      </trkpt>
      <trkpt lat="43.00022" lon="-0.19166">
        <ele>1322.21</ele>
        <time>2017-07-31T10:20:34Z</time>
      </trkpt>
      <trkpt lat="43.00015" lon="-0.19167">
        <ele>1322.64</ele>
        <time>2017-07-31T10:20:36Z</time>
      </trkpt>
      <trkpt lat="43.00007" lon="-0.19169">
        <ele>1323.08</ele>
        <time>2017-07-31T10:20:38Z</time>
      </trkpt>
      <trkpt lat="43.00003" lon="-0.1917">
        <ele>1323.31</ele>
        <time>2017-07-31T10:20:39Z</time>
      </trkpt>
      <trkpt lat="42.99995" lon="-0.19173">
        <ele>1323.74</ele>
        <time>2017-07-31T10:20:41Z</time>
      </trkpt>
      <trkpt lat="42.99987" lon="-0.19177">
        <ele>1324.17</ele>
        <time>2017-07-31T10:20:43Z</time>
      </trkpt>
      <trkpt lat="42.99981" lon="-0.19182">
        <ele>1324.63</ele>
        <time>2017-07-31T10:20:45Z</time>
      </trkpt>
      <trkpt lat="42.99974" lon="-0.19185">
        <ele>1325.12</ele>
        <time>2017-07-31T10:20:47Z</time>
      </trkpt>
      <trkpt lat="42.99969" lon="-0.19187">
        <ele>1325.35</ele>
        <time>2017-07-31T10:20:48Z</time>
      </trkpt>
      <trkpt lat="42.99965" lon="-0.19188">
        <ele>1325.59</ele>
        <time>2017-07-31T10:20:49Z</time>
      </trkpt>
      <trkpt lat="42.99958" lon="-0.19192">
        <ele>1326.06</ele>
        <time>2017-07-31T10:20:51Z</time>
      </trkpt>
      <trkpt lat="42.99952" lon="-0.19195">
        <ele>1326.57</ele>
        <time>2017-07-31T10:20:53Z</time>
      </trkpt>
      <trkpt lat="42.99946" lon="-0.19198">
        <ele>1327.09</ele>
        <time>2017-07-31T10:20:55Z</time>
      </trkpt>
      <trkpt lat="42.99939" lon="-0.19202">
        <ele>1327.58</ele>
        <time>2017-07-31T10:20:57Z</time>
      </trkpt>
      <trkpt lat="42.99933" lon="-0.19205">
        <ele>1328.1</ele>
        <time>2017-07-31T10:20:59Z</time>
      </trkpt>
      <trkpt lat="42.99926" lon="-0.19208">
        <ele>1330.62</ele>
        <time>2017-07-31T10:21:01Z</time>
      </trkpt>
      <trkpt lat="42.9992" lon="-0.19211">
        <ele>1331.23</ele>
        <time>2017-07-31T10:21:03Z</time>
      </trkpt>
      <trkpt lat="42.99915" lon="-0.19212">
        <ele>1331.66</ele>
        <time>2017-07-31T10:21:05Z</time>
      </trkpt>
      <trkpt lat="42.99908" lon="-0.19216">
        <ele>1332.07</ele>
        <time>2017-07-31T10:21:07Z</time>
      </trkpt>
      <trkpt lat="42.99901" lon="-0.1922">
        <ele>1334.08</ele>
        <time>2017-07-31T10:21:09Z</time>
      </trkpt>
      <trkpt lat="42.99893" lon="-0.19225">
        <ele>1335.95</ele>
        <time>2017-07-31T10:21:11Z</time>
      </trkpt>
      <trkpt lat="42.99885" lon="-0.1923">
        <ele>1338.02</ele>
        <time>2017-07-31T10:21:13Z</time>
      </trkpt>
      <trkpt lat="42.99877" lon="-0.19236">
        <ele>1338.57</ele>
        <time>2017-07-31T10:21:15Z</time>
      </trkpt>
      <trkpt lat="42.99871" lon="-0.19242">
        <ele>1339.37</ele>
        <time>2017-07-31T10:21:17Z</time>
      </trkpt>
      <trkpt lat="42.99865" lon="-0.1925">
        <ele>1340.23</ele>
        <time>2017-07-31T10:21:19Z</time>
      </trkpt>
      <trkpt lat="42.99859" lon="-0.19258">
        <ele>1340.85</ele>
        <time>2017-07-31T10:21:21Z</time>
      </trkpt>
      <trkpt lat="42.99853" lon="-0.19266">
        <ele>1341.48</ele>
        <time>2017-07-31T10:21:23Z</time>
      </trkpt>
      <trkpt lat="42.99848" lon="-0.19274">
        <ele>1341.61</ele>
        <time>2017-07-31T10:21:25Z</time>
      </trkpt>
      <trkpt lat="42.99842" lon="-0.19281">
        <ele>1341.97</ele>
        <time>2017-07-31T10:21:27Z</time>
      </trkpt>
      <trkpt lat="42.99837" lon="-0.19287">
        <ele>1342.06</ele>
        <time>2017-07-31T10:21:29Z</time>
      </trkpt>
      <trkpt lat="42.99831" lon="-0.19293">
        <ele>1342.16</ele>
        <time>2017-07-31T10:21:31Z</time>
      </trkpt>
      <trkpt lat="42.99825" lon="-0.19299">
        <ele>1342.26</ele>
        <time>2017-07-31T10:21:33Z</time>
      </trkpt>
      <trkpt lat="42.99819" lon="-0.19295">
        <ele>1342.39</ele>
        <time>2017-07-31T10:21:35Z</time>
      </trkpt>
      <trkpt lat="42.99816" lon="-0.19287">
        <ele>1342.52</ele>
        <time>2017-07-31T10:21:37Z</time>
      </trkpt>
      <trkpt lat="42.99813" lon="-0.19282">
        <ele>1342.65</ele>
        <time>2017-07-31T10:21:39Z</time>
      </trkpt>
      <trkpt lat="42.99809" lon="-0.19276">
        <ele>1342.89</ele>
        <time>2017-07-31T10:21:42Z</time>
      </trkpt>
      <trkpt lat="42.99806" lon="-0.19269">
        <ele>1343.06</ele>
        <time>2017-07-31T10:21:44Z</time>
      </trkpt>
      <trkpt lat="42.99802" lon="-0.19273">
        <ele>1343.18</ele>
        <time>2017-07-31T10:21:45Z</time>
      </trkpt>
      <trkpt lat="42.99795" lon="-0.19273">
        <ele>1343.53</ele>
        <time>2017-07-31T10:21:47Z</time>
      </trkpt>
      <trkpt lat="42.99789" lon="-0.19269">
        <ele>1343.96</ele>
        <time>2017-07-31T10:21:49Z</time>
      </trkpt>
      <trkpt lat="42.99782" lon="-0.19266">
        <ele>1345.98</ele>
        <time>2017-07-31T10:21:51Z</time>
      </trkpt>
      <trkpt lat="42.99776" lon="-0.19265">
        <ele>1346.41</ele>
        <time>2017-07-31T10:21:53Z</time>
      </trkpt>
      <trkpt lat="42.99769" lon="-0.19264">
        <ele>1347.3</ele>
        <time>2017-07-31T10:21:55Z</time>
      </trkpt>
      <trkpt lat="42.99761" lon="-0.19264">
        <ele>1348.02</ele>
        <time>2017-07-31T10:21:57Z</time>
      </trkpt>
      <trkpt lat="42.99752" lon="-0.19265">
        <ele>1348.42</ele>
        <time>2017-07-31T10:21:59Z</time>
      </trkpt>
      <trkpt lat="42.99747" lon="-0.19267">
        <ele>1348.37</ele>
        <time>2017-07-31T10:22:00Z</time>
      </trkpt>
      <trkpt lat="42.99743" lon="-0.19269">
        <ele>1348.31</ele>
        <time>2017-07-31T10:22:01Z</time>
      </trkpt>
      <trkpt lat="42.99739" lon="-0.19272">
        <ele>1348.17</ele>
        <time>2017-07-31T10:22:02Z</time>
      </trkpt>
      <trkpt lat="42.99734" lon="-0.19274">
        <ele>1347.95</ele>
        <time>2017-07-31T10:22:03Z</time>
      </trkpt>
      <trkpt lat="42.99726" lon="-0.19279">
        <ele>1347.51</ele>
        <time>2017-07-31T10:22:05Z</time>
      </trkpt>
      <trkpt lat="42.99722" lon="-0.19282">
        <ele>1347.26</ele>
        <time>2017-07-31T10:22:06Z</time>
      </trkpt>
      <trkpt lat="42.99717" lon="-0.19285">
        <ele>1347.09</ele>
        <time>2017-07-31T10:22:07Z</time>
      </trkpt>
      <trkpt lat="42.9971" lon="-0.1929">
        <ele>1346.93</ele>
        <time>2017-07-31T10:22:09Z</time>
      </trkpt>
      <trkpt lat="42.99705" lon="-0.19293">
        <ele>1346.9</ele>
        <time>2017-07-31T10:22:10Z</time>
      </trkpt>
      <trkpt lat="42.99701" lon="-0.19295">
        <ele>1346.91</ele>
        <time>2017-07-31T10:22:11Z</time>
      </trkpt>
      <trkpt lat="42.99693" lon="-0.193">
        <ele>1347.14</ele>
        <time>2017-07-31T10:22:13Z</time>
      </trkpt>
      <trkpt lat="42.99688" lon="-0.19302">
        <ele>1347.2</ele>
        <time>2017-07-31T10:22:14Z</time>
      </trkpt>
      <trkpt lat="42.99681" lon="-0.19306">
        <ele>1347.23</ele>
        <time>2017-07-31T10:22:16Z</time>
      </trkpt>
      <trkpt lat="42.99676" lon="-0.19309">
        <ele>1347.33</ele>
        <time>2017-07-31T10:22:17Z</time>
      </trkpt>
      <trkpt lat="42.99672" lon="-0.19312">
        <ele>1347.43</ele>
        <time>2017-07-31T10:22:18Z</time>
      </trkpt>
      <trkpt lat="42.99667" lon="-0.19314">
        <ele>1347.5</ele>
        <time>2017-07-31T10:22:19Z</time>
      </trkpt>
      <trkpt lat="42.99659" lon="-0.19319">
        <ele>1347.69</ele>
        <time>2017-07-31T10:22:21Z</time>
      </trkpt>
      <trkpt lat="42.99651" lon="-0.19324">
        <ele>1347.93</ele>
        <time>2017-07-31T10:22:23Z</time>
      </trkpt>
      <trkpt lat="42.99643" lon="-0.19328">
        <ele>1348.31</ele>
        <time>2017-07-31T10:22:25Z</time>
      </trkpt>
      <trkpt lat="42.99635" lon="-0.19333">
        <ele>1349.1</ele>
        <time>2017-07-31T10:22:27Z</time>
      </trkpt>
      <trkpt lat="42.99622" lon="-0.19339">
        <ele>1350.26</ele>
        <time>2017-07-31T10:22:30Z</time>
      </trkpt>
      <trkpt lat="42.99615" lon="-0.19344">
        <ele>1350.99</ele>
        <time>2017-07-31T10:22:32Z</time>
      </trkpt>
      <trkpt lat="42.9961" lon="-0.19347">
        <ele>1351.06</ele>
        <time>2017-07-31T10:22:33Z</time>
      </trkpt>
      <trkpt lat="42.99602" lon="-0.19353">
        <ele>1350.65</ele>
        <time>2017-07-31T10:22:35Z</time>
      </trkpt>
      <trkpt lat="42.99598" lon="-0.19357">
        <ele>1350.43</ele>
        <time>2017-07-31T10:22:36Z</time>
      </trkpt>
      <trkpt lat="42.99594" lon="-0.19362">
        <ele>1350.35</ele>
        <time>2017-07-31T10:22:37Z</time>
      </trkpt>
      <trkpt lat="42.9959" lon="-0.19366">
        <ele>1350.25</ele>
        <time>2017-07-31T10:22:38Z</time>
      </trkpt>
      <trkpt lat="42.99586" lon="-0.1937">
        <ele>1350</ele>
        <time>2017-07-31T10:22:39Z</time>
      </trkpt>
      <trkpt lat="42.99581" lon="-0.19374">
        <ele>1349.74</ele>
        <time>2017-07-31T10:22:40Z</time>
      </trkpt>
      <trkpt lat="42.99577" lon="-0.19377">
        <ele>1349.66</ele>
        <time>2017-07-31T10:22:41Z</time>
      </trkpt>
      <trkpt lat="42.99572" lon="-0.1938">
        <ele>1349.57</ele>
        <time>2017-07-31T10:22:42Z</time>
      </trkpt>
      <trkpt lat="42.99568" lon="-0.19381">
        <ele>1349.53</ele>
        <time>2017-07-31T10:22:43Z</time>
      </trkpt>
      <trkpt lat="42.99563" lon="-0.19385">
        <ele>1349.64</ele>
        <time>2017-07-31T10:22:44Z</time>
      </trkpt>
      <trkpt lat="42.99558" lon="-0.19388">
        <ele>1349.88</ele>
        <time>2017-07-31T10:22:45Z</time>
      </trkpt>
      <trkpt lat="42.99549" lon="-0.19392">
        <ele>1350.38</ele>
        <time>2017-07-31T10:22:47Z</time>
      </trkpt>
      <trkpt lat="42.99544" lon="-0.19394">
        <ele>1350.56</ele>
        <time>2017-07-31T10:22:48Z</time>
      </trkpt>
      <trkpt lat="42.99539" lon="-0.19396">
        <ele>1350.71</ele>
        <time>2017-07-31T10:22:49Z</time>
      </trkpt>
      <trkpt lat="42.99534" lon="-0.19397">
        <ele>1350.8</ele>
        <time>2017-07-31T10:22:50Z</time>
      </trkpt>
      <trkpt lat="42.9953" lon="-0.19399">
        <ele>1350.89</ele>
        <time>2017-07-31T10:22:51Z</time>
      </trkpt>
      <trkpt lat="42.99525" lon="-0.19401">
        <ele>1350.96</ele>
        <time>2017-07-31T10:22:52Z</time>
      </trkpt>
      <trkpt lat="42.9952" lon="-0.19402">
        <ele>1350.98</ele>
        <time>2017-07-31T10:22:53Z</time>
      </trkpt>
      <trkpt lat="42.99516" lon="-0.19404">
        <ele>1350.94</ele>
        <time>2017-07-31T10:22:54Z</time>
      </trkpt>
      <trkpt lat="42.99511" lon="-0.19406">
        <ele>1350.88</ele>
        <time>2017-07-31T10:22:55Z</time>
      </trkpt>
      <trkpt lat="42.99503" lon="-0.19409">
        <ele>1351.16</ele>
        <time>2017-07-31T10:22:57Z</time>
      </trkpt>
      <trkpt lat="42.99498" lon="-0.1941">
        <ele>1351.35</ele>
        <time>2017-07-31T10:22:58Z</time>
      </trkpt>
      <trkpt lat="42.99488" lon="-0.19412">
        <ele>1352.12</ele>
        <time>2017-07-31T10:23:00Z</time>
      </trkpt>
      <trkpt lat="42.99483" lon="-0.19411">
        <ele>1352.61</ele>
        <time>2017-07-31T10:23:01Z</time>
      </trkpt>
      <trkpt lat="42.99478" lon="-0.19409">
        <ele>1352.99</ele>
        <time>2017-07-31T10:23:02Z</time>
      </trkpt>
      <trkpt lat="42.99473" lon="-0.19406">
        <ele>1353.29</ele>
        <time>2017-07-31T10:23:03Z</time>
      </trkpt>
      <trkpt lat="42.99468" lon="-0.19405">
        <ele>1353.59</ele>
        <time>2017-07-31T10:23:04Z</time>
      </trkpt>
      <trkpt lat="42.99463" lon="-0.19405">
        <ele>1353.77</ele>
        <time>2017-07-31T10:23:05Z</time>
      </trkpt>
      <trkpt lat="42.99457" lon="-0.19404">
        <ele>1353.98</ele>
        <time>2017-07-31T10:23:06Z</time>
      </trkpt>
      <trkpt lat="42.99452" lon="-0.19402">
        <ele>1354.17</ele>
        <time>2017-07-31T10:23:07Z</time>
      </trkpt>
      <trkpt lat="42.99448" lon="-0.194">
        <ele>1354.48</ele>
        <time>2017-07-31T10:23:08Z</time>
      </trkpt>
      <trkpt lat="42.99443" lon="-0.19397">
        <ele>1354.87</ele>
        <time>2017-07-31T10:23:09Z</time>
      </trkpt>
      <trkpt lat="42.99438" lon="-0.19395">
        <ele>1355.32</ele>
        <time>2017-07-31T10:23:10Z</time>
      </trkpt>
      <trkpt lat="42.99434" lon="-0.19392">
        <ele>1355.8</ele>
        <time>2017-07-31T10:23:11Z</time>
      </trkpt>
      <trkpt lat="42.99429" lon="-0.19389">
        <ele>1356.21</ele>
        <time>2017-07-31T10:23:12Z</time>
      </trkpt>
      <trkpt lat="42.99424" lon="-0.19387">
        <ele>1356.56</ele>
        <time>2017-07-31T10:23:13Z</time>
      </trkpt>
      <trkpt lat="42.99419" lon="-0.19384">
        <ele>1356.92</ele>
        <time>2017-07-31T10:23:14Z</time>
      </trkpt>
      <trkpt lat="42.99415" lon="-0.19381">
        <ele>1357.3</ele>
        <time>2017-07-31T10:23:15Z</time>
      </trkpt>
      <trkpt lat="42.9941" lon="-0.19378">
        <ele>1357.68</ele>
        <time>2017-07-31T10:23:16Z</time>
      </trkpt>
      <trkpt lat="42.994" lon="-0.19373">
        <ele>1358.41</ele>
        <time>2017-07-31T10:23:18Z</time>
      </trkpt>
      <trkpt lat="42.99394" lon="-0.1937">
        <ele>1358.82</ele>
        <time>2017-07-31T10:23:19Z</time>
      </trkpt>
      <trkpt lat="42.99389" lon="-0.19367">
        <ele>1359.16</ele>
        <time>2017-07-31T10:23:20Z</time>
      </trkpt>
      <trkpt lat="42.99379" lon="-0.19363">
        <ele>1359.7</ele>
        <time>2017-07-31T10:23:22Z</time>
      </trkpt>
      <trkpt lat="42.99374" lon="-0.19361">
        <ele>1360.1</ele>
        <time>2017-07-31T10:23:23Z</time>
      </trkpt>
      <trkpt lat="42.99369" lon="-0.19359">
        <ele>1360.49</ele>
        <time>2017-07-31T10:23:24Z</time>
      </trkpt>
      <trkpt lat="42.99363" lon="-0.19357">
        <ele>1360.85</ele>
        <time>2017-07-31T10:23:25Z</time>
      </trkpt>
      <trkpt lat="42.99358" lon="-0.19355">
        <ele>1361.19</ele>
        <time>2017-07-31T10:23:26Z</time>
      </trkpt>
      <trkpt lat="42.99353" lon="-0.19353">
        <ele>1361.53</ele>
        <time>2017-07-31T10:23:27Z</time>
      </trkpt>
      <trkpt lat="42.99348" lon="-0.1935">
        <ele>1361.87</ele>
        <time>2017-07-31T10:23:28Z</time>
      </trkpt>
      <trkpt lat="42.99344" lon="-0.19347">
        <ele>1362.24</ele>
        <time>2017-07-31T10:23:29Z</time>
      </trkpt>
      <trkpt lat="42.99339" lon="-0.19344">
        <ele>1362.59</ele>
        <time>2017-07-31T10:23:30Z</time>
      </trkpt>
      <trkpt lat="42.99334" lon="-0.19341">
        <ele>1362.88</ele>
        <time>2017-07-31T10:23:31Z</time>
      </trkpt>
      <trkpt lat="42.9933" lon="-0.19337">
        <ele>1363.01</ele>
        <time>2017-07-31T10:23:32Z</time>
      </trkpt>
      <trkpt lat="42.99326" lon="-0.19333">
        <ele>1363.09</ele>
        <time>2017-07-31T10:23:33Z</time>
      </trkpt>
      <trkpt lat="42.99323" lon="-0.19328">
        <ele>1363.16</ele>
        <time>2017-07-31T10:23:34Z</time>
      </trkpt>
      <trkpt lat="42.9932" lon="-0.19323">
        <ele>1363.14</ele>
        <time>2017-07-31T10:23:35Z</time>
      </trkpt>
      <trkpt lat="42.99315" lon="-0.19314">
        <ele>1363.14</ele>
        <time>2017-07-31T10:23:37Z</time>
      </trkpt>
      <trkpt lat="42.99311" lon="-0.19305">
        <ele>1363.53</ele>
        <time>2017-07-31T10:23:39Z</time>
      </trkpt>
      <trkpt lat="42.99302" lon="-0.19302">
        <ele>1364.02</ele>
        <time>2017-07-31T10:23:41Z</time>
      </trkpt>
      <trkpt lat="42.99296" lon="-0.19303">
        <ele>1364.05</ele>
        <time>2017-07-31T10:23:42Z</time>
      </trkpt>
      <trkpt lat="42.99291" lon="-0.19307">
        <ele>1363.98</ele>
        <time>2017-07-31T10:23:43Z</time>
      </trkpt>
      <trkpt lat="42.99286" lon="-0.1931">
        <ele>1363.72</ele>
        <time>2017-07-31T10:23:44Z</time>
      </trkpt>
      <trkpt lat="42.99281" lon="-0.19315">
        <ele>1363.35</ele>
        <time>2017-07-31T10:23:45Z</time>
      </trkpt>
      <trkpt lat="42.99276" lon="-0.19319">
        <ele>1362.98</ele>
        <time>2017-07-31T10:23:46Z</time>
      </trkpt>
      <trkpt lat="42.99271" lon="-0.19325">
        <ele>1362.62</ele>
        <time>2017-07-31T10:23:47Z</time>
      </trkpt>
      <trkpt lat="42.99267" lon="-0.19332">
        <ele>1362.26</ele>
        <time>2017-07-31T10:23:48Z</time>
      </trkpt>
      <trkpt lat="42.99263" lon="-0.1934">
        <ele>1361.94</ele>
        <time>2017-07-31T10:23:49Z</time>
      </trkpt>
      <trkpt lat="42.99259" lon="-0.19347">
        <ele>1361.65</ele>
        <time>2017-07-31T10:23:50Z</time>
      </trkpt>
      <trkpt lat="42.99255" lon="-0.19355">
        <ele>1361.4</ele>
        <time>2017-07-31T10:23:51Z</time>
      </trkpt>
      <trkpt lat="42.99251" lon="-0.19363">
        <ele>1361.15</ele>
        <time>2017-07-31T10:23:52Z</time>
      </trkpt>
      <trkpt lat="42.99247" lon="-0.1937">
        <ele>1360.91</ele>
        <time>2017-07-31T10:23:53Z</time>
      </trkpt>
      <trkpt lat="42.99241" lon="-0.19377">
        <ele>1360.69</ele>
        <time>2017-07-31T10:23:54Z</time>
      </trkpt>
      <trkpt lat="42.99235" lon="-0.19384">
        <ele>1360.46</ele>
        <time>2017-07-31T10:23:55Z</time>
      </trkpt>
      <trkpt lat="42.99229" lon="-0.19391">
        <ele>1360.23</ele>
        <time>2017-07-31T10:23:56Z</time>
      </trkpt>
      <trkpt lat="42.99224" lon="-0.19398">
        <ele>1360.02</ele>
        <time>2017-07-31T10:23:57Z</time>
      </trkpt>
      <trkpt lat="42.99219" lon="-0.19405">
        <ele>1359.79</ele>
        <time>2017-07-31T10:23:58Z</time>
      </trkpt>
      <trkpt lat="42.99214" lon="-0.19412">
        <ele>1359.57</ele>
        <time>2017-07-31T10:23:59Z</time>
      </trkpt>
      <trkpt lat="42.9921" lon="-0.1942">
        <ele>1359.34</ele>
        <time>2017-07-31T10:24:00Z</time>
      </trkpt>
      <trkpt lat="42.99207" lon="-0.19428">
        <ele>1359.08</ele>
        <time>2017-07-31T10:24:01Z</time>
      </trkpt>
      <trkpt lat="42.99205" lon="-0.19436">
        <ele>1358.88</ele>
        <time>2017-07-31T10:24:02Z</time>
      </trkpt>
      <trkpt lat="42.99205" lon="-0.19445">
        <ele>1358.68</ele>
        <time>2017-07-31T10:24:03Z</time>
      </trkpt>
      <trkpt lat="42.99206" lon="-0.19454">
        <ele>1358.47</ele>
        <time>2017-07-31T10:24:04Z</time>
      </trkpt>
      <trkpt lat="42.99208" lon="-0.19463">
        <ele>1358.3</ele>
        <time>2017-07-31T10:24:05Z</time>
      </trkpt>
      <trkpt lat="42.99209" lon="-0.19472">
        <ele>1358.15</ele>
        <time>2017-07-31T10:24:06Z</time>
      </trkpt>
      <trkpt lat="42.99211" lon="-0.19481">
        <ele>1357.99</ele>
        <time>2017-07-31T10:24:07Z</time>
      </trkpt>
      <trkpt lat="42.99213" lon="-0.19489">
        <ele>1357.82</ele>
        <time>2017-07-31T10:24:08Z</time>
      </trkpt>
      <trkpt lat="42.99215" lon="-0.19498">
        <ele>1357.65</ele>
        <time>2017-07-31T10:24:09Z</time>
      </trkpt>
      <trkpt lat="42.99217" lon="-0.19507">
        <ele>1357.48</ele>
        <time>2017-07-31T10:24:10Z</time>
      </trkpt>
      <trkpt lat="42.99219" lon="-0.19516">
        <ele>1357.36</ele>
        <time>2017-07-31T10:24:11Z</time>
      </trkpt>
      <trkpt lat="42.9922" lon="-0.19526">
        <ele>1357.25</ele>
        <time>2017-07-31T10:24:12Z</time>
      </trkpt>
      <trkpt lat="42.99222" lon="-0.19535">
        <ele>1357.1</ele>
        <time>2017-07-31T10:24:13Z</time>
      </trkpt>
      <trkpt lat="42.99225" lon="-0.19543">
        <ele>1356.95</ele>
        <time>2017-07-31T10:24:14Z</time>
      </trkpt>
      <trkpt lat="42.99227" lon="-0.19551">
        <ele>1356.8</ele>
        <time>2017-07-31T10:24:15Z</time>
      </trkpt>
      <trkpt lat="42.99229" lon="-0.19559">
        <ele>1356.65</ele>
        <time>2017-07-31T10:24:16Z</time>
      </trkpt>
      <trkpt lat="42.99231" lon="-0.19566">
        <ele>1356.54</ele>
        <time>2017-07-31T10:24:17Z</time>
      </trkpt>
      <trkpt lat="42.99233" lon="-0.19574">
        <ele>1356.39</ele>
        <time>2017-07-31T10:24:18Z</time>
      </trkpt>
      <trkpt lat="42.99235" lon="-0.19583">
        <ele>1356.18</ele>
        <time>2017-07-31T10:24:19Z</time>
      </trkpt>
      <trkpt lat="42.99236" lon="-0.19592">
        <ele>1356.03</ele>
        <time>2017-07-31T10:24:20Z</time>
      </trkpt>
      <trkpt lat="42.99238" lon="-0.196">
        <ele>1355.89</ele>
        <time>2017-07-31T10:24:21Z</time>
      </trkpt>
      <trkpt lat="42.99239" lon="-0.1961">
        <ele>1355.73</ele>
        <time>2017-07-31T10:24:22Z</time>
      </trkpt>
      <trkpt lat="42.99239" lon="-0.19618">
        <ele>1355.58</ele>
        <time>2017-07-31T10:24:23Z</time>
      </trkpt>
      <trkpt lat="42.9924" lon="-0.19626">
        <ele>1355.57</ele>
        <time>2017-07-31T10:24:24Z</time>
      </trkpt>
      <trkpt lat="42.99241" lon="-0.19633">
        <ele>1355.5</ele>
        <time>2017-07-31T10:24:25Z</time>
      </trkpt>
      <trkpt lat="42.99241" lon="-0.19642">
        <ele>1355.42</ele>
        <time>2017-07-31T10:24:26Z</time>
      </trkpt>
      <trkpt lat="42.99242" lon="-0.1965">
        <ele>1355.4</ele>
        <time>2017-07-31T10:24:27Z</time>
      </trkpt>
      <trkpt lat="42.99242" lon="-0.19658">
        <ele>1355.41</ele>
        <time>2017-07-31T10:24:28Z</time>
      </trkpt>
      <trkpt lat="42.99243" lon="-0.19666">
        <ele>1355.46</ele>
        <time>2017-07-31T10:24:29Z</time>
      </trkpt>
      <trkpt lat="42.99244" lon="-0.19675">
        <ele>1355.5</ele>
        <time>2017-07-31T10:24:30Z</time>
      </trkpt>
      <trkpt lat="42.99244" lon="-0.19684">
        <ele>1355.52</ele>
        <time>2017-07-31T10:24:31Z</time>
      </trkpt>
      <trkpt lat="42.99245" lon="-0.19692">
        <ele>1355.57</ele>
        <time>2017-07-31T10:24:32Z</time>
      </trkpt>
      <trkpt lat="42.99249" lon="-0.19712">
        <ele>1356.13</ele>
        <time>2017-07-31T10:24:35Z</time>
      </trkpt>
      <trkpt lat="42.9925" lon="-0.19719">
        <ele>1356.63</ele>
        <time>2017-07-31T10:24:36Z</time>
      </trkpt>
      <trkpt lat="42.99251" lon="-0.19727">
        <ele>1357.11</ele>
        <time>2017-07-31T10:24:37Z</time>
      </trkpt>
      <trkpt lat="42.99252" lon="-0.19737">
        <ele>1357.54</ele>
        <time>2017-07-31T10:24:38Z</time>
      </trkpt>
      <trkpt lat="42.99253" lon="-0.19746">
        <ele>1357.99</ele>
        <time>2017-07-31T10:24:39Z</time>
      </trkpt>
      <trkpt lat="42.99255" lon="-0.19754">
        <ele>1358.44</ele>
        <time>2017-07-31T10:24:40Z</time>
      </trkpt>
      <trkpt lat="42.99256" lon="-0.19762">
        <ele>1358.83</ele>
        <time>2017-07-31T10:24:41Z</time>
      </trkpt>
      <trkpt lat="42.99257" lon="-0.1977">
        <ele>1359.07</ele>
        <time>2017-07-31T10:24:42Z</time>
      </trkpt>
      <trkpt lat="42.99257" lon="-0.19779">
        <ele>1359.18</ele>
        <time>2017-07-31T10:24:43Z</time>
      </trkpt>
      <trkpt lat="42.99256" lon="-0.19789">
        <ele>1359.33</ele>
        <time>2017-07-31T10:24:44Z</time>
      </trkpt>
      <trkpt lat="42.99255" lon="-0.19798">
        <ele>1359.47</ele>
        <time>2017-07-31T10:24:45Z</time>
      </trkpt>
      <trkpt lat="42.99255" lon="-0.19807">
        <ele>1359.76</ele>
        <time>2017-07-31T10:24:46Z</time>
      </trkpt>
      <trkpt lat="42.99255" lon="-0.19815">
        <ele>1360.05</ele>
        <time>2017-07-31T10:24:47Z</time>
      </trkpt>
      <trkpt lat="42.99253" lon="-0.19824">
        <ele>1360.37</ele>
        <time>2017-07-31T10:24:48Z</time>
      </trkpt>
      <trkpt lat="42.99253" lon="-0.19832">
        <ele>1360.66</ele>
        <time>2017-07-31T10:24:49Z</time>
      </trkpt>
      <trkpt lat="42.99252" lon="-0.1984">
        <ele>1360.95</ele>
        <time>2017-07-31T10:24:50Z</time>
      </trkpt>
      <trkpt lat="42.99251" lon="-0.19848">
        <ele>1361.19</ele>
        <time>2017-07-31T10:24:51Z</time>
      </trkpt>
      <trkpt lat="42.99249" lon="-0.19855">
        <ele>1361.45</ele>
        <time>2017-07-31T10:24:52Z</time>
      </trkpt>
      <trkpt lat="42.99247" lon="-0.19863">
        <ele>1361.67</ele>
        <time>2017-07-31T10:24:53Z</time>
      </trkpt>
      <trkpt lat="42.99246" lon="-0.19871">
        <ele>1361.65</ele>
        <time>2017-07-31T10:24:54Z</time>
      </trkpt>
      <trkpt lat="42.99243" lon="-0.19879">
        <ele>1361.51</ele>
        <time>2017-07-31T10:24:55Z</time>
      </trkpt>
      <trkpt lat="42.99241" lon="-0.19886">
        <ele>1361.38</ele>
        <time>2017-07-31T10:24:56Z</time>
      </trkpt>
      <trkpt lat="42.99239" lon="-0.19894">
        <ele>1361.18</ele>
        <time>2017-07-31T10:24:57Z</time>
      </trkpt>
      <trkpt lat="42.99236" lon="-0.19902">
        <ele>1360.91</ele>
        <time>2017-07-31T10:24:58Z</time>
      </trkpt>
      <trkpt lat="42.99232" lon="-0.19909">
        <ele>1360.49</ele>
        <time>2017-07-31T10:24:59Z</time>
      </trkpt>
      <trkpt lat="42.99228" lon="-0.19915">
        <ele>1359.91</ele>
        <time>2017-07-31T10:25:00Z</time>
      </trkpt>
      <trkpt lat="42.99223" lon="-0.19922">
        <ele>1359.3</ele>
        <time>2017-07-31T10:25:01Z</time>
      </trkpt>
      <trkpt lat="42.99219" lon="-0.19929">
        <ele>1358.67</ele>
        <time>2017-07-31T10:25:02Z</time>
      </trkpt>
      <trkpt lat="42.99215" lon="-0.19937">
        <ele>1358.02</ele>
        <time>2017-07-31T10:25:03Z</time>
      </trkpt>
      <trkpt lat="42.99212" lon="-0.19944">
        <ele>1357.35</ele>
        <time>2017-07-31T10:25:04Z</time>
      </trkpt>
      <trkpt lat="42.99208" lon="-0.19951">
        <ele>1356.71</ele>
        <time>2017-07-31T10:25:05Z</time>
      </trkpt>
      <trkpt lat="42.99205" lon="-0.19959">
        <ele>1356.22</ele>
        <time>2017-07-31T10:25:06Z</time>
      </trkpt>
      <trkpt lat="42.99201" lon="-0.19967">
        <ele>1355.83</ele>
        <time>2017-07-31T10:25:07Z</time>
      </trkpt>
      <trkpt lat="42.99198" lon="-0.19974">
        <ele>1355.38</ele>
        <time>2017-07-31T10:25:08Z</time>
      </trkpt>
      <trkpt lat="42.99195" lon="-0.19981">
        <ele>1355.02</ele>
        <time>2017-07-31T10:25:09Z</time>
      </trkpt>
      <trkpt lat="42.99193" lon="-0.19989">
        <ele>1354.82</ele>
        <time>2017-07-31T10:25:10Z</time>
      </trkpt>
      <trkpt lat="42.99192" lon="-0.19996">
        <ele>1354.63</ele>
        <time>2017-07-31T10:25:11Z</time>
      </trkpt>
      <trkpt lat="42.9919" lon="-0.20005">
        <ele>1354.6</ele>
        <time>2017-07-31T10:25:12Z</time>
      </trkpt>
      <trkpt lat="42.99189" lon="-0.20012">
        <ele>1354.83</ele>
        <time>2017-07-31T10:25:13Z</time>
      </trkpt>
      <trkpt lat="42.99188" lon="-0.20019">
        <ele>1355.04</ele>
        <time>2017-07-31T10:25:14Z</time>
      </trkpt>
      <trkpt lat="42.99186" lon="-0.20027">
        <ele>1355.26</ele>
        <time>2017-07-31T10:25:15Z</time>
      </trkpt>
      <trkpt lat="42.99185" lon="-0.20036">
        <ele>1355.45</ele>
        <time>2017-07-31T10:25:16Z</time>
      </trkpt>
      <trkpt lat="42.99184" lon="-0.20045">
        <ele>1355.81</ele>
        <time>2017-07-31T10:25:17Z</time>
      </trkpt>
      <trkpt lat="42.99183" lon="-0.20053">
        <ele>1356.27</ele>
        <time>2017-07-31T10:25:18Z</time>
      </trkpt>
      <trkpt lat="42.99183" lon="-0.20061">
        <ele>1356.75</ele>
        <time>2017-07-31T10:25:19Z</time>
      </trkpt>
      <trkpt lat="42.99182" lon="-0.20069">
        <ele>1357.06</ele>
        <time>2017-07-31T10:25:20Z</time>
      </trkpt>
      <trkpt lat="42.99183" lon="-0.20078">
        <ele>1357.3</ele>
        <time>2017-07-31T10:25:21Z</time>
      </trkpt>
      <trkpt lat="42.99183" lon="-0.20086">
        <ele>1357.47</ele>
        <time>2017-07-31T10:25:22Z</time>
      </trkpt>
      <trkpt lat="42.99184" lon="-0.20094">
        <ele>1357.63</ele>
        <time>2017-07-31T10:25:23Z</time>
      </trkpt>
      <trkpt lat="42.99185" lon="-0.20102">
        <ele>1357.82</ele>
        <time>2017-07-31T10:25:24Z</time>
      </trkpt>
      <trkpt lat="42.99187" lon="-0.2011">
        <ele>1358.07</ele>
        <time>2017-07-31T10:25:25Z</time>
      </trkpt>
      <trkpt lat="42.99189" lon="-0.20117">
        <ele>1358.35</ele>
        <time>2017-07-31T10:25:26Z</time>
      </trkpt>
      <trkpt lat="42.99191" lon="-0.20124">
        <ele>1358.71</ele>
        <time>2017-07-31T10:25:27Z</time>
      </trkpt>
      <trkpt lat="42.99192" lon="-0.2013">
        <ele>1359.07</ele>
        <time>2017-07-31T10:25:28Z</time>
      </trkpt>
      <trkpt lat="42.99194" lon="-0.20137">
        <ele>1359.41</ele>
        <time>2017-07-31T10:25:29Z</time>
      </trkpt>
      <trkpt lat="42.99195" lon="-0.20143">
        <ele>1359.75</ele>
        <time>2017-07-31T10:25:30Z</time>
      </trkpt>
      <trkpt lat="42.99195" lon="-0.2015">
        <ele>1360.07</ele>
        <time>2017-07-31T10:25:31Z</time>
      </trkpt>
      <trkpt lat="42.99195" lon="-0.20162">
        <ele>1360.59</ele>
        <time>2017-07-31T10:25:33Z</time>
      </trkpt>
      <trkpt lat="42.99194" lon="-0.20168">
        <ele>1360.85</ele>
        <time>2017-07-31T10:25:34Z</time>
      </trkpt>
      <trkpt lat="42.99193" lon="-0.20174">
        <ele>1361.1</ele>
        <time>2017-07-31T10:25:35Z</time>
      </trkpt>
      <trkpt lat="42.99191" lon="-0.2018">
        <ele>1361.34</ele>
        <time>2017-07-31T10:25:36Z</time>
      </trkpt>
      <trkpt lat="42.99189" lon="-0.20186">
        <ele>1361.57</ele>
        <time>2017-07-31T10:25:37Z</time>
      </trkpt>
      <trkpt lat="42.99185" lon="-0.20196">
        <ele>1361.9</ele>
        <time>2017-07-31T10:25:39Z</time>
      </trkpt>
      <trkpt lat="42.9918" lon="-0.20205">
        <ele>1362.13</ele>
        <time>2017-07-31T10:25:41Z</time>
      </trkpt>
      <trkpt lat="42.99176" lon="-0.20215">
        <ele>1362.39</ele>
        <time>2017-07-31T10:25:43Z</time>
      </trkpt>
      <trkpt lat="42.99173" lon="-0.2022">
        <ele>1362.58</ele>
        <time>2017-07-31T10:25:44Z</time>
      </trkpt>
      <trkpt lat="42.99168" lon="-0.2023">
        <ele>1362.99</ele>
        <time>2017-07-31T10:25:46Z</time>
      </trkpt>
      <trkpt lat="42.99162" lon="-0.2024">
        <ele>1363.48</ele>
        <time>2017-07-31T10:25:48Z</time>
      </trkpt>
      <trkpt lat="42.99157" lon="-0.20249">
        <ele>1364</ele>
        <time>2017-07-31T10:25:50Z</time>
      </trkpt>
      <trkpt lat="42.99153" lon="-0.20258">
        <ele>1364.37</ele>
        <time>2017-07-31T10:25:52Z</time>
      </trkpt>
      <trkpt lat="42.99149" lon="-0.20264">
        <ele>1364.46</ele>
        <time>2017-07-31T10:25:54Z</time>
      </trkpt>
      <trkpt lat="42.99146" lon="-0.2027">
        <ele>1364.53</ele>
        <time>2017-07-31T10:25:56Z</time>
      </trkpt>
      <trkpt lat="42.99143" lon="-0.20276">
        <ele>1364.65</ele>
        <time>2017-07-31T10:25:59Z</time>
      </trkpt>
      <trkpt lat="42.99138" lon="-0.20282">
        <ele>1364.78</ele>
        <time>2017-07-31T10:26:02Z</time>
      </trkpt>
      <trkpt lat="42.99135" lon="-0.20289">
        <ele>1364.89</ele>
        <time>2017-07-31T10:26:04Z</time>
      </trkpt>
      <trkpt lat="42.99133" lon="-0.20297">
        <ele>1364.98</ele>
        <time>2017-07-31T10:26:06Z</time>
      </trkpt>
      <trkpt lat="42.99131" lon="-0.20305">
        <ele>1365.12</ele>
        <time>2017-07-31T10:26:08Z</time>
      </trkpt>
      <trkpt lat="42.99128" lon="-0.20314">
        <ele>1365.26</ele>
        <time>2017-07-31T10:26:10Z</time>
      </trkpt>
      <trkpt lat="42.99126" lon="-0.2032">
        <ele>1365.42</ele>
        <time>2017-07-31T10:26:12Z</time>
      </trkpt>
      <trkpt lat="42.99124" lon="-0.20328">
        <ele>1365.7</ele>
        <time>2017-07-31T10:26:15Z</time>
      </trkpt>
      <trkpt lat="42.99122" lon="-0.20334">
        <ele>1365.91</ele>
        <time>2017-07-31T10:26:17Z</time>
      </trkpt>
      <trkpt lat="42.99124" lon="-0.20341">
        <ele>1366.23</ele>
        <time>2017-07-31T10:26:20Z</time>
      </trkpt>
      <trkpt lat="42.99131" lon="-0.20342">
        <ele>1366.48</ele>
        <time>2017-07-31T10:26:23Z</time>
      </trkpt>
      <trkpt lat="42.99133" lon="-0.20349">
        <ele>1367.35</ele>
        <time>2017-07-31T10:26:40Z</time>
      </trkpt>
      <trkpt lat="42.99131" lon="-0.20357">
        <ele>1367.44</ele>
        <time>2017-07-31T10:26:47Z</time>
      </trkpt>
      <trkpt lat="42.99128" lon="-0.20364">
        <ele>1367.75</ele>
        <time>2017-07-31T10:26:57Z</time>
      </trkpt>
      <trkpt lat="42.9913" lon="-0.20358">
        <ele>1368.45</ele>
        <time>2017-07-31T10:27:10Z</time>
      </trkpt>
      <trkpt lat="42.99132" lon="-0.20352">
        <ele>1368.73</ele>
        <time>2017-07-31T10:27:21Z</time>
      </trkpt>
      <trkpt lat="42.99129" lon="-0.20359">
        <ele>1369.07</ele>
        <time>2017-07-31T10:27:38Z</time>
      </trkpt>
      <trkpt lat="42.99131" lon="-0.20353">
        <ele>1373.09</ele>
        <time>2017-07-31T10:28:46Z</time>
      </trkpt>
      <trkpt lat="42.99133" lon="-0.20348">
        <ele>1373.49</ele>
        <time>2017-07-31T10:29:06Z</time>
      </trkpt>
    </trkseg>
  </trk>
</gpx>